<?xml version="1.0" encoding="UTF-8" standalone="no" ?>
<gpx xmlns="http://www.topografix.com/GPX/1/1" xmlns:xsi="http://www.w3.org/2001/XMLSchema-instance" xsi:schemaLocation="http://www.topografix.com/GPX/1/1 http://www.topografix.com/GPX/1/1/gpx.xsd" version="1.1" creator="VisuGPX - https://www.visugpx.com">
  <metadata>
    <name>2018-01-12 Bike ride-Ambérieux-Rancé O 36km</name>
    <desc><![CDATA[2018-01-12 Bike ride-Ambérieux-Rancé O 36km]]></desc>
  </metadata>
  <wpt lat="45.92448" lon="4.73705">
    <ele>174</ele>
    <name><![CDATA[2018-01-12 10:30 (Start)]]></name>
  </wpt>
  <wpt lat="45.92463" lon="4.73712">
    <ele>174</ele>
    <name><![CDATA[2018-01-12 10:30 (End)]]></name>
    <desc><![CDATA[Created by Google My Tracks on Android  Name: 2018-01-12 10:30 Activity type: biking Description: - Total distance: 35.29 km (21.9 mi) Total time: 1:59:06 Moving time: 1:48:35 Average speed: 17.78 km/h (11.0 mi/h) Average moving speed: 19.50 km/h (12.1 mi/h) Max speed: 50.87 km/h (31.6 mi/h) Average pace: 3:23 min/km (5:26 min/mi) Average moving pace: 3:05 min/km (4:57 min/mi) Fastest pace: 1:11 min/km (1:54 min/mi) Max elevation: 340 m (1116 ft) Min elevation: 218 m (717 ft) Elevation gain: 343 m (1126 ft) Max grade: 10 % Min grade: -8 % Recorded: 12/01/2018 10:30]]></desc>
  </wpt>
  <trk>
    <name><![CDATA[2018-01-12 10:30]]></name>
    <trkseg>
      <trkpt lat="45.92448" lon="4.73705">
        <ele>174</ele>
        <time>2018-01-12T09:30:26.203Z</time>
      </trkpt>
      <trkpt lat="45.92449" lon="4.73725">
        <ele>174</ele>
        <time>2018-01-12T09:30:30.612Z</time>
      </trkpt>
      <trkpt lat="45.92453" lon="4.73718">
        <ele>174</ele>
        <time>2018-01-12T09:30:31.612Z</time>
      </trkpt>
      <trkpt lat="45.92459" lon="4.73719">
        <ele>174</ele>
        <time>2018-01-12T09:30:32.608Z</time>
      </trkpt>
      <trkpt lat="45.92459" lon="4.73715">
        <ele>174</ele>
        <time>2018-01-12T09:30:33.608Z</time>
      </trkpt>
      <trkpt lat="45.92463" lon="4.73715">
        <ele>174</ele>
        <time>2018-01-12T09:30:34.609Z</time>
      </trkpt>
      <trkpt lat="45.92459" lon="4.73715">
        <ele>174</ele>
        <time>2018-01-12T09:30:37.607Z</time>
      </trkpt>
      <trkpt lat="45.92462" lon="4.73714">
        <ele>174</ele>
        <time>2018-01-12T09:30:38Z</time>
      </trkpt>
      <trkpt lat="45.92464" lon="4.73711">
        <ele>174</ele>
        <time>2018-01-12T09:30:46Z</time>
      </trkpt>
      <trkpt lat="45.92465" lon="4.73711">
        <ele>174</ele>
        <time>2018-01-12T09:30:47Z</time>
      </trkpt>
      <trkpt lat="45.92462" lon="4.73714">
        <ele>174</ele>
        <time>2018-01-12T09:30:59Z</time>
      </trkpt>
      <trkpt lat="45.92462" lon="4.73714">
        <ele>174</ele>
        <time>2018-01-12T09:31:00Z</time>
      </trkpt>
      <trkpt lat="45.92465" lon="4.73704">
        <ele>174</ele>
        <time>2018-01-12T09:31:06Z</time>
      </trkpt>
      <trkpt lat="45.92466" lon="4.73701">
        <ele>174</ele>
        <time>2018-01-12T09:31:07Z</time>
      </trkpt>
      <trkpt lat="45.92466" lon="4.73691">
        <ele>174</ele>
        <time>2018-01-12T09:31:10Z</time>
      </trkpt>
      <trkpt lat="45.92466" lon="4.73687">
        <ele>174</ele>
        <time>2018-01-12T09:31:11Z</time>
      </trkpt>
      <trkpt lat="45.92467" lon="4.73678">
        <ele>174</ele>
        <time>2018-01-12T09:31:13Z</time>
      </trkpt>
      <trkpt lat="45.92469" lon="4.73674">
        <ele>174</ele>
        <time>2018-01-12T09:31:14Z</time>
      </trkpt>
      <trkpt lat="45.92471" lon="4.73664">
        <ele>174</ele>
        <time>2018-01-12T09:31:16Z</time>
      </trkpt>
      <trkpt lat="45.92472" lon="4.73659">
        <ele>174</ele>
        <time>2018-01-12T09:31:17Z</time>
      </trkpt>
      <trkpt lat="45.92473" lon="4.73647">
        <ele>174</ele>
        <time>2018-01-12T09:31:19Z</time>
      </trkpt>
      <trkpt lat="45.92473" lon="4.73641">
        <ele>174</ele>
        <time>2018-01-12T09:31:20Z</time>
      </trkpt>
      <trkpt lat="45.92471" lon="4.7363">
        <ele>174</ele>
        <time>2018-01-12T09:31:22Z</time>
      </trkpt>
      <trkpt lat="45.9247" lon="4.73624">
        <ele>174</ele>
        <time>2018-01-12T09:31:23Z</time>
      </trkpt>
      <trkpt lat="45.92471" lon="4.73617">
        <ele>174</ele>
        <time>2018-01-12T09:31:24Z</time>
      </trkpt>
      <trkpt lat="45.92469" lon="4.73611">
        <ele>174</ele>
        <time>2018-01-12T09:31:25Z</time>
      </trkpt>
      <trkpt lat="45.9247" lon="4.73604">
        <ele>174</ele>
        <time>2018-01-12T09:31:26Z</time>
      </trkpt>
      <trkpt lat="45.92469" lon="4.73597">
        <ele>174</ele>
        <time>2018-01-12T09:31:27Z</time>
      </trkpt>
      <trkpt lat="45.92469" lon="4.7359">
        <ele>174</ele>
        <time>2018-01-12T09:31:28Z</time>
      </trkpt>
      <trkpt lat="45.92469" lon="4.73584">
        <ele>174</ele>
        <time>2018-01-12T09:31:29Z</time>
      </trkpt>
      <trkpt lat="45.92467" lon="4.73572">
        <ele>173</ele>
        <time>2018-01-12T09:31:31Z</time>
      </trkpt>
      <trkpt lat="45.92466" lon="4.73566">
        <ele>173</ele>
        <time>2018-01-12T09:31:32Z</time>
      </trkpt>
      <trkpt lat="45.92466" lon="4.73555">
        <ele>173</ele>
        <time>2018-01-12T09:31:34Z</time>
      </trkpt>
      <trkpt lat="45.92467" lon="4.7355">
        <ele>173</ele>
        <time>2018-01-12T09:31:35Z</time>
      </trkpt>
      <trkpt lat="45.92467" lon="4.73537">
        <ele>174</ele>
        <time>2018-01-12T09:31:38Z</time>
      </trkpt>
      <trkpt lat="45.92467" lon="4.73532">
        <ele>174</ele>
        <time>2018-01-12T09:31:39Z</time>
      </trkpt>
      <trkpt lat="45.92467" lon="4.73525">
        <ele>174</ele>
        <time>2018-01-12T09:31:40Z</time>
      </trkpt>
      <trkpt lat="45.92468" lon="4.73519">
        <ele>174</ele>
        <time>2018-01-12T09:31:41Z</time>
      </trkpt>
      <trkpt lat="45.92467" lon="4.73512">
        <ele>174</ele>
        <time>2018-01-12T09:31:42Z</time>
      </trkpt>
      <trkpt lat="45.92467" lon="4.73505">
        <ele>174</ele>
        <time>2018-01-12T09:31:43Z</time>
      </trkpt>
      <trkpt lat="45.92468" lon="4.73497">
        <ele>173</ele>
        <time>2018-01-12T09:31:44Z</time>
      </trkpt>
      <trkpt lat="45.92467" lon="4.73489">
        <ele>173</ele>
        <time>2018-01-12T09:31:45Z</time>
      </trkpt>
      <trkpt lat="45.92468" lon="4.73482">
        <ele>173</ele>
        <time>2018-01-12T09:31:46Z</time>
      </trkpt>
      <trkpt lat="45.92467" lon="4.73476">
        <ele>173</ele>
        <time>2018-01-12T09:31:47Z</time>
      </trkpt>
      <trkpt lat="45.92466" lon="4.73463">
        <ele>173</ele>
        <time>2018-01-12T09:31:49Z</time>
      </trkpt>
      <trkpt lat="45.92465" lon="4.73458">
        <ele>173</ele>
        <time>2018-01-12T09:31:50Z</time>
      </trkpt>
      <trkpt lat="45.92464" lon="4.73452">
        <ele>173</ele>
        <time>2018-01-12T09:31:51Z</time>
      </trkpt>
      <trkpt lat="45.92462" lon="4.73446">
        <ele>173</ele>
        <time>2018-01-12T09:31:52Z</time>
      </trkpt>
      <trkpt lat="45.9246" lon="4.73439">
        <ele>173</ele>
        <time>2018-01-12T09:31:53Z</time>
      </trkpt>
      <trkpt lat="45.92457" lon="4.73434">
        <ele>173</ele>
        <time>2018-01-12T09:31:54Z</time>
      </trkpt>
      <trkpt lat="45.92455" lon="4.73429">
        <ele>173</ele>
        <time>2018-01-12T09:31:55Z</time>
      </trkpt>
      <trkpt lat="45.9245" lon="4.73425">
        <ele>173</ele>
        <time>2018-01-12T09:31:56Z</time>
      </trkpt>
      <trkpt lat="45.92444" lon="4.7342">
        <ele>173</ele>
        <time>2018-01-12T09:31:58Z</time>
      </trkpt>
      <trkpt lat="45.92439" lon="4.73417">
        <ele>173</ele>
        <time>2018-01-12T09:31:59Z</time>
      </trkpt>
      <trkpt lat="45.92435" lon="4.73415">
        <ele>172</ele>
        <time>2018-01-12T09:32:00Z</time>
      </trkpt>
      <trkpt lat="45.9243" lon="4.73409">
        <ele>172</ele>
        <time>2018-01-12T09:32:01Z</time>
      </trkpt>
      <trkpt lat="45.92427" lon="4.73403">
        <ele>172</ele>
        <time>2018-01-12T09:32:02Z</time>
      </trkpt>
      <trkpt lat="45.92425" lon="4.73396">
        <ele>172</ele>
        <time>2018-01-12T09:32:03Z</time>
      </trkpt>
      <trkpt lat="45.92424" lon="4.73389">
        <ele>172</ele>
        <time>2018-01-12T09:32:04Z</time>
      </trkpt>
      <trkpt lat="45.92422" lon="4.73382">
        <ele>172</ele>
        <time>2018-01-12T09:32:05Z</time>
      </trkpt>
      <trkpt lat="45.92421" lon="4.73375">
        <ele>172</ele>
        <time>2018-01-12T09:32:06Z</time>
      </trkpt>
      <trkpt lat="45.9242" lon="4.73369">
        <ele>172</ele>
        <time>2018-01-12T09:32:07Z</time>
      </trkpt>
      <trkpt lat="45.92421" lon="4.73362">
        <ele>172</ele>
        <time>2018-01-12T09:32:08Z</time>
      </trkpt>
      <trkpt lat="45.9242" lon="4.73354">
        <ele>171</ele>
        <time>2018-01-12T09:32:09Z</time>
      </trkpt>
      <trkpt lat="45.9242" lon="4.73347">
        <ele>171</ele>
        <time>2018-01-12T09:32:10Z</time>
      </trkpt>
      <trkpt lat="45.92419" lon="4.7334">
        <ele>171</ele>
        <time>2018-01-12T09:32:11Z</time>
      </trkpt>
      <trkpt lat="45.92417" lon="4.73333">
        <ele>171</ele>
        <time>2018-01-12T09:32:12Z</time>
      </trkpt>
      <trkpt lat="45.92416" lon="4.73326">
        <ele>171</ele>
        <time>2018-01-12T09:32:13Z</time>
      </trkpt>
      <trkpt lat="45.92415" lon="4.73318">
        <ele>171</ele>
        <time>2018-01-12T09:32:14Z</time>
      </trkpt>
      <trkpt lat="45.92414" lon="4.73311">
        <ele>171</ele>
        <time>2018-01-12T09:32:15Z</time>
      </trkpt>
      <trkpt lat="45.92413" lon="4.73304">
        <ele>171</ele>
        <time>2018-01-12T09:32:16Z</time>
      </trkpt>
      <trkpt lat="45.92414" lon="4.73296">
        <ele>171</ele>
        <time>2018-01-12T09:32:17Z</time>
      </trkpt>
      <trkpt lat="45.92413" lon="4.73287">
        <ele>171</ele>
        <time>2018-01-12T09:32:18Z</time>
      </trkpt>
      <trkpt lat="45.92412" lon="4.73279">
        <ele>171</ele>
        <time>2018-01-12T09:32:19Z</time>
      </trkpt>
      <trkpt lat="45.92411" lon="4.73272">
        <ele>171</ele>
        <time>2018-01-12T09:32:20Z</time>
      </trkpt>
      <trkpt lat="45.92411" lon="4.73265">
        <ele>171</ele>
        <time>2018-01-12T09:32:21Z</time>
      </trkpt>
      <trkpt lat="45.92411" lon="4.73257">
        <ele>171</ele>
        <time>2018-01-12T09:32:22Z</time>
      </trkpt>
      <trkpt lat="45.9241" lon="4.73249">
        <ele>171</ele>
        <time>2018-01-12T09:32:23Z</time>
      </trkpt>
      <trkpt lat="45.92409" lon="4.73241">
        <ele>171</ele>
        <time>2018-01-12T09:32:24Z</time>
      </trkpt>
      <trkpt lat="45.92409" lon="4.73234">
        <ele>171</ele>
        <time>2018-01-12T09:32:25Z</time>
      </trkpt>
      <trkpt lat="45.92408" lon="4.73226">
        <ele>171</ele>
        <time>2018-01-12T09:32:26Z</time>
      </trkpt>
      <trkpt lat="45.92408" lon="4.73218">
        <ele>171</ele>
        <time>2018-01-12T09:32:27Z</time>
      </trkpt>
      <trkpt lat="45.92408" lon="4.73211">
        <ele>171</ele>
        <time>2018-01-12T09:32:28Z</time>
      </trkpt>
      <trkpt lat="45.92407" lon="4.73203">
        <ele>171</ele>
        <time>2018-01-12T09:32:29Z</time>
      </trkpt>
      <trkpt lat="45.92408" lon="4.73193">
        <ele>171</ele>
        <time>2018-01-12T09:32:30Z</time>
      </trkpt>
      <trkpt lat="45.92407" lon="4.73185">
        <ele>171</ele>
        <time>2018-01-12T09:32:31Z</time>
      </trkpt>
      <trkpt lat="45.92407" lon="4.73179">
        <ele>171</ele>
        <time>2018-01-12T09:32:32Z</time>
      </trkpt>
      <trkpt lat="45.92407" lon="4.73172">
        <ele>170</ele>
        <time>2018-01-12T09:32:33Z</time>
      </trkpt>
      <trkpt lat="45.92407" lon="4.73165">
        <ele>170</ele>
        <time>2018-01-12T09:32:34Z</time>
      </trkpt>
      <trkpt lat="45.92407" lon="4.73158">
        <ele>170</ele>
        <time>2018-01-12T09:32:35Z</time>
      </trkpt>
      <trkpt lat="45.92408" lon="4.73151">
        <ele>171</ele>
        <time>2018-01-12T09:32:36Z</time>
      </trkpt>
      <trkpt lat="45.92408" lon="4.73145">
        <ele>171</ele>
        <time>2018-01-12T09:32:37Z</time>
      </trkpt>
      <trkpt lat="45.92408" lon="4.73133">
        <ele>171</ele>
        <time>2018-01-12T09:32:39Z</time>
      </trkpt>
      <trkpt lat="45.92409" lon="4.73127">
        <ele>171</ele>
        <time>2018-01-12T09:32:40Z</time>
      </trkpt>
      <trkpt lat="45.92412" lon="4.7312">
        <ele>171</ele>
        <time>2018-01-12T09:32:41Z</time>
      </trkpt>
      <trkpt lat="45.92415" lon="4.73115">
        <ele>171</ele>
        <time>2018-01-12T09:32:42Z</time>
      </trkpt>
      <trkpt lat="45.92419" lon="4.7311">
        <ele>170</ele>
        <time>2018-01-12T09:32:43Z</time>
      </trkpt>
      <trkpt lat="45.92423" lon="4.73106">
        <ele>171</ele>
        <time>2018-01-12T09:32:44Z</time>
      </trkpt>
      <trkpt lat="45.92428" lon="4.73103">
        <ele>171</ele>
        <time>2018-01-12T09:32:45Z</time>
      </trkpt>
      <trkpt lat="45.92432" lon="4.73099">
        <ele>171</ele>
        <time>2018-01-12T09:32:46Z</time>
      </trkpt>
      <trkpt lat="45.92437" lon="4.73095">
        <ele>171</ele>
        <time>2018-01-12T09:32:47Z</time>
      </trkpt>
      <trkpt lat="45.92442" lon="4.73091">
        <ele>170</ele>
        <time>2018-01-12T09:32:48Z</time>
      </trkpt>
      <trkpt lat="45.92446" lon="4.73087">
        <ele>170</ele>
        <time>2018-01-12T09:32:49Z</time>
      </trkpt>
      <trkpt lat="45.92451" lon="4.73084">
        <ele>170</ele>
        <time>2018-01-12T09:32:50Z</time>
      </trkpt>
      <trkpt lat="45.92456" lon="4.73079">
        <ele>170</ele>
        <time>2018-01-12T09:32:51Z</time>
      </trkpt>
      <trkpt lat="45.92461" lon="4.73076">
        <ele>170</ele>
        <time>2018-01-12T09:32:52Z</time>
      </trkpt>
      <trkpt lat="45.92466" lon="4.73072">
        <ele>170</ele>
        <time>2018-01-12T09:32:53Z</time>
      </trkpt>
      <trkpt lat="45.92471" lon="4.73068">
        <ele>170</ele>
        <time>2018-01-12T09:32:54Z</time>
      </trkpt>
      <trkpt lat="45.92476" lon="4.73064">
        <ele>170</ele>
        <time>2018-01-12T09:32:55Z</time>
      </trkpt>
      <trkpt lat="45.92481" lon="4.73059">
        <ele>170</ele>
        <time>2018-01-12T09:32:56Z</time>
      </trkpt>
      <trkpt lat="45.92485" lon="4.73056">
        <ele>170</ele>
        <time>2018-01-12T09:32:57Z</time>
      </trkpt>
      <trkpt lat="45.9249" lon="4.73051">
        <ele>170</ele>
        <time>2018-01-12T09:32:58Z</time>
      </trkpt>
      <trkpt lat="45.92495" lon="4.73047">
        <ele>170</ele>
        <time>2018-01-12T09:32:59Z</time>
      </trkpt>
      <trkpt lat="45.925" lon="4.73043">
        <ele>170</ele>
        <time>2018-01-12T09:33:00Z</time>
      </trkpt>
      <trkpt lat="45.92504" lon="4.73039">
        <ele>169</ele>
        <time>2018-01-12T09:33:01Z</time>
      </trkpt>
      <trkpt lat="45.92508" lon="4.73036">
        <ele>169</ele>
        <time>2018-01-12T09:33:02Z</time>
      </trkpt>
      <trkpt lat="45.92513" lon="4.73032">
        <ele>169</ele>
        <time>2018-01-12T09:33:03Z</time>
      </trkpt>
      <trkpt lat="45.92517" lon="4.73028">
        <ele>169</ele>
        <time>2018-01-12T09:33:04Z</time>
      </trkpt>
      <trkpt lat="45.92521" lon="4.73024">
        <ele>169</ele>
        <time>2018-01-12T09:33:05Z</time>
      </trkpt>
      <trkpt lat="45.92526" lon="4.7302">
        <ele>169</ele>
        <time>2018-01-12T09:33:06Z</time>
      </trkpt>
      <trkpt lat="45.9253" lon="4.73016">
        <ele>169</ele>
        <time>2018-01-12T09:33:07Z</time>
      </trkpt>
      <trkpt lat="45.92535" lon="4.73013">
        <ele>169</ele>
        <time>2018-01-12T09:33:08Z</time>
      </trkpt>
      <trkpt lat="45.9254" lon="4.73008">
        <ele>169</ele>
        <time>2018-01-12T09:33:09Z</time>
      </trkpt>
      <trkpt lat="45.92544" lon="4.73002">
        <ele>169</ele>
        <time>2018-01-12T09:33:10Z</time>
      </trkpt>
      <trkpt lat="45.92549" lon="4.72997">
        <ele>169</ele>
        <time>2018-01-12T09:33:11Z</time>
      </trkpt>
      <trkpt lat="45.92553" lon="4.72993">
        <ele>169</ele>
        <time>2018-01-12T09:33:12Z</time>
      </trkpt>
      <trkpt lat="45.92557" lon="4.72988">
        <ele>169</ele>
        <time>2018-01-12T09:33:13Z</time>
      </trkpt>
      <trkpt lat="45.92561" lon="4.72984">
        <ele>169</ele>
        <time>2018-01-12T09:33:14Z</time>
      </trkpt>
      <trkpt lat="45.92565" lon="4.72979">
        <ele>169</ele>
        <time>2018-01-12T09:33:15Z</time>
      </trkpt>
      <trkpt lat="45.9257" lon="4.72974">
        <ele>169</ele>
        <time>2018-01-12T09:33:16Z</time>
      </trkpt>
      <trkpt lat="45.92574" lon="4.72969">
        <ele>169</ele>
        <time>2018-01-12T09:33:17Z</time>
      </trkpt>
      <trkpt lat="45.92579" lon="4.72965">
        <ele>169</ele>
        <time>2018-01-12T09:33:18Z</time>
      </trkpt>
      <trkpt lat="45.92583" lon="4.72961">
        <ele>169</ele>
        <time>2018-01-12T09:33:19Z</time>
      </trkpt>
      <trkpt lat="45.92587" lon="4.72956">
        <ele>169</ele>
        <time>2018-01-12T09:33:20Z</time>
      </trkpt>
      <trkpt lat="45.92591" lon="4.72951">
        <ele>169</ele>
        <time>2018-01-12T09:33:21Z</time>
      </trkpt>
      <trkpt lat="45.92595" lon="4.72947">
        <ele>169</ele>
        <time>2018-01-12T09:33:22Z</time>
      </trkpt>
      <trkpt lat="45.92599" lon="4.72942">
        <ele>169</ele>
        <time>2018-01-12T09:33:23Z</time>
      </trkpt>
      <trkpt lat="45.92604" lon="4.72937">
        <ele>169</ele>
        <time>2018-01-12T09:33:24Z</time>
      </trkpt>
      <trkpt lat="45.92608" lon="4.72934">
        <ele>169</ele>
        <time>2018-01-12T09:33:25Z</time>
      </trkpt>
      <trkpt lat="45.92612" lon="4.72928">
        <ele>169</ele>
        <time>2018-01-12T09:33:26Z</time>
      </trkpt>
      <trkpt lat="45.92617" lon="4.72924">
        <ele>169</ele>
        <time>2018-01-12T09:33:27Z</time>
      </trkpt>
      <trkpt lat="45.92621" lon="4.7292">
        <ele>169</ele>
        <time>2018-01-12T09:33:28Z</time>
      </trkpt>
      <trkpt lat="45.92626" lon="4.72917">
        <ele>170</ele>
        <time>2018-01-12T09:33:29Z</time>
      </trkpt>
      <trkpt lat="45.9263" lon="4.72912">
        <ele>169</ele>
        <time>2018-01-12T09:33:30Z</time>
      </trkpt>
      <trkpt lat="45.92634" lon="4.72908">
        <ele>169</ele>
        <time>2018-01-12T09:33:31Z</time>
      </trkpt>
      <trkpt lat="45.9264" lon="4.72905">
        <ele>169</ele>
        <time>2018-01-12T09:33:32Z</time>
      </trkpt>
      <trkpt lat="45.92645" lon="4.72902">
        <ele>169</ele>
        <time>2018-01-12T09:33:33Z</time>
      </trkpt>
      <trkpt lat="45.9265" lon="4.72898">
        <ele>169</ele>
        <time>2018-01-12T09:33:34Z</time>
      </trkpt>
      <trkpt lat="45.92655" lon="4.72894">
        <ele>169</ele>
        <time>2018-01-12T09:33:35Z</time>
      </trkpt>
      <trkpt lat="45.92661" lon="4.7289">
        <ele>169</ele>
        <time>2018-01-12T09:33:36Z</time>
      </trkpt>
      <trkpt lat="45.92666" lon="4.72885">
        <ele>169</ele>
        <time>2018-01-12T09:33:37Z</time>
      </trkpt>
      <trkpt lat="45.92671" lon="4.72881">
        <ele>170</ele>
        <time>2018-01-12T09:33:38Z</time>
      </trkpt>
      <trkpt lat="45.92675" lon="4.72877">
        <ele>170</ele>
        <time>2018-01-12T09:33:39Z</time>
      </trkpt>
      <trkpt lat="45.9268" lon="4.72874">
        <ele>169</ele>
        <time>2018-01-12T09:33:40Z</time>
      </trkpt>
      <trkpt lat="45.92685" lon="4.72871">
        <ele>169</ele>
        <time>2018-01-12T09:33:41Z</time>
      </trkpt>
      <trkpt lat="45.9269" lon="4.72868">
        <ele>169</ele>
        <time>2018-01-12T09:33:42Z</time>
      </trkpt>
      <trkpt lat="45.92696" lon="4.72864">
        <ele>169</ele>
        <time>2018-01-12T09:33:43Z</time>
      </trkpt>
      <trkpt lat="45.927" lon="4.72861">
        <ele>169</ele>
        <time>2018-01-12T09:33:44Z</time>
      </trkpt>
      <trkpt lat="45.92704" lon="4.72857">
        <ele>169</ele>
        <time>2018-01-12T09:33:45Z</time>
      </trkpt>
      <trkpt lat="45.92709" lon="4.72853">
        <ele>169</ele>
        <time>2018-01-12T09:33:46Z</time>
      </trkpt>
      <trkpt lat="45.92714" lon="4.7285">
        <ele>169</ele>
        <time>2018-01-12T09:33:47Z</time>
      </trkpt>
      <trkpt lat="45.92719" lon="4.72845">
        <ele>169</ele>
        <time>2018-01-12T09:33:48Z</time>
      </trkpt>
      <trkpt lat="45.92725" lon="4.72841">
        <ele>169</ele>
        <time>2018-01-12T09:33:49Z</time>
      </trkpt>
      <trkpt lat="45.9273" lon="4.72836">
        <ele>169</ele>
        <time>2018-01-12T09:33:50Z</time>
      </trkpt>
      <trkpt lat="45.92735" lon="4.72832">
        <ele>169</ele>
        <time>2018-01-12T09:33:51Z</time>
      </trkpt>
      <trkpt lat="45.9274" lon="4.72828">
        <ele>169</ele>
        <time>2018-01-12T09:33:52Z</time>
      </trkpt>
      <trkpt lat="45.92745" lon="4.72825">
        <ele>169</ele>
        <time>2018-01-12T09:33:53Z</time>
      </trkpt>
      <trkpt lat="45.92749" lon="4.7282">
        <ele>169</ele>
        <time>2018-01-12T09:33:54Z</time>
      </trkpt>
      <trkpt lat="45.92754" lon="4.72817">
        <ele>170</ele>
        <time>2018-01-12T09:33:55Z</time>
      </trkpt>
      <trkpt lat="45.92758" lon="4.72813">
        <ele>170</ele>
        <time>2018-01-12T09:33:56Z</time>
      </trkpt>
      <trkpt lat="45.92762" lon="4.72809">
        <ele>170</ele>
        <time>2018-01-12T09:33:57Z</time>
      </trkpt>
      <trkpt lat="45.92768" lon="4.72806">
        <ele>170</ele>
        <time>2018-01-12T09:33:58Z</time>
      </trkpt>
      <trkpt lat="45.92773" lon="4.72803">
        <ele>170</ele>
        <time>2018-01-12T09:33:59Z</time>
      </trkpt>
      <trkpt lat="45.92777" lon="4.728">
        <ele>170</ele>
        <time>2018-01-12T09:34:00Z</time>
      </trkpt>
      <trkpt lat="45.92781" lon="4.72797">
        <ele>170</ele>
        <time>2018-01-12T09:34:01Z</time>
      </trkpt>
      <trkpt lat="45.92786" lon="4.72794">
        <ele>170</ele>
        <time>2018-01-12T09:34:02Z</time>
      </trkpt>
      <trkpt lat="45.92791" lon="4.72792">
        <ele>170</ele>
        <time>2018-01-12T09:34:03Z</time>
      </trkpt>
      <trkpt lat="45.92795" lon="4.72791">
        <ele>171</ele>
        <time>2018-01-12T09:34:04Z</time>
      </trkpt>
      <trkpt lat="45.928" lon="4.72796">
        <ele>171</ele>
        <time>2018-01-12T09:34:06Z</time>
      </trkpt>
      <trkpt lat="45.92802" lon="4.72802">
        <ele>171</ele>
        <time>2018-01-12T09:34:07Z</time>
      </trkpt>
      <trkpt lat="45.92804" lon="4.72814">
        <ele>171</ele>
        <time>2018-01-12T09:34:09Z</time>
      </trkpt>
      <trkpt lat="45.92805" lon="4.7282">
        <ele>171</ele>
        <time>2018-01-12T09:34:10Z</time>
      </trkpt>
      <trkpt lat="45.92806" lon="4.72826">
        <ele>171</ele>
        <time>2018-01-12T09:34:11Z</time>
      </trkpt>
      <trkpt lat="45.92806" lon="4.72834">
        <ele>170</ele>
        <time>2018-01-12T09:34:12Z</time>
      </trkpt>
      <trkpt lat="45.92808" lon="4.72842">
        <ele>170</ele>
        <time>2018-01-12T09:34:13Z</time>
      </trkpt>
      <trkpt lat="45.9281" lon="4.72848">
        <ele>170</ele>
        <time>2018-01-12T09:34:14Z</time>
      </trkpt>
      <trkpt lat="45.92812" lon="4.72855">
        <ele>170</ele>
        <time>2018-01-12T09:34:15Z</time>
      </trkpt>
      <trkpt lat="45.92814" lon="4.72862">
        <ele>170</ele>
        <time>2018-01-12T09:34:16Z</time>
      </trkpt>
      <trkpt lat="45.92815" lon="4.72868">
        <ele>170</ele>
        <time>2018-01-12T09:34:17Z</time>
      </trkpt>
      <trkpt lat="45.92817" lon="4.72876">
        <ele>170</ele>
        <time>2018-01-12T09:34:18Z</time>
      </trkpt>
      <trkpt lat="45.92818" lon="4.72883">
        <ele>170</ele>
        <time>2018-01-12T09:34:19Z</time>
      </trkpt>
      <trkpt lat="45.92819" lon="4.72891">
        <ele>170</ele>
        <time>2018-01-12T09:34:20Z</time>
      </trkpt>
      <trkpt lat="45.92819" lon="4.72898">
        <ele>170</ele>
        <time>2018-01-12T09:34:21Z</time>
      </trkpt>
      <trkpt lat="45.9282" lon="4.72905">
        <ele>170</ele>
        <time>2018-01-12T09:34:22Z</time>
      </trkpt>
      <trkpt lat="45.92822" lon="4.72912">
        <ele>170</ele>
        <time>2018-01-12T09:34:23Z</time>
      </trkpt>
      <trkpt lat="45.92823" lon="4.7292">
        <ele>170</ele>
        <time>2018-01-12T09:34:24Z</time>
      </trkpt>
      <trkpt lat="45.92823" lon="4.72928">
        <ele>170</ele>
        <time>2018-01-12T09:34:25Z</time>
      </trkpt>
      <trkpt lat="45.92824" lon="4.72936">
        <ele>170</ele>
        <time>2018-01-12T09:34:26Z</time>
      </trkpt>
      <trkpt lat="45.92825" lon="4.72943">
        <ele>170</ele>
        <time>2018-01-12T09:34:27Z</time>
      </trkpt>
      <trkpt lat="45.92826" lon="4.72952">
        <ele>170</ele>
        <time>2018-01-12T09:34:28Z</time>
      </trkpt>
      <trkpt lat="45.92827" lon="4.7296">
        <ele>170</ele>
        <time>2018-01-12T09:34:29Z</time>
      </trkpt>
      <trkpt lat="45.92828" lon="4.72968">
        <ele>170</ele>
        <time>2018-01-12T09:34:30Z</time>
      </trkpt>
      <trkpt lat="45.92829" lon="4.72975">
        <ele>170</ele>
        <time>2018-01-12T09:34:31Z</time>
      </trkpt>
      <trkpt lat="45.92829" lon="4.72983">
        <ele>170</ele>
        <time>2018-01-12T09:34:32Z</time>
      </trkpt>
      <trkpt lat="45.92831" lon="4.7299">
        <ele>170</ele>
        <time>2018-01-12T09:34:33Z</time>
      </trkpt>
      <trkpt lat="45.92832" lon="4.72999">
        <ele>170</ele>
        <time>2018-01-12T09:34:34Z</time>
      </trkpt>
      <trkpt lat="45.92833" lon="4.73006">
        <ele>170</ele>
        <time>2018-01-12T09:34:35Z</time>
      </trkpt>
      <trkpt lat="45.92834" lon="4.73014">
        <ele>171</ele>
        <time>2018-01-12T09:34:36Z</time>
      </trkpt>
      <trkpt lat="45.92836" lon="4.73022">
        <ele>171</ele>
        <time>2018-01-12T09:34:37Z</time>
      </trkpt>
      <trkpt lat="45.92837" lon="4.73029">
        <ele>171</ele>
        <time>2018-01-12T09:34:38Z</time>
      </trkpt>
      <trkpt lat="45.92838" lon="4.73037">
        <ele>171</ele>
        <time>2018-01-12T09:34:39Z</time>
      </trkpt>
      <trkpt lat="45.92839" lon="4.73046">
        <ele>171</ele>
        <time>2018-01-12T09:34:40Z</time>
      </trkpt>
      <trkpt lat="45.9284" lon="4.73053">
        <ele>171</ele>
        <time>2018-01-12T09:34:41Z</time>
      </trkpt>
      <trkpt lat="45.92842" lon="4.73061">
        <ele>171</ele>
        <time>2018-01-12T09:34:42Z</time>
      </trkpt>
      <trkpt lat="45.92843" lon="4.73069">
        <ele>171</ele>
        <time>2018-01-12T09:34:43Z</time>
      </trkpt>
      <trkpt lat="45.92844" lon="4.73076">
        <ele>171</ele>
        <time>2018-01-12T09:34:44Z</time>
      </trkpt>
      <trkpt lat="45.92845" lon="4.73083">
        <ele>171</ele>
        <time>2018-01-12T09:34:45Z</time>
      </trkpt>
      <trkpt lat="45.92846" lon="4.73089">
        <ele>171</ele>
        <time>2018-01-12T09:34:46Z</time>
      </trkpt>
      <trkpt lat="45.9285" lon="4.73098">
        <ele>171</ele>
        <time>2018-01-12T09:34:48Z</time>
      </trkpt>
      <trkpt lat="45.92852" lon="4.73101">
        <ele>171</ele>
        <time>2018-01-12T09:34:49Z</time>
      </trkpt>
      <trkpt lat="45.92859" lon="4.73103">
        <ele>171</ele>
        <time>2018-01-12T09:34:51Z</time>
      </trkpt>
      <trkpt lat="45.92862" lon="4.731">
        <ele>171</ele>
        <time>2018-01-12T09:34:52Z</time>
      </trkpt>
      <trkpt lat="45.92868" lon="4.73092">
        <ele>172</ele>
        <time>2018-01-12T09:34:54Z</time>
      </trkpt>
      <trkpt lat="45.92871" lon="4.7309">
        <ele>172</ele>
        <time>2018-01-12T09:34:55Z</time>
      </trkpt>
      <trkpt lat="45.92876" lon="4.73084">
        <ele>172</ele>
        <time>2018-01-12T09:34:57Z</time>
      </trkpt>
      <trkpt lat="45.92879" lon="4.73081">
        <ele>172</ele>
        <time>2018-01-12T09:34:58Z</time>
      </trkpt>
      <trkpt lat="45.92886" lon="4.73075">
        <ele>172</ele>
        <time>2018-01-12T09:35:00Z</time>
      </trkpt>
      <trkpt lat="45.92889" lon="4.73071">
        <ele>172</ele>
        <time>2018-01-12T09:35:01Z</time>
      </trkpt>
      <trkpt lat="45.92893" lon="4.73066">
        <ele>172</ele>
        <time>2018-01-12T09:35:02Z</time>
      </trkpt>
      <trkpt lat="45.92897" lon="4.73061">
        <ele>172</ele>
        <time>2018-01-12T09:35:03Z</time>
      </trkpt>
      <trkpt lat="45.92901" lon="4.73055">
        <ele>172</ele>
        <time>2018-01-12T09:35:04Z</time>
      </trkpt>
      <trkpt lat="45.92904" lon="4.73049">
        <ele>172</ele>
        <time>2018-01-12T09:35:05Z</time>
      </trkpt>
      <trkpt lat="45.92908" lon="4.73043">
        <ele>172</ele>
        <time>2018-01-12T09:35:06Z</time>
      </trkpt>
      <trkpt lat="45.92912" lon="4.73037">
        <ele>172</ele>
        <time>2018-01-12T09:35:07Z</time>
      </trkpt>
      <trkpt lat="45.92916" lon="4.73032">
        <ele>172</ele>
        <time>2018-01-12T09:35:08Z</time>
      </trkpt>
      <trkpt lat="45.92919" lon="4.73027">
        <ele>172</ele>
        <time>2018-01-12T09:35:09Z</time>
      </trkpt>
      <trkpt lat="45.92923" lon="4.73023">
        <ele>171</ele>
        <time>2018-01-12T09:35:10Z</time>
      </trkpt>
      <trkpt lat="45.92927" lon="4.73017">
        <ele>171</ele>
        <time>2018-01-12T09:35:11Z</time>
      </trkpt>
      <trkpt lat="45.92931" lon="4.73012">
        <ele>171</ele>
        <time>2018-01-12T09:35:12Z</time>
      </trkpt>
      <trkpt lat="45.92935" lon="4.73006">
        <ele>171</ele>
        <time>2018-01-12T09:35:13Z</time>
      </trkpt>
      <trkpt lat="45.9294" lon="4.73001">
        <ele>171</ele>
        <time>2018-01-12T09:35:14Z</time>
      </trkpt>
      <trkpt lat="45.92943" lon="4.72997">
        <ele>171</ele>
        <time>2018-01-12T09:35:15Z</time>
      </trkpt>
      <trkpt lat="45.92947" lon="4.72992">
        <ele>171</ele>
        <time>2018-01-12T09:35:16Z</time>
      </trkpt>
      <trkpt lat="45.92951" lon="4.72986">
        <ele>171</ele>
        <time>2018-01-12T09:35:17Z</time>
      </trkpt>
      <trkpt lat="45.92956" lon="4.72981">
        <ele>171</ele>
        <time>2018-01-12T09:35:18Z</time>
      </trkpt>
      <trkpt lat="45.92959" lon="4.72977">
        <ele>171</ele>
        <time>2018-01-12T09:35:19Z</time>
      </trkpt>
      <trkpt lat="45.92963" lon="4.72973">
        <ele>171</ele>
        <time>2018-01-12T09:35:20Z</time>
      </trkpt>
      <trkpt lat="45.92968" lon="4.7297">
        <ele>171</ele>
        <time>2018-01-12T09:35:21Z</time>
      </trkpt>
      <trkpt lat="45.92972" lon="4.72964">
        <ele>171</ele>
        <time>2018-01-12T09:35:22Z</time>
      </trkpt>
      <trkpt lat="45.92977" lon="4.72959">
        <ele>171</ele>
        <time>2018-01-12T09:35:23Z</time>
      </trkpt>
      <trkpt lat="45.92982" lon="4.72954">
        <ele>171</ele>
        <time>2018-01-12T09:35:24Z</time>
      </trkpt>
      <trkpt lat="45.92986" lon="4.72948">
        <ele>171</ele>
        <time>2018-01-12T09:35:25Z</time>
      </trkpt>
      <trkpt lat="45.92991" lon="4.72942">
        <ele>171</ele>
        <time>2018-01-12T09:35:26Z</time>
      </trkpt>
      <trkpt lat="45.92996" lon="4.72935">
        <ele>171</ele>
        <time>2018-01-12T09:35:27Z</time>
      </trkpt>
      <trkpt lat="45.93" lon="4.72931">
        <ele>171</ele>
        <time>2018-01-12T09:35:28Z</time>
      </trkpt>
      <trkpt lat="45.93005" lon="4.72926">
        <ele>170</ele>
        <time>2018-01-12T09:35:29Z</time>
      </trkpt>
      <trkpt lat="45.93009" lon="4.7292">
        <ele>170</ele>
        <time>2018-01-12T09:35:30Z</time>
      </trkpt>
      <trkpt lat="45.93014" lon="4.72914">
        <ele>171</ele>
        <time>2018-01-12T09:35:31Z</time>
      </trkpt>
      <trkpt lat="45.93018" lon="4.72908">
        <ele>172</ele>
        <time>2018-01-12T09:35:32Z</time>
      </trkpt>
      <trkpt lat="45.93023" lon="4.72901">
        <ele>172</ele>
        <time>2018-01-12T09:35:33Z</time>
      </trkpt>
      <trkpt lat="45.93027" lon="4.72896">
        <ele>172</ele>
        <time>2018-01-12T09:35:34Z</time>
      </trkpt>
      <trkpt lat="45.93032" lon="4.7289">
        <ele>172</ele>
        <time>2018-01-12T09:35:35Z</time>
      </trkpt>
      <trkpt lat="45.93037" lon="4.72885">
        <ele>172</ele>
        <time>2018-01-12T09:35:36Z</time>
      </trkpt>
      <trkpt lat="45.93042" lon="4.72879">
        <ele>172</ele>
        <time>2018-01-12T09:35:37Z</time>
      </trkpt>
      <trkpt lat="45.93047" lon="4.72874">
        <ele>172</ele>
        <time>2018-01-12T09:35:38Z</time>
      </trkpt>
      <trkpt lat="45.93052" lon="4.72868">
        <ele>172</ele>
        <time>2018-01-12T09:35:39Z</time>
      </trkpt>
      <trkpt lat="45.93057" lon="4.72862">
        <ele>172</ele>
        <time>2018-01-12T09:35:40Z</time>
      </trkpt>
      <trkpt lat="45.93062" lon="4.72856">
        <ele>172</ele>
        <time>2018-01-12T09:35:41Z</time>
      </trkpt>
      <trkpt lat="45.93066" lon="4.72851">
        <ele>172</ele>
        <time>2018-01-12T09:35:42Z</time>
      </trkpt>
      <trkpt lat="45.93073" lon="4.72836">
        <ele>173</ele>
        <time>2018-01-12T09:35:45Z</time>
      </trkpt>
      <trkpt lat="45.93075" lon="4.72828">
        <ele>173</ele>
        <time>2018-01-12T09:35:47Z</time>
      </trkpt>
      <trkpt lat="45.93083" lon="4.72817">
        <ele>172</ele>
        <time>2018-01-12T09:35:48Z</time>
      </trkpt>
      <trkpt lat="45.93094" lon="4.72812">
        <ele>172</ele>
        <time>2018-01-12T09:35:49Z</time>
      </trkpt>
      <trkpt lat="45.93098" lon="4.72805">
        <ele>171</ele>
        <time>2018-01-12T09:35:50Z</time>
      </trkpt>
      <trkpt lat="45.93104" lon="4.72802">
        <ele>171</ele>
        <time>2018-01-12T09:35:51Z</time>
      </trkpt>
      <trkpt lat="45.93109" lon="4.72798">
        <ele>171</ele>
        <time>2018-01-12T09:35:52Z</time>
      </trkpt>
      <trkpt lat="45.93113" lon="4.72794">
        <ele>171</ele>
        <time>2018-01-12T09:35:53Z</time>
      </trkpt>
      <trkpt lat="45.93117" lon="4.72789">
        <ele>171</ele>
        <time>2018-01-12T09:35:54Z</time>
      </trkpt>
      <trkpt lat="45.93122" lon="4.72784">
        <ele>171</ele>
        <time>2018-01-12T09:35:55Z</time>
      </trkpt>
      <trkpt lat="45.93126" lon="4.7278">
        <ele>171</ele>
        <time>2018-01-12T09:35:56Z</time>
      </trkpt>
      <trkpt lat="45.93131" lon="4.72775">
        <ele>171</ele>
        <time>2018-01-12T09:35:57Z</time>
      </trkpt>
      <trkpt lat="45.93136" lon="4.72771">
        <ele>171</ele>
        <time>2018-01-12T09:35:58Z</time>
      </trkpt>
      <trkpt lat="45.9314" lon="4.72765">
        <ele>171</ele>
        <time>2018-01-12T09:35:59Z</time>
      </trkpt>
      <trkpt lat="45.93144" lon="4.7276">
        <ele>171</ele>
        <time>2018-01-12T09:36:00Z</time>
      </trkpt>
      <trkpt lat="45.93149" lon="4.72756">
        <ele>170</ele>
        <time>2018-01-12T09:36:01Z</time>
      </trkpt>
      <trkpt lat="45.93155" lon="4.7275">
        <ele>170</ele>
        <time>2018-01-12T09:36:02Z</time>
      </trkpt>
      <trkpt lat="45.9316" lon="4.72744">
        <ele>170</ele>
        <time>2018-01-12T09:36:03Z</time>
      </trkpt>
      <trkpt lat="45.93164" lon="4.72739">
        <ele>170</ele>
        <time>2018-01-12T09:36:04Z</time>
      </trkpt>
      <trkpt lat="45.93169" lon="4.72732">
        <ele>170</ele>
        <time>2018-01-12T09:36:05Z</time>
      </trkpt>
      <trkpt lat="45.93173" lon="4.72727">
        <ele>170</ele>
        <time>2018-01-12T09:36:06Z</time>
      </trkpt>
      <trkpt lat="45.93178" lon="4.7272">
        <ele>170</ele>
        <time>2018-01-12T09:36:07Z</time>
      </trkpt>
      <trkpt lat="45.93182" lon="4.72715">
        <ele>169</ele>
        <time>2018-01-12T09:36:08Z</time>
      </trkpt>
      <trkpt lat="45.93186" lon="4.7271">
        <ele>169</ele>
        <time>2018-01-12T09:36:09Z</time>
      </trkpt>
      <trkpt lat="45.93191" lon="4.72705">
        <ele>169</ele>
        <time>2018-01-12T09:36:10Z</time>
      </trkpt>
      <trkpt lat="45.93195" lon="4.727">
        <ele>169</ele>
        <time>2018-01-12T09:36:11Z</time>
      </trkpt>
      <trkpt lat="45.93199" lon="4.72695">
        <ele>169</ele>
        <time>2018-01-12T09:36:12Z</time>
      </trkpt>
      <trkpt lat="45.93203" lon="4.7269">
        <ele>169</ele>
        <time>2018-01-12T09:36:13Z</time>
      </trkpt>
      <trkpt lat="45.93206" lon="4.72685">
        <ele>169</ele>
        <time>2018-01-12T09:36:14Z</time>
      </trkpt>
      <trkpt lat="45.9321" lon="4.72681">
        <ele>169</ele>
        <time>2018-01-12T09:36:15Z</time>
      </trkpt>
      <trkpt lat="45.93216" lon="4.72675">
        <ele>169</ele>
        <time>2018-01-12T09:36:16Z</time>
      </trkpt>
      <trkpt lat="45.93221" lon="4.72669">
        <ele>169</ele>
        <time>2018-01-12T09:36:17Z</time>
      </trkpt>
      <trkpt lat="45.93225" lon="4.72664">
        <ele>170</ele>
        <time>2018-01-12T09:36:18Z</time>
      </trkpt>
      <trkpt lat="45.93229" lon="4.72659">
        <ele>169</ele>
        <time>2018-01-12T09:36:19Z</time>
      </trkpt>
      <trkpt lat="45.93234" lon="4.72652">
        <ele>170</ele>
        <time>2018-01-12T09:36:20Z</time>
      </trkpt>
      <trkpt lat="45.93238" lon="4.72648">
        <ele>170</ele>
        <time>2018-01-12T09:36:21Z</time>
      </trkpt>
      <trkpt lat="45.93242" lon="4.72642">
        <ele>170</ele>
        <time>2018-01-12T09:36:22Z</time>
      </trkpt>
      <trkpt lat="45.93246" lon="4.72637">
        <ele>170</ele>
        <time>2018-01-12T09:36:23Z</time>
      </trkpt>
      <trkpt lat="45.93251" lon="4.72632">
        <ele>170</ele>
        <time>2018-01-12T09:36:24Z</time>
      </trkpt>
      <trkpt lat="45.93255" lon="4.72627">
        <ele>170</ele>
        <time>2018-01-12T09:36:25Z</time>
      </trkpt>
      <trkpt lat="45.93259" lon="4.72622">
        <ele>170</ele>
        <time>2018-01-12T09:36:26Z</time>
      </trkpt>
      <trkpt lat="45.93263" lon="4.72617">
        <ele>170</ele>
        <time>2018-01-12T09:36:27Z</time>
      </trkpt>
      <trkpt lat="45.93267" lon="4.72612">
        <ele>170</ele>
        <time>2018-01-12T09:36:28Z</time>
      </trkpt>
      <trkpt lat="45.93271" lon="4.72608">
        <ele>170</ele>
        <time>2018-01-12T09:36:29Z</time>
      </trkpt>
      <trkpt lat="45.93275" lon="4.72603">
        <ele>170</ele>
        <time>2018-01-12T09:36:30Z</time>
      </trkpt>
      <trkpt lat="45.93279" lon="4.72599">
        <ele>170</ele>
        <time>2018-01-12T09:36:31Z</time>
      </trkpt>
      <trkpt lat="45.93283" lon="4.72594">
        <ele>170</ele>
        <time>2018-01-12T09:36:32Z</time>
      </trkpt>
      <trkpt lat="45.93287" lon="4.72589">
        <ele>170</ele>
        <time>2018-01-12T09:36:33Z</time>
      </trkpt>
      <trkpt lat="45.93292" lon="4.72584">
        <ele>170</ele>
        <time>2018-01-12T09:36:34Z</time>
      </trkpt>
      <trkpt lat="45.93296" lon="4.72579">
        <ele>171</ele>
        <time>2018-01-12T09:36:35Z</time>
      </trkpt>
      <trkpt lat="45.93301" lon="4.72574">
        <ele>171</ele>
        <time>2018-01-12T09:36:36Z</time>
      </trkpt>
      <trkpt lat="45.93305" lon="4.7257">
        <ele>171</ele>
        <time>2018-01-12T09:36:37Z</time>
      </trkpt>
      <trkpt lat="45.93309" lon="4.72566">
        <ele>171</ele>
        <time>2018-01-12T09:36:38Z</time>
      </trkpt>
      <trkpt lat="45.93314" lon="4.7256">
        <ele>171</ele>
        <time>2018-01-12T09:36:39Z</time>
      </trkpt>
      <trkpt lat="45.93319" lon="4.72554">
        <ele>172</ele>
        <time>2018-01-12T09:36:40Z</time>
      </trkpt>
      <trkpt lat="45.93323" lon="4.72548">
        <ele>172</ele>
        <time>2018-01-12T09:36:41Z</time>
      </trkpt>
      <trkpt lat="45.93328" lon="4.72543">
        <ele>172</ele>
        <time>2018-01-12T09:36:42Z</time>
      </trkpt>
      <trkpt lat="45.93332" lon="4.72538">
        <ele>172</ele>
        <time>2018-01-12T09:36:43Z</time>
      </trkpt>
      <trkpt lat="45.93336" lon="4.72532">
        <ele>172</ele>
        <time>2018-01-12T09:36:44Z</time>
      </trkpt>
      <trkpt lat="45.93341" lon="4.72527">
        <ele>172</ele>
        <time>2018-01-12T09:36:45Z</time>
      </trkpt>
      <trkpt lat="45.93346" lon="4.72523">
        <ele>172</ele>
        <time>2018-01-12T09:36:46Z</time>
      </trkpt>
      <trkpt lat="45.93351" lon="4.72518">
        <ele>172</ele>
        <time>2018-01-12T09:36:47Z</time>
      </trkpt>
      <trkpt lat="45.93355" lon="4.72512">
        <ele>172</ele>
        <time>2018-01-12T09:36:48Z</time>
      </trkpt>
      <trkpt lat="45.9336" lon="4.72507">
        <ele>172</ele>
        <time>2018-01-12T09:36:49Z</time>
      </trkpt>
      <trkpt lat="45.93365" lon="4.72501">
        <ele>172</ele>
        <time>2018-01-12T09:36:50Z</time>
      </trkpt>
      <trkpt lat="45.9337" lon="4.72497">
        <ele>173</ele>
        <time>2018-01-12T09:36:51Z</time>
      </trkpt>
      <trkpt lat="45.93374" lon="4.72493">
        <ele>173</ele>
        <time>2018-01-12T09:36:52Z</time>
      </trkpt>
      <trkpt lat="45.93378" lon="4.72488">
        <ele>173</ele>
        <time>2018-01-12T09:36:53Z</time>
      </trkpt>
      <trkpt lat="45.93382" lon="4.72484">
        <ele>173</ele>
        <time>2018-01-12T09:36:54Z</time>
      </trkpt>
      <trkpt lat="45.93385" lon="4.7248">
        <ele>173</ele>
        <time>2018-01-12T09:36:55Z</time>
      </trkpt>
      <trkpt lat="45.93391" lon="4.7247">
        <ele>173</ele>
        <time>2018-01-12T09:36:57Z</time>
      </trkpt>
      <trkpt lat="45.93393" lon="4.72466">
        <ele>173</ele>
        <time>2018-01-12T09:36:58Z</time>
      </trkpt>
      <trkpt lat="45.93395" lon="4.72461">
        <ele>173</ele>
        <time>2018-01-12T09:36:59Z</time>
      </trkpt>
      <trkpt lat="45.93396" lon="4.72454">
        <ele>173</ele>
        <time>2018-01-12T09:37:00Z</time>
      </trkpt>
      <trkpt lat="45.93398" lon="4.72448">
        <ele>173</ele>
        <time>2018-01-12T09:37:01Z</time>
      </trkpt>
      <trkpt lat="45.934" lon="4.72442">
        <ele>173</ele>
        <time>2018-01-12T09:37:02Z</time>
      </trkpt>
      <trkpt lat="45.93403" lon="4.72436">
        <ele>173</ele>
        <time>2018-01-12T09:37:03Z</time>
      </trkpt>
      <trkpt lat="45.93405" lon="4.7243">
        <ele>173</ele>
        <time>2018-01-12T09:37:04Z</time>
      </trkpt>
      <trkpt lat="45.93412" lon="4.72422">
        <ele>174</ele>
        <time>2018-01-12T09:37:06Z</time>
      </trkpt>
      <trkpt lat="45.93417" lon="4.72419">
        <ele>174</ele>
        <time>2018-01-12T09:37:07Z</time>
      </trkpt>
      <trkpt lat="45.93421" lon="4.72415">
        <ele>174</ele>
        <time>2018-01-12T09:37:08Z</time>
      </trkpt>
      <trkpt lat="45.93426" lon="4.72412">
        <ele>174</ele>
        <time>2018-01-12T09:37:09Z</time>
      </trkpt>
      <trkpt lat="45.93431" lon="4.72409">
        <ele>174</ele>
        <time>2018-01-12T09:37:10Z</time>
      </trkpt>
      <trkpt lat="45.93436" lon="4.72406">
        <ele>174</ele>
        <time>2018-01-12T09:37:11Z</time>
      </trkpt>
      <trkpt lat="45.93442" lon="4.72403">
        <ele>173</ele>
        <time>2018-01-12T09:37:12Z</time>
      </trkpt>
      <trkpt lat="45.93447" lon="4.72398">
        <ele>173</ele>
        <time>2018-01-12T09:37:13Z</time>
      </trkpt>
      <trkpt lat="45.93452" lon="4.72393">
        <ele>173</ele>
        <time>2018-01-12T09:37:14Z</time>
      </trkpt>
      <trkpt lat="45.93457" lon="4.72388">
        <ele>173</ele>
        <time>2018-01-12T09:37:15Z</time>
      </trkpt>
      <trkpt lat="45.9346" lon="4.72384">
        <ele>173</ele>
        <time>2018-01-12T09:37:16Z</time>
      </trkpt>
      <trkpt lat="45.93464" lon="4.72378">
        <ele>173</ele>
        <time>2018-01-12T09:37:17Z</time>
      </trkpt>
      <trkpt lat="45.93468" lon="4.72373">
        <ele>173</ele>
        <time>2018-01-12T09:37:18Z</time>
      </trkpt>
      <trkpt lat="45.93473" lon="4.72366">
        <ele>173</ele>
        <time>2018-01-12T09:37:19Z</time>
      </trkpt>
      <trkpt lat="45.93476" lon="4.72361">
        <ele>173</ele>
        <time>2018-01-12T09:37:20Z</time>
      </trkpt>
      <trkpt lat="45.9348" lon="4.72355">
        <ele>173</ele>
        <time>2018-01-12T09:37:21Z</time>
      </trkpt>
      <trkpt lat="45.93485" lon="4.72349">
        <ele>173</ele>
        <time>2018-01-12T09:37:22Z</time>
      </trkpt>
      <trkpt lat="45.93489" lon="4.72343">
        <ele>173</ele>
        <time>2018-01-12T09:37:23Z</time>
      </trkpt>
      <trkpt lat="45.93493" lon="4.72337">
        <ele>173</ele>
        <time>2018-01-12T09:37:24Z</time>
      </trkpt>
      <trkpt lat="45.93497" lon="4.72331">
        <ele>173</ele>
        <time>2018-01-12T09:37:25Z</time>
      </trkpt>
      <trkpt lat="45.93501" lon="4.72327">
        <ele>173</ele>
        <time>2018-01-12T09:37:26Z</time>
      </trkpt>
      <trkpt lat="45.93507" lon="4.72322">
        <ele>173</ele>
        <time>2018-01-12T09:37:27Z</time>
      </trkpt>
      <trkpt lat="45.9351" lon="4.72317">
        <ele>173</ele>
        <time>2018-01-12T09:37:28Z</time>
      </trkpt>
      <trkpt lat="45.93514" lon="4.72311">
        <ele>173</ele>
        <time>2018-01-12T09:37:29Z</time>
      </trkpt>
      <trkpt lat="45.93517" lon="4.72307">
        <ele>173</ele>
        <time>2018-01-12T09:37:30Z</time>
      </trkpt>
      <trkpt lat="45.9352" lon="4.723">
        <ele>172</ele>
        <time>2018-01-12T09:37:31Z</time>
      </trkpt>
      <trkpt lat="45.93523" lon="4.72295">
        <ele>172</ele>
        <time>2018-01-12T09:37:32Z</time>
      </trkpt>
      <trkpt lat="45.93527" lon="4.72288">
        <ele>172</ele>
        <time>2018-01-12T09:37:33Z</time>
      </trkpt>
      <trkpt lat="45.93531" lon="4.72278">
        <ele>172</ele>
        <time>2018-01-12T09:37:35Z</time>
      </trkpt>
      <trkpt lat="45.93534" lon="4.72271">
        <ele>172</ele>
        <time>2018-01-12T09:37:36Z</time>
      </trkpt>
      <trkpt lat="45.93536" lon="4.72266">
        <ele>172</ele>
        <time>2018-01-12T09:37:37Z</time>
      </trkpt>
      <trkpt lat="45.93539" lon="4.72259">
        <ele>172</ele>
        <time>2018-01-12T09:37:38Z</time>
      </trkpt>
      <trkpt lat="45.93542" lon="4.72252">
        <ele>172</ele>
        <time>2018-01-12T09:37:39Z</time>
      </trkpt>
      <trkpt lat="45.93544" lon="4.72246">
        <ele>172</ele>
        <time>2018-01-12T09:37:40Z</time>
      </trkpt>
      <trkpt lat="45.93546" lon="4.72239">
        <ele>172</ele>
        <time>2018-01-12T09:37:41Z</time>
      </trkpt>
      <trkpt lat="45.93549" lon="4.72234">
        <ele>172</ele>
        <time>2018-01-12T09:37:42Z</time>
      </trkpt>
      <trkpt lat="45.93553" lon="4.72229">
        <ele>173</ele>
        <time>2018-01-12T09:37:43Z</time>
      </trkpt>
      <trkpt lat="45.93558" lon="4.72229">
        <ele>173</ele>
        <time>2018-01-12T09:37:44Z</time>
      </trkpt>
      <trkpt lat="45.93563" lon="4.7223">
        <ele>173</ele>
        <time>2018-01-12T09:37:45Z</time>
      </trkpt>
      <trkpt lat="45.93568" lon="4.72234">
        <ele>173</ele>
        <time>2018-01-12T09:37:46Z</time>
      </trkpt>
      <trkpt lat="45.93573" lon="4.72238">
        <ele>173</ele>
        <time>2018-01-12T09:37:47Z</time>
      </trkpt>
      <trkpt lat="45.93577" lon="4.72243">
        <ele>173</ele>
        <time>2018-01-12T09:37:48Z</time>
      </trkpt>
      <trkpt lat="45.93581" lon="4.72247">
        <ele>173</ele>
        <time>2018-01-12T09:37:49Z</time>
      </trkpt>
      <trkpt lat="45.93585" lon="4.72251">
        <ele>173</ele>
        <time>2018-01-12T09:37:50Z</time>
      </trkpt>
      <trkpt lat="45.93593" lon="4.72257">
        <ele>173</ele>
        <time>2018-01-12T09:37:52Z</time>
      </trkpt>
      <trkpt lat="45.93597" lon="4.72261">
        <ele>173</ele>
        <time>2018-01-12T09:37:53Z</time>
      </trkpt>
      <trkpt lat="45.93601" lon="4.72265">
        <ele>173</ele>
        <time>2018-01-12T09:37:54Z</time>
      </trkpt>
      <trkpt lat="45.93605" lon="4.72269">
        <ele>172</ele>
        <time>2018-01-12T09:37:55Z</time>
      </trkpt>
      <trkpt lat="45.93609" lon="4.72274">
        <ele>172</ele>
        <time>2018-01-12T09:37:56Z</time>
      </trkpt>
      <trkpt lat="45.93613" lon="4.72277">
        <ele>172</ele>
        <time>2018-01-12T09:37:57Z</time>
      </trkpt>
      <trkpt lat="45.93618" lon="4.72281">
        <ele>172</ele>
        <time>2018-01-12T09:37:58Z</time>
      </trkpt>
      <trkpt lat="45.93622" lon="4.72284">
        <ele>172</ele>
        <time>2018-01-12T09:37:59Z</time>
      </trkpt>
      <trkpt lat="45.93629" lon="4.7229">
        <ele>172</ele>
        <time>2018-01-12T09:38:01Z</time>
      </trkpt>
      <trkpt lat="45.93633" lon="4.72295">
        <ele>172</ele>
        <time>2018-01-12T09:38:02Z</time>
      </trkpt>
      <trkpt lat="45.93638" lon="4.72299">
        <ele>172</ele>
        <time>2018-01-12T09:38:03Z</time>
      </trkpt>
      <trkpt lat="45.93643" lon="4.72305">
        <ele>172</ele>
        <time>2018-01-12T09:38:04Z</time>
      </trkpt>
      <trkpt lat="45.93648" lon="4.7231">
        <ele>172</ele>
        <time>2018-01-12T09:38:05Z</time>
      </trkpt>
      <trkpt lat="45.93653" lon="4.72316">
        <ele>172</ele>
        <time>2018-01-12T09:38:06Z</time>
      </trkpt>
      <trkpt lat="45.93658" lon="4.72321">
        <ele>172</ele>
        <time>2018-01-12T09:38:07Z</time>
      </trkpt>
      <trkpt lat="45.93664" lon="4.72326">
        <ele>171</ele>
        <time>2018-01-12T09:38:08Z</time>
      </trkpt>
      <trkpt lat="45.93669" lon="4.72328">
        <ele>171</ele>
        <time>2018-01-12T09:38:09Z</time>
      </trkpt>
      <trkpt lat="45.93675" lon="4.72333">
        <ele>171</ele>
        <time>2018-01-12T09:38:10Z</time>
      </trkpt>
      <trkpt lat="45.93679" lon="4.72337">
        <ele>171</ele>
        <time>2018-01-12T09:38:11Z</time>
      </trkpt>
      <trkpt lat="45.93683" lon="4.72342">
        <ele>171</ele>
        <time>2018-01-12T09:38:12Z</time>
      </trkpt>
      <trkpt lat="45.93687" lon="4.72347">
        <ele>171</ele>
        <time>2018-01-12T09:38:13Z</time>
      </trkpt>
      <trkpt lat="45.93691" lon="4.72351">
        <ele>171</ele>
        <time>2018-01-12T09:38:14Z</time>
      </trkpt>
      <trkpt lat="45.93695" lon="4.72355">
        <ele>171</ele>
        <time>2018-01-12T09:38:15Z</time>
      </trkpt>
      <trkpt lat="45.937" lon="4.72358">
        <ele>171</ele>
        <time>2018-01-12T09:38:16Z</time>
      </trkpt>
      <trkpt lat="45.93706" lon="4.72363">
        <ele>171</ele>
        <time>2018-01-12T09:38:17Z</time>
      </trkpt>
      <trkpt lat="45.93711" lon="4.72368">
        <ele>172</ele>
        <time>2018-01-12T09:38:18Z</time>
      </trkpt>
      <trkpt lat="45.93714" lon="4.72372">
        <ele>172</ele>
        <time>2018-01-12T09:38:19Z</time>
      </trkpt>
      <trkpt lat="45.9372" lon="4.72377">
        <ele>171</ele>
        <time>2018-01-12T09:38:20Z</time>
      </trkpt>
      <trkpt lat="45.93725" lon="4.72382">
        <ele>171</ele>
        <time>2018-01-12T09:38:21Z</time>
      </trkpt>
      <trkpt lat="45.9373" lon="4.72386">
        <ele>171</ele>
        <time>2018-01-12T09:38:22Z</time>
      </trkpt>
      <trkpt lat="45.93734" lon="4.72391">
        <ele>171</ele>
        <time>2018-01-12T09:38:23Z</time>
      </trkpt>
      <trkpt lat="45.93738" lon="4.72396">
        <ele>171</ele>
        <time>2018-01-12T09:38:24Z</time>
      </trkpt>
      <trkpt lat="45.93742" lon="4.72401">
        <ele>171</ele>
        <time>2018-01-12T09:38:25Z</time>
      </trkpt>
      <trkpt lat="45.93748" lon="4.72405">
        <ele>171</ele>
        <time>2018-01-12T09:38:26Z</time>
      </trkpt>
      <trkpt lat="45.93752" lon="4.72409">
        <ele>171</ele>
        <time>2018-01-12T09:38:27Z</time>
      </trkpt>
      <trkpt lat="45.93756" lon="4.72414">
        <ele>171</ele>
        <time>2018-01-12T09:38:28Z</time>
      </trkpt>
      <trkpt lat="45.9376" lon="4.72418">
        <ele>171</ele>
        <time>2018-01-12T09:38:29Z</time>
      </trkpt>
      <trkpt lat="45.93764" lon="4.72421">
        <ele>171</ele>
        <time>2018-01-12T09:38:30Z</time>
      </trkpt>
      <trkpt lat="45.9377" lon="4.72426">
        <ele>171</ele>
        <time>2018-01-12T09:38:31Z</time>
      </trkpt>
      <trkpt lat="45.93775" lon="4.72432">
        <ele>171</ele>
        <time>2018-01-12T09:38:32Z</time>
      </trkpt>
      <trkpt lat="45.93779" lon="4.72437">
        <ele>172</ele>
        <time>2018-01-12T09:38:33Z</time>
      </trkpt>
      <trkpt lat="45.93784" lon="4.72444">
        <ele>172</ele>
        <time>2018-01-12T09:38:34Z</time>
      </trkpt>
      <trkpt lat="45.93789" lon="4.72448">
        <ele>172</ele>
        <time>2018-01-12T09:38:35Z</time>
      </trkpt>
      <trkpt lat="45.93792" lon="4.72452">
        <ele>172</ele>
        <time>2018-01-12T09:38:36Z</time>
      </trkpt>
      <trkpt lat="45.93796" lon="4.72457">
        <ele>172</ele>
        <time>2018-01-12T09:38:37Z</time>
      </trkpt>
      <trkpt lat="45.938" lon="4.72461">
        <ele>172</ele>
        <time>2018-01-12T09:38:38Z</time>
      </trkpt>
      <trkpt lat="45.93804" lon="4.72464">
        <ele>172</ele>
        <time>2018-01-12T09:38:39Z</time>
      </trkpt>
      <trkpt lat="45.93808" lon="4.72468">
        <ele>172</ele>
        <time>2018-01-12T09:38:40Z</time>
      </trkpt>
      <trkpt lat="45.9381" lon="4.72473">
        <ele>172</ele>
        <time>2018-01-12T09:38:41Z</time>
      </trkpt>
      <trkpt lat="45.93815" lon="4.72477">
        <ele>172</ele>
        <time>2018-01-12T09:38:42Z</time>
      </trkpt>
      <trkpt lat="45.93821" lon="4.72479">
        <ele>173</ele>
        <time>2018-01-12T09:38:43Z</time>
      </trkpt>
      <trkpt lat="45.93826" lon="4.7248">
        <ele>173</ele>
        <time>2018-01-12T09:38:44Z</time>
      </trkpt>
      <trkpt lat="45.93828" lon="4.72484">
        <ele>173</ele>
        <time>2018-01-12T09:38:49Z</time>
      </trkpt>
      <trkpt lat="45.93834" lon="4.72504">
        <ele>174</ele>
        <time>2018-01-12T09:38:50Z</time>
      </trkpt>
      <trkpt lat="45.93845" lon="4.7251">
        <ele>174</ele>
        <time>2018-01-12T09:38:51Z</time>
      </trkpt>
      <trkpt lat="45.93851" lon="4.7251">
        <ele>173</ele>
        <time>2018-01-12T09:38:52Z</time>
      </trkpt>
      <trkpt lat="45.9386" lon="4.72512">
        <ele>173</ele>
        <time>2018-01-12T09:38:53Z</time>
      </trkpt>
      <trkpt lat="45.93867" lon="4.72511">
        <ele>173</ele>
        <time>2018-01-12T09:38:54Z</time>
      </trkpt>
      <trkpt lat="45.93872" lon="4.72508">
        <ele>173</ele>
        <time>2018-01-12T09:38:55Z</time>
      </trkpt>
      <trkpt lat="45.93877" lon="4.72504">
        <ele>173</ele>
        <time>2018-01-12T09:38:56Z</time>
      </trkpt>
      <trkpt lat="45.93881" lon="4.725">
        <ele>172</ele>
        <time>2018-01-12T09:38:57Z</time>
      </trkpt>
      <trkpt lat="45.93888" lon="4.72494">
        <ele>172</ele>
        <time>2018-01-12T09:38:59Z</time>
      </trkpt>
      <trkpt lat="45.93894" lon="4.7249">
        <ele>172</ele>
        <time>2018-01-12T09:39:00Z</time>
      </trkpt>
      <trkpt lat="45.93898" lon="4.72486">
        <ele>172</ele>
        <time>2018-01-12T09:39:01Z</time>
      </trkpt>
      <trkpt lat="45.93902" lon="4.7248">
        <ele>172</ele>
        <time>2018-01-12T09:39:02Z</time>
      </trkpt>
      <trkpt lat="45.93907" lon="4.72475">
        <ele>172</ele>
        <time>2018-01-12T09:39:03Z</time>
      </trkpt>
      <trkpt lat="45.93912" lon="4.7247">
        <ele>172</ele>
        <time>2018-01-12T09:39:04Z</time>
      </trkpt>
      <trkpt lat="45.93917" lon="4.72463">
        <ele>171</ele>
        <time>2018-01-12T09:39:05Z</time>
      </trkpt>
      <trkpt lat="45.93921" lon="4.72457">
        <ele>171</ele>
        <time>2018-01-12T09:39:06Z</time>
      </trkpt>
      <trkpt lat="45.93926" lon="4.7245">
        <ele>171</ele>
        <time>2018-01-12T09:39:07Z</time>
      </trkpt>
      <trkpt lat="45.9393" lon="4.72444">
        <ele>171</ele>
        <time>2018-01-12T09:39:08Z</time>
      </trkpt>
      <trkpt lat="45.93935" lon="4.72439">
        <ele>171</ele>
        <time>2018-01-12T09:39:09Z</time>
      </trkpt>
      <trkpt lat="45.93939" lon="4.72434">
        <ele>171</ele>
        <time>2018-01-12T09:39:10Z</time>
      </trkpt>
      <trkpt lat="45.93944" lon="4.7243">
        <ele>171</ele>
        <time>2018-01-12T09:39:11Z</time>
      </trkpt>
      <trkpt lat="45.93948" lon="4.72426">
        <ele>171</ele>
        <time>2018-01-12T09:39:12Z</time>
      </trkpt>
      <trkpt lat="45.93954" lon="4.7242">
        <ele>171</ele>
        <time>2018-01-12T09:39:13Z</time>
      </trkpt>
      <trkpt lat="45.93959" lon="4.72415">
        <ele>171</ele>
        <time>2018-01-12T09:39:14Z</time>
      </trkpt>
      <trkpt lat="45.93963" lon="4.72409">
        <ele>171</ele>
        <time>2018-01-12T09:39:15Z</time>
      </trkpt>
      <trkpt lat="45.93968" lon="4.72404">
        <ele>171</ele>
        <time>2018-01-12T09:39:16Z</time>
      </trkpt>
      <trkpt lat="45.93972" lon="4.72399">
        <ele>171</ele>
        <time>2018-01-12T09:39:17Z</time>
      </trkpt>
      <trkpt lat="45.93977" lon="4.72394">
        <ele>171</ele>
        <time>2018-01-12T09:39:18Z</time>
      </trkpt>
      <trkpt lat="45.93981" lon="4.72389">
        <ele>171</ele>
        <time>2018-01-12T09:39:19Z</time>
      </trkpt>
      <trkpt lat="45.93985" lon="4.72383">
        <ele>171</ele>
        <time>2018-01-12T09:39:20Z</time>
      </trkpt>
      <trkpt lat="45.93989" lon="4.72377">
        <ele>171</ele>
        <time>2018-01-12T09:39:21Z</time>
      </trkpt>
      <trkpt lat="45.93994" lon="4.72371">
        <ele>171</ele>
        <time>2018-01-12T09:39:22Z</time>
      </trkpt>
      <trkpt lat="45.93998" lon="4.72365">
        <ele>171</ele>
        <time>2018-01-12T09:39:23Z</time>
      </trkpt>
      <trkpt lat="45.94003" lon="4.72359">
        <ele>171</ele>
        <time>2018-01-12T09:39:24Z</time>
      </trkpt>
      <trkpt lat="45.94008" lon="4.72353">
        <ele>171</ele>
        <time>2018-01-12T09:39:25Z</time>
      </trkpt>
      <trkpt lat="45.94012" lon="4.72348">
        <ele>171</ele>
        <time>2018-01-12T09:39:26Z</time>
      </trkpt>
      <trkpt lat="45.94016" lon="4.72344">
        <ele>171</ele>
        <time>2018-01-12T09:39:27Z</time>
      </trkpt>
      <trkpt lat="45.94021" lon="4.72339">
        <ele>171</ele>
        <time>2018-01-12T09:39:28Z</time>
      </trkpt>
      <trkpt lat="45.94025" lon="4.72334">
        <ele>171</ele>
        <time>2018-01-12T09:39:29Z</time>
      </trkpt>
      <trkpt lat="45.94028" lon="4.7233">
        <ele>171</ele>
        <time>2018-01-12T09:39:30Z</time>
      </trkpt>
      <trkpt lat="45.94032" lon="4.72324">
        <ele>171</ele>
        <time>2018-01-12T09:39:31Z</time>
      </trkpt>
      <trkpt lat="45.94035" lon="4.7232">
        <ele>171</ele>
        <time>2018-01-12T09:39:32Z</time>
      </trkpt>
      <trkpt lat="45.94039" lon="4.72316">
        <ele>171</ele>
        <time>2018-01-12T09:39:33Z</time>
      </trkpt>
      <trkpt lat="45.94042" lon="4.7231">
        <ele>171</ele>
        <time>2018-01-12T09:39:34Z</time>
      </trkpt>
      <trkpt lat="45.94046" lon="4.72306">
        <ele>171</ele>
        <time>2018-01-12T09:39:35Z</time>
      </trkpt>
      <trkpt lat="45.9405" lon="4.72301">
        <ele>171</ele>
        <time>2018-01-12T09:39:36Z</time>
      </trkpt>
      <trkpt lat="45.94054" lon="4.72298">
        <ele>171</ele>
        <time>2018-01-12T09:39:37Z</time>
      </trkpt>
      <trkpt lat="45.94059" lon="4.72293">
        <ele>171</ele>
        <time>2018-01-12T09:39:38Z</time>
      </trkpt>
      <trkpt lat="45.94063" lon="4.72289">
        <ele>171</ele>
        <time>2018-01-12T09:39:39Z</time>
      </trkpt>
      <trkpt lat="45.94067" lon="4.72285">
        <ele>171</ele>
        <time>2018-01-12T09:39:40Z</time>
      </trkpt>
      <trkpt lat="45.94072" lon="4.72281">
        <ele>171</ele>
        <time>2018-01-12T09:39:41Z</time>
      </trkpt>
      <trkpt lat="45.94076" lon="4.72277">
        <ele>171</ele>
        <time>2018-01-12T09:39:42Z</time>
      </trkpt>
      <trkpt lat="45.94081" lon="4.72274">
        <ele>171</ele>
        <time>2018-01-12T09:39:43Z</time>
      </trkpt>
      <trkpt lat="45.94086" lon="4.72273">
        <ele>171</ele>
        <time>2018-01-12T09:39:44Z</time>
      </trkpt>
      <trkpt lat="45.94091" lon="4.72271">
        <ele>171</ele>
        <time>2018-01-12T09:39:45Z</time>
      </trkpt>
      <trkpt lat="45.94096" lon="4.72271">
        <ele>171</ele>
        <time>2018-01-12T09:39:46Z</time>
      </trkpt>
      <trkpt lat="45.94101" lon="4.7227">
        <ele>171</ele>
        <time>2018-01-12T09:39:47Z</time>
      </trkpt>
      <trkpt lat="45.94106" lon="4.72271">
        <ele>171</ele>
        <time>2018-01-12T09:39:48Z</time>
      </trkpt>
      <trkpt lat="45.94114" lon="4.72274">
        <ele>171</ele>
        <time>2018-01-12T09:39:50Z</time>
      </trkpt>
      <trkpt lat="45.94118" lon="4.72275">
        <ele>171</ele>
        <time>2018-01-12T09:39:51Z</time>
      </trkpt>
      <trkpt lat="45.94123" lon="4.72277">
        <ele>171</ele>
        <time>2018-01-12T09:39:52Z</time>
      </trkpt>
      <trkpt lat="45.94127" lon="4.72279">
        <ele>171</ele>
        <time>2018-01-12T09:39:53Z</time>
      </trkpt>
      <trkpt lat="45.94132" lon="4.72281">
        <ele>171</ele>
        <time>2018-01-12T09:39:54Z</time>
      </trkpt>
      <trkpt lat="45.94136" lon="4.72283">
        <ele>171</ele>
        <time>2018-01-12T09:39:55Z</time>
      </trkpt>
      <trkpt lat="45.9414" lon="4.72286">
        <ele>171</ele>
        <time>2018-01-12T09:39:56Z</time>
      </trkpt>
      <trkpt lat="45.94145" lon="4.72288">
        <ele>171</ele>
        <time>2018-01-12T09:39:57Z</time>
      </trkpt>
      <trkpt lat="45.9415" lon="4.7229">
        <ele>171</ele>
        <time>2018-01-12T09:39:58Z</time>
      </trkpt>
      <trkpt lat="45.94155" lon="4.72291">
        <ele>171</ele>
        <time>2018-01-12T09:39:59Z</time>
      </trkpt>
      <trkpt lat="45.9416" lon="4.72292">
        <ele>171</ele>
        <time>2018-01-12T09:40:00Z</time>
      </trkpt>
      <trkpt lat="45.94166" lon="4.72292">
        <ele>171</ele>
        <time>2018-01-12T09:40:01Z</time>
      </trkpt>
      <trkpt lat="45.9417" lon="4.72292">
        <ele>171</ele>
        <time>2018-01-12T09:40:02Z</time>
      </trkpt>
      <trkpt lat="45.9418" lon="4.72292">
        <ele>171</ele>
        <time>2018-01-12T09:40:03Z</time>
      </trkpt>
      <trkpt lat="45.94185" lon="4.72292">
        <ele>171</ele>
        <time>2018-01-12T09:40:04Z</time>
      </trkpt>
      <trkpt lat="45.9419" lon="4.72293">
        <ele>171</ele>
        <time>2018-01-12T09:40:05Z</time>
      </trkpt>
      <trkpt lat="45.94196" lon="4.72294">
        <ele>171</ele>
        <time>2018-01-12T09:40:06Z</time>
      </trkpt>
      <trkpt lat="45.94202" lon="4.72294">
        <ele>171</ele>
        <time>2018-01-12T09:40:07Z</time>
      </trkpt>
      <trkpt lat="45.94207" lon="4.72293">
        <ele>171</ele>
        <time>2018-01-12T09:40:08Z</time>
      </trkpt>
      <trkpt lat="45.94212" lon="4.72293">
        <ele>171</ele>
        <time>2018-01-12T09:40:09Z</time>
      </trkpt>
      <trkpt lat="45.94218" lon="4.72293">
        <ele>171</ele>
        <time>2018-01-12T09:40:10Z</time>
      </trkpt>
      <trkpt lat="45.94223" lon="4.72291">
        <ele>171</ele>
        <time>2018-01-12T09:40:11Z</time>
      </trkpt>
      <trkpt lat="45.94228" lon="4.72289">
        <ele>171</ele>
        <time>2018-01-12T09:40:12Z</time>
      </trkpt>
      <trkpt lat="45.94233" lon="4.72288">
        <ele>171</ele>
        <time>2018-01-12T09:40:13Z</time>
      </trkpt>
      <trkpt lat="45.94238" lon="4.72286">
        <ele>171</ele>
        <time>2018-01-12T09:40:14Z</time>
      </trkpt>
      <trkpt lat="45.94242" lon="4.72284">
        <ele>171</ele>
        <time>2018-01-12T09:40:15Z</time>
      </trkpt>
      <trkpt lat="45.94248" lon="4.72283">
        <ele>171</ele>
        <time>2018-01-12T09:40:16Z</time>
      </trkpt>
      <trkpt lat="45.94252" lon="4.72281">
        <ele>171</ele>
        <time>2018-01-12T09:40:17Z</time>
      </trkpt>
      <trkpt lat="45.94256" lon="4.72279">
        <ele>171</ele>
        <time>2018-01-12T09:40:18Z</time>
      </trkpt>
      <trkpt lat="45.94261" lon="4.72277">
        <ele>171</ele>
        <time>2018-01-12T09:40:19Z</time>
      </trkpt>
      <trkpt lat="45.94269" lon="4.72278">
        <ele>171</ele>
        <time>2018-01-12T09:40:21Z</time>
      </trkpt>
      <trkpt lat="45.94272" lon="4.72279">
        <ele>171</ele>
        <time>2018-01-12T09:40:22Z</time>
      </trkpt>
      <trkpt lat="45.94279" lon="4.72286">
        <ele>171</ele>
        <time>2018-01-12T09:40:24Z</time>
      </trkpt>
      <trkpt lat="45.94283" lon="4.7229">
        <ele>171</ele>
        <time>2018-01-12T09:40:25Z</time>
      </trkpt>
      <trkpt lat="45.94286" lon="4.72296">
        <ele>171</ele>
        <time>2018-01-12T09:40:26Z</time>
      </trkpt>
      <trkpt lat="45.94289" lon="4.72301">
        <ele>171</ele>
        <time>2018-01-12T09:40:27Z</time>
      </trkpt>
      <trkpt lat="45.94291" lon="4.72306">
        <ele>171</ele>
        <time>2018-01-12T09:40:28Z</time>
      </trkpt>
      <trkpt lat="45.94294" lon="4.72313">
        <ele>171</ele>
        <time>2018-01-12T09:40:29Z</time>
      </trkpt>
      <trkpt lat="45.94297" lon="4.72321">
        <ele>171</ele>
        <time>2018-01-12T09:40:30Z</time>
      </trkpt>
      <trkpt lat="45.943" lon="4.72327">
        <ele>171</ele>
        <time>2018-01-12T09:40:31Z</time>
      </trkpt>
      <trkpt lat="45.94302" lon="4.72333">
        <ele>171</ele>
        <time>2018-01-12T09:40:32Z</time>
      </trkpt>
      <trkpt lat="45.94306" lon="4.72339">
        <ele>172</ele>
        <time>2018-01-12T09:40:33Z</time>
      </trkpt>
      <trkpt lat="45.94311" lon="4.7235">
        <ele>172</ele>
        <time>2018-01-12T09:40:35Z</time>
      </trkpt>
      <trkpt lat="45.94314" lon="4.72354">
        <ele>172</ele>
        <time>2018-01-12T09:40:36Z</time>
      </trkpt>
      <trkpt lat="45.94317" lon="4.72359">
        <ele>172</ele>
        <time>2018-01-12T09:40:37Z</time>
      </trkpt>
      <trkpt lat="45.9432" lon="4.72366">
        <ele>172</ele>
        <time>2018-01-12T09:40:38Z</time>
      </trkpt>
      <trkpt lat="45.94322" lon="4.72372">
        <ele>172</ele>
        <time>2018-01-12T09:40:39Z</time>
      </trkpt>
      <trkpt lat="45.94325" lon="4.72378">
        <ele>172</ele>
        <time>2018-01-12T09:40:40Z</time>
      </trkpt>
      <trkpt lat="45.94328" lon="4.72384">
        <ele>172</ele>
        <time>2018-01-12T09:40:41Z</time>
      </trkpt>
      <trkpt lat="45.94331" lon="4.72391">
        <ele>172</ele>
        <time>2018-01-12T09:40:42Z</time>
      </trkpt>
      <trkpt lat="45.94334" lon="4.72398">
        <ele>172</ele>
        <time>2018-01-12T09:40:43Z</time>
      </trkpt>
      <trkpt lat="45.94336" lon="4.72405">
        <ele>173</ele>
        <time>2018-01-12T09:40:44Z</time>
      </trkpt>
      <trkpt lat="45.94339" lon="4.72411">
        <ele>173</ele>
        <time>2018-01-12T09:40:45Z</time>
      </trkpt>
      <trkpt lat="45.94343" lon="4.72417">
        <ele>173</ele>
        <time>2018-01-12T09:40:46Z</time>
      </trkpt>
      <trkpt lat="45.94344" lon="4.72423">
        <ele>173</ele>
        <time>2018-01-12T09:40:47Z</time>
      </trkpt>
      <trkpt lat="45.94346" lon="4.72431">
        <ele>173</ele>
        <time>2018-01-12T09:40:48Z</time>
      </trkpt>
      <trkpt lat="45.94348" lon="4.72438">
        <ele>173</ele>
        <time>2018-01-12T09:40:49Z</time>
      </trkpt>
      <trkpt lat="45.94352" lon="4.72444">
        <ele>173</ele>
        <time>2018-01-12T09:40:50Z</time>
      </trkpt>
      <trkpt lat="45.94355" lon="4.72449">
        <ele>173</ele>
        <time>2018-01-12T09:40:51Z</time>
      </trkpt>
      <trkpt lat="45.94357" lon="4.72456">
        <ele>173</ele>
        <time>2018-01-12T09:40:52Z</time>
      </trkpt>
      <trkpt lat="45.9436" lon="4.72463">
        <ele>173</ele>
        <time>2018-01-12T09:40:53Z</time>
      </trkpt>
      <trkpt lat="45.94363" lon="4.7247">
        <ele>173</ele>
        <time>2018-01-12T09:40:54Z</time>
      </trkpt>
      <trkpt lat="45.94365" lon="4.72477">
        <ele>173</ele>
        <time>2018-01-12T09:40:55Z</time>
      </trkpt>
      <trkpt lat="45.94366" lon="4.72483">
        <ele>173</ele>
        <time>2018-01-12T09:40:56Z</time>
      </trkpt>
      <trkpt lat="45.94369" lon="4.72489">
        <ele>173</ele>
        <time>2018-01-12T09:40:57Z</time>
      </trkpt>
      <trkpt lat="45.9437" lon="4.72497">
        <ele>173</ele>
        <time>2018-01-12T09:40:58Z</time>
      </trkpt>
      <trkpt lat="45.94373" lon="4.72503">
        <ele>173</ele>
        <time>2018-01-12T09:40:59Z</time>
      </trkpt>
      <trkpt lat="45.94376" lon="4.7251">
        <ele>174</ele>
        <time>2018-01-12T09:41:00Z</time>
      </trkpt>
      <trkpt lat="45.94378" lon="4.72517">
        <ele>174</ele>
        <time>2018-01-12T09:41:01Z</time>
      </trkpt>
      <trkpt lat="45.9438" lon="4.72525">
        <ele>174</ele>
        <time>2018-01-12T09:41:02Z</time>
      </trkpt>
      <trkpt lat="45.94382" lon="4.72532">
        <ele>174</ele>
        <time>2018-01-12T09:41:03Z</time>
      </trkpt>
      <trkpt lat="45.94384" lon="4.72539">
        <ele>174</ele>
        <time>2018-01-12T09:41:04Z</time>
      </trkpt>
      <trkpt lat="45.94387" lon="4.72548">
        <ele>173</ele>
        <time>2018-01-12T09:41:05Z</time>
      </trkpt>
      <trkpt lat="45.9439" lon="4.72558">
        <ele>173</ele>
        <time>2018-01-12T09:41:06Z</time>
      </trkpt>
      <trkpt lat="45.94393" lon="4.72565">
        <ele>173</ele>
        <time>2018-01-12T09:41:07Z</time>
      </trkpt>
      <trkpt lat="45.94395" lon="4.72572">
        <ele>173</ele>
        <time>2018-01-12T09:41:08Z</time>
      </trkpt>
      <trkpt lat="45.94396" lon="4.72579">
        <ele>173</ele>
        <time>2018-01-12T09:41:09Z</time>
      </trkpt>
      <trkpt lat="45.94398" lon="4.72587">
        <ele>173</ele>
        <time>2018-01-12T09:41:10Z</time>
      </trkpt>
      <trkpt lat="45.944" lon="4.72595">
        <ele>173</ele>
        <time>2018-01-12T09:41:11Z</time>
      </trkpt>
      <trkpt lat="45.94401" lon="4.72602">
        <ele>173</ele>
        <time>2018-01-12T09:41:12Z</time>
      </trkpt>
      <trkpt lat="45.94402" lon="4.72609">
        <ele>173</ele>
        <time>2018-01-12T09:41:13Z</time>
      </trkpt>
      <trkpt lat="45.94402" lon="4.72617">
        <ele>173</ele>
        <time>2018-01-12T09:41:14Z</time>
      </trkpt>
      <trkpt lat="45.94402" lon="4.72625">
        <ele>173</ele>
        <time>2018-01-12T09:41:15Z</time>
      </trkpt>
      <trkpt lat="45.94403" lon="4.72634">
        <ele>174</ele>
        <time>2018-01-12T09:41:16Z</time>
      </trkpt>
      <trkpt lat="45.94403" lon="4.72641">
        <ele>174</ele>
        <time>2018-01-12T09:41:17Z</time>
      </trkpt>
      <trkpt lat="45.94405" lon="4.72649">
        <ele>174</ele>
        <time>2018-01-12T09:41:18Z</time>
      </trkpt>
      <trkpt lat="45.94404" lon="4.72658">
        <ele>174</ele>
        <time>2018-01-12T09:41:19Z</time>
      </trkpt>
      <trkpt lat="45.94406" lon="4.72666">
        <ele>174</ele>
        <time>2018-01-12T09:41:20Z</time>
      </trkpt>
      <trkpt lat="45.94407" lon="4.72673">
        <ele>173</ele>
        <time>2018-01-12T09:41:21Z</time>
      </trkpt>
      <trkpt lat="45.94407" lon="4.72681">
        <ele>173</ele>
        <time>2018-01-12T09:41:22Z</time>
      </trkpt>
      <trkpt lat="45.94408" lon="4.72689">
        <ele>173</ele>
        <time>2018-01-12T09:41:23Z</time>
      </trkpt>
      <trkpt lat="45.94409" lon="4.72696">
        <ele>173</ele>
        <time>2018-01-12T09:41:24Z</time>
      </trkpt>
      <trkpt lat="45.9441" lon="4.72704">
        <ele>172</ele>
        <time>2018-01-12T09:41:25Z</time>
      </trkpt>
      <trkpt lat="45.94411" lon="4.72712">
        <ele>172</ele>
        <time>2018-01-12T09:41:26Z</time>
      </trkpt>
      <trkpt lat="45.94411" lon="4.72719">
        <ele>172</ele>
        <time>2018-01-12T09:41:27Z</time>
      </trkpt>
      <trkpt lat="45.94412" lon="4.72726">
        <ele>172</ele>
        <time>2018-01-12T09:41:28Z</time>
      </trkpt>
      <trkpt lat="45.94413" lon="4.72733">
        <ele>172</ele>
        <time>2018-01-12T09:41:29Z</time>
      </trkpt>
      <trkpt lat="45.94414" lon="4.72741">
        <ele>171</ele>
        <time>2018-01-12T09:41:30Z</time>
      </trkpt>
      <trkpt lat="45.94415" lon="4.72749">
        <ele>171</ele>
        <time>2018-01-12T09:41:31Z</time>
      </trkpt>
      <trkpt lat="45.94416" lon="4.72757">
        <ele>170</ele>
        <time>2018-01-12T09:41:32Z</time>
      </trkpt>
      <trkpt lat="45.94416" lon="4.72763">
        <ele>170</ele>
        <time>2018-01-12T09:41:33Z</time>
      </trkpt>
      <trkpt lat="45.94418" lon="4.72772">
        <ele>169</ele>
        <time>2018-01-12T09:41:34Z</time>
      </trkpt>
      <trkpt lat="45.94419" lon="4.72779">
        <ele>168</ele>
        <time>2018-01-12T09:41:35Z</time>
      </trkpt>
      <trkpt lat="45.9442" lon="4.72784">
        <ele>168</ele>
        <time>2018-01-12T09:41:36Z</time>
      </trkpt>
      <trkpt lat="45.94423" lon="4.72794">
        <ele>168</ele>
        <time>2018-01-12T09:41:38Z</time>
      </trkpt>
      <trkpt lat="45.94424" lon="4.728">
        <ele>167</ele>
        <time>2018-01-12T09:41:39Z</time>
      </trkpt>
      <trkpt lat="45.94425" lon="4.72812">
        <ele>167</ele>
        <time>2018-01-12T09:41:41Z</time>
      </trkpt>
      <trkpt lat="45.94425" lon="4.72819">
        <ele>167</ele>
        <time>2018-01-12T09:41:42Z</time>
      </trkpt>
      <trkpt lat="45.94427" lon="4.72831">
        <ele>166</ele>
        <time>2018-01-12T09:41:44Z</time>
      </trkpt>
      <trkpt lat="45.9443" lon="4.72839">
        <ele>166</ele>
        <time>2018-01-12T09:41:45Z</time>
      </trkpt>
      <trkpt lat="45.94431" lon="4.7285">
        <ele>166</ele>
        <time>2018-01-12T09:41:47Z</time>
      </trkpt>
      <trkpt lat="45.94432" lon="4.72856">
        <ele>166</ele>
        <time>2018-01-12T09:41:48Z</time>
      </trkpt>
      <trkpt lat="45.94433" lon="4.72867">
        <ele>166</ele>
        <time>2018-01-12T09:41:50Z</time>
      </trkpt>
      <trkpt lat="45.94434" lon="4.72872">
        <ele>166</ele>
        <time>2018-01-12T09:41:51Z</time>
      </trkpt>
      <trkpt lat="45.94435" lon="4.72883">
        <ele>166</ele>
        <time>2018-01-12T09:41:53Z</time>
      </trkpt>
      <trkpt lat="45.94436" lon="4.72889">
        <ele>166</ele>
        <time>2018-01-12T09:41:54Z</time>
      </trkpt>
      <trkpt lat="45.94437" lon="4.72896">
        <ele>166</ele>
        <time>2018-01-12T09:41:55Z</time>
      </trkpt>
      <trkpt lat="45.94438" lon="4.72902">
        <ele>166</ele>
        <time>2018-01-12T09:41:56Z</time>
      </trkpt>
      <trkpt lat="45.94439" lon="4.72915">
        <ele>166</ele>
        <time>2018-01-12T09:41:58Z</time>
      </trkpt>
      <trkpt lat="45.9444" lon="4.72921">
        <ele>167</ele>
        <time>2018-01-12T09:41:59Z</time>
      </trkpt>
      <trkpt lat="45.94441" lon="4.72934">
        <ele>167</ele>
        <time>2018-01-12T09:42:01Z</time>
      </trkpt>
      <trkpt lat="45.94441" lon="4.72939">
        <ele>167</ele>
        <time>2018-01-12T09:42:02Z</time>
      </trkpt>
      <trkpt lat="45.94443" lon="4.72951">
        <ele>167</ele>
        <time>2018-01-12T09:42:04Z</time>
      </trkpt>
      <trkpt lat="45.94443" lon="4.72959">
        <ele>167</ele>
        <time>2018-01-12T09:42:05Z</time>
      </trkpt>
      <trkpt lat="45.94444" lon="4.72967">
        <ele>167</ele>
        <time>2018-01-12T09:42:06Z</time>
      </trkpt>
      <trkpt lat="45.94446" lon="4.72974">
        <ele>167</ele>
        <time>2018-01-12T09:42:07Z</time>
      </trkpt>
      <trkpt lat="45.94446" lon="4.72982">
        <ele>167</ele>
        <time>2018-01-12T09:42:08Z</time>
      </trkpt>
      <trkpt lat="45.94448" lon="4.72989">
        <ele>167</ele>
        <time>2018-01-12T09:42:09Z</time>
      </trkpt>
      <trkpt lat="45.94449" lon="4.72998">
        <ele>167</ele>
        <time>2018-01-12T09:42:10Z</time>
      </trkpt>
      <trkpt lat="45.94451" lon="4.73006">
        <ele>169</ele>
        <time>2018-01-12T09:42:11Z</time>
      </trkpt>
      <trkpt lat="45.94452" lon="4.73015">
        <ele>169</ele>
        <time>2018-01-12T09:42:12Z</time>
      </trkpt>
      <trkpt lat="45.94453" lon="4.73023">
        <ele>169</ele>
        <time>2018-01-12T09:42:13Z</time>
      </trkpt>
      <trkpt lat="45.94454" lon="4.73032">
        <ele>169</ele>
        <time>2018-01-12T09:42:14Z</time>
      </trkpt>
      <trkpt lat="45.94455" lon="4.7304">
        <ele>169</ele>
        <time>2018-01-12T09:42:15Z</time>
      </trkpt>
      <trkpt lat="45.94456" lon="4.7305">
        <ele>170</ele>
        <time>2018-01-12T09:42:16Z</time>
      </trkpt>
      <trkpt lat="45.94458" lon="4.73059">
        <ele>170</ele>
        <time>2018-01-12T09:42:17Z</time>
      </trkpt>
      <trkpt lat="45.9446" lon="4.73068">
        <ele>170</ele>
        <time>2018-01-12T09:42:18Z</time>
      </trkpt>
      <trkpt lat="45.9446" lon="4.73077">
        <ele>170</ele>
        <time>2018-01-12T09:42:19Z</time>
      </trkpt>
      <trkpt lat="45.94461" lon="4.73086">
        <ele>171</ele>
        <time>2018-01-12T09:42:20Z</time>
      </trkpt>
      <trkpt lat="45.94463" lon="4.73094">
        <ele>171</ele>
        <time>2018-01-12T09:42:21Z</time>
      </trkpt>
      <trkpt lat="45.94464" lon="4.73101">
        <ele>172</ele>
        <time>2018-01-12T09:42:22Z</time>
      </trkpt>
      <trkpt lat="45.94465" lon="4.73108">
        <ele>172</ele>
        <time>2018-01-12T09:42:23Z</time>
      </trkpt>
      <trkpt lat="45.94466" lon="4.73115">
        <ele>172</ele>
        <time>2018-01-12T09:42:24Z</time>
      </trkpt>
      <trkpt lat="45.94466" lon="4.73123">
        <ele>172</ele>
        <time>2018-01-12T09:42:25Z</time>
      </trkpt>
      <trkpt lat="45.94467" lon="4.73135">
        <ele>172</ele>
        <time>2018-01-12T09:42:27Z</time>
      </trkpt>
      <trkpt lat="45.94468" lon="4.73143">
        <ele>172</ele>
        <time>2018-01-12T09:42:28Z</time>
      </trkpt>
      <trkpt lat="45.94469" lon="4.7315">
        <ele>172</ele>
        <time>2018-01-12T09:42:29Z</time>
      </trkpt>
      <trkpt lat="45.9447" lon="4.73156">
        <ele>172</ele>
        <time>2018-01-12T09:42:30Z</time>
      </trkpt>
      <trkpt lat="45.94471" lon="4.73164">
        <ele>172</ele>
        <time>2018-01-12T09:42:31Z</time>
      </trkpt>
      <trkpt lat="45.94471" lon="4.7317">
        <ele>174</ele>
        <time>2018-01-12T09:42:32Z</time>
      </trkpt>
      <trkpt lat="45.94472" lon="4.73177">
        <ele>174</ele>
        <time>2018-01-12T09:42:33Z</time>
      </trkpt>
      <trkpt lat="45.94473" lon="4.73184">
        <ele>174</ele>
        <time>2018-01-12T09:42:34Z</time>
      </trkpt>
      <trkpt lat="45.94473" lon="4.73191">
        <ele>174</ele>
        <time>2018-01-12T09:42:35Z</time>
      </trkpt>
      <trkpt lat="45.94474" lon="4.73198">
        <ele>174</ele>
        <time>2018-01-12T09:42:36Z</time>
      </trkpt>
      <trkpt lat="45.94475" lon="4.73204">
        <ele>175</ele>
        <time>2018-01-12T09:42:37Z</time>
      </trkpt>
      <trkpt lat="45.94477" lon="4.73212">
        <ele>175</ele>
        <time>2018-01-12T09:42:38Z</time>
      </trkpt>
      <trkpt lat="45.94478" lon="4.73219">
        <ele>175</ele>
        <time>2018-01-12T09:42:39Z</time>
      </trkpt>
      <trkpt lat="45.94479" lon="4.73225">
        <ele>175</ele>
        <time>2018-01-12T09:42:40Z</time>
      </trkpt>
      <trkpt lat="45.94481" lon="4.73237">
        <ele>175</ele>
        <time>2018-01-12T09:42:42Z</time>
      </trkpt>
      <trkpt lat="45.94482" lon="4.73242">
        <ele>175</ele>
        <time>2018-01-12T09:42:43Z</time>
      </trkpt>
      <trkpt lat="45.94482" lon="4.73254">
        <ele>176</ele>
        <time>2018-01-12T09:42:45Z</time>
      </trkpt>
      <trkpt lat="45.94483" lon="4.7326">
        <ele>176</ele>
        <time>2018-01-12T09:42:46Z</time>
      </trkpt>
      <trkpt lat="45.94486" lon="4.7327">
        <ele>177</ele>
        <time>2018-01-12T09:42:48Z</time>
      </trkpt>
      <trkpt lat="45.94488" lon="4.73274">
        <ele>177</ele>
        <time>2018-01-12T09:42:49Z</time>
      </trkpt>
      <trkpt lat="45.94488" lon="4.73283">
        <ele>177</ele>
        <time>2018-01-12T09:42:51Z</time>
      </trkpt>
      <trkpt lat="45.94489" lon="4.73288">
        <ele>177</ele>
        <time>2018-01-12T09:42:52Z</time>
      </trkpt>
      <trkpt lat="45.94489" lon="4.73293">
        <ele>177</ele>
        <time>2018-01-12T09:42:53Z</time>
      </trkpt>
      <trkpt lat="45.94488" lon="4.73301">
        <ele>177</ele>
        <time>2018-01-12T09:42:54Z</time>
      </trkpt>
      <trkpt lat="45.9449" lon="4.73311">
        <ele>177</ele>
        <time>2018-01-12T09:42:56Z</time>
      </trkpt>
      <trkpt lat="45.94491" lon="4.73317">
        <ele>177</ele>
        <time>2018-01-12T09:42:57Z</time>
      </trkpt>
      <trkpt lat="45.94492" lon="4.73328">
        <ele>177</ele>
        <time>2018-01-12T09:42:59Z</time>
      </trkpt>
      <trkpt lat="45.94492" lon="4.73334">
        <ele>178</ele>
        <time>2018-01-12T09:43:00Z</time>
      </trkpt>
      <trkpt lat="45.94493" lon="4.73346">
        <ele>178</ele>
        <time>2018-01-12T09:43:02Z</time>
      </trkpt>
      <trkpt lat="45.94494" lon="4.73352">
        <ele>178</ele>
        <time>2018-01-12T09:43:03Z</time>
      </trkpt>
      <trkpt lat="45.94495" lon="4.73363">
        <ele>179</ele>
        <time>2018-01-12T09:43:05Z</time>
      </trkpt>
      <trkpt lat="45.94495" lon="4.73369">
        <ele>179</ele>
        <time>2018-01-12T09:43:06Z</time>
      </trkpt>
      <trkpt lat="45.94496" lon="4.7338">
        <ele>179</ele>
        <time>2018-01-12T09:43:08Z</time>
      </trkpt>
      <trkpt lat="45.94497" lon="4.73386">
        <ele>179</ele>
        <time>2018-01-12T09:43:09Z</time>
      </trkpt>
      <trkpt lat="45.94498" lon="4.73398">
        <ele>180</ele>
        <time>2018-01-12T09:43:11Z</time>
      </trkpt>
      <trkpt lat="45.94498" lon="4.73403">
        <ele>180</ele>
        <time>2018-01-12T09:43:12Z</time>
      </trkpt>
      <trkpt lat="45.94499" lon="4.73415">
        <ele>180</ele>
        <time>2018-01-12T09:43:14Z</time>
      </trkpt>
      <trkpt lat="45.94498" lon="4.7342">
        <ele>180</ele>
        <time>2018-01-12T09:43:15Z</time>
      </trkpt>
      <trkpt lat="45.94499" lon="4.73431">
        <ele>181</ele>
        <time>2018-01-12T09:43:17Z</time>
      </trkpt>
      <trkpt lat="45.94499" lon="4.73436">
        <ele>181</ele>
        <time>2018-01-12T09:43:18Z</time>
      </trkpt>
      <trkpt lat="45.94499" lon="4.73447">
        <ele>181</ele>
        <time>2018-01-12T09:43:20Z</time>
      </trkpt>
      <trkpt lat="45.94499" lon="4.73452">
        <ele>182</ele>
        <time>2018-01-12T09:43:21Z</time>
      </trkpt>
      <trkpt lat="45.94498" lon="4.73463">
        <ele>182</ele>
        <time>2018-01-12T09:43:23Z</time>
      </trkpt>
      <trkpt lat="45.94498" lon="4.73469">
        <ele>182</ele>
        <time>2018-01-12T09:43:24Z</time>
      </trkpt>
      <trkpt lat="45.94498" lon="4.73479">
        <ele>182</ele>
        <time>2018-01-12T09:43:26Z</time>
      </trkpt>
      <trkpt lat="45.94498" lon="4.73484">
        <ele>182</ele>
        <time>2018-01-12T09:43:27Z</time>
      </trkpt>
      <trkpt lat="45.94498" lon="4.73496">
        <ele>183</ele>
        <time>2018-01-12T09:43:29Z</time>
      </trkpt>
      <trkpt lat="45.94498" lon="4.73501">
        <ele>183</ele>
        <time>2018-01-12T09:43:30Z</time>
      </trkpt>
      <trkpt lat="45.94498" lon="4.73512">
        <ele>184</ele>
        <time>2018-01-12T09:43:32Z</time>
      </trkpt>
      <trkpt lat="45.94497" lon="4.73517">
        <ele>184</ele>
        <time>2018-01-12T09:43:33Z</time>
      </trkpt>
      <trkpt lat="45.94497" lon="4.73528">
        <ele>184</ele>
        <time>2018-01-12T09:43:35Z</time>
      </trkpt>
      <trkpt lat="45.94497" lon="4.73534">
        <ele>184</ele>
        <time>2018-01-12T09:43:36Z</time>
      </trkpt>
      <trkpt lat="45.94496" lon="4.73544">
        <ele>185</ele>
        <time>2018-01-12T09:43:38Z</time>
      </trkpt>
      <trkpt lat="45.94496" lon="4.73548">
        <ele>185</ele>
        <time>2018-01-12T09:43:39Z</time>
      </trkpt>
      <trkpt lat="45.94496" lon="4.73559">
        <ele>185</ele>
        <time>2018-01-12T09:43:41Z</time>
      </trkpt>
      <trkpt lat="45.94497" lon="4.73565">
        <ele>185</ele>
        <time>2018-01-12T09:43:42Z</time>
      </trkpt>
      <trkpt lat="45.94498" lon="4.73575">
        <ele>185</ele>
        <time>2018-01-12T09:43:44Z</time>
      </trkpt>
      <trkpt lat="45.94498" lon="4.73581">
        <ele>185</ele>
        <time>2018-01-12T09:43:45Z</time>
      </trkpt>
      <trkpt lat="45.94499" lon="4.73593">
        <ele>185</ele>
        <time>2018-01-12T09:43:47Z</time>
      </trkpt>
      <trkpt lat="45.94499" lon="4.73599">
        <ele>185</ele>
        <time>2018-01-12T09:43:48Z</time>
      </trkpt>
      <trkpt lat="45.945" lon="4.7361">
        <ele>186</ele>
        <time>2018-01-12T09:43:50Z</time>
      </trkpt>
      <trkpt lat="45.945" lon="4.73616">
        <ele>184</ele>
        <time>2018-01-12T09:43:51Z</time>
      </trkpt>
      <trkpt lat="45.945" lon="4.73627">
        <ele>186</ele>
        <time>2018-01-12T09:43:53Z</time>
      </trkpt>
      <trkpt lat="45.945" lon="4.73633">
        <ele>186</ele>
        <time>2018-01-12T09:43:54Z</time>
      </trkpt>
      <trkpt lat="45.94498" lon="4.73645">
        <ele>186</ele>
        <time>2018-01-12T09:43:56Z</time>
      </trkpt>
      <trkpt lat="45.94497" lon="4.73651">
        <ele>185</ele>
        <time>2018-01-12T09:43:57Z</time>
      </trkpt>
      <trkpt lat="45.94495" lon="4.73662">
        <ele>185</ele>
        <time>2018-01-12T09:43:59Z</time>
      </trkpt>
      <trkpt lat="45.94493" lon="4.73668">
        <ele>185</ele>
        <time>2018-01-12T09:44:00Z</time>
      </trkpt>
      <trkpt lat="45.94491" lon="4.73681">
        <ele>186</ele>
        <time>2018-01-12T09:44:02Z</time>
      </trkpt>
      <trkpt lat="45.9449" lon="4.73689">
        <ele>186</ele>
        <time>2018-01-12T09:44:03Z</time>
      </trkpt>
      <trkpt lat="45.94489" lon="4.73695">
        <ele>186</ele>
        <time>2018-01-12T09:44:04Z</time>
      </trkpt>
      <trkpt lat="45.94489" lon="4.73703">
        <ele>186</ele>
        <time>2018-01-12T09:44:05Z</time>
      </trkpt>
      <trkpt lat="45.94489" lon="4.7371">
        <ele>186</ele>
        <time>2018-01-12T09:44:06Z</time>
      </trkpt>
      <trkpt lat="45.94489" lon="4.73716">
        <ele>186</ele>
        <time>2018-01-12T09:44:07Z</time>
      </trkpt>
      <trkpt lat="45.94488" lon="4.73723">
        <ele>186</ele>
        <time>2018-01-12T09:44:08Z</time>
      </trkpt>
      <trkpt lat="45.94487" lon="4.73729">
        <ele>186</ele>
        <time>2018-01-12T09:44:09Z</time>
      </trkpt>
      <trkpt lat="45.94483" lon="4.73738">
        <ele>186</ele>
        <time>2018-01-12T09:44:10Z</time>
      </trkpt>
      <trkpt lat="45.94483" lon="4.73746">
        <ele>186</ele>
        <time>2018-01-12T09:44:11Z</time>
      </trkpt>
      <trkpt lat="45.94483" lon="4.73753">
        <ele>186</ele>
        <time>2018-01-12T09:44:12Z</time>
      </trkpt>
      <trkpt lat="45.94481" lon="4.7376">
        <ele>186</ele>
        <time>2018-01-12T09:44:13Z</time>
      </trkpt>
      <trkpt lat="45.94482" lon="4.7377">
        <ele>186</ele>
        <time>2018-01-12T09:44:15Z</time>
      </trkpt>
      <trkpt lat="45.94485" lon="4.73776">
        <ele>186</ele>
        <time>2018-01-12T09:44:16Z</time>
      </trkpt>
      <trkpt lat="45.94492" lon="4.73782">
        <ele>186</ele>
        <time>2018-01-12T09:44:18Z</time>
      </trkpt>
      <trkpt lat="45.94496" lon="4.73785">
        <ele>186</ele>
        <time>2018-01-12T09:44:19Z</time>
      </trkpt>
      <trkpt lat="45.94504" lon="4.73791">
        <ele>186</ele>
        <time>2018-01-12T09:44:21Z</time>
      </trkpt>
      <trkpt lat="45.94508" lon="4.73793">
        <ele>186</ele>
        <time>2018-01-12T09:44:22Z</time>
      </trkpt>
      <trkpt lat="45.94512" lon="4.73797">
        <ele>186</ele>
        <time>2018-01-12T09:44:23Z</time>
      </trkpt>
      <trkpt lat="45.94516" lon="4.738">
        <ele>186</ele>
        <time>2018-01-12T09:44:24Z</time>
      </trkpt>
      <trkpt lat="45.94521" lon="4.73806">
        <ele>186</ele>
        <time>2018-01-12T09:44:26Z</time>
      </trkpt>
      <trkpt lat="45.94524" lon="4.73812">
        <ele>186</ele>
        <time>2018-01-12T09:44:27Z</time>
      </trkpt>
      <trkpt lat="45.94531" lon="4.73817">
        <ele>186</ele>
        <time>2018-01-12T09:44:29Z</time>
      </trkpt>
      <trkpt lat="45.94534" lon="4.73821">
        <ele>186</ele>
        <time>2018-01-12T09:44:30Z</time>
      </trkpt>
      <trkpt lat="45.94539" lon="4.73823">
        <ele>186</ele>
        <time>2018-01-12T09:44:31Z</time>
      </trkpt>
      <trkpt lat="45.94542" lon="4.73827">
        <ele>186</ele>
        <time>2018-01-12T09:44:32Z</time>
      </trkpt>
      <trkpt lat="45.94549" lon="4.73834">
        <ele>186</ele>
        <time>2018-01-12T09:44:34Z</time>
      </trkpt>
      <trkpt lat="45.94553" lon="4.73839">
        <ele>186</ele>
        <time>2018-01-12T09:44:35Z</time>
      </trkpt>
      <trkpt lat="45.9456" lon="4.73847">
        <ele>186</ele>
        <time>2018-01-12T09:44:37Z</time>
      </trkpt>
      <trkpt lat="45.94564" lon="4.7385">
        <ele>186</ele>
        <time>2018-01-12T09:44:38Z</time>
      </trkpt>
      <trkpt lat="45.94567" lon="4.73854">
        <ele>186</ele>
        <time>2018-01-12T09:44:39Z</time>
      </trkpt>
      <trkpt lat="45.94571" lon="4.73859">
        <ele>186</ele>
        <time>2018-01-12T09:44:40Z</time>
      </trkpt>
      <trkpt lat="45.94576" lon="4.73866">
        <ele>186</ele>
        <time>2018-01-12T09:44:42Z</time>
      </trkpt>
      <trkpt lat="45.94578" lon="4.7387">
        <ele>186</ele>
        <time>2018-01-12T09:44:43Z</time>
      </trkpt>
      <trkpt lat="45.94582" lon="4.73874">
        <ele>186</ele>
        <time>2018-01-12T09:44:44Z</time>
      </trkpt>
      <trkpt lat="45.94585" lon="4.73878">
        <ele>187</ele>
        <time>2018-01-12T09:44:45Z</time>
      </trkpt>
      <trkpt lat="45.94589" lon="4.73882">
        <ele>187</ele>
        <time>2018-01-12T09:44:46Z</time>
      </trkpt>
      <trkpt lat="45.94593" lon="4.73887">
        <ele>187</ele>
        <time>2018-01-12T09:44:47Z</time>
      </trkpt>
      <trkpt lat="45.94598" lon="4.73891">
        <ele>187</ele>
        <time>2018-01-12T09:44:48Z</time>
      </trkpt>
      <trkpt lat="45.94601" lon="4.73895">
        <ele>187</ele>
        <time>2018-01-12T09:44:49Z</time>
      </trkpt>
      <trkpt lat="45.94603" lon="4.73899">
        <ele>187</ele>
        <time>2018-01-12T09:44:50Z</time>
      </trkpt>
      <trkpt lat="45.94608" lon="4.73903">
        <ele>187</ele>
        <time>2018-01-12T09:44:51Z</time>
      </trkpt>
      <trkpt lat="45.94612" lon="4.73908">
        <ele>187</ele>
        <time>2018-01-12T09:44:52Z</time>
      </trkpt>
      <trkpt lat="45.94616" lon="4.73912">
        <ele>187</ele>
        <time>2018-01-12T09:44:53Z</time>
      </trkpt>
      <trkpt lat="45.94622" lon="4.7392">
        <ele>187</ele>
        <time>2018-01-12T09:44:55Z</time>
      </trkpt>
      <trkpt lat="45.94626" lon="4.73925">
        <ele>187</ele>
        <time>2018-01-12T09:44:56Z</time>
      </trkpt>
      <trkpt lat="45.94629" lon="4.73929">
        <ele>187</ele>
        <time>2018-01-12T09:44:57Z</time>
      </trkpt>
      <trkpt lat="45.94633" lon="4.73934">
        <ele>187</ele>
        <time>2018-01-12T09:44:58Z</time>
      </trkpt>
      <trkpt lat="45.94639" lon="4.73941">
        <ele>187</ele>
        <time>2018-01-12T09:45:00Z</time>
      </trkpt>
      <trkpt lat="45.94642" lon="4.73945">
        <ele>187</ele>
        <time>2018-01-12T09:45:01Z</time>
      </trkpt>
      <trkpt lat="45.94649" lon="4.73953">
        <ele>187</ele>
        <time>2018-01-12T09:45:03Z</time>
      </trkpt>
      <trkpt lat="45.94652" lon="4.73957">
        <ele>187</ele>
        <time>2018-01-12T09:45:04Z</time>
      </trkpt>
      <trkpt lat="45.94656" lon="4.73962">
        <ele>187</ele>
        <time>2018-01-12T09:45:05Z</time>
      </trkpt>
      <trkpt lat="45.94659" lon="4.73967">
        <ele>187</ele>
        <time>2018-01-12T09:45:06Z</time>
      </trkpt>
      <trkpt lat="45.94663" lon="4.73972">
        <ele>187</ele>
        <time>2018-01-12T09:45:07Z</time>
      </trkpt>
      <trkpt lat="45.94667" lon="4.73976">
        <ele>187</ele>
        <time>2018-01-12T09:45:08Z</time>
      </trkpt>
      <trkpt lat="45.9467" lon="4.73981">
        <ele>187</ele>
        <time>2018-01-12T09:45:09Z</time>
      </trkpt>
      <trkpt lat="45.94674" lon="4.73986">
        <ele>187</ele>
        <time>2018-01-12T09:45:10Z</time>
      </trkpt>
      <trkpt lat="45.94677" lon="4.73991">
        <ele>187</ele>
        <time>2018-01-12T09:45:11Z</time>
      </trkpt>
      <trkpt lat="45.9468" lon="4.73996">
        <ele>187</ele>
        <time>2018-01-12T09:45:12Z</time>
      </trkpt>
      <trkpt lat="45.94686" lon="4.74005">
        <ele>187</ele>
        <time>2018-01-12T09:45:14Z</time>
      </trkpt>
      <trkpt lat="45.9469" lon="4.74009">
        <ele>187</ele>
        <time>2018-01-12T09:45:15Z</time>
      </trkpt>
      <trkpt lat="45.94693" lon="4.74013">
        <ele>187</ele>
        <time>2018-01-12T09:45:16Z</time>
      </trkpt>
      <trkpt lat="45.94697" lon="4.74017">
        <ele>187</ele>
        <time>2018-01-12T09:45:17Z</time>
      </trkpt>
      <trkpt lat="45.94701" lon="4.74022">
        <ele>187</ele>
        <time>2018-01-12T09:45:18Z</time>
      </trkpt>
      <trkpt lat="45.94703" lon="4.74026">
        <ele>187</ele>
        <time>2018-01-12T09:45:19Z</time>
      </trkpt>
      <trkpt lat="45.94709" lon="4.74033">
        <ele>187</ele>
        <time>2018-01-12T09:45:21Z</time>
      </trkpt>
      <trkpt lat="45.94712" lon="4.74037">
        <ele>187</ele>
        <time>2018-01-12T09:45:22Z</time>
      </trkpt>
      <trkpt lat="45.94715" lon="4.74042">
        <ele>187</ele>
        <time>2018-01-12T09:45:23Z</time>
      </trkpt>
      <trkpt lat="45.94718" lon="4.74046">
        <ele>187</ele>
        <time>2018-01-12T09:45:24Z</time>
      </trkpt>
      <trkpt lat="45.94722" lon="4.74051">
        <ele>187</ele>
        <time>2018-01-12T09:45:25Z</time>
      </trkpt>
      <trkpt lat="45.94725" lon="4.74056">
        <ele>188</ele>
        <time>2018-01-12T09:45:26Z</time>
      </trkpt>
      <trkpt lat="45.94728" lon="4.7406">
        <ele>188</ele>
        <time>2018-01-12T09:45:27Z</time>
      </trkpt>
      <trkpt lat="45.94731" lon="4.74065">
        <ele>188</ele>
        <time>2018-01-12T09:45:28Z</time>
      </trkpt>
      <trkpt lat="45.94735" lon="4.74069">
        <ele>188</ele>
        <time>2018-01-12T09:45:29Z</time>
      </trkpt>
      <trkpt lat="45.94738" lon="4.74075">
        <ele>188</ele>
        <time>2018-01-12T09:45:30Z</time>
      </trkpt>
      <trkpt lat="45.94744" lon="4.74083">
        <ele>189</ele>
        <time>2018-01-12T09:45:32Z</time>
      </trkpt>
      <trkpt lat="45.94748" lon="4.74086">
        <ele>189</ele>
        <time>2018-01-12T09:45:33Z</time>
      </trkpt>
      <trkpt lat="45.94754" lon="4.74094">
        <ele>189</ele>
        <time>2018-01-12T09:45:35Z</time>
      </trkpt>
      <trkpt lat="45.94757" lon="4.74098">
        <ele>189</ele>
        <time>2018-01-12T09:45:36Z</time>
      </trkpt>
      <trkpt lat="45.94763" lon="4.74106">
        <ele>189</ele>
        <time>2018-01-12T09:45:38Z</time>
      </trkpt>
      <trkpt lat="45.94766" lon="4.7411">
        <ele>189</ele>
        <time>2018-01-12T09:45:39Z</time>
      </trkpt>
      <trkpt lat="45.94773" lon="4.74119">
        <ele>189</ele>
        <time>2018-01-12T09:45:41Z</time>
      </trkpt>
      <trkpt lat="45.94776" lon="4.74124">
        <ele>189</ele>
        <time>2018-01-12T09:45:42Z</time>
      </trkpt>
      <trkpt lat="45.94783" lon="4.74132">
        <ele>189</ele>
        <time>2018-01-12T09:45:44Z</time>
      </trkpt>
      <trkpt lat="45.94785" lon="4.74137">
        <ele>189</ele>
        <time>2018-01-12T09:45:45Z</time>
      </trkpt>
      <trkpt lat="45.94788" lon="4.74142">
        <ele>189</ele>
        <time>2018-01-12T09:45:46Z</time>
      </trkpt>
      <trkpt lat="45.94791" lon="4.74147">
        <ele>189</ele>
        <time>2018-01-12T09:45:47Z</time>
      </trkpt>
      <trkpt lat="45.94797" lon="4.74157">
        <ele>189</ele>
        <time>2018-01-12T09:45:49Z</time>
      </trkpt>
      <trkpt lat="45.94799" lon="4.74162">
        <ele>189</ele>
        <time>2018-01-12T09:45:50Z</time>
      </trkpt>
      <trkpt lat="45.94803" lon="4.74167">
        <ele>189</ele>
        <time>2018-01-12T09:45:51Z</time>
      </trkpt>
      <trkpt lat="45.94805" lon="4.74172">
        <ele>189</ele>
        <time>2018-01-12T09:45:52Z</time>
      </trkpt>
      <trkpt lat="45.94809" lon="4.74178">
        <ele>189</ele>
        <time>2018-01-12T09:45:53Z</time>
      </trkpt>
      <trkpt lat="45.94812" lon="4.74184">
        <ele>189</ele>
        <time>2018-01-12T09:45:54Z</time>
      </trkpt>
      <trkpt lat="45.94815" lon="4.74189">
        <ele>189</ele>
        <time>2018-01-12T09:45:55Z</time>
      </trkpt>
      <trkpt lat="45.94819" lon="4.74194">
        <ele>189</ele>
        <time>2018-01-12T09:45:56Z</time>
      </trkpt>
      <trkpt lat="45.94822" lon="4.742">
        <ele>189</ele>
        <time>2018-01-12T09:45:57Z</time>
      </trkpt>
      <trkpt lat="45.94825" lon="4.74205">
        <ele>189</ele>
        <time>2018-01-12T09:45:58Z</time>
      </trkpt>
      <trkpt lat="45.94829" lon="4.74216">
        <ele>188</ele>
        <time>2018-01-12T09:46:00Z</time>
      </trkpt>
      <trkpt lat="45.94832" lon="4.74222">
        <ele>188</ele>
        <time>2018-01-12T09:46:01Z</time>
      </trkpt>
      <trkpt lat="45.94834" lon="4.74228">
        <ele>190</ele>
        <time>2018-01-12T09:46:02Z</time>
      </trkpt>
      <trkpt lat="45.94837" lon="4.74233">
        <ele>190</ele>
        <time>2018-01-12T09:46:03Z</time>
      </trkpt>
      <trkpt lat="45.9484" lon="4.74238">
        <ele>190</ele>
        <time>2018-01-12T09:46:04Z</time>
      </trkpt>
      <trkpt lat="45.94844" lon="4.74243">
        <ele>190</ele>
        <time>2018-01-12T09:46:05Z</time>
      </trkpt>
      <trkpt lat="45.94846" lon="4.74249">
        <ele>190</ele>
        <time>2018-01-12T09:46:06Z</time>
      </trkpt>
      <trkpt lat="45.94849" lon="4.74254">
        <ele>190</ele>
        <time>2018-01-12T09:46:07Z</time>
      </trkpt>
      <trkpt lat="45.94853" lon="4.74261">
        <ele>190</ele>
        <time>2018-01-12T09:46:08Z</time>
      </trkpt>
      <trkpt lat="45.94856" lon="4.74266">
        <ele>190</ele>
        <time>2018-01-12T09:46:09Z</time>
      </trkpt>
      <trkpt lat="45.94859" lon="4.74272">
        <ele>190</ele>
        <time>2018-01-12T09:46:10Z</time>
      </trkpt>
      <trkpt lat="45.94862" lon="4.74278">
        <ele>190</ele>
        <time>2018-01-12T09:46:11Z</time>
      </trkpt>
      <trkpt lat="45.94864" lon="4.74283">
        <ele>191</ele>
        <time>2018-01-12T09:46:12Z</time>
      </trkpt>
      <trkpt lat="45.94867" lon="4.74289">
        <ele>191</ele>
        <time>2018-01-12T09:46:13Z</time>
      </trkpt>
      <trkpt lat="45.94871" lon="4.74299">
        <ele>191</ele>
        <time>2018-01-12T09:46:15Z</time>
      </trkpt>
      <trkpt lat="45.94873" lon="4.74304">
        <ele>191</ele>
        <time>2018-01-12T09:46:16Z</time>
      </trkpt>
      <trkpt lat="45.94875" lon="4.74312">
        <ele>191</ele>
        <time>2018-01-12T09:46:17Z</time>
      </trkpt>
      <trkpt lat="45.94877" lon="4.74317">
        <ele>191</ele>
        <time>2018-01-12T09:46:18Z</time>
      </trkpt>
      <trkpt lat="45.94882" lon="4.74326">
        <ele>191</ele>
        <time>2018-01-12T09:46:20Z</time>
      </trkpt>
      <trkpt lat="45.94885" lon="4.74331">
        <ele>191</ele>
        <time>2018-01-12T09:46:21Z</time>
      </trkpt>
      <trkpt lat="45.94888" lon="4.74337">
        <ele>191</ele>
        <time>2018-01-12T09:46:22Z</time>
      </trkpt>
      <trkpt lat="45.94891" lon="4.74342">
        <ele>191</ele>
        <time>2018-01-12T09:46:23Z</time>
      </trkpt>
      <trkpt lat="45.94894" lon="4.74347">
        <ele>191</ele>
        <time>2018-01-12T09:46:24Z</time>
      </trkpt>
      <trkpt lat="45.94897" lon="4.74352">
        <ele>191</ele>
        <time>2018-01-12T09:46:25Z</time>
      </trkpt>
      <trkpt lat="45.949" lon="4.74358">
        <ele>191</ele>
        <time>2018-01-12T09:46:26Z</time>
      </trkpt>
      <trkpt lat="45.94903" lon="4.74364">
        <ele>191</ele>
        <time>2018-01-12T09:46:27Z</time>
      </trkpt>
      <trkpt lat="45.94907" lon="4.74369">
        <ele>191</ele>
        <time>2018-01-12T09:46:28Z</time>
      </trkpt>
      <trkpt lat="45.9491" lon="4.74375">
        <ele>191</ele>
        <time>2018-01-12T09:46:29Z</time>
      </trkpt>
      <trkpt lat="45.94913" lon="4.74381">
        <ele>191</ele>
        <time>2018-01-12T09:46:30Z</time>
      </trkpt>
      <trkpt lat="45.94915" lon="4.74387">
        <ele>191</ele>
        <time>2018-01-12T09:46:31Z</time>
      </trkpt>
      <trkpt lat="45.94918" lon="4.74394">
        <ele>192</ele>
        <time>2018-01-12T09:46:32Z</time>
      </trkpt>
      <trkpt lat="45.94921" lon="4.74399">
        <ele>192</ele>
        <time>2018-01-12T09:46:33Z</time>
      </trkpt>
      <trkpt lat="45.94924" lon="4.74405">
        <ele>192</ele>
        <time>2018-01-12T09:46:34Z</time>
      </trkpt>
      <trkpt lat="45.94927" lon="4.74412">
        <ele>192</ele>
        <time>2018-01-12T09:46:35Z</time>
      </trkpt>
      <trkpt lat="45.9493" lon="4.74421">
        <ele>192</ele>
        <time>2018-01-12T09:46:36Z</time>
      </trkpt>
      <trkpt lat="45.94933" lon="4.74427">
        <ele>192</ele>
        <time>2018-01-12T09:46:37Z</time>
      </trkpt>
      <trkpt lat="45.94936" lon="4.74432">
        <ele>192</ele>
        <time>2018-01-12T09:46:38Z</time>
      </trkpt>
      <trkpt lat="45.9494" lon="4.74437">
        <ele>192</ele>
        <time>2018-01-12T09:46:39Z</time>
      </trkpt>
      <trkpt lat="45.94945" lon="4.74447">
        <ele>192</ele>
        <time>2018-01-12T09:46:41Z</time>
      </trkpt>
      <trkpt lat="45.94948" lon="4.74452">
        <ele>192</ele>
        <time>2018-01-12T09:46:42Z</time>
      </trkpt>
      <trkpt lat="45.94954" lon="4.7446">
        <ele>193</ele>
        <time>2018-01-12T09:46:44Z</time>
      </trkpt>
      <trkpt lat="45.94956" lon="4.74465">
        <ele>193</ele>
        <time>2018-01-12T09:46:45Z</time>
      </trkpt>
      <trkpt lat="45.9496" lon="4.74474">
        <ele>193</ele>
        <time>2018-01-12T09:46:47Z</time>
      </trkpt>
      <trkpt lat="45.94963" lon="4.74479">
        <ele>193</ele>
        <time>2018-01-12T09:46:48Z</time>
      </trkpt>
      <trkpt lat="45.94966" lon="4.74485">
        <ele>193</ele>
        <time>2018-01-12T09:46:49Z</time>
      </trkpt>
      <trkpt lat="45.94968" lon="4.74491">
        <ele>193</ele>
        <time>2018-01-12T09:46:50Z</time>
      </trkpt>
      <trkpt lat="45.94974" lon="4.74501">
        <ele>193</ele>
        <time>2018-01-12T09:46:52Z</time>
      </trkpt>
      <trkpt lat="45.94978" lon="4.74507">
        <ele>193</ele>
        <time>2018-01-12T09:46:53Z</time>
      </trkpt>
      <trkpt lat="45.94981" lon="4.74513">
        <ele>193</ele>
        <time>2018-01-12T09:46:54Z</time>
      </trkpt>
      <trkpt lat="45.94984" lon="4.74518">
        <ele>193</ele>
        <time>2018-01-12T09:46:55Z</time>
      </trkpt>
      <trkpt lat="45.94986" lon="4.74524">
        <ele>193</ele>
        <time>2018-01-12T09:46:56Z</time>
      </trkpt>
      <trkpt lat="45.94989" lon="4.7453">
        <ele>193</ele>
        <time>2018-01-12T09:46:57Z</time>
      </trkpt>
      <trkpt lat="45.94994" lon="4.7454">
        <ele>193</ele>
        <time>2018-01-12T09:46:59Z</time>
      </trkpt>
      <trkpt lat="45.94997" lon="4.74545">
        <ele>193</ele>
        <time>2018-01-12T09:47:00Z</time>
      </trkpt>
      <trkpt lat="45.95" lon="4.7455">
        <ele>193</ele>
        <time>2018-01-12T09:47:01Z</time>
      </trkpt>
      <trkpt lat="45.95002" lon="4.74556">
        <ele>194</ele>
        <time>2018-01-12T09:47:02Z</time>
      </trkpt>
      <trkpt lat="45.95005" lon="4.74561">
        <ele>194</ele>
        <time>2018-01-12T09:47:03Z</time>
      </trkpt>
      <trkpt lat="45.95008" lon="4.74566">
        <ele>194</ele>
        <time>2018-01-12T09:47:04Z</time>
      </trkpt>
      <trkpt lat="45.95011" lon="4.74572">
        <ele>194</ele>
        <time>2018-01-12T09:47:05Z</time>
      </trkpt>
      <trkpt lat="45.95015" lon="4.74577">
        <ele>194</ele>
        <time>2018-01-12T09:47:06Z</time>
      </trkpt>
      <trkpt lat="45.95018" lon="4.74582">
        <ele>194</ele>
        <time>2018-01-12T09:47:07Z</time>
      </trkpt>
      <trkpt lat="45.9502" lon="4.74588">
        <ele>194</ele>
        <time>2018-01-12T09:47:08Z</time>
      </trkpt>
      <trkpt lat="45.95024" lon="4.74592">
        <ele>194</ele>
        <time>2018-01-12T09:47:09Z</time>
      </trkpt>
      <trkpt lat="45.95027" lon="4.74598">
        <ele>194</ele>
        <time>2018-01-12T09:47:10Z</time>
      </trkpt>
      <trkpt lat="45.9503" lon="4.74604">
        <ele>194</ele>
        <time>2018-01-12T09:47:11Z</time>
      </trkpt>
      <trkpt lat="45.95032" lon="4.74609">
        <ele>194</ele>
        <time>2018-01-12T09:47:12Z</time>
      </trkpt>
      <trkpt lat="45.95038" lon="4.74619">
        <ele>194</ele>
        <time>2018-01-12T09:47:14Z</time>
      </trkpt>
      <trkpt lat="45.95041" lon="4.74623">
        <ele>194</ele>
        <time>2018-01-12T09:47:15Z</time>
      </trkpt>
      <trkpt lat="45.95044" lon="4.74628">
        <ele>194</ele>
        <time>2018-01-12T09:47:16Z</time>
      </trkpt>
      <trkpt lat="45.95047" lon="4.74633">
        <ele>194</ele>
        <time>2018-01-12T09:47:17Z</time>
      </trkpt>
      <trkpt lat="45.95048" lon="4.74639">
        <ele>194</ele>
        <time>2018-01-12T09:47:18Z</time>
      </trkpt>
      <trkpt lat="45.95051" lon="4.74644">
        <ele>194</ele>
        <time>2018-01-12T09:47:19Z</time>
      </trkpt>
      <trkpt lat="45.95055" lon="4.7465">
        <ele>194</ele>
        <time>2018-01-12T09:47:20Z</time>
      </trkpt>
      <trkpt lat="45.95057" lon="4.74655">
        <ele>194</ele>
        <time>2018-01-12T09:47:21Z</time>
      </trkpt>
      <trkpt lat="45.95061" lon="4.74661">
        <ele>194</ele>
        <time>2018-01-12T09:47:22Z</time>
      </trkpt>
      <trkpt lat="45.95063" lon="4.74666">
        <ele>195</ele>
        <time>2018-01-12T09:47:23Z</time>
      </trkpt>
      <trkpt lat="45.95067" lon="4.74672">
        <ele>194</ele>
        <time>2018-01-12T09:47:24Z</time>
      </trkpt>
      <trkpt lat="45.95071" lon="4.74677">
        <ele>194</ele>
        <time>2018-01-12T09:47:25Z</time>
      </trkpt>
      <trkpt lat="45.95076" lon="4.74687">
        <ele>194</ele>
        <time>2018-01-12T09:47:27Z</time>
      </trkpt>
      <trkpt lat="45.95079" lon="4.74692">
        <ele>194</ele>
        <time>2018-01-12T09:47:28Z</time>
      </trkpt>
      <trkpt lat="45.95082" lon="4.74698">
        <ele>194</ele>
        <time>2018-01-12T09:47:29Z</time>
      </trkpt>
      <trkpt lat="45.95085" lon="4.74704">
        <ele>194</ele>
        <time>2018-01-12T09:47:30Z</time>
      </trkpt>
      <trkpt lat="45.95089" lon="4.7471">
        <ele>194</ele>
        <time>2018-01-12T09:47:31Z</time>
      </trkpt>
      <trkpt lat="45.95091" lon="4.74716">
        <ele>194</ele>
        <time>2018-01-12T09:47:32Z</time>
      </trkpt>
      <trkpt lat="45.95093" lon="4.74722">
        <ele>194</ele>
        <time>2018-01-12T09:47:33Z</time>
      </trkpt>
      <trkpt lat="45.95097" lon="4.74727">
        <ele>194</ele>
        <time>2018-01-12T09:47:34Z</time>
      </trkpt>
      <trkpt lat="45.951" lon="4.74732">
        <ele>194</ele>
        <time>2018-01-12T09:47:35Z</time>
      </trkpt>
      <trkpt lat="45.95103" lon="4.74737">
        <ele>194</ele>
        <time>2018-01-12T09:47:36Z</time>
      </trkpt>
      <trkpt lat="45.95107" lon="4.74741">
        <ele>194</ele>
        <time>2018-01-12T09:47:37Z</time>
      </trkpt>
      <trkpt lat="45.9511" lon="4.74746">
        <ele>194</ele>
        <time>2018-01-12T09:47:38Z</time>
      </trkpt>
      <trkpt lat="45.95115" lon="4.74756">
        <ele>194</ele>
        <time>2018-01-12T09:47:40Z</time>
      </trkpt>
      <trkpt lat="45.95119" lon="4.7476">
        <ele>194</ele>
        <time>2018-01-12T09:47:41Z</time>
      </trkpt>
      <trkpt lat="45.95122" lon="4.74765">
        <ele>194</ele>
        <time>2018-01-12T09:47:42Z</time>
      </trkpt>
      <trkpt lat="45.95126" lon="4.7477">
        <ele>194</ele>
        <time>2018-01-12T09:47:43Z</time>
      </trkpt>
      <trkpt lat="45.9513" lon="4.74775">
        <ele>194</ele>
        <time>2018-01-12T09:47:44Z</time>
      </trkpt>
      <trkpt lat="45.95133" lon="4.74781">
        <ele>194</ele>
        <time>2018-01-12T09:47:45Z</time>
      </trkpt>
      <trkpt lat="45.95136" lon="4.74786">
        <ele>194</ele>
        <time>2018-01-12T09:47:46Z</time>
      </trkpt>
      <trkpt lat="45.9514" lon="4.74793">
        <ele>194</ele>
        <time>2018-01-12T09:47:47Z</time>
      </trkpt>
      <trkpt lat="45.95143" lon="4.74798">
        <ele>194</ele>
        <time>2018-01-12T09:47:48Z</time>
      </trkpt>
      <trkpt lat="45.95146" lon="4.74803">
        <ele>194</ele>
        <time>2018-01-12T09:47:49Z</time>
      </trkpt>
      <trkpt lat="45.95152" lon="4.74812">
        <ele>194</ele>
        <time>2018-01-12T09:47:51Z</time>
      </trkpt>
      <trkpt lat="45.95155" lon="4.74817">
        <ele>194</ele>
        <time>2018-01-12T09:47:52Z</time>
      </trkpt>
      <trkpt lat="45.9516" lon="4.74826">
        <ele>194</ele>
        <time>2018-01-12T09:47:54Z</time>
      </trkpt>
      <trkpt lat="45.95163" lon="4.74833">
        <ele>194</ele>
        <time>2018-01-12T09:47:55Z</time>
      </trkpt>
      <trkpt lat="45.95166" lon="4.74838">
        <ele>194</ele>
        <time>2018-01-12T09:47:56Z</time>
      </trkpt>
      <trkpt lat="45.9517" lon="4.74843">
        <ele>194</ele>
        <time>2018-01-12T09:47:57Z</time>
      </trkpt>
      <trkpt lat="45.95173" lon="4.74848">
        <ele>194</ele>
        <time>2018-01-12T09:47:58Z</time>
      </trkpt>
      <trkpt lat="45.95177" lon="4.74853">
        <ele>194</ele>
        <time>2018-01-12T09:47:59Z</time>
      </trkpt>
      <trkpt lat="45.9518" lon="4.74858">
        <ele>194</ele>
        <time>2018-01-12T09:48:00Z</time>
      </trkpt>
      <trkpt lat="45.95183" lon="4.74864">
        <ele>194</ele>
        <time>2018-01-12T09:48:01Z</time>
      </trkpt>
      <trkpt lat="45.95187" lon="4.74869">
        <ele>194</ele>
        <time>2018-01-12T09:48:02Z</time>
      </trkpt>
      <trkpt lat="45.95189" lon="4.74874">
        <ele>194</ele>
        <time>2018-01-12T09:48:03Z</time>
      </trkpt>
      <trkpt lat="45.95196" lon="4.74882">
        <ele>194</ele>
        <time>2018-01-12T09:48:05Z</time>
      </trkpt>
      <trkpt lat="45.95199" lon="4.74887">
        <ele>194</ele>
        <time>2018-01-12T09:48:06Z</time>
      </trkpt>
      <trkpt lat="45.95204" lon="4.74896">
        <ele>194</ele>
        <time>2018-01-12T09:48:08Z</time>
      </trkpt>
      <trkpt lat="45.95206" lon="4.74901">
        <ele>194</ele>
        <time>2018-01-12T09:48:09Z</time>
      </trkpt>
      <trkpt lat="45.95211" lon="4.74909">
        <ele>193</ele>
        <time>2018-01-12T09:48:11Z</time>
      </trkpt>
      <trkpt lat="45.95214" lon="4.74915">
        <ele>193</ele>
        <time>2018-01-12T09:48:12Z</time>
      </trkpt>
      <trkpt lat="45.95221" lon="4.74924">
        <ele>192</ele>
        <time>2018-01-12T09:48:14Z</time>
      </trkpt>
      <trkpt lat="45.95223" lon="4.74928">
        <ele>192</ele>
        <time>2018-01-12T09:48:15Z</time>
      </trkpt>
      <trkpt lat="45.95226" lon="4.74932">
        <ele>192</ele>
        <time>2018-01-12T09:48:16Z</time>
      </trkpt>
      <trkpt lat="45.95231" lon="4.74938">
        <ele>192</ele>
        <time>2018-01-12T09:48:17Z</time>
      </trkpt>
      <trkpt lat="45.95235" lon="4.74944">
        <ele>192</ele>
        <time>2018-01-12T09:48:18Z</time>
      </trkpt>
      <trkpt lat="45.95239" lon="4.74949">
        <ele>192</ele>
        <time>2018-01-12T09:48:19Z</time>
      </trkpt>
      <trkpt lat="45.95242" lon="4.74955">
        <ele>192</ele>
        <time>2018-01-12T09:48:20Z</time>
      </trkpt>
      <trkpt lat="45.95247" lon="4.74959">
        <ele>192</ele>
        <time>2018-01-12T09:48:21Z</time>
      </trkpt>
      <trkpt lat="45.95251" lon="4.74964">
        <ele>192</ele>
        <time>2018-01-12T09:48:22Z</time>
      </trkpt>
      <trkpt lat="45.95254" lon="4.74969">
        <ele>192</ele>
        <time>2018-01-12T09:48:23Z</time>
      </trkpt>
      <trkpt lat="45.95258" lon="4.74975">
        <ele>192</ele>
        <time>2018-01-12T09:48:24Z</time>
      </trkpt>
      <trkpt lat="45.95261" lon="4.74979">
        <ele>192</ele>
        <time>2018-01-12T09:48:25Z</time>
      </trkpt>
      <trkpt lat="45.95265" lon="4.74984">
        <ele>192</ele>
        <time>2018-01-12T09:48:26Z</time>
      </trkpt>
      <trkpt lat="45.95269" lon="4.74988">
        <ele>192</ele>
        <time>2018-01-12T09:48:27Z</time>
      </trkpt>
      <trkpt lat="45.95272" lon="4.74994">
        <ele>192</ele>
        <time>2018-01-12T09:48:28Z</time>
      </trkpt>
      <trkpt lat="45.95275" lon="4.75">
        <ele>192</ele>
        <time>2018-01-12T09:48:29Z</time>
      </trkpt>
      <trkpt lat="45.95278" lon="4.75006">
        <ele>191</ele>
        <time>2018-01-12T09:48:30Z</time>
      </trkpt>
      <trkpt lat="45.95282" lon="4.75012">
        <ele>191</ele>
        <time>2018-01-12T09:48:31Z</time>
      </trkpt>
      <trkpt lat="45.95285" lon="4.75018">
        <ele>191</ele>
        <time>2018-01-12T09:48:32Z</time>
      </trkpt>
      <trkpt lat="45.95288" lon="4.75024">
        <ele>191</ele>
        <time>2018-01-12T09:48:33Z</time>
      </trkpt>
      <trkpt lat="45.95291" lon="4.7503">
        <ele>191</ele>
        <time>2018-01-12T09:48:34Z</time>
      </trkpt>
      <trkpt lat="45.95294" lon="4.75035">
        <ele>191</ele>
        <time>2018-01-12T09:48:35Z</time>
      </trkpt>
      <trkpt lat="45.95297" lon="4.7504">
        <ele>191</ele>
        <time>2018-01-12T09:48:36Z</time>
      </trkpt>
      <trkpt lat="45.953" lon="4.75044">
        <ele>191</ele>
        <time>2018-01-12T09:48:37Z</time>
      </trkpt>
      <trkpt lat="45.95303" lon="4.75049">
        <ele>191</ele>
        <time>2018-01-12T09:48:38Z</time>
      </trkpt>
      <trkpt lat="45.95307" lon="4.75054">
        <ele>192</ele>
        <time>2018-01-12T09:48:39Z</time>
      </trkpt>
      <trkpt lat="45.95309" lon="4.7506">
        <ele>192</ele>
        <time>2018-01-12T09:48:40Z</time>
      </trkpt>
      <trkpt lat="45.95313" lon="4.75065">
        <ele>192</ele>
        <time>2018-01-12T09:48:41Z</time>
      </trkpt>
      <trkpt lat="45.95315" lon="4.7507">
        <ele>192</ele>
        <time>2018-01-12T09:48:42Z</time>
      </trkpt>
      <trkpt lat="45.95319" lon="4.75076">
        <ele>192</ele>
        <time>2018-01-12T09:48:43Z</time>
      </trkpt>
      <trkpt lat="45.95324" lon="4.75082">
        <ele>192</ele>
        <time>2018-01-12T09:48:44Z</time>
      </trkpt>
      <trkpt lat="45.95327" lon="4.75088">
        <ele>192</ele>
        <time>2018-01-12T09:48:45Z</time>
      </trkpt>
      <trkpt lat="45.9533" lon="4.75093">
        <ele>191</ele>
        <time>2018-01-12T09:48:46Z</time>
      </trkpt>
      <trkpt lat="45.95334" lon="4.75099">
        <ele>192</ele>
        <time>2018-01-12T09:48:47Z</time>
      </trkpt>
      <trkpt lat="45.95338" lon="4.75105">
        <ele>192</ele>
        <time>2018-01-12T09:48:48Z</time>
      </trkpt>
      <trkpt lat="45.95341" lon="4.75111">
        <ele>192</ele>
        <time>2018-01-12T09:48:49Z</time>
      </trkpt>
      <trkpt lat="45.95345" lon="4.75117">
        <ele>192</ele>
        <time>2018-01-12T09:48:50Z</time>
      </trkpt>
      <trkpt lat="45.95349" lon="4.75122">
        <ele>191</ele>
        <time>2018-01-12T09:48:51Z</time>
      </trkpt>
      <trkpt lat="45.95352" lon="4.75128">
        <ele>191</ele>
        <time>2018-01-12T09:48:52Z</time>
      </trkpt>
      <trkpt lat="45.95356" lon="4.75133">
        <ele>191</ele>
        <time>2018-01-12T09:48:53Z</time>
      </trkpt>
      <trkpt lat="45.95359" lon="4.75138">
        <ele>191</ele>
        <time>2018-01-12T09:48:54Z</time>
      </trkpt>
      <trkpt lat="45.95364" lon="4.75144">
        <ele>191</ele>
        <time>2018-01-12T09:48:55Z</time>
      </trkpt>
      <trkpt lat="45.95367" lon="4.75149">
        <ele>191</ele>
        <time>2018-01-12T09:48:56Z</time>
      </trkpt>
      <trkpt lat="45.9537" lon="4.75154">
        <ele>191</ele>
        <time>2018-01-12T09:48:57Z</time>
      </trkpt>
      <trkpt lat="45.95372" lon="4.75159">
        <ele>191</ele>
        <time>2018-01-12T09:48:58Z</time>
      </trkpt>
      <trkpt lat="45.95375" lon="4.75165">
        <ele>191</ele>
        <time>2018-01-12T09:48:59Z</time>
      </trkpt>
      <trkpt lat="45.95379" lon="4.7517">
        <ele>189</ele>
        <time>2018-01-12T09:49:00Z</time>
      </trkpt>
      <trkpt lat="45.95382" lon="4.75175">
        <ele>189</ele>
        <time>2018-01-12T09:49:01Z</time>
      </trkpt>
      <trkpt lat="45.95385" lon="4.7518">
        <ele>189</ele>
        <time>2018-01-12T09:49:02Z</time>
      </trkpt>
      <trkpt lat="45.95388" lon="4.75185">
        <ele>189</ele>
        <time>2018-01-12T09:49:03Z</time>
      </trkpt>
      <trkpt lat="45.95391" lon="4.75191">
        <ele>189</ele>
        <time>2018-01-12T09:49:04Z</time>
      </trkpt>
      <trkpt lat="45.95395" lon="4.75198">
        <ele>189</ele>
        <time>2018-01-12T09:49:05Z</time>
      </trkpt>
      <trkpt lat="45.95398" lon="4.75204">
        <ele>189</ele>
        <time>2018-01-12T09:49:06Z</time>
      </trkpt>
      <trkpt lat="45.95402" lon="4.7521">
        <ele>189</ele>
        <time>2018-01-12T09:49:07Z</time>
      </trkpt>
      <trkpt lat="45.95405" lon="4.75216">
        <ele>189</ele>
        <time>2018-01-12T09:49:08Z</time>
      </trkpt>
      <trkpt lat="45.95409" lon="4.75223">
        <ele>189</ele>
        <time>2018-01-12T09:49:09Z</time>
      </trkpt>
      <trkpt lat="45.95411" lon="4.75228">
        <ele>189</ele>
        <time>2018-01-12T09:49:10Z</time>
      </trkpt>
      <trkpt lat="45.95414" lon="4.75235">
        <ele>189</ele>
        <time>2018-01-12T09:49:11Z</time>
      </trkpt>
      <trkpt lat="45.95418" lon="4.75241">
        <ele>190</ele>
        <time>2018-01-12T09:49:12Z</time>
      </trkpt>
      <trkpt lat="45.95421" lon="4.75247">
        <ele>190</ele>
        <time>2018-01-12T09:49:13Z</time>
      </trkpt>
      <trkpt lat="45.95425" lon="4.75252">
        <ele>189</ele>
        <time>2018-01-12T09:49:14Z</time>
      </trkpt>
      <trkpt lat="45.95428" lon="4.7526">
        <ele>189</ele>
        <time>2018-01-12T09:49:15Z</time>
      </trkpt>
      <trkpt lat="45.95431" lon="4.75266">
        <ele>189</ele>
        <time>2018-01-12T09:49:16Z</time>
      </trkpt>
      <trkpt lat="45.95435" lon="4.75272">
        <ele>189</ele>
        <time>2018-01-12T09:49:17Z</time>
      </trkpt>
      <trkpt lat="45.95438" lon="4.75279">
        <ele>188</ele>
        <time>2018-01-12T09:49:18Z</time>
      </trkpt>
      <trkpt lat="45.95442" lon="4.75284">
        <ele>188</ele>
        <time>2018-01-12T09:49:19Z</time>
      </trkpt>
      <trkpt lat="45.95444" lon="4.75291">
        <ele>188</ele>
        <time>2018-01-12T09:49:20Z</time>
      </trkpt>
      <trkpt lat="45.95446" lon="4.75297">
        <ele>188</ele>
        <time>2018-01-12T09:49:21Z</time>
      </trkpt>
      <trkpt lat="45.9545" lon="4.75302">
        <ele>188</ele>
        <time>2018-01-12T09:49:22Z</time>
      </trkpt>
      <trkpt lat="45.95453" lon="4.75309">
        <ele>188</ele>
        <time>2018-01-12T09:49:23Z</time>
      </trkpt>
      <trkpt lat="45.95456" lon="4.75316">
        <ele>188</ele>
        <time>2018-01-12T09:49:24Z</time>
      </trkpt>
      <trkpt lat="45.95459" lon="4.75322">
        <ele>188</ele>
        <time>2018-01-12T09:49:25Z</time>
      </trkpt>
      <trkpt lat="45.95462" lon="4.75329">
        <ele>188</ele>
        <time>2018-01-12T09:49:26Z</time>
      </trkpt>
      <trkpt lat="45.95466" lon="4.75335">
        <ele>185</ele>
        <time>2018-01-12T09:49:27Z</time>
      </trkpt>
      <trkpt lat="45.9547" lon="4.75342">
        <ele>186</ele>
        <time>2018-01-12T09:49:28Z</time>
      </trkpt>
      <trkpt lat="45.95473" lon="4.75349">
        <ele>186</ele>
        <time>2018-01-12T09:49:29Z</time>
      </trkpt>
      <trkpt lat="45.95477" lon="4.75355">
        <ele>186</ele>
        <time>2018-01-12T09:49:30Z</time>
      </trkpt>
      <trkpt lat="45.95481" lon="4.75361">
        <ele>186</ele>
        <time>2018-01-12T09:49:31Z</time>
      </trkpt>
      <trkpt lat="45.95486" lon="4.75369">
        <ele>185</ele>
        <time>2018-01-12T09:49:32Z</time>
      </trkpt>
      <trkpt lat="45.95489" lon="4.75378">
        <ele>185</ele>
        <time>2018-01-12T09:49:33Z</time>
      </trkpt>
      <trkpt lat="45.95493" lon="4.75385">
        <ele>185</ele>
        <time>2018-01-12T09:49:34Z</time>
      </trkpt>
      <trkpt lat="45.95496" lon="4.75392">
        <ele>185</ele>
        <time>2018-01-12T09:49:35Z</time>
      </trkpt>
      <trkpt lat="45.95499" lon="4.75401">
        <ele>185</ele>
        <time>2018-01-12T09:49:36Z</time>
      </trkpt>
      <trkpt lat="45.95502" lon="4.75408">
        <ele>186</ele>
        <time>2018-01-12T09:49:37Z</time>
      </trkpt>
      <trkpt lat="45.95503" lon="4.75418">
        <ele>185</ele>
        <time>2018-01-12T09:49:38Z</time>
      </trkpt>
      <trkpt lat="45.95505" lon="4.75427">
        <ele>186</ele>
        <time>2018-01-12T09:49:39Z</time>
      </trkpt>
      <trkpt lat="45.95507" lon="4.75435">
        <ele>186</ele>
        <time>2018-01-12T09:49:40Z</time>
      </trkpt>
      <trkpt lat="45.95509" lon="4.75443">
        <ele>186</ele>
        <time>2018-01-12T09:49:41Z</time>
      </trkpt>
      <trkpt lat="45.9551" lon="4.75451">
        <ele>187</ele>
        <time>2018-01-12T09:49:42Z</time>
      </trkpt>
      <trkpt lat="45.95511" lon="4.75459">
        <ele>187</ele>
        <time>2018-01-12T09:49:43Z</time>
      </trkpt>
      <trkpt lat="45.95509" lon="4.75466">
        <ele>186</ele>
        <time>2018-01-12T09:49:44Z</time>
      </trkpt>
      <trkpt lat="45.95508" lon="4.75476">
        <ele>186</ele>
        <time>2018-01-12T09:49:45Z</time>
      </trkpt>
      <trkpt lat="45.95509" lon="4.75485">
        <ele>186</ele>
        <time>2018-01-12T09:49:46Z</time>
      </trkpt>
      <trkpt lat="45.95511" lon="4.75491">
        <ele>185</ele>
        <time>2018-01-12T09:49:47Z</time>
      </trkpt>
      <trkpt lat="45.95514" lon="4.75498">
        <ele>186</ele>
        <time>2018-01-12T09:49:48Z</time>
      </trkpt>
      <trkpt lat="45.95517" lon="4.75504">
        <ele>185</ele>
        <time>2018-01-12T09:49:49Z</time>
      </trkpt>
      <trkpt lat="45.95522" lon="4.75507">
        <ele>185</ele>
        <time>2018-01-12T09:49:50Z</time>
      </trkpt>
      <trkpt lat="45.95525" lon="4.75511">
        <ele>185</ele>
        <time>2018-01-12T09:49:51Z</time>
      </trkpt>
      <trkpt lat="45.95532" lon="4.75517">
        <ele>185</ele>
        <time>2018-01-12T09:49:53Z</time>
      </trkpt>
      <trkpt lat="45.95536" lon="4.75521">
        <ele>186</ele>
        <time>2018-01-12T09:49:54Z</time>
      </trkpt>
      <trkpt lat="45.9554" lon="4.75526">
        <ele>186</ele>
        <time>2018-01-12T09:49:55Z</time>
      </trkpt>
      <trkpt lat="45.95544" lon="4.7553">
        <ele>186</ele>
        <time>2018-01-12T09:49:56Z</time>
      </trkpt>
      <trkpt lat="45.9555" lon="4.75534">
        <ele>186</ele>
        <time>2018-01-12T09:49:57Z</time>
      </trkpt>
      <trkpt lat="45.95555" lon="4.75537">
        <ele>186</ele>
        <time>2018-01-12T09:49:58Z</time>
      </trkpt>
      <trkpt lat="45.95559" lon="4.75541">
        <ele>186</ele>
        <time>2018-01-12T09:49:59Z</time>
      </trkpt>
      <trkpt lat="45.95564" lon="4.75546">
        <ele>186</ele>
        <time>2018-01-12T09:50:00Z</time>
      </trkpt>
      <trkpt lat="45.95567" lon="4.75549">
        <ele>186</ele>
        <time>2018-01-12T09:50:01Z</time>
      </trkpt>
      <trkpt lat="45.95574" lon="4.75553">
        <ele>186</ele>
        <time>2018-01-12T09:50:02Z</time>
      </trkpt>
      <trkpt lat="45.95578" lon="4.75559">
        <ele>186</ele>
        <time>2018-01-12T09:50:03Z</time>
      </trkpt>
      <trkpt lat="45.95581" lon="4.75565">
        <ele>186</ele>
        <time>2018-01-12T09:50:04Z</time>
      </trkpt>
      <trkpt lat="45.95585" lon="4.7557">
        <ele>187</ele>
        <time>2018-01-12T09:50:05Z</time>
      </trkpt>
      <trkpt lat="45.95588" lon="4.75576">
        <ele>187</ele>
        <time>2018-01-12T09:50:06Z</time>
      </trkpt>
      <trkpt lat="45.95591" lon="4.75582">
        <ele>187</ele>
        <time>2018-01-12T09:50:07Z</time>
      </trkpt>
      <trkpt lat="45.95594" lon="4.75588">
        <ele>187</ele>
        <time>2018-01-12T09:50:08Z</time>
      </trkpt>
      <trkpt lat="45.95597" lon="4.75593">
        <ele>187</ele>
        <time>2018-01-12T09:50:09Z</time>
      </trkpt>
      <trkpt lat="45.95599" lon="4.756">
        <ele>187</ele>
        <time>2018-01-12T09:50:10Z</time>
      </trkpt>
      <trkpt lat="45.95604" lon="4.7561">
        <ele>187</ele>
        <time>2018-01-12T09:50:12Z</time>
      </trkpt>
      <trkpt lat="45.95606" lon="4.75616">
        <ele>188</ele>
        <time>2018-01-12T09:50:13Z</time>
      </trkpt>
      <trkpt lat="45.95608" lon="4.75622">
        <ele>188</ele>
        <time>2018-01-12T09:50:14Z</time>
      </trkpt>
      <trkpt lat="45.95612" lon="4.75629">
        <ele>188</ele>
        <time>2018-01-12T09:50:15Z</time>
      </trkpt>
      <trkpt lat="45.95613" lon="4.75635">
        <ele>188</ele>
        <time>2018-01-12T09:50:16Z</time>
      </trkpt>
      <trkpt lat="45.95615" lon="4.75641">
        <ele>188</ele>
        <time>2018-01-12T09:50:17Z</time>
      </trkpt>
      <trkpt lat="45.95618" lon="4.75648">
        <ele>188</ele>
        <time>2018-01-12T09:50:18Z</time>
      </trkpt>
      <trkpt lat="45.95619" lon="4.75656">
        <ele>188</ele>
        <time>2018-01-12T09:50:19Z</time>
      </trkpt>
      <trkpt lat="45.95619" lon="4.75663">
        <ele>188</ele>
        <time>2018-01-12T09:50:20Z</time>
      </trkpt>
      <trkpt lat="45.95621" lon="4.75669">
        <ele>187</ele>
        <time>2018-01-12T09:50:21Z</time>
      </trkpt>
      <trkpt lat="45.95621" lon="4.75674">
        <ele>187</ele>
        <time>2018-01-12T09:50:22Z</time>
      </trkpt>
      <trkpt lat="45.95622" lon="4.75682">
        <ele>187</ele>
        <time>2018-01-12T09:50:23Z</time>
      </trkpt>
      <trkpt lat="45.95623" lon="4.75688">
        <ele>187</ele>
        <time>2018-01-12T09:50:24Z</time>
      </trkpt>
      <trkpt lat="45.95624" lon="4.75695">
        <ele>187</ele>
        <time>2018-01-12T09:50:25Z</time>
      </trkpt>
      <trkpt lat="45.95625" lon="4.75702">
        <ele>187</ele>
        <time>2018-01-12T09:50:26Z</time>
      </trkpt>
      <trkpt lat="45.95626" lon="4.75709">
        <ele>187</ele>
        <time>2018-01-12T09:50:27Z</time>
      </trkpt>
      <trkpt lat="45.95627" lon="4.75716">
        <ele>187</ele>
        <time>2018-01-12T09:50:28Z</time>
      </trkpt>
      <trkpt lat="45.95628" lon="4.75723">
        <ele>187</ele>
        <time>2018-01-12T09:50:29Z</time>
      </trkpt>
      <trkpt lat="45.95629" lon="4.7573">
        <ele>187</ele>
        <time>2018-01-12T09:50:30Z</time>
      </trkpt>
      <trkpt lat="45.9563" lon="4.75737">
        <ele>187</ele>
        <time>2018-01-12T09:50:31Z</time>
      </trkpt>
      <trkpt lat="45.9563" lon="4.75745">
        <ele>187</ele>
        <time>2018-01-12T09:50:32Z</time>
      </trkpt>
      <trkpt lat="45.95632" lon="4.75751">
        <ele>186</ele>
        <time>2018-01-12T09:50:33Z</time>
      </trkpt>
      <trkpt lat="45.95632" lon="4.75758">
        <ele>186</ele>
        <time>2018-01-12T09:50:34Z</time>
      </trkpt>
      <trkpt lat="45.95634" lon="4.75765">
        <ele>186</ele>
        <time>2018-01-12T09:50:35Z</time>
      </trkpt>
      <trkpt lat="45.95635" lon="4.75773">
        <ele>186</ele>
        <time>2018-01-12T09:50:36Z</time>
      </trkpt>
      <trkpt lat="45.95636" lon="4.7578">
        <ele>185</ele>
        <time>2018-01-12T09:50:37Z</time>
      </trkpt>
      <trkpt lat="45.95638" lon="4.75786">
        <ele>185</ele>
        <time>2018-01-12T09:50:38Z</time>
      </trkpt>
      <trkpt lat="45.95639" lon="4.75794">
        <ele>185</ele>
        <time>2018-01-12T09:50:39Z</time>
      </trkpt>
      <trkpt lat="45.9564" lon="4.75802">
        <ele>185</ele>
        <time>2018-01-12T09:50:40Z</time>
      </trkpt>
      <trkpt lat="45.95641" lon="4.7581">
        <ele>185</ele>
        <time>2018-01-12T09:50:41Z</time>
      </trkpt>
      <trkpt lat="45.95643" lon="4.75818">
        <ele>185</ele>
        <time>2018-01-12T09:50:42Z</time>
      </trkpt>
      <trkpt lat="45.95644" lon="4.75826">
        <ele>185</ele>
        <time>2018-01-12T09:50:43Z</time>
      </trkpt>
      <trkpt lat="45.95646" lon="4.75832">
        <ele>185</ele>
        <time>2018-01-12T09:50:44Z</time>
      </trkpt>
      <trkpt lat="45.95648" lon="4.7584">
        <ele>185</ele>
        <time>2018-01-12T09:50:45Z</time>
      </trkpt>
      <trkpt lat="45.9565" lon="4.75846">
        <ele>185</ele>
        <time>2018-01-12T09:50:46Z</time>
      </trkpt>
      <trkpt lat="45.95651" lon="4.75853">
        <ele>184</ele>
        <time>2018-01-12T09:50:47Z</time>
      </trkpt>
      <trkpt lat="45.95653" lon="4.7586">
        <ele>184</ele>
        <time>2018-01-12T09:50:48Z</time>
      </trkpt>
      <trkpt lat="45.95655" lon="4.75866">
        <ele>184</ele>
        <time>2018-01-12T09:50:49Z</time>
      </trkpt>
      <trkpt lat="45.95657" lon="4.75872">
        <ele>184</ele>
        <time>2018-01-12T09:50:50Z</time>
      </trkpt>
      <trkpt lat="45.95658" lon="4.75879">
        <ele>184</ele>
        <time>2018-01-12T09:50:51Z</time>
      </trkpt>
      <trkpt lat="45.9566" lon="4.75885">
        <ele>184</ele>
        <time>2018-01-12T09:50:52Z</time>
      </trkpt>
      <trkpt lat="45.95662" lon="4.75891">
        <ele>184</ele>
        <time>2018-01-12T09:50:53Z</time>
      </trkpt>
      <trkpt lat="45.95664" lon="4.75898">
        <ele>184</ele>
        <time>2018-01-12T09:50:54Z</time>
      </trkpt>
      <trkpt lat="45.95666" lon="4.75904">
        <ele>184</ele>
        <time>2018-01-12T09:50:55Z</time>
      </trkpt>
      <trkpt lat="45.95668" lon="4.7591">
        <ele>185</ele>
        <time>2018-01-12T09:50:56Z</time>
      </trkpt>
      <trkpt lat="45.95672" lon="4.75918">
        <ele>184</ele>
        <time>2018-01-12T09:50:57Z</time>
      </trkpt>
      <trkpt lat="45.95675" lon="4.75923">
        <ele>184</ele>
        <time>2018-01-12T09:50:58Z</time>
      </trkpt>
      <trkpt lat="45.95678" lon="4.7593">
        <ele>185</ele>
        <time>2018-01-12T09:50:59Z</time>
      </trkpt>
      <trkpt lat="45.95681" lon="4.75937">
        <ele>185</ele>
        <time>2018-01-12T09:51:00Z</time>
      </trkpt>
      <trkpt lat="45.95684" lon="4.75943">
        <ele>185</ele>
        <time>2018-01-12T09:51:01Z</time>
      </trkpt>
      <trkpt lat="45.95686" lon="4.75948">
        <ele>185</ele>
        <time>2018-01-12T09:51:02Z</time>
      </trkpt>
      <trkpt lat="45.95689" lon="4.75954">
        <ele>185</ele>
        <time>2018-01-12T09:51:03Z</time>
      </trkpt>
      <trkpt lat="45.95692" lon="4.75961">
        <ele>185</ele>
        <time>2018-01-12T09:51:04Z</time>
      </trkpt>
      <trkpt lat="45.95695" lon="4.75967">
        <ele>185</ele>
        <time>2018-01-12T09:51:05Z</time>
      </trkpt>
      <trkpt lat="45.95697" lon="4.75973">
        <ele>185</ele>
        <time>2018-01-12T09:51:06Z</time>
      </trkpt>
      <trkpt lat="45.957" lon="4.75979">
        <ele>185</ele>
        <time>2018-01-12T09:51:07Z</time>
      </trkpt>
      <trkpt lat="45.95704" lon="4.75985">
        <ele>185</ele>
        <time>2018-01-12T09:51:08Z</time>
      </trkpt>
      <trkpt lat="45.95706" lon="4.7599">
        <ele>185</ele>
        <time>2018-01-12T09:51:09Z</time>
      </trkpt>
      <trkpt lat="45.95708" lon="4.75996">
        <ele>185</ele>
        <time>2018-01-12T09:51:10Z</time>
      </trkpt>
      <trkpt lat="45.95711" lon="4.76002">
        <ele>184</ele>
        <time>2018-01-12T09:51:11Z</time>
      </trkpt>
      <trkpt lat="45.95713" lon="4.76007">
        <ele>184</ele>
        <time>2018-01-12T09:51:12Z</time>
      </trkpt>
      <trkpt lat="45.95716" lon="4.76014">
        <ele>184</ele>
        <time>2018-01-12T09:51:13Z</time>
      </trkpt>
      <trkpt lat="45.9572" lon="4.76025">
        <ele>184</ele>
        <time>2018-01-12T09:51:15Z</time>
      </trkpt>
      <trkpt lat="45.95723" lon="4.76029">
        <ele>184</ele>
        <time>2018-01-12T09:51:16Z</time>
      </trkpt>
      <trkpt lat="45.95725" lon="4.76035">
        <ele>184</ele>
        <time>2018-01-12T09:51:17Z</time>
      </trkpt>
      <trkpt lat="45.95729" lon="4.76039">
        <ele>184</ele>
        <time>2018-01-12T09:51:18Z</time>
      </trkpt>
      <trkpt lat="45.95733" lon="4.76048">
        <ele>184</ele>
        <time>2018-01-12T09:51:20Z</time>
      </trkpt>
      <trkpt lat="45.95736" lon="4.76054">
        <ele>184</ele>
        <time>2018-01-12T09:51:21Z</time>
      </trkpt>
      <trkpt lat="45.95739" lon="4.76059">
        <ele>184</ele>
        <time>2018-01-12T09:51:22Z</time>
      </trkpt>
      <trkpt lat="45.95741" lon="4.76065">
        <ele>184</ele>
        <time>2018-01-12T09:51:23Z</time>
      </trkpt>
      <trkpt lat="45.95744" lon="4.7607">
        <ele>185</ele>
        <time>2018-01-12T09:51:24Z</time>
      </trkpt>
      <trkpt lat="45.95746" lon="4.76076">
        <ele>185</ele>
        <time>2018-01-12T09:51:25Z</time>
      </trkpt>
      <trkpt lat="45.95748" lon="4.76083">
        <ele>185</ele>
        <time>2018-01-12T09:51:26Z</time>
      </trkpt>
      <trkpt lat="45.9575" lon="4.76088">
        <ele>185</ele>
        <time>2018-01-12T09:51:27Z</time>
      </trkpt>
      <trkpt lat="45.95753" lon="4.761">
        <ele>186</ele>
        <time>2018-01-12T09:51:29Z</time>
      </trkpt>
      <trkpt lat="45.95754" lon="4.76106">
        <ele>186</ele>
        <time>2018-01-12T09:51:30Z</time>
      </trkpt>
      <trkpt lat="45.95756" lon="4.76112">
        <ele>186</ele>
        <time>2018-01-12T09:51:31Z</time>
      </trkpt>
      <trkpt lat="45.95757" lon="4.76119">
        <ele>186</ele>
        <time>2018-01-12T09:51:32Z</time>
      </trkpt>
      <trkpt lat="45.95758" lon="4.76126">
        <ele>186</ele>
        <time>2018-01-12T09:51:33Z</time>
      </trkpt>
      <trkpt lat="45.95759" lon="4.76133">
        <ele>186</ele>
        <time>2018-01-12T09:51:34Z</time>
      </trkpt>
      <trkpt lat="45.95759" lon="4.76141">
        <ele>186</ele>
        <time>2018-01-12T09:51:35Z</time>
      </trkpt>
      <trkpt lat="45.95759" lon="4.76147">
        <ele>186</ele>
        <time>2018-01-12T09:51:36Z</time>
      </trkpt>
      <trkpt lat="45.9576" lon="4.76159">
        <ele>186</ele>
        <time>2018-01-12T09:51:38Z</time>
      </trkpt>
      <trkpt lat="45.9576" lon="4.76166">
        <ele>185</ele>
        <time>2018-01-12T09:51:39Z</time>
      </trkpt>
      <trkpt lat="45.95762" lon="4.76178">
        <ele>185</ele>
        <time>2018-01-12T09:51:41Z</time>
      </trkpt>
      <trkpt lat="45.95762" lon="4.76185">
        <ele>186</ele>
        <time>2018-01-12T09:51:42Z</time>
      </trkpt>
      <trkpt lat="45.95763" lon="4.76197">
        <ele>186</ele>
        <time>2018-01-12T09:51:44Z</time>
      </trkpt>
      <trkpt lat="45.95763" lon="4.76204">
        <ele>186</ele>
        <time>2018-01-12T09:51:45Z</time>
      </trkpt>
      <trkpt lat="45.95764" lon="4.76216">
        <ele>186</ele>
        <time>2018-01-12T09:51:47Z</time>
      </trkpt>
      <trkpt lat="45.95765" lon="4.76222">
        <ele>186</ele>
        <time>2018-01-12T09:51:48Z</time>
      </trkpt>
      <trkpt lat="45.95767" lon="4.76233">
        <ele>186</ele>
        <time>2018-01-12T09:51:50Z</time>
      </trkpt>
      <trkpt lat="45.95768" lon="4.76241">
        <ele>186</ele>
        <time>2018-01-12T09:51:51Z</time>
      </trkpt>
      <trkpt lat="45.95768" lon="4.76249">
        <ele>186</ele>
        <time>2018-01-12T09:51:52Z</time>
      </trkpt>
      <trkpt lat="45.95769" lon="4.76255">
        <ele>185</ele>
        <time>2018-01-12T09:51:53Z</time>
      </trkpt>
      <trkpt lat="45.95769" lon="4.76262">
        <ele>185</ele>
        <time>2018-01-12T09:51:54Z</time>
      </trkpt>
      <trkpt lat="45.95769" lon="4.76269">
        <ele>186</ele>
        <time>2018-01-12T09:51:55Z</time>
      </trkpt>
      <trkpt lat="45.95769" lon="4.76274">
        <ele>186</ele>
        <time>2018-01-12T09:51:56Z</time>
      </trkpt>
      <trkpt lat="45.95769" lon="4.76282">
        <ele>186</ele>
        <time>2018-01-12T09:51:57Z</time>
      </trkpt>
      <trkpt lat="45.9577" lon="4.76288">
        <ele>186</ele>
        <time>2018-01-12T09:51:58Z</time>
      </trkpt>
      <trkpt lat="45.9577" lon="4.76295">
        <ele>186</ele>
        <time>2018-01-12T09:51:59Z</time>
      </trkpt>
      <trkpt lat="45.95771" lon="4.76308">
        <ele>186</ele>
        <time>2018-01-12T09:52:01Z</time>
      </trkpt>
      <trkpt lat="45.95772" lon="4.76314">
        <ele>185</ele>
        <time>2018-01-12T09:52:02Z</time>
      </trkpt>
      <trkpt lat="45.95772" lon="4.7632">
        <ele>185</ele>
        <time>2018-01-12T09:52:03Z</time>
      </trkpt>
      <trkpt lat="45.95772" lon="4.76328">
        <ele>185</ele>
        <time>2018-01-12T09:52:04Z</time>
      </trkpt>
      <trkpt lat="45.95773" lon="4.76335">
        <ele>186</ele>
        <time>2018-01-12T09:52:05Z</time>
      </trkpt>
      <trkpt lat="45.95773" lon="4.76342">
        <ele>186</ele>
        <time>2018-01-12T09:52:06Z</time>
      </trkpt>
      <trkpt lat="45.95774" lon="4.76354">
        <ele>186</ele>
        <time>2018-01-12T09:52:08Z</time>
      </trkpt>
      <trkpt lat="45.95774" lon="4.7636">
        <ele>186</ele>
        <time>2018-01-12T09:52:09Z</time>
      </trkpt>
      <trkpt lat="45.95775" lon="4.76367">
        <ele>186</ele>
        <time>2018-01-12T09:52:10Z</time>
      </trkpt>
      <trkpt lat="45.95774" lon="4.76373">
        <ele>186</ele>
        <time>2018-01-12T09:52:11Z</time>
      </trkpt>
      <trkpt lat="45.95775" lon="4.76385">
        <ele>186</ele>
        <time>2018-01-12T09:52:13Z</time>
      </trkpt>
      <trkpt lat="45.95775" lon="4.76391">
        <ele>186</ele>
        <time>2018-01-12T09:52:14Z</time>
      </trkpt>
      <trkpt lat="45.95775" lon="4.76403">
        <ele>186</ele>
        <time>2018-01-12T09:52:16Z</time>
      </trkpt>
      <trkpt lat="45.95777" lon="4.7641">
        <ele>186</ele>
        <time>2018-01-12T09:52:17Z</time>
      </trkpt>
      <trkpt lat="45.95778" lon="4.76422">
        <ele>186</ele>
        <time>2018-01-12T09:52:19Z</time>
      </trkpt>
      <trkpt lat="45.95778" lon="4.76428">
        <ele>186</ele>
        <time>2018-01-12T09:52:20Z</time>
      </trkpt>
      <trkpt lat="45.95779" lon="4.76434">
        <ele>186</ele>
        <time>2018-01-12T09:52:21Z</time>
      </trkpt>
      <trkpt lat="45.9578" lon="4.76441">
        <ele>186</ele>
        <time>2018-01-12T09:52:22Z</time>
      </trkpt>
      <trkpt lat="45.9578" lon="4.76448">
        <ele>186</ele>
        <time>2018-01-12T09:52:23Z</time>
      </trkpt>
      <trkpt lat="45.95781" lon="4.76454">
        <ele>186</ele>
        <time>2018-01-12T09:52:24Z</time>
      </trkpt>
      <trkpt lat="45.95782" lon="4.76467">
        <ele>186</ele>
        <time>2018-01-12T09:52:26Z</time>
      </trkpt>
      <trkpt lat="45.95783" lon="4.76472">
        <ele>186</ele>
        <time>2018-01-12T09:52:27Z</time>
      </trkpt>
      <trkpt lat="45.95785" lon="4.76484">
        <ele>186</ele>
        <time>2018-01-12T09:52:29Z</time>
      </trkpt>
      <trkpt lat="45.95786" lon="4.7649">
        <ele>186</ele>
        <time>2018-01-12T09:52:30Z</time>
      </trkpt>
      <trkpt lat="45.95789" lon="4.76502">
        <ele>187</ele>
        <time>2018-01-12T09:52:32Z</time>
      </trkpt>
      <trkpt lat="45.9579" lon="4.76508">
        <ele>187</ele>
        <time>2018-01-12T09:52:33Z</time>
      </trkpt>
      <trkpt lat="45.95792" lon="4.76514">
        <ele>187</ele>
        <time>2018-01-12T09:52:34Z</time>
      </trkpt>
      <trkpt lat="45.95792" lon="4.7652">
        <ele>187</ele>
        <time>2018-01-12T09:52:35Z</time>
      </trkpt>
      <trkpt lat="45.95795" lon="4.76532">
        <ele>187</ele>
        <time>2018-01-12T09:52:37Z</time>
      </trkpt>
      <trkpt lat="45.95796" lon="4.76539">
        <ele>187</ele>
        <time>2018-01-12T09:52:38Z</time>
      </trkpt>
      <trkpt lat="45.95796" lon="4.76552">
        <ele>187</ele>
        <time>2018-01-12T09:52:40Z</time>
      </trkpt>
      <trkpt lat="45.95797" lon="4.76558">
        <ele>187</ele>
        <time>2018-01-12T09:52:41Z</time>
      </trkpt>
      <trkpt lat="45.95799" lon="4.76569">
        <ele>187</ele>
        <time>2018-01-12T09:52:43Z</time>
      </trkpt>
      <trkpt lat="45.958" lon="4.76575">
        <ele>187</ele>
        <time>2018-01-12T09:52:44Z</time>
      </trkpt>
      <trkpt lat="45.95802" lon="4.76586">
        <ele>187</ele>
        <time>2018-01-12T09:52:46Z</time>
      </trkpt>
      <trkpt lat="45.95802" lon="4.76593">
        <ele>187</ele>
        <time>2018-01-12T09:52:47Z</time>
      </trkpt>
      <trkpt lat="45.95803" lon="4.766">
        <ele>188</ele>
        <time>2018-01-12T09:52:48Z</time>
      </trkpt>
      <trkpt lat="45.95804" lon="4.76607">
        <ele>188</ele>
        <time>2018-01-12T09:52:49Z</time>
      </trkpt>
      <trkpt lat="45.95805" lon="4.76614">
        <ele>188</ele>
        <time>2018-01-12T09:52:50Z</time>
      </trkpt>
      <trkpt lat="45.95805" lon="4.76621">
        <ele>188</ele>
        <time>2018-01-12T09:52:51Z</time>
      </trkpt>
      <trkpt lat="45.95805" lon="4.76627">
        <ele>188</ele>
        <time>2018-01-12T09:52:52Z</time>
      </trkpt>
      <trkpt lat="45.95806" lon="4.76635">
        <ele>188</ele>
        <time>2018-01-12T09:52:53Z</time>
      </trkpt>
      <trkpt lat="45.95807" lon="4.76642">
        <ele>188</ele>
        <time>2018-01-12T09:52:54Z</time>
      </trkpt>
      <trkpt lat="45.95809" lon="4.76649">
        <ele>188</ele>
        <time>2018-01-12T09:52:55Z</time>
      </trkpt>
      <trkpt lat="45.9581" lon="4.76655">
        <ele>188</ele>
        <time>2018-01-12T09:52:56Z</time>
      </trkpt>
      <trkpt lat="45.9581" lon="4.76662">
        <ele>188</ele>
        <time>2018-01-12T09:52:57Z</time>
      </trkpt>
      <trkpt lat="45.95811" lon="4.76674">
        <ele>189</ele>
        <time>2018-01-12T09:52:59Z</time>
      </trkpt>
      <trkpt lat="45.95812" lon="4.7668">
        <ele>189</ele>
        <time>2018-01-12T09:53:00Z</time>
      </trkpt>
      <trkpt lat="45.95815" lon="4.76691">
        <ele>189</ele>
        <time>2018-01-12T09:53:02Z</time>
      </trkpt>
      <trkpt lat="45.95815" lon="4.76697">
        <ele>189</ele>
        <time>2018-01-12T09:53:03Z</time>
      </trkpt>
      <trkpt lat="45.95817" lon="4.76705">
        <ele>189</ele>
        <time>2018-01-12T09:53:04Z</time>
      </trkpt>
      <trkpt lat="45.95818" lon="4.76711">
        <ele>189</ele>
        <time>2018-01-12T09:53:05Z</time>
      </trkpt>
      <trkpt lat="45.95819" lon="4.76718">
        <ele>189</ele>
        <time>2018-01-12T09:53:06Z</time>
      </trkpt>
      <trkpt lat="45.9582" lon="4.76724">
        <ele>190</ele>
        <time>2018-01-12T09:53:07Z</time>
      </trkpt>
      <trkpt lat="45.95821" lon="4.76736">
        <ele>190</ele>
        <time>2018-01-12T09:53:09Z</time>
      </trkpt>
      <trkpt lat="45.95822" lon="4.76742">
        <ele>190</ele>
        <time>2018-01-12T09:53:10Z</time>
      </trkpt>
      <trkpt lat="45.95824" lon="4.76754">
        <ele>191</ele>
        <time>2018-01-12T09:53:12Z</time>
      </trkpt>
      <trkpt lat="45.95825" lon="4.7676">
        <ele>190</ele>
        <time>2018-01-12T09:53:13Z</time>
      </trkpt>
      <trkpt lat="45.95826" lon="4.76767">
        <ele>190</ele>
        <time>2018-01-12T09:53:14Z</time>
      </trkpt>
      <trkpt lat="45.95827" lon="4.76774">
        <ele>190</ele>
        <time>2018-01-12T09:53:15Z</time>
      </trkpt>
      <trkpt lat="45.95828" lon="4.76786">
        <ele>190</ele>
        <time>2018-01-12T09:53:17Z</time>
      </trkpt>
      <trkpt lat="45.95829" lon="4.76791">
        <ele>190</ele>
        <time>2018-01-12T09:53:18Z</time>
      </trkpt>
      <trkpt lat="45.95828" lon="4.76804">
        <ele>190</ele>
        <time>2018-01-12T09:53:20Z</time>
      </trkpt>
      <trkpt lat="45.95829" lon="4.7681">
        <ele>190</ele>
        <time>2018-01-12T09:53:21Z</time>
      </trkpt>
      <trkpt lat="45.95829" lon="4.76817">
        <ele>190</ele>
        <time>2018-01-12T09:53:22Z</time>
      </trkpt>
      <trkpt lat="45.95828" lon="4.76823">
        <ele>190</ele>
        <time>2018-01-12T09:53:23Z</time>
      </trkpt>
      <trkpt lat="45.95826" lon="4.7683">
        <ele>190</ele>
        <time>2018-01-12T09:53:24Z</time>
      </trkpt>
      <trkpt lat="45.95826" lon="4.76837">
        <ele>190</ele>
        <time>2018-01-12T09:53:25Z</time>
      </trkpt>
      <trkpt lat="45.95825" lon="4.76849">
        <ele>190</ele>
        <time>2018-01-12T09:53:27Z</time>
      </trkpt>
      <trkpt lat="45.95825" lon="4.76854">
        <ele>189</ele>
        <time>2018-01-12T09:53:28Z</time>
      </trkpt>
      <trkpt lat="45.95824" lon="4.7686">
        <ele>189</ele>
        <time>2018-01-12T09:53:29Z</time>
      </trkpt>
      <trkpt lat="45.95822" lon="4.76868">
        <ele>189</ele>
        <time>2018-01-12T09:53:30Z</time>
      </trkpt>
      <trkpt lat="45.95821" lon="4.76874">
        <ele>189</ele>
        <time>2018-01-12T09:53:31Z</time>
      </trkpt>
      <trkpt lat="45.95819" lon="4.7688">
        <ele>189</ele>
        <time>2018-01-12T09:53:32Z</time>
      </trkpt>
      <trkpt lat="45.95818" lon="4.76886">
        <ele>189</ele>
        <time>2018-01-12T09:53:33Z</time>
      </trkpt>
      <trkpt lat="45.95818" lon="4.76893">
        <ele>189</ele>
        <time>2018-01-12T09:53:34Z</time>
      </trkpt>
      <trkpt lat="45.95815" lon="4.76905">
        <ele>189</ele>
        <time>2018-01-12T09:53:36Z</time>
      </trkpt>
      <trkpt lat="45.95813" lon="4.76911">
        <ele>189</ele>
        <time>2018-01-12T09:53:37Z</time>
      </trkpt>
      <trkpt lat="45.95811" lon="4.76923">
        <ele>189</ele>
        <time>2018-01-12T09:53:39Z</time>
      </trkpt>
      <trkpt lat="45.9581" lon="4.76929">
        <ele>189</ele>
        <time>2018-01-12T09:53:40Z</time>
      </trkpt>
      <trkpt lat="45.95809" lon="4.76936">
        <ele>189</ele>
        <time>2018-01-12T09:53:41Z</time>
      </trkpt>
      <trkpt lat="45.95807" lon="4.76942">
        <ele>189</ele>
        <time>2018-01-12T09:53:42Z</time>
      </trkpt>
      <trkpt lat="45.95806" lon="4.76949">
        <ele>189</ele>
        <time>2018-01-12T09:53:43Z</time>
      </trkpt>
      <trkpt lat="45.95805" lon="4.76956">
        <ele>189</ele>
        <time>2018-01-12T09:53:44Z</time>
      </trkpt>
      <trkpt lat="45.95802" lon="4.76967">
        <ele>189</ele>
        <time>2018-01-12T09:53:46Z</time>
      </trkpt>
      <trkpt lat="45.95801" lon="4.76975">
        <ele>189</ele>
        <time>2018-01-12T09:53:47Z</time>
      </trkpt>
      <trkpt lat="45.95801" lon="4.76983">
        <ele>189</ele>
        <time>2018-01-12T09:53:48Z</time>
      </trkpt>
      <trkpt lat="45.958" lon="4.76989">
        <ele>189</ele>
        <time>2018-01-12T09:53:49Z</time>
      </trkpt>
      <trkpt lat="45.958" lon="4.76996">
        <ele>189</ele>
        <time>2018-01-12T09:53:50Z</time>
      </trkpt>
      <trkpt lat="45.958" lon="4.77003">
        <ele>190</ele>
        <time>2018-01-12T09:53:51Z</time>
      </trkpt>
      <trkpt lat="45.95801" lon="4.7701">
        <ele>190</ele>
        <time>2018-01-12T09:53:52Z</time>
      </trkpt>
      <trkpt lat="45.95803" lon="4.77017">
        <ele>190</ele>
        <time>2018-01-12T09:53:53Z</time>
      </trkpt>
      <trkpt lat="45.95807" lon="4.77028">
        <ele>190</ele>
        <time>2018-01-12T09:53:55Z</time>
      </trkpt>
      <trkpt lat="45.95809" lon="4.77034">
        <ele>190</ele>
        <time>2018-01-12T09:53:56Z</time>
      </trkpt>
      <trkpt lat="45.95811" lon="4.7704">
        <ele>190</ele>
        <time>2018-01-12T09:53:57Z</time>
      </trkpt>
      <trkpt lat="45.95814" lon="4.77046">
        <ele>190</ele>
        <time>2018-01-12T09:53:58Z</time>
      </trkpt>
      <trkpt lat="45.95817" lon="4.77053">
        <ele>190</ele>
        <time>2018-01-12T09:53:59Z</time>
      </trkpt>
      <trkpt lat="45.95819" lon="4.77059">
        <ele>190</ele>
        <time>2018-01-12T09:54:00Z</time>
      </trkpt>
      <trkpt lat="45.95822" lon="4.77065">
        <ele>191</ele>
        <time>2018-01-12T09:54:01Z</time>
      </trkpt>
      <trkpt lat="45.95825" lon="4.77071">
        <ele>191</ele>
        <time>2018-01-12T09:54:02Z</time>
      </trkpt>
      <trkpt lat="45.95828" lon="4.77078">
        <ele>191</ele>
        <time>2018-01-12T09:54:03Z</time>
      </trkpt>
      <trkpt lat="45.9583" lon="4.77085">
        <ele>192</ele>
        <time>2018-01-12T09:54:04Z</time>
      </trkpt>
      <trkpt lat="45.95833" lon="4.77091">
        <ele>191</ele>
        <time>2018-01-12T09:54:05Z</time>
      </trkpt>
      <trkpt lat="45.95835" lon="4.77099">
        <ele>193</ele>
        <time>2018-01-12T09:54:06Z</time>
      </trkpt>
      <trkpt lat="45.95838" lon="4.77105">
        <ele>193</ele>
        <time>2018-01-12T09:54:07Z</time>
      </trkpt>
      <trkpt lat="45.9584" lon="4.77112">
        <ele>193</ele>
        <time>2018-01-12T09:54:08Z</time>
      </trkpt>
      <trkpt lat="45.95842" lon="4.77119">
        <ele>193</ele>
        <time>2018-01-12T09:54:09Z</time>
      </trkpt>
      <trkpt lat="45.95844" lon="4.77124">
        <ele>193</ele>
        <time>2018-01-12T09:54:10Z</time>
      </trkpt>
      <trkpt lat="45.95846" lon="4.77136">
        <ele>193</ele>
        <time>2018-01-12T09:54:12Z</time>
      </trkpt>
      <trkpt lat="45.95847" lon="4.77142">
        <ele>193</ele>
        <time>2018-01-12T09:54:13Z</time>
      </trkpt>
      <trkpt lat="45.95849" lon="4.77153">
        <ele>192</ele>
        <time>2018-01-12T09:54:15Z</time>
      </trkpt>
      <trkpt lat="45.95851" lon="4.77159">
        <ele>192</ele>
        <time>2018-01-12T09:54:16Z</time>
      </trkpt>
      <trkpt lat="45.95853" lon="4.77164">
        <ele>192</ele>
        <time>2018-01-12T09:54:17Z</time>
      </trkpt>
      <trkpt lat="45.95856" lon="4.77171">
        <ele>192</ele>
        <time>2018-01-12T09:54:18Z</time>
      </trkpt>
      <trkpt lat="45.95857" lon="4.77177">
        <ele>192</ele>
        <time>2018-01-12T09:54:19Z</time>
      </trkpt>
      <trkpt lat="45.95859" lon="4.77183">
        <ele>192</ele>
        <time>2018-01-12T09:54:20Z</time>
      </trkpt>
      <trkpt lat="45.9586" lon="4.77189">
        <ele>192</ele>
        <time>2018-01-12T09:54:21Z</time>
      </trkpt>
      <trkpt lat="45.95862" lon="4.77195">
        <ele>192</ele>
        <time>2018-01-12T09:54:22Z</time>
      </trkpt>
      <trkpt lat="45.95864" lon="4.77201">
        <ele>193</ele>
        <time>2018-01-12T09:54:23Z</time>
      </trkpt>
      <trkpt lat="45.95866" lon="4.77208">
        <ele>193</ele>
        <time>2018-01-12T09:54:24Z</time>
      </trkpt>
      <trkpt lat="45.95867" lon="4.77214">
        <ele>193</ele>
        <time>2018-01-12T09:54:25Z</time>
      </trkpt>
      <trkpt lat="45.95867" lon="4.77222">
        <ele>193</ele>
        <time>2018-01-12T09:54:26Z</time>
      </trkpt>
      <trkpt lat="45.95868" lon="4.77233">
        <ele>193</ele>
        <time>2018-01-12T09:54:28Z</time>
      </trkpt>
      <trkpt lat="45.95869" lon="4.7724">
        <ele>193</ele>
        <time>2018-01-12T09:54:29Z</time>
      </trkpt>
      <trkpt lat="45.9587" lon="4.77246">
        <ele>193</ele>
        <time>2018-01-12T09:54:30Z</time>
      </trkpt>
      <trkpt lat="45.95872" lon="4.77252">
        <ele>192</ele>
        <time>2018-01-12T09:54:31Z</time>
      </trkpt>
      <trkpt lat="45.95874" lon="4.77258">
        <ele>193</ele>
        <time>2018-01-12T09:54:32Z</time>
      </trkpt>
      <trkpt lat="45.95876" lon="4.77264">
        <ele>193</ele>
        <time>2018-01-12T09:54:33Z</time>
      </trkpt>
      <trkpt lat="45.95877" lon="4.7727">
        <ele>193</ele>
        <time>2018-01-12T09:54:34Z</time>
      </trkpt>
      <trkpt lat="45.95879" lon="4.77277">
        <ele>193</ele>
        <time>2018-01-12T09:54:35Z</time>
      </trkpt>
      <trkpt lat="45.9588" lon="4.77283">
        <ele>193</ele>
        <time>2018-01-12T09:54:36Z</time>
      </trkpt>
      <trkpt lat="45.95881" lon="4.7729">
        <ele>193</ele>
        <time>2018-01-12T09:54:37Z</time>
      </trkpt>
      <trkpt lat="45.95882" lon="4.77297">
        <ele>193</ele>
        <time>2018-01-12T09:54:38Z</time>
      </trkpt>
      <trkpt lat="45.95885" lon="4.77303">
        <ele>193</ele>
        <time>2018-01-12T09:54:39Z</time>
      </trkpt>
      <trkpt lat="45.95889" lon="4.77313">
        <ele>193</ele>
        <time>2018-01-12T09:54:41Z</time>
      </trkpt>
      <trkpt lat="45.95891" lon="4.77319">
        <ele>193</ele>
        <time>2018-01-12T09:54:42Z</time>
      </trkpt>
      <trkpt lat="45.95896" lon="4.77329">
        <ele>193</ele>
        <time>2018-01-12T09:54:44Z</time>
      </trkpt>
      <trkpt lat="45.95898" lon="4.77334">
        <ele>193</ele>
        <time>2018-01-12T09:54:45Z</time>
      </trkpt>
      <trkpt lat="45.95902" lon="4.77346">
        <ele>193</ele>
        <time>2018-01-12T09:54:47Z</time>
      </trkpt>
      <trkpt lat="45.95904" lon="4.77351">
        <ele>193</ele>
        <time>2018-01-12T09:54:48Z</time>
      </trkpt>
      <trkpt lat="45.95906" lon="4.77357">
        <ele>193</ele>
        <time>2018-01-12T09:54:49Z</time>
      </trkpt>
      <trkpt lat="45.95907" lon="4.77363">
        <ele>193</ele>
        <time>2018-01-12T09:54:50Z</time>
      </trkpt>
      <trkpt lat="45.95911" lon="4.77374">
        <ele>193</ele>
        <time>2018-01-12T09:54:52Z</time>
      </trkpt>
      <trkpt lat="45.95913" lon="4.7738">
        <ele>193</ele>
        <time>2018-01-12T09:54:53Z</time>
      </trkpt>
      <trkpt lat="45.95917" lon="4.7739">
        <ele>193</ele>
        <time>2018-01-12T09:54:55Z</time>
      </trkpt>
      <trkpt lat="45.95919" lon="4.77396">
        <ele>196</ele>
        <time>2018-01-12T09:54:56Z</time>
      </trkpt>
      <trkpt lat="45.95921" lon="4.77403">
        <ele>195</ele>
        <time>2018-01-12T09:54:57Z</time>
      </trkpt>
      <trkpt lat="45.95923" lon="4.77409">
        <ele>195</ele>
        <time>2018-01-12T09:54:58Z</time>
      </trkpt>
      <trkpt lat="45.95927" lon="4.7742">
        <ele>195</ele>
        <time>2018-01-12T09:55:00Z</time>
      </trkpt>
      <trkpt lat="45.95929" lon="4.77426">
        <ele>195</ele>
        <time>2018-01-12T09:55:01Z</time>
      </trkpt>
      <trkpt lat="45.9593" lon="4.77432">
        <ele>195</ele>
        <time>2018-01-12T09:55:02Z</time>
      </trkpt>
      <trkpt lat="45.95932" lon="4.77438">
        <ele>195</ele>
        <time>2018-01-12T09:55:03Z</time>
      </trkpt>
      <trkpt lat="45.95936" lon="4.77449">
        <ele>195</ele>
        <time>2018-01-12T09:55:05Z</time>
      </trkpt>
      <trkpt lat="45.95938" lon="4.77454">
        <ele>195</ele>
        <time>2018-01-12T09:55:06Z</time>
      </trkpt>
      <trkpt lat="45.95942" lon="4.77464">
        <ele>195</ele>
        <time>2018-01-12T09:55:08Z</time>
      </trkpt>
      <trkpt lat="45.95944" lon="4.77469">
        <ele>195</ele>
        <time>2018-01-12T09:55:09Z</time>
      </trkpt>
      <trkpt lat="45.95948" lon="4.77479">
        <ele>195</ele>
        <time>2018-01-12T09:55:11Z</time>
      </trkpt>
      <trkpt lat="45.9595" lon="4.77485">
        <ele>195</ele>
        <time>2018-01-12T09:55:12Z</time>
      </trkpt>
      <trkpt lat="45.95954" lon="4.77496">
        <ele>196</ele>
        <time>2018-01-12T09:55:14Z</time>
      </trkpt>
      <trkpt lat="45.95956" lon="4.77501">
        <ele>195</ele>
        <time>2018-01-12T09:55:15Z</time>
      </trkpt>
      <trkpt lat="45.95961" lon="4.77512">
        <ele>195</ele>
        <time>2018-01-12T09:55:17Z</time>
      </trkpt>
      <trkpt lat="45.95963" lon="4.77517">
        <ele>195</ele>
        <time>2018-01-12T09:55:18Z</time>
      </trkpt>
      <trkpt lat="45.95968" lon="4.77527">
        <ele>195</ele>
        <time>2018-01-12T09:55:20Z</time>
      </trkpt>
      <trkpt lat="45.9597" lon="4.77532">
        <ele>195</ele>
        <time>2018-01-12T09:55:21Z</time>
      </trkpt>
      <trkpt lat="45.95975" lon="4.7754">
        <ele>195</ele>
        <time>2018-01-12T09:55:23Z</time>
      </trkpt>
      <trkpt lat="45.95977" lon="4.77544">
        <ele>196</ele>
        <time>2018-01-12T09:55:24Z</time>
      </trkpt>
      <trkpt lat="45.95981" lon="4.77552">
        <ele>196</ele>
        <time>2018-01-12T09:55:26Z</time>
      </trkpt>
      <trkpt lat="45.95983" lon="4.77556">
        <ele>196</ele>
        <time>2018-01-12T09:55:27Z</time>
      </trkpt>
      <trkpt lat="45.95987" lon="4.77566">
        <ele>196</ele>
        <time>2018-01-12T09:55:29Z</time>
      </trkpt>
      <trkpt lat="45.95989" lon="4.77571">
        <ele>196</ele>
        <time>2018-01-12T09:55:30Z</time>
      </trkpt>
      <trkpt lat="45.95993" lon="4.77582">
        <ele>196</ele>
        <time>2018-01-12T09:55:32Z</time>
      </trkpt>
      <trkpt lat="45.95995" lon="4.77586">
        <ele>196</ele>
        <time>2018-01-12T09:55:33Z</time>
      </trkpt>
      <trkpt lat="45.95996" lon="4.77594">
        <ele>196</ele>
        <time>2018-01-12T09:55:35Z</time>
      </trkpt>
      <trkpt lat="45.95997" lon="4.77599">
        <ele>195</ele>
        <time>2018-01-12T09:55:36Z</time>
      </trkpt>
      <trkpt lat="45.96002" lon="4.77604">
        <ele>198</ele>
        <time>2018-01-12T09:55:38Z</time>
      </trkpt>
      <trkpt lat="45.96005" lon="4.77606">
        <ele>198</ele>
        <time>2018-01-12T09:55:39Z</time>
      </trkpt>
      <trkpt lat="45.96011" lon="4.7761">
        <ele>199</ele>
        <time>2018-01-12T09:55:41Z</time>
      </trkpt>
      <trkpt lat="45.96014" lon="4.77613">
        <ele>199</ele>
        <time>2018-01-12T09:55:42Z</time>
      </trkpt>
      <trkpt lat="45.96021" lon="4.7762">
        <ele>199</ele>
        <time>2018-01-12T09:55:44Z</time>
      </trkpt>
      <trkpt lat="45.96024" lon="4.77624">
        <ele>199</ele>
        <time>2018-01-12T09:55:45Z</time>
      </trkpt>
      <trkpt lat="45.9603" lon="4.7763">
        <ele>199</ele>
        <time>2018-01-12T09:55:47Z</time>
      </trkpt>
      <trkpt lat="45.96034" lon="4.77633">
        <ele>199</ele>
        <time>2018-01-12T09:55:48Z</time>
      </trkpt>
      <trkpt lat="45.96039" lon="4.7764">
        <ele>199</ele>
        <time>2018-01-12T09:55:50Z</time>
      </trkpt>
      <trkpt lat="45.96041" lon="4.77644">
        <ele>199</ele>
        <time>2018-01-12T09:55:51Z</time>
      </trkpt>
      <trkpt lat="45.96046" lon="4.77651">
        <ele>199</ele>
        <time>2018-01-12T09:55:53Z</time>
      </trkpt>
      <trkpt lat="45.96048" lon="4.77655">
        <ele>200</ele>
        <time>2018-01-12T09:55:54Z</time>
      </trkpt>
      <trkpt lat="45.96054" lon="4.77662">
        <ele>200</ele>
        <time>2018-01-12T09:55:56Z</time>
      </trkpt>
      <trkpt lat="45.96057" lon="4.77666">
        <ele>200</ele>
        <time>2018-01-12T09:55:57Z</time>
      </trkpt>
      <trkpt lat="45.96062" lon="4.77673">
        <ele>198</ele>
        <time>2018-01-12T09:55:59Z</time>
      </trkpt>
      <trkpt lat="45.96065" lon="4.77676">
        <ele>198</ele>
        <time>2018-01-12T09:56:00Z</time>
      </trkpt>
      <trkpt lat="45.9607" lon="4.77683">
        <ele>198</ele>
        <time>2018-01-12T09:56:02Z</time>
      </trkpt>
      <trkpt lat="45.96073" lon="4.77687">
        <ele>198</ele>
        <time>2018-01-12T09:56:03Z</time>
      </trkpt>
      <trkpt lat="45.96077" lon="4.77696">
        <ele>197</ele>
        <time>2018-01-12T09:56:05Z</time>
      </trkpt>
      <trkpt lat="45.9608" lon="4.77701">
        <ele>197</ele>
        <time>2018-01-12T09:56:06Z</time>
      </trkpt>
      <trkpt lat="45.96085" lon="4.77711">
        <ele>200</ele>
        <time>2018-01-12T09:56:08Z</time>
      </trkpt>
      <trkpt lat="45.96088" lon="4.77716">
        <ele>199</ele>
        <time>2018-01-12T09:56:09Z</time>
      </trkpt>
      <trkpt lat="45.96091" lon="4.77721">
        <ele>199</ele>
        <time>2018-01-12T09:56:10Z</time>
      </trkpt>
      <trkpt lat="45.96095" lon="4.77725">
        <ele>199</ele>
        <time>2018-01-12T09:56:11Z</time>
      </trkpt>
      <trkpt lat="45.96101" lon="4.77734">
        <ele>199</ele>
        <time>2018-01-12T09:56:13Z</time>
      </trkpt>
      <trkpt lat="45.96104" lon="4.77739">
        <ele>199</ele>
        <time>2018-01-12T09:56:14Z</time>
      </trkpt>
      <trkpt lat="45.96109" lon="4.77746">
        <ele>199</ele>
        <time>2018-01-12T09:56:16Z</time>
      </trkpt>
      <trkpt lat="45.96112" lon="4.7775">
        <ele>197</ele>
        <time>2018-01-12T09:56:17Z</time>
      </trkpt>
      <trkpt lat="45.96118" lon="4.7776">
        <ele>197</ele>
        <time>2018-01-12T09:56:19Z</time>
      </trkpt>
      <trkpt lat="45.9612" lon="4.77765">
        <ele>197</ele>
        <time>2018-01-12T09:56:20Z</time>
      </trkpt>
      <trkpt lat="45.96126" lon="4.77774">
        <ele>198</ele>
        <time>2018-01-12T09:56:22Z</time>
      </trkpt>
      <trkpt lat="45.96128" lon="4.77779">
        <ele>198</ele>
        <time>2018-01-12T09:56:23Z</time>
      </trkpt>
      <trkpt lat="45.96133" lon="4.77787">
        <ele>198</ele>
        <time>2018-01-12T09:56:25Z</time>
      </trkpt>
      <trkpt lat="45.96135" lon="4.77791">
        <ele>198</ele>
        <time>2018-01-12T09:56:26Z</time>
      </trkpt>
      <trkpt lat="45.9614" lon="4.77801">
        <ele>198</ele>
        <time>2018-01-12T09:56:28Z</time>
      </trkpt>
      <trkpt lat="45.96143" lon="4.77806">
        <ele>198</ele>
        <time>2018-01-12T09:56:29Z</time>
      </trkpt>
      <trkpt lat="45.96145" lon="4.77812">
        <ele>198</ele>
        <time>2018-01-12T09:56:30Z</time>
      </trkpt>
      <trkpt lat="45.96148" lon="4.77817">
        <ele>198</ele>
        <time>2018-01-12T09:56:31Z</time>
      </trkpt>
      <trkpt lat="45.96151" lon="4.77822">
        <ele>198</ele>
        <time>2018-01-12T09:56:32Z</time>
      </trkpt>
      <trkpt lat="45.96155" lon="4.77826">
        <ele>198</ele>
        <time>2018-01-12T09:56:33Z</time>
      </trkpt>
      <trkpt lat="45.96161" lon="4.77836">
        <ele>198</ele>
        <time>2018-01-12T09:56:35Z</time>
      </trkpt>
      <trkpt lat="45.96164" lon="4.7784">
        <ele>198</ele>
        <time>2018-01-12T09:56:36Z</time>
      </trkpt>
      <trkpt lat="45.96168" lon="4.77848">
        <ele>200</ele>
        <time>2018-01-12T09:56:37Z</time>
      </trkpt>
      <trkpt lat="45.96171" lon="4.77854">
        <ele>201</ele>
        <time>2018-01-12T09:56:38Z</time>
      </trkpt>
      <trkpt lat="45.96174" lon="4.77858">
        <ele>201</ele>
        <time>2018-01-12T09:56:39Z</time>
      </trkpt>
      <trkpt lat="45.96177" lon="4.77863">
        <ele>201</ele>
        <time>2018-01-12T09:56:40Z</time>
      </trkpt>
      <trkpt lat="45.96182" lon="4.77872">
        <ele>201</ele>
        <time>2018-01-12T09:56:42Z</time>
      </trkpt>
      <trkpt lat="45.96184" lon="4.77876">
        <ele>201</ele>
        <time>2018-01-12T09:56:43Z</time>
      </trkpt>
      <trkpt lat="45.96189" lon="4.77886">
        <ele>201</ele>
        <time>2018-01-12T09:56:45Z</time>
      </trkpt>
      <trkpt lat="45.96192" lon="4.77891">
        <ele>201</ele>
        <time>2018-01-12T09:56:46Z</time>
      </trkpt>
      <trkpt lat="45.96195" lon="4.77896">
        <ele>201</ele>
        <time>2018-01-12T09:56:47Z</time>
      </trkpt>
      <trkpt lat="45.96198" lon="4.77902">
        <ele>201</ele>
        <time>2018-01-12T09:56:48Z</time>
      </trkpt>
      <trkpt lat="45.96201" lon="4.77906">
        <ele>201</ele>
        <time>2018-01-12T09:56:49Z</time>
      </trkpt>
      <trkpt lat="45.96204" lon="4.77912">
        <ele>202</ele>
        <time>2018-01-12T09:56:50Z</time>
      </trkpt>
      <trkpt lat="45.9621" lon="4.77921">
        <ele>199</ele>
        <time>2018-01-12T09:56:52Z</time>
      </trkpt>
      <trkpt lat="45.96213" lon="4.77926">
        <ele>199</ele>
        <time>2018-01-12T09:56:53Z</time>
      </trkpt>
      <trkpt lat="45.96219" lon="4.77935">
        <ele>200</ele>
        <time>2018-01-12T09:56:55Z</time>
      </trkpt>
      <trkpt lat="45.96222" lon="4.7794">
        <ele>200</ele>
        <time>2018-01-12T09:56:56Z</time>
      </trkpt>
      <trkpt lat="45.96226" lon="4.77948">
        <ele>199</ele>
        <time>2018-01-12T09:56:58Z</time>
      </trkpt>
      <trkpt lat="45.96229" lon="4.77951">
        <ele>199</ele>
        <time>2018-01-12T09:56:59Z</time>
      </trkpt>
      <trkpt lat="45.96236" lon="4.77958">
        <ele>199</ele>
        <time>2018-01-12T09:57:01Z</time>
      </trkpt>
      <trkpt lat="45.96239" lon="4.77962">
        <ele>199</ele>
        <time>2018-01-12T09:57:02Z</time>
      </trkpt>
      <trkpt lat="45.96246" lon="4.77969">
        <ele>198</ele>
        <time>2018-01-12T09:57:04Z</time>
      </trkpt>
      <trkpt lat="45.96251" lon="4.77972">
        <ele>203</ele>
        <time>2018-01-12T09:57:05Z</time>
      </trkpt>
      <trkpt lat="45.96256" lon="4.77976">
        <ele>202</ele>
        <time>2018-01-12T09:57:06Z</time>
      </trkpt>
      <trkpt lat="45.96261" lon="4.77979">
        <ele>202</ele>
        <time>2018-01-12T09:57:07Z</time>
      </trkpt>
      <trkpt lat="45.96265" lon="4.77983">
        <ele>202</ele>
        <time>2018-01-12T09:57:08Z</time>
      </trkpt>
      <trkpt lat="45.9627" lon="4.77986">
        <ele>202</ele>
        <time>2018-01-12T09:57:09Z</time>
      </trkpt>
      <trkpt lat="45.96274" lon="4.7799">
        <ele>203</ele>
        <time>2018-01-12T09:57:10Z</time>
      </trkpt>
      <trkpt lat="45.96278" lon="4.77994">
        <ele>203</ele>
        <time>2018-01-12T09:57:11Z</time>
      </trkpt>
      <trkpt lat="45.96285" lon="4.78001">
        <ele>199</ele>
        <time>2018-01-12T09:57:13Z</time>
      </trkpt>
      <trkpt lat="45.96288" lon="4.78005">
        <ele>199</ele>
        <time>2018-01-12T09:57:14Z</time>
      </trkpt>
      <trkpt lat="45.96293" lon="4.78008">
        <ele>199</ele>
        <time>2018-01-12T09:57:15Z</time>
      </trkpt>
      <trkpt lat="45.96297" lon="4.78012">
        <ele>199</ele>
        <time>2018-01-12T09:57:16Z</time>
      </trkpt>
      <trkpt lat="45.96303" lon="4.78019">
        <ele>200</ele>
        <time>2018-01-12T09:57:18Z</time>
      </trkpt>
      <trkpt lat="45.96307" lon="4.78023">
        <ele>200</ele>
        <time>2018-01-12T09:57:19Z</time>
      </trkpt>
      <trkpt lat="45.96312" lon="4.78029">
        <ele>200</ele>
        <time>2018-01-12T09:57:21Z</time>
      </trkpt>
      <trkpt lat="45.96316" lon="4.78032">
        <ele>200</ele>
        <time>2018-01-12T09:57:22Z</time>
      </trkpt>
      <trkpt lat="45.9632" lon="4.78035">
        <ele>200</ele>
        <time>2018-01-12T09:57:23Z</time>
      </trkpt>
      <trkpt lat="45.96323" lon="4.78041">
        <ele>199</ele>
        <time>2018-01-12T09:57:24Z</time>
      </trkpt>
      <trkpt lat="45.96327" lon="4.78046">
        <ele>199</ele>
        <time>2018-01-12T09:57:25Z</time>
      </trkpt>
      <trkpt lat="45.9633" lon="4.7805">
        <ele>199</ele>
        <time>2018-01-12T09:57:26Z</time>
      </trkpt>
      <trkpt lat="45.96334" lon="4.78055">
        <ele>202</ele>
        <time>2018-01-12T09:57:27Z</time>
      </trkpt>
      <trkpt lat="45.96338" lon="4.78058">
        <ele>202</ele>
        <time>2018-01-12T09:57:28Z</time>
      </trkpt>
      <trkpt lat="45.96342" lon="4.78062">
        <ele>202</ele>
        <time>2018-01-12T09:57:29Z</time>
      </trkpt>
      <trkpt lat="45.96346" lon="4.78067">
        <ele>201</ele>
        <time>2018-01-12T09:57:30Z</time>
      </trkpt>
      <trkpt lat="45.96351" lon="4.78075">
        <ele>201</ele>
        <time>2018-01-12T09:57:32Z</time>
      </trkpt>
      <trkpt lat="45.96354" lon="4.78078">
        <ele>201</ele>
        <time>2018-01-12T09:57:33Z</time>
      </trkpt>
      <trkpt lat="45.96361" lon="4.78084">
        <ele>199</ele>
        <time>2018-01-12T09:57:35Z</time>
      </trkpt>
      <trkpt lat="45.96364" lon="4.78087">
        <ele>199</ele>
        <time>2018-01-12T09:57:36Z</time>
      </trkpt>
      <trkpt lat="45.96371" lon="4.78095">
        <ele>199</ele>
        <time>2018-01-12T09:57:38Z</time>
      </trkpt>
      <trkpt lat="45.96376" lon="4.78098">
        <ele>200</ele>
        <time>2018-01-12T09:57:39Z</time>
      </trkpt>
      <trkpt lat="45.96378" lon="4.78102">
        <ele>200</ele>
        <time>2018-01-12T09:57:40Z</time>
      </trkpt>
      <trkpt lat="45.96383" lon="4.78107">
        <ele>200</ele>
        <time>2018-01-12T09:57:41Z</time>
      </trkpt>
      <trkpt lat="45.96389" lon="4.78114">
        <ele>200</ele>
        <time>2018-01-12T09:57:43Z</time>
      </trkpt>
      <trkpt lat="45.96393" lon="4.78117">
        <ele>200</ele>
        <time>2018-01-12T09:57:44Z</time>
      </trkpt>
      <trkpt lat="45.964" lon="4.78124">
        <ele>200</ele>
        <time>2018-01-12T09:57:46Z</time>
      </trkpt>
      <trkpt lat="45.96404" lon="4.78128">
        <ele>199</ele>
        <time>2018-01-12T09:57:47Z</time>
      </trkpt>
      <trkpt lat="45.96408" lon="4.78131">
        <ele>199</ele>
        <time>2018-01-12T09:57:48Z</time>
      </trkpt>
      <trkpt lat="45.96413" lon="4.78135">
        <ele>199</ele>
        <time>2018-01-12T09:57:49Z</time>
      </trkpt>
      <trkpt lat="45.96417" lon="4.78139">
        <ele>203</ele>
        <time>2018-01-12T09:57:50Z</time>
      </trkpt>
      <trkpt lat="45.96421" lon="4.78142">
        <ele>203</ele>
        <time>2018-01-12T09:57:51Z</time>
      </trkpt>
      <trkpt lat="45.96428" lon="4.78147">
        <ele>202</ele>
        <time>2018-01-12T09:57:53Z</time>
      </trkpt>
      <trkpt lat="45.96431" lon="4.78152">
        <ele>202</ele>
        <time>2018-01-12T09:57:54Z</time>
      </trkpt>
      <trkpt lat="45.96435" lon="4.78155">
        <ele>202</ele>
        <time>2018-01-12T09:57:55Z</time>
      </trkpt>
      <trkpt lat="45.96438" lon="4.7816">
        <ele>202</ele>
        <time>2018-01-12T09:57:56Z</time>
      </trkpt>
      <trkpt lat="45.96442" lon="4.78164">
        <ele>203</ele>
        <time>2018-01-12T09:57:57Z</time>
      </trkpt>
      <trkpt lat="45.96447" lon="4.78167">
        <ele>199</ele>
        <time>2018-01-12T09:57:58Z</time>
      </trkpt>
      <trkpt lat="45.96452" lon="4.78169">
        <ele>200</ele>
        <time>2018-01-12T09:57:59Z</time>
      </trkpt>
      <trkpt lat="45.96456" lon="4.78173">
        <ele>200</ele>
        <time>2018-01-12T09:58:00Z</time>
      </trkpt>
      <trkpt lat="45.9646" lon="4.78177">
        <ele>200</ele>
        <time>2018-01-12T09:58:01Z</time>
      </trkpt>
      <trkpt lat="45.96463" lon="4.78182">
        <ele>200</ele>
        <time>2018-01-12T09:58:02Z</time>
      </trkpt>
      <trkpt lat="45.96471" lon="4.78187">
        <ele>200</ele>
        <time>2018-01-12T09:58:04Z</time>
      </trkpt>
      <trkpt lat="45.96476" lon="4.78189">
        <ele>200</ele>
        <time>2018-01-12T09:58:05Z</time>
      </trkpt>
      <trkpt lat="45.96483" lon="4.78193">
        <ele>201</ele>
        <time>2018-01-12T09:58:07Z</time>
      </trkpt>
      <trkpt lat="45.96487" lon="4.78196">
        <ele>201</ele>
        <time>2018-01-12T09:58:08Z</time>
      </trkpt>
      <trkpt lat="45.96491" lon="4.78198">
        <ele>200</ele>
        <time>2018-01-12T09:58:09Z</time>
      </trkpt>
      <trkpt lat="45.96495" lon="4.78201">
        <ele>200</ele>
        <time>2018-01-12T09:58:10Z</time>
      </trkpt>
      <trkpt lat="45.96501" lon="4.78209">
        <ele>205</ele>
        <time>2018-01-12T09:58:12Z</time>
      </trkpt>
      <trkpt lat="45.96505" lon="4.78214">
        <ele>205</ele>
        <time>2018-01-12T09:58:13Z</time>
      </trkpt>
      <trkpt lat="45.96508" lon="4.78218">
        <ele>204</ele>
        <time>2018-01-12T09:58:14Z</time>
      </trkpt>
      <trkpt lat="45.96511" lon="4.78223">
        <ele>204</ele>
        <time>2018-01-12T09:58:15Z</time>
      </trkpt>
      <trkpt lat="45.96517" lon="4.78233">
        <ele>203</ele>
        <time>2018-01-12T09:58:17Z</time>
      </trkpt>
      <trkpt lat="45.96519" lon="4.78237">
        <ele>203</ele>
        <time>2018-01-12T09:58:18Z</time>
      </trkpt>
      <trkpt lat="45.96525" lon="4.78246">
        <ele>203</ele>
        <time>2018-01-12T09:58:20Z</time>
      </trkpt>
      <trkpt lat="45.96528" lon="4.78251">
        <ele>200</ele>
        <time>2018-01-12T09:58:21Z</time>
      </trkpt>
      <trkpt lat="45.96531" lon="4.78257">
        <ele>200</ele>
        <time>2018-01-12T09:58:22Z</time>
      </trkpt>
      <trkpt lat="45.96533" lon="4.78262">
        <ele>200</ele>
        <time>2018-01-12T09:58:23Z</time>
      </trkpt>
      <trkpt lat="45.96537" lon="4.78267">
        <ele>200</ele>
        <time>2018-01-12T09:58:24Z</time>
      </trkpt>
      <trkpt lat="45.9654" lon="4.78272">
        <ele>200</ele>
        <time>2018-01-12T09:58:25Z</time>
      </trkpt>
      <trkpt lat="45.96544" lon="4.78277">
        <ele>200</ele>
        <time>2018-01-12T09:58:26Z</time>
      </trkpt>
      <trkpt lat="45.96547" lon="4.78283">
        <ele>200</ele>
        <time>2018-01-12T09:58:27Z</time>
      </trkpt>
      <trkpt lat="45.96551" lon="4.78288">
        <ele>200</ele>
        <time>2018-01-12T09:58:28Z</time>
      </trkpt>
      <trkpt lat="45.96556" lon="4.78292">
        <ele>200</ele>
        <time>2018-01-12T09:58:29Z</time>
      </trkpt>
      <trkpt lat="45.96559" lon="4.78297">
        <ele>200</ele>
        <time>2018-01-12T09:58:30Z</time>
      </trkpt>
      <trkpt lat="45.96564" lon="4.78302">
        <ele>200</ele>
        <time>2018-01-12T09:58:31Z</time>
      </trkpt>
      <trkpt lat="45.96568" lon="4.78306">
        <ele>200</ele>
        <time>2018-01-12T09:58:32Z</time>
      </trkpt>
      <trkpt lat="45.96571" lon="4.7831">
        <ele>199</ele>
        <time>2018-01-12T09:58:33Z</time>
      </trkpt>
      <trkpt lat="45.96578" lon="4.78316">
        <ele>199</ele>
        <time>2018-01-12T09:58:35Z</time>
      </trkpt>
      <trkpt lat="45.96581" lon="4.78319">
        <ele>199</ele>
        <time>2018-01-12T09:58:36Z</time>
      </trkpt>
      <trkpt lat="45.96585" lon="4.78321">
        <ele>201</ele>
        <time>2018-01-12T09:58:37Z</time>
      </trkpt>
      <trkpt lat="45.96589" lon="4.78326">
        <ele>201</ele>
        <time>2018-01-12T09:58:38Z</time>
      </trkpt>
      <trkpt lat="45.96596" lon="4.78332">
        <ele>201</ele>
        <time>2018-01-12T09:58:40Z</time>
      </trkpt>
      <trkpt lat="45.96599" lon="4.78336">
        <ele>199</ele>
        <time>2018-01-12T09:58:41Z</time>
      </trkpt>
      <trkpt lat="45.96606" lon="4.78342">
        <ele>200</ele>
        <time>2018-01-12T09:58:43Z</time>
      </trkpt>
      <trkpt lat="45.96609" lon="4.78345">
        <ele>200</ele>
        <time>2018-01-12T09:58:44Z</time>
      </trkpt>
      <trkpt lat="45.96616" lon="4.78352">
        <ele>201</ele>
        <time>2018-01-12T09:58:46Z</time>
      </trkpt>
      <trkpt lat="45.9662" lon="4.78356">
        <ele>201</ele>
        <time>2018-01-12T09:58:47Z</time>
      </trkpt>
      <trkpt lat="45.96624" lon="4.78359">
        <ele>201</ele>
        <time>2018-01-12T09:58:48Z</time>
      </trkpt>
      <trkpt lat="45.96628" lon="4.78363">
        <ele>201</ele>
        <time>2018-01-12T09:58:49Z</time>
      </trkpt>
      <trkpt lat="45.96633" lon="4.78366">
        <ele>201</ele>
        <time>2018-01-12T09:58:50Z</time>
      </trkpt>
      <trkpt lat="45.96637" lon="4.7837">
        <ele>201</ele>
        <time>2018-01-12T09:58:51Z</time>
      </trkpt>
      <trkpt lat="45.96641" lon="4.78373">
        <ele>201</ele>
        <time>2018-01-12T09:58:52Z</time>
      </trkpt>
      <trkpt lat="45.96645" lon="4.78378">
        <ele>201</ele>
        <time>2018-01-12T09:58:53Z</time>
      </trkpt>
      <trkpt lat="45.96649" lon="4.78382">
        <ele>201</ele>
        <time>2018-01-12T09:58:54Z</time>
      </trkpt>
      <trkpt lat="45.96653" lon="4.78386">
        <ele>201</ele>
        <time>2018-01-12T09:58:55Z</time>
      </trkpt>
      <trkpt lat="45.96657" lon="4.78389">
        <ele>201</ele>
        <time>2018-01-12T09:58:56Z</time>
      </trkpt>
      <trkpt lat="45.96661" lon="4.78393">
        <ele>201</ele>
        <time>2018-01-12T09:58:57Z</time>
      </trkpt>
      <trkpt lat="45.96665" lon="4.78396">
        <ele>201</ele>
        <time>2018-01-12T09:58:58Z</time>
      </trkpt>
      <trkpt lat="45.96668" lon="4.784">
        <ele>204</ele>
        <time>2018-01-12T09:58:59Z</time>
      </trkpt>
      <trkpt lat="45.96672" lon="4.78405">
        <ele>203</ele>
        <time>2018-01-12T09:59:00Z</time>
      </trkpt>
      <trkpt lat="45.96676" lon="4.78408">
        <ele>203</ele>
        <time>2018-01-12T09:59:01Z</time>
      </trkpt>
      <trkpt lat="45.96683" lon="4.78416">
        <ele>204</ele>
        <time>2018-01-12T09:59:03Z</time>
      </trkpt>
      <trkpt lat="45.96686" lon="4.78419">
        <ele>202</ele>
        <time>2018-01-12T09:59:04Z</time>
      </trkpt>
      <trkpt lat="45.96692" lon="4.78426">
        <ele>202</ele>
        <time>2018-01-12T09:59:06Z</time>
      </trkpt>
      <trkpt lat="45.96694" lon="4.78428">
        <ele>202</ele>
        <time>2018-01-12T09:59:07Z</time>
      </trkpt>
      <trkpt lat="45.967" lon="4.78435">
        <ele>203</ele>
        <time>2018-01-12T09:59:09Z</time>
      </trkpt>
      <trkpt lat="45.96703" lon="4.78439">
        <ele>203</ele>
        <time>2018-01-12T09:59:10Z</time>
      </trkpt>
      <trkpt lat="45.9671" lon="4.78446">
        <ele>203</ele>
        <time>2018-01-12T09:59:12Z</time>
      </trkpt>
      <trkpt lat="45.96713" lon="4.7845">
        <ele>203</ele>
        <time>2018-01-12T09:59:13Z</time>
      </trkpt>
      <trkpt lat="45.96721" lon="4.78457">
        <ele>203</ele>
        <time>2018-01-12T09:59:15Z</time>
      </trkpt>
      <trkpt lat="45.96724" lon="4.78461">
        <ele>203</ele>
        <time>2018-01-12T09:59:16Z</time>
      </trkpt>
      <trkpt lat="45.96728" lon="4.78464">
        <ele>203</ele>
        <time>2018-01-12T09:59:17Z</time>
      </trkpt>
      <trkpt lat="45.96731" lon="4.78468">
        <ele>203</ele>
        <time>2018-01-12T09:59:18Z</time>
      </trkpt>
      <trkpt lat="45.96739" lon="4.78472">
        <ele>203</ele>
        <time>2018-01-12T09:59:20Z</time>
      </trkpt>
      <trkpt lat="45.96743" lon="4.78475">
        <ele>203</ele>
        <time>2018-01-12T09:59:21Z</time>
      </trkpt>
      <trkpt lat="45.9675" lon="4.78481">
        <ele>203</ele>
        <time>2018-01-12T09:59:23Z</time>
      </trkpt>
      <trkpt lat="45.96753" lon="4.78485">
        <ele>204</ele>
        <time>2018-01-12T09:59:24Z</time>
      </trkpt>
      <trkpt lat="45.96757" lon="4.7849">
        <ele>204</ele>
        <time>2018-01-12T09:59:25Z</time>
      </trkpt>
      <trkpt lat="45.9676" lon="4.78495">
        <ele>204</ele>
        <time>2018-01-12T09:59:26Z</time>
      </trkpt>
      <trkpt lat="45.96764" lon="4.78499">
        <ele>204</ele>
        <time>2018-01-12T09:59:27Z</time>
      </trkpt>
      <trkpt lat="45.96768" lon="4.78504">
        <ele>203</ele>
        <time>2018-01-12T09:59:28Z</time>
      </trkpt>
      <trkpt lat="45.96771" lon="4.7851">
        <ele>203</ele>
        <time>2018-01-12T09:59:29Z</time>
      </trkpt>
      <trkpt lat="45.96774" lon="4.78515">
        <ele>203</ele>
        <time>2018-01-12T09:59:30Z</time>
      </trkpt>
      <trkpt lat="45.96779" lon="4.78522">
        <ele>203</ele>
        <time>2018-01-12T09:59:32Z</time>
      </trkpt>
      <trkpt lat="45.96782" lon="4.78526">
        <ele>203</ele>
        <time>2018-01-12T09:59:33Z</time>
      </trkpt>
      <trkpt lat="45.96787" lon="4.78534">
        <ele>203</ele>
        <time>2018-01-12T09:59:35Z</time>
      </trkpt>
      <trkpt lat="45.9679" lon="4.78537">
        <ele>203</ele>
        <time>2018-01-12T09:59:36Z</time>
      </trkpt>
      <trkpt lat="45.96796" lon="4.78547">
        <ele>203</ele>
        <time>2018-01-12T09:59:38Z</time>
      </trkpt>
      <trkpt lat="45.96799" lon="4.78551">
        <ele>203</ele>
        <time>2018-01-12T09:59:39Z</time>
      </trkpt>
      <trkpt lat="45.96804" lon="4.7856">
        <ele>203</ele>
        <time>2018-01-12T09:59:41Z</time>
      </trkpt>
      <trkpt lat="45.96807" lon="4.78564">
        <ele>203</ele>
        <time>2018-01-12T09:59:42Z</time>
      </trkpt>
      <trkpt lat="45.96813" lon="4.78571">
        <ele>203</ele>
        <time>2018-01-12T09:59:44Z</time>
      </trkpt>
      <trkpt lat="45.96816" lon="4.78574">
        <ele>203</ele>
        <time>2018-01-12T09:59:45Z</time>
      </trkpt>
      <trkpt lat="45.9682" lon="4.7858">
        <ele>203</ele>
        <time>2018-01-12T09:59:47Z</time>
      </trkpt>
      <trkpt lat="45.96822" lon="4.78584">
        <ele>202</ele>
        <time>2018-01-12T09:59:48Z</time>
      </trkpt>
      <trkpt lat="45.96825" lon="4.78595">
        <ele>202</ele>
        <time>2018-01-12T09:59:50Z</time>
      </trkpt>
      <trkpt lat="45.96827" lon="4.78601">
        <ele>202</ele>
        <time>2018-01-12T09:59:51Z</time>
      </trkpt>
      <trkpt lat="45.9683" lon="4.78612">
        <ele>202</ele>
        <time>2018-01-12T09:59:53Z</time>
      </trkpt>
      <trkpt lat="45.96831" lon="4.78617">
        <ele>202</ele>
        <time>2018-01-12T09:59:54Z</time>
      </trkpt>
      <trkpt lat="45.96835" lon="4.78627">
        <ele>203</ele>
        <time>2018-01-12T09:59:56Z</time>
      </trkpt>
      <trkpt lat="45.96836" lon="4.78632">
        <ele>203</ele>
        <time>2018-01-12T09:59:57Z</time>
      </trkpt>
      <trkpt lat="45.96841" lon="4.78641">
        <ele>203</ele>
        <time>2018-01-12T09:59:59Z</time>
      </trkpt>
      <trkpt lat="45.96843" lon="4.78645">
        <ele>203</ele>
        <time>2018-01-12T10:00:00Z</time>
      </trkpt>
      <trkpt lat="45.96848" lon="4.78653">
        <ele>203</ele>
        <time>2018-01-12T10:00:02Z</time>
      </trkpt>
      <trkpt lat="45.96851" lon="4.78658">
        <ele>203</ele>
        <time>2018-01-12T10:00:03Z</time>
      </trkpt>
      <trkpt lat="45.96856" lon="4.78667">
        <ele>202</ele>
        <time>2018-01-12T10:00:05Z</time>
      </trkpt>
      <trkpt lat="45.96858" lon="4.78672">
        <ele>202</ele>
        <time>2018-01-12T10:00:06Z</time>
      </trkpt>
      <trkpt lat="45.96863" lon="4.7868">
        <ele>202</ele>
        <time>2018-01-12T10:00:08Z</time>
      </trkpt>
      <trkpt lat="45.96865" lon="4.78685">
        <ele>202</ele>
        <time>2018-01-12T10:00:09Z</time>
      </trkpt>
      <trkpt lat="45.96869" lon="4.78694">
        <ele>202</ele>
        <time>2018-01-12T10:00:11Z</time>
      </trkpt>
      <trkpt lat="45.96871" lon="4.78699">
        <ele>202</ele>
        <time>2018-01-12T10:00:12Z</time>
      </trkpt>
      <trkpt lat="45.96875" lon="4.78709">
        <ele>202</ele>
        <time>2018-01-12T10:00:14Z</time>
      </trkpt>
      <trkpt lat="45.96878" lon="4.78714">
        <ele>202</ele>
        <time>2018-01-12T10:00:15Z</time>
      </trkpt>
      <trkpt lat="45.96882" lon="4.78724">
        <ele>202</ele>
        <time>2018-01-12T10:00:17Z</time>
      </trkpt>
      <trkpt lat="45.96885" lon="4.78729">
        <ele>202</ele>
        <time>2018-01-12T10:00:18Z</time>
      </trkpt>
      <trkpt lat="45.9689" lon="4.78738">
        <ele>202</ele>
        <time>2018-01-12T10:00:20Z</time>
      </trkpt>
      <trkpt lat="45.96893" lon="4.78743">
        <ele>202</ele>
        <time>2018-01-12T10:00:21Z</time>
      </trkpt>
      <trkpt lat="45.96897" lon="4.78753">
        <ele>202</ele>
        <time>2018-01-12T10:00:23Z</time>
      </trkpt>
      <trkpt lat="45.96899" lon="4.7876">
        <ele>201</ele>
        <time>2018-01-12T10:00:24Z</time>
      </trkpt>
      <trkpt lat="45.96904" lon="4.7877">
        <ele>201</ele>
        <time>2018-01-12T10:00:26Z</time>
      </trkpt>
      <trkpt lat="45.96906" lon="4.78775">
        <ele>201</ele>
        <time>2018-01-12T10:00:27Z</time>
      </trkpt>
      <trkpt lat="45.96909" lon="4.78781">
        <ele>201</ele>
        <time>2018-01-12T10:00:28Z</time>
      </trkpt>
      <trkpt lat="45.96911" lon="4.78786">
        <ele>201</ele>
        <time>2018-01-12T10:00:29Z</time>
      </trkpt>
      <trkpt lat="45.96917" lon="4.78796">
        <ele>201</ele>
        <time>2018-01-12T10:00:31Z</time>
      </trkpt>
      <trkpt lat="45.96919" lon="4.78801">
        <ele>203</ele>
        <time>2018-01-12T10:00:32Z</time>
      </trkpt>
      <trkpt lat="45.96924" lon="4.78811">
        <ele>202</ele>
        <time>2018-01-12T10:00:34Z</time>
      </trkpt>
      <trkpt lat="45.96927" lon="4.78816">
        <ele>202</ele>
        <time>2018-01-12T10:00:35Z</time>
      </trkpt>
      <trkpt lat="45.9693" lon="4.78822">
        <ele>202</ele>
        <time>2018-01-12T10:00:36Z</time>
      </trkpt>
      <trkpt lat="45.96933" lon="4.78827">
        <ele>202</ele>
        <time>2018-01-12T10:00:37Z</time>
      </trkpt>
      <trkpt lat="45.96936" lon="4.78832">
        <ele>202</ele>
        <time>2018-01-12T10:00:38Z</time>
      </trkpt>
      <trkpt lat="45.9694" lon="4.78836">
        <ele>202</ele>
        <time>2018-01-12T10:00:39Z</time>
      </trkpt>
      <trkpt lat="45.96946" lon="4.78845">
        <ele>202</ele>
        <time>2018-01-12T10:00:41Z</time>
      </trkpt>
      <trkpt lat="45.96949" lon="4.78849">
        <ele>202</ele>
        <time>2018-01-12T10:00:42Z</time>
      </trkpt>
      <trkpt lat="45.96955" lon="4.78858">
        <ele>203</ele>
        <time>2018-01-12T10:00:44Z</time>
      </trkpt>
      <trkpt lat="45.96958" lon="4.78862">
        <ele>203</ele>
        <time>2018-01-12T10:00:45Z</time>
      </trkpt>
      <trkpt lat="45.96964" lon="4.78869">
        <ele>203</ele>
        <time>2018-01-12T10:00:47Z</time>
      </trkpt>
      <trkpt lat="45.96967" lon="4.78873">
        <ele>203</ele>
        <time>2018-01-12T10:00:48Z</time>
      </trkpt>
      <trkpt lat="45.96974" lon="4.78879">
        <ele>203</ele>
        <time>2018-01-12T10:00:50Z</time>
      </trkpt>
      <trkpt lat="45.96977" lon="4.78883">
        <ele>203</ele>
        <time>2018-01-12T10:00:51Z</time>
      </trkpt>
      <trkpt lat="45.96983" lon="4.7889">
        <ele>203</ele>
        <time>2018-01-12T10:00:53Z</time>
      </trkpt>
      <trkpt lat="45.96986" lon="4.78893">
        <ele>203</ele>
        <time>2018-01-12T10:00:54Z</time>
      </trkpt>
      <trkpt lat="45.96992" lon="4.789">
        <ele>203</ele>
        <time>2018-01-12T10:00:56Z</time>
      </trkpt>
      <trkpt lat="45.96994" lon="4.78904">
        <ele>204</ele>
        <time>2018-01-12T10:00:57Z</time>
      </trkpt>
      <trkpt lat="45.97" lon="4.7891">
        <ele>204</ele>
        <time>2018-01-12T10:00:59Z</time>
      </trkpt>
      <trkpt lat="45.97003" lon="4.78914">
        <ele>205</ele>
        <time>2018-01-12T10:01:00Z</time>
      </trkpt>
      <trkpt lat="45.97006" lon="4.78919">
        <ele>204</ele>
        <time>2018-01-12T10:01:01Z</time>
      </trkpt>
      <trkpt lat="45.9701" lon="4.78923">
        <ele>204</ele>
        <time>2018-01-12T10:01:02Z</time>
      </trkpt>
      <trkpt lat="45.97013" lon="4.78928">
        <ele>205</ele>
        <time>2018-01-12T10:01:03Z</time>
      </trkpt>
      <trkpt lat="45.97017" lon="4.78932">
        <ele>205</ele>
        <time>2018-01-12T10:01:04Z</time>
      </trkpt>
      <trkpt lat="45.9702" lon="4.78937">
        <ele>205</ele>
        <time>2018-01-12T10:01:05Z</time>
      </trkpt>
      <trkpt lat="45.97023" lon="4.78941">
        <ele>205</ele>
        <time>2018-01-12T10:01:06Z</time>
      </trkpt>
      <trkpt lat="45.9703" lon="4.7895">
        <ele>205</ele>
        <time>2018-01-12T10:01:08Z</time>
      </trkpt>
      <trkpt lat="45.97031" lon="4.78955">
        <ele>205</ele>
        <time>2018-01-12T10:01:09Z</time>
      </trkpt>
      <trkpt lat="45.97036" lon="4.78964">
        <ele>205</ele>
        <time>2018-01-12T10:01:11Z</time>
      </trkpt>
      <trkpt lat="45.97039" lon="4.78969">
        <ele>205</ele>
        <time>2018-01-12T10:01:12Z</time>
      </trkpt>
      <trkpt lat="45.97044" lon="4.78977">
        <ele>205</ele>
        <time>2018-01-12T10:01:14Z</time>
      </trkpt>
      <trkpt lat="45.97046" lon="4.78981">
        <ele>205</ele>
        <time>2018-01-12T10:01:15Z</time>
      </trkpt>
      <trkpt lat="45.97049" lon="4.78989">
        <ele>205</ele>
        <time>2018-01-12T10:01:17Z</time>
      </trkpt>
      <trkpt lat="45.9705" lon="4.78992">
        <ele>205</ele>
        <time>2018-01-12T10:01:18Z</time>
      </trkpt>
      <trkpt lat="45.97054" lon="4.79">
        <ele>205</ele>
        <time>2018-01-12T10:01:20Z</time>
      </trkpt>
      <trkpt lat="45.97056" lon="4.79003">
        <ele>203</ele>
        <time>2018-01-12T10:01:21Z</time>
      </trkpt>
      <trkpt lat="45.97059" lon="4.79012">
        <ele>204</ele>
        <time>2018-01-12T10:01:23Z</time>
      </trkpt>
      <trkpt lat="45.97061" lon="4.79017">
        <ele>204</ele>
        <time>2018-01-12T10:01:24Z</time>
      </trkpt>
      <trkpt lat="45.97065" lon="4.79029">
        <ele>203</ele>
        <time>2018-01-12T10:01:26Z</time>
      </trkpt>
      <trkpt lat="45.97066" lon="4.79035">
        <ele>203</ele>
        <time>2018-01-12T10:01:27Z</time>
      </trkpt>
      <trkpt lat="45.97068" lon="4.79047">
        <ele>203</ele>
        <time>2018-01-12T10:01:29Z</time>
      </trkpt>
      <trkpt lat="45.97069" lon="4.79053">
        <ele>203</ele>
        <time>2018-01-12T10:01:30Z</time>
      </trkpt>
      <trkpt lat="45.97071" lon="4.79065">
        <ele>203</ele>
        <time>2018-01-12T10:01:32Z</time>
      </trkpt>
      <trkpt lat="45.97073" lon="4.7907">
        <ele>204</ele>
        <time>2018-01-12T10:01:33Z</time>
      </trkpt>
      <trkpt lat="45.97075" lon="4.79082">
        <ele>204</ele>
        <time>2018-01-12T10:01:35Z</time>
      </trkpt>
      <trkpt lat="45.97076" lon="4.79087">
        <ele>204</ele>
        <time>2018-01-12T10:01:36Z</time>
      </trkpt>
      <trkpt lat="45.97079" lon="4.79097">
        <ele>204</ele>
        <time>2018-01-12T10:01:38Z</time>
      </trkpt>
      <trkpt lat="45.9708" lon="4.79103">
        <ele>204</ele>
        <time>2018-01-12T10:01:39Z</time>
      </trkpt>
      <trkpt lat="45.97083" lon="4.79114">
        <ele>204</ele>
        <time>2018-01-12T10:01:41Z</time>
      </trkpt>
      <trkpt lat="45.97085" lon="4.79119">
        <ele>206</ele>
        <time>2018-01-12T10:01:42Z</time>
      </trkpt>
      <trkpt lat="45.9709" lon="4.79129">
        <ele>206</ele>
        <time>2018-01-12T10:01:44Z</time>
      </trkpt>
      <trkpt lat="45.97093" lon="4.79134">
        <ele>206</ele>
        <time>2018-01-12T10:01:45Z</time>
      </trkpt>
      <trkpt lat="45.97096" lon="4.79139">
        <ele>206</ele>
        <time>2018-01-12T10:01:46Z</time>
      </trkpt>
      <trkpt lat="45.97099" lon="4.79144">
        <ele>206</ele>
        <time>2018-01-12T10:01:47Z</time>
      </trkpt>
      <trkpt lat="45.97105" lon="4.79153">
        <ele>206</ele>
        <time>2018-01-12T10:01:49Z</time>
      </trkpt>
      <trkpt lat="45.97108" lon="4.79157">
        <ele>206</ele>
        <time>2018-01-12T10:01:50Z</time>
      </trkpt>
      <trkpt lat="45.97112" lon="4.79168">
        <ele>205</ele>
        <time>2018-01-12T10:01:52Z</time>
      </trkpt>
      <trkpt lat="45.97114" lon="4.79175">
        <ele>206</ele>
        <time>2018-01-12T10:01:53Z</time>
      </trkpt>
      <trkpt lat="45.9712" lon="4.79183">
        <ele>206</ele>
        <time>2018-01-12T10:01:55Z</time>
      </trkpt>
      <trkpt lat="45.9712" lon="4.79188">
        <ele>206</ele>
        <time>2018-01-12T10:01:56Z</time>
      </trkpt>
      <trkpt lat="45.97124" lon="4.792">
        <ele>206</ele>
        <time>2018-01-12T10:01:58Z</time>
      </trkpt>
      <trkpt lat="45.97127" lon="4.79206">
        <ele>206</ele>
        <time>2018-01-12T10:01:59Z</time>
      </trkpt>
      <trkpt lat="45.97132" lon="4.79217">
        <ele>205</ele>
        <time>2018-01-12T10:02:01Z</time>
      </trkpt>
      <trkpt lat="45.97134" lon="4.79222">
        <ele>205</ele>
        <time>2018-01-12T10:02:02Z</time>
      </trkpt>
      <trkpt lat="45.97138" lon="4.79232">
        <ele>205</ele>
        <time>2018-01-12T10:02:04Z</time>
      </trkpt>
      <trkpt lat="45.9714" lon="4.79237">
        <ele>205</ele>
        <time>2018-01-12T10:02:05Z</time>
      </trkpt>
      <trkpt lat="45.97142" lon="4.79243">
        <ele>205</ele>
        <time>2018-01-12T10:02:06Z</time>
      </trkpt>
      <trkpt lat="45.97145" lon="4.79249">
        <ele>205</ele>
        <time>2018-01-12T10:02:07Z</time>
      </trkpt>
      <trkpt lat="45.97149" lon="4.79259">
        <ele>204</ele>
        <time>2018-01-12T10:02:09Z</time>
      </trkpt>
      <trkpt lat="45.97152" lon="4.79264">
        <ele>204</ele>
        <time>2018-01-12T10:02:10Z</time>
      </trkpt>
      <trkpt lat="45.97154" lon="4.7927">
        <ele>204</ele>
        <time>2018-01-12T10:02:11Z</time>
      </trkpt>
      <trkpt lat="45.97156" lon="4.79275">
        <ele>204</ele>
        <time>2018-01-12T10:02:12Z</time>
      </trkpt>
      <trkpt lat="45.97158" lon="4.79282">
        <ele>204</ele>
        <time>2018-01-12T10:02:13Z</time>
      </trkpt>
      <trkpt lat="45.97161" lon="4.79287">
        <ele>204</ele>
        <time>2018-01-12T10:02:14Z</time>
      </trkpt>
      <trkpt lat="45.97163" lon="4.79293">
        <ele>204</ele>
        <time>2018-01-12T10:02:15Z</time>
      </trkpt>
      <trkpt lat="45.97165" lon="4.79298">
        <ele>204</ele>
        <time>2018-01-12T10:02:16Z</time>
      </trkpt>
      <trkpt lat="45.97169" lon="4.7931">
        <ele>207</ele>
        <time>2018-01-12T10:02:18Z</time>
      </trkpt>
      <trkpt lat="45.97171" lon="4.79317">
        <ele>207</ele>
        <time>2018-01-12T10:02:19Z</time>
      </trkpt>
      <trkpt lat="45.97175" lon="4.79328">
        <ele>206</ele>
        <time>2018-01-12T10:02:21Z</time>
      </trkpt>
      <trkpt lat="45.97177" lon="4.79333">
        <ele>206</ele>
        <time>2018-01-12T10:02:22Z</time>
      </trkpt>
      <trkpt lat="45.97182" lon="4.79343">
        <ele>206</ele>
        <time>2018-01-12T10:02:24Z</time>
      </trkpt>
      <trkpt lat="45.97185" lon="4.79349">
        <ele>207</ele>
        <time>2018-01-12T10:02:25Z</time>
      </trkpt>
      <trkpt lat="45.9719" lon="4.79359">
        <ele>207</ele>
        <time>2018-01-12T10:02:27Z</time>
      </trkpt>
      <trkpt lat="45.97191" lon="4.79363">
        <ele>207</ele>
        <time>2018-01-12T10:02:28Z</time>
      </trkpt>
      <trkpt lat="45.97195" lon="4.79374">
        <ele>207</ele>
        <time>2018-01-12T10:02:30Z</time>
      </trkpt>
      <trkpt lat="45.97197" lon="4.79379">
        <ele>207</ele>
        <time>2018-01-12T10:02:31Z</time>
      </trkpt>
      <trkpt lat="45.97201" lon="4.79389">
        <ele>207</ele>
        <time>2018-01-12T10:02:33Z</time>
      </trkpt>
      <trkpt lat="45.97203" lon="4.79394">
        <ele>208</ele>
        <time>2018-01-12T10:02:34Z</time>
      </trkpt>
      <trkpt lat="45.97207" lon="4.79404">
        <ele>208</ele>
        <time>2018-01-12T10:02:36Z</time>
      </trkpt>
      <trkpt lat="45.97209" lon="4.79409">
        <ele>208</ele>
        <time>2018-01-12T10:02:37Z</time>
      </trkpt>
      <trkpt lat="45.97212" lon="4.79418">
        <ele>208</ele>
        <time>2018-01-12T10:02:39Z</time>
      </trkpt>
      <trkpt lat="45.97214" lon="4.79422">
        <ele>208</ele>
        <time>2018-01-12T10:02:40Z</time>
      </trkpt>
      <trkpt lat="45.97218" lon="4.79431">
        <ele>208</ele>
        <time>2018-01-12T10:02:42Z</time>
      </trkpt>
      <trkpt lat="45.9722" lon="4.79435">
        <ele>208</ele>
        <time>2018-01-12T10:02:43Z</time>
      </trkpt>
      <trkpt lat="45.97224" lon="4.79445">
        <ele>209</ele>
        <time>2018-01-12T10:02:45Z</time>
      </trkpt>
      <trkpt lat="45.97225" lon="4.79449">
        <ele>209</ele>
        <time>2018-01-12T10:02:46Z</time>
      </trkpt>
      <trkpt lat="45.97229" lon="4.79459">
        <ele>209</ele>
        <time>2018-01-12T10:02:48Z</time>
      </trkpt>
      <trkpt lat="45.97231" lon="4.79463">
        <ele>209</ele>
        <time>2018-01-12T10:02:49Z</time>
      </trkpt>
      <trkpt lat="45.97234" lon="4.79472">
        <ele>209</ele>
        <time>2018-01-12T10:02:51Z</time>
      </trkpt>
      <trkpt lat="45.97235" lon="4.79477">
        <ele>209</ele>
        <time>2018-01-12T10:02:52Z</time>
      </trkpt>
      <trkpt lat="45.97239" lon="4.79486">
        <ele>210</ele>
        <time>2018-01-12T10:02:54Z</time>
      </trkpt>
      <trkpt lat="45.9724" lon="4.7949">
        <ele>210</ele>
        <time>2018-01-12T10:02:55Z</time>
      </trkpt>
      <trkpt lat="45.97243" lon="4.795">
        <ele>210</ele>
        <time>2018-01-12T10:02:57Z</time>
      </trkpt>
      <trkpt lat="45.97244" lon="4.79505">
        <ele>210</ele>
        <time>2018-01-12T10:02:58Z</time>
      </trkpt>
      <trkpt lat="45.97246" lon="4.79515">
        <ele>210</ele>
        <time>2018-01-12T10:03:00Z</time>
      </trkpt>
      <trkpt lat="45.97247" lon="4.79521">
        <ele>210</ele>
        <time>2018-01-12T10:03:01Z</time>
      </trkpt>
      <trkpt lat="45.97249" lon="4.79532">
        <ele>210</ele>
        <time>2018-01-12T10:03:03Z</time>
      </trkpt>
      <trkpt lat="45.9725" lon="4.79538">
        <ele>210</ele>
        <time>2018-01-12T10:03:04Z</time>
      </trkpt>
      <trkpt lat="45.97251" lon="4.79549">
        <ele>214</ele>
        <time>2018-01-12T10:03:06Z</time>
      </trkpt>
      <trkpt lat="45.97252" lon="4.79554">
        <ele>213</ele>
        <time>2018-01-12T10:03:07Z</time>
      </trkpt>
      <trkpt lat="45.97253" lon="4.79564">
        <ele>213</ele>
        <time>2018-01-12T10:03:09Z</time>
      </trkpt>
      <trkpt lat="45.97254" lon="4.79569">
        <ele>213</ele>
        <time>2018-01-12T10:03:10Z</time>
      </trkpt>
      <trkpt lat="45.97255" lon="4.7958">
        <ele>211</ele>
        <time>2018-01-12T10:03:12Z</time>
      </trkpt>
      <trkpt lat="45.97255" lon="4.79585">
        <ele>211</ele>
        <time>2018-01-12T10:03:13Z</time>
      </trkpt>
      <trkpt lat="45.97255" lon="4.79597">
        <ele>212</ele>
        <time>2018-01-12T10:03:15Z</time>
      </trkpt>
      <trkpt lat="45.97255" lon="4.79603">
        <ele>212</ele>
        <time>2018-01-12T10:03:16Z</time>
      </trkpt>
      <trkpt lat="45.97255" lon="4.79615">
        <ele>213</ele>
        <time>2018-01-12T10:03:18Z</time>
      </trkpt>
      <trkpt lat="45.97255" lon="4.79621">
        <ele>213</ele>
        <time>2018-01-12T10:03:19Z</time>
      </trkpt>
      <trkpt lat="45.97255" lon="4.79632">
        <ele>213</ele>
        <time>2018-01-12T10:03:21Z</time>
      </trkpt>
      <trkpt lat="45.97255" lon="4.79637">
        <ele>212</ele>
        <time>2018-01-12T10:03:22Z</time>
      </trkpt>
      <trkpt lat="45.97255" lon="4.79649">
        <ele>212</ele>
        <time>2018-01-12T10:03:24Z</time>
      </trkpt>
      <trkpt lat="45.97255" lon="4.79654">
        <ele>211</ele>
        <time>2018-01-12T10:03:25Z</time>
      </trkpt>
      <trkpt lat="45.97255" lon="4.7966">
        <ele>210</ele>
        <time>2018-01-12T10:03:26Z</time>
      </trkpt>
      <trkpt lat="45.97254" lon="4.79667">
        <ele>209</ele>
        <time>2018-01-12T10:03:27Z</time>
      </trkpt>
      <trkpt lat="45.97252" lon="4.79675">
        <ele>210</ele>
        <time>2018-01-12T10:03:28Z</time>
      </trkpt>
      <trkpt lat="45.97251" lon="4.79682">
        <ele>211</ele>
        <time>2018-01-12T10:03:29Z</time>
      </trkpt>
      <trkpt lat="45.97249" lon="4.79689">
        <ele>208</ele>
        <time>2018-01-12T10:03:30Z</time>
      </trkpt>
      <trkpt lat="45.97247" lon="4.79695">
        <ele>208</ele>
        <time>2018-01-12T10:03:31Z</time>
      </trkpt>
      <trkpt lat="45.97245" lon="4.79702">
        <ele>208</ele>
        <time>2018-01-12T10:03:32Z</time>
      </trkpt>
      <trkpt lat="45.97245" lon="4.7971">
        <ele>209</ele>
        <time>2018-01-12T10:03:33Z</time>
      </trkpt>
      <trkpt lat="45.97244" lon="4.79723">
        <ele>209</ele>
        <time>2018-01-12T10:03:35Z</time>
      </trkpt>
      <trkpt lat="45.97243" lon="4.79728">
        <ele>209</ele>
        <time>2018-01-12T10:03:36Z</time>
      </trkpt>
      <trkpt lat="45.97243" lon="4.79736">
        <ele>209</ele>
        <time>2018-01-12T10:03:37Z</time>
      </trkpt>
      <trkpt lat="45.97243" lon="4.79742">
        <ele>209</ele>
        <time>2018-01-12T10:03:38Z</time>
      </trkpt>
      <trkpt lat="45.97242" lon="4.79752">
        <ele>209</ele>
        <time>2018-01-12T10:03:40Z</time>
      </trkpt>
      <trkpt lat="45.97241" lon="4.79757">
        <ele>209</ele>
        <time>2018-01-12T10:03:41Z</time>
      </trkpt>
      <trkpt lat="45.97241" lon="4.79768">
        <ele>210</ele>
        <time>2018-01-12T10:03:43Z</time>
      </trkpt>
      <trkpt lat="45.97241" lon="4.79776">
        <ele>210</ele>
        <time>2018-01-12T10:03:44Z</time>
      </trkpt>
      <trkpt lat="45.97239" lon="4.79783">
        <ele>210</ele>
        <time>2018-01-12T10:03:45Z</time>
      </trkpt>
      <trkpt lat="45.97239" lon="4.79789">
        <ele>210</ele>
        <time>2018-01-12T10:03:46Z</time>
      </trkpt>
      <trkpt lat="45.97237" lon="4.79799">
        <ele>210</ele>
        <time>2018-01-12T10:03:47Z</time>
      </trkpt>
      <trkpt lat="45.97237" lon="4.79806">
        <ele>210</ele>
        <time>2018-01-12T10:03:48Z</time>
      </trkpt>
      <trkpt lat="45.97237" lon="4.79817">
        <ele>211</ele>
        <time>2018-01-12T10:03:50Z</time>
      </trkpt>
      <trkpt lat="45.97237" lon="4.79822">
        <ele>211</ele>
        <time>2018-01-12T10:03:51Z</time>
      </trkpt>
      <trkpt lat="45.97237" lon="4.79833">
        <ele>211</ele>
        <time>2018-01-12T10:03:53Z</time>
      </trkpt>
      <trkpt lat="45.97237" lon="4.79838">
        <ele>211</ele>
        <time>2018-01-12T10:03:54Z</time>
      </trkpt>
      <trkpt lat="45.97238" lon="4.79844">
        <ele>211</ele>
        <time>2018-01-12T10:03:55Z</time>
      </trkpt>
      <trkpt lat="45.97238" lon="4.79851">
        <ele>211</ele>
        <time>2018-01-12T10:03:56Z</time>
      </trkpt>
      <trkpt lat="45.97239" lon="4.79862">
        <ele>211</ele>
        <time>2018-01-12T10:03:58Z</time>
      </trkpt>
      <trkpt lat="45.97241" lon="4.79868">
        <ele>211</ele>
        <time>2018-01-12T10:03:59Z</time>
      </trkpt>
      <trkpt lat="45.97246" lon="4.79878">
        <ele>211</ele>
        <time>2018-01-12T10:04:01Z</time>
      </trkpt>
      <trkpt lat="45.97246" lon="4.79883">
        <ele>211</ele>
        <time>2018-01-12T10:04:02Z</time>
      </trkpt>
      <trkpt lat="45.97251" lon="4.79891">
        <ele>213</ele>
        <time>2018-01-12T10:04:04Z</time>
      </trkpt>
      <trkpt lat="45.97252" lon="4.79894">
        <ele>213</ele>
        <time>2018-01-12T10:04:05Z</time>
      </trkpt>
      <trkpt lat="45.97254" lon="4.79904">
        <ele>213</ele>
        <time>2018-01-12T10:04:09Z</time>
      </trkpt>
      <trkpt lat="45.97255" lon="4.79907">
        <ele>213</ele>
        <time>2018-01-12T10:04:10Z</time>
      </trkpt>
      <trkpt lat="45.9726" lon="4.79917">
        <ele>212</ele>
        <time>2018-01-12T10:04:17Z</time>
      </trkpt>
      <trkpt lat="45.97263" lon="4.79918">
        <ele>212</ele>
        <time>2018-01-12T10:04:18Z</time>
      </trkpt>
      <trkpt lat="45.97269" lon="4.79919">
        <ele>212</ele>
        <time>2018-01-12T10:04:20Z</time>
      </trkpt>
      <trkpt lat="45.97272" lon="4.79919">
        <ele>212</ele>
        <time>2018-01-12T10:04:21Z</time>
      </trkpt>
      <trkpt lat="45.97279" lon="4.79916">
        <ele>213</ele>
        <time>2018-01-12T10:04:23Z</time>
      </trkpt>
      <trkpt lat="45.97283" lon="4.79915">
        <ele>213</ele>
        <time>2018-01-12T10:04:24Z</time>
      </trkpt>
      <trkpt lat="45.97291" lon="4.79914">
        <ele>213</ele>
        <time>2018-01-12T10:04:26Z</time>
      </trkpt>
      <trkpt lat="45.97294" lon="4.79913">
        <ele>213</ele>
        <time>2018-01-12T10:04:27Z</time>
      </trkpt>
      <trkpt lat="45.97302" lon="4.79911">
        <ele>213</ele>
        <time>2018-01-12T10:04:29Z</time>
      </trkpt>
      <trkpt lat="45.97306" lon="4.7991">
        <ele>213</ele>
        <time>2018-01-12T10:04:30Z</time>
      </trkpt>
      <trkpt lat="45.97314" lon="4.79908">
        <ele>213</ele>
        <time>2018-01-12T10:04:32Z</time>
      </trkpt>
      <trkpt lat="45.97318" lon="4.79908">
        <ele>213</ele>
        <time>2018-01-12T10:04:33Z</time>
      </trkpt>
      <trkpt lat="45.97327" lon="4.79907">
        <ele>213</ele>
        <time>2018-01-12T10:04:35Z</time>
      </trkpt>
      <trkpt lat="45.97331" lon="4.79907">
        <ele>213</ele>
        <time>2018-01-12T10:04:36Z</time>
      </trkpt>
      <trkpt lat="45.97339" lon="4.79907">
        <ele>215</ele>
        <time>2018-01-12T10:04:38Z</time>
      </trkpt>
      <trkpt lat="45.97343" lon="4.79906">
        <ele>215</ele>
        <time>2018-01-12T10:04:39Z</time>
      </trkpt>
      <trkpt lat="45.97351" lon="4.79905">
        <ele>216</ele>
        <time>2018-01-12T10:04:41Z</time>
      </trkpt>
      <trkpt lat="45.97355" lon="4.79904">
        <ele>216</ele>
        <time>2018-01-12T10:04:42Z</time>
      </trkpt>
      <trkpt lat="45.97361" lon="4.79903">
        <ele>216</ele>
        <time>2018-01-12T10:04:44Z</time>
      </trkpt>
      <trkpt lat="45.97365" lon="4.79902">
        <ele>216</ele>
        <time>2018-01-12T10:04:45Z</time>
      </trkpt>
      <trkpt lat="45.97372" lon="4.79902">
        <ele>217</ele>
        <time>2018-01-12T10:04:47Z</time>
      </trkpt>
      <trkpt lat="45.97376" lon="4.79902">
        <ele>217</ele>
        <time>2018-01-12T10:04:48Z</time>
      </trkpt>
      <trkpt lat="45.97383" lon="4.79901">
        <ele>217</ele>
        <time>2018-01-12T10:04:50Z</time>
      </trkpt>
      <trkpt lat="45.97387" lon="4.79901">
        <ele>217</ele>
        <time>2018-01-12T10:04:51Z</time>
      </trkpt>
      <trkpt lat="45.97395" lon="4.79901">
        <ele>217</ele>
        <time>2018-01-12T10:04:53Z</time>
      </trkpt>
      <trkpt lat="45.97398" lon="4.79901">
        <ele>217</ele>
        <time>2018-01-12T10:04:54Z</time>
      </trkpt>
      <trkpt lat="45.97407" lon="4.799">
        <ele>217</ele>
        <time>2018-01-12T10:04:57Z</time>
      </trkpt>
      <trkpt lat="45.9741" lon="4.79899">
        <ele>217</ele>
        <time>2018-01-12T10:04:58Z</time>
      </trkpt>
      <trkpt lat="45.97416" lon="4.79899">
        <ele>217</ele>
        <time>2018-01-12T10:05:00Z</time>
      </trkpt>
      <trkpt lat="45.97419" lon="4.79899">
        <ele>219</ele>
        <time>2018-01-12T10:05:01Z</time>
      </trkpt>
      <trkpt lat="45.97425" lon="4.79897">
        <ele>219</ele>
        <time>2018-01-12T10:05:03Z</time>
      </trkpt>
      <trkpt lat="45.97429" lon="4.79897">
        <ele>219</ele>
        <time>2018-01-12T10:05:04Z</time>
      </trkpt>
      <trkpt lat="45.97435" lon="4.79897">
        <ele>220</ele>
        <time>2018-01-12T10:05:06Z</time>
      </trkpt>
      <trkpt lat="45.97439" lon="4.79897">
        <ele>220</ele>
        <time>2018-01-12T10:05:07Z</time>
      </trkpt>
      <trkpt lat="45.97445" lon="4.79896">
        <ele>220</ele>
        <time>2018-01-12T10:05:09Z</time>
      </trkpt>
      <trkpt lat="45.97449" lon="4.79895">
        <ele>220</ele>
        <time>2018-01-12T10:05:10Z</time>
      </trkpt>
      <trkpt lat="45.97457" lon="4.79894">
        <ele>220</ele>
        <time>2018-01-12T10:05:12Z</time>
      </trkpt>
      <trkpt lat="45.9746" lon="4.79893">
        <ele>220</ele>
        <time>2018-01-12T10:05:13Z</time>
      </trkpt>
      <trkpt lat="45.97467" lon="4.79893">
        <ele>221</ele>
        <time>2018-01-12T10:05:15Z</time>
      </trkpt>
      <trkpt lat="45.9747" lon="4.79892">
        <ele>221</ele>
        <time>2018-01-12T10:05:16Z</time>
      </trkpt>
      <trkpt lat="45.97478" lon="4.79892">
        <ele>221</ele>
        <time>2018-01-12T10:05:18Z</time>
      </trkpt>
      <trkpt lat="45.97482" lon="4.79891">
        <ele>221</ele>
        <time>2018-01-12T10:05:19Z</time>
      </trkpt>
      <trkpt lat="45.97489" lon="4.7989">
        <ele>221</ele>
        <time>2018-01-12T10:05:21Z</time>
      </trkpt>
      <trkpt lat="45.97492" lon="4.7989">
        <ele>221</ele>
        <time>2018-01-12T10:05:22Z</time>
      </trkpt>
      <trkpt lat="45.97498" lon="4.7989">
        <ele>221</ele>
        <time>2018-01-12T10:05:24Z</time>
      </trkpt>
      <trkpt lat="45.97502" lon="4.7989">
        <ele>221</ele>
        <time>2018-01-12T10:05:25Z</time>
      </trkpt>
      <trkpt lat="45.97509" lon="4.79889">
        <ele>221</ele>
        <time>2018-01-12T10:05:27Z</time>
      </trkpt>
      <trkpt lat="45.97512" lon="4.79889">
        <ele>221</ele>
        <time>2018-01-12T10:05:28Z</time>
      </trkpt>
      <trkpt lat="45.97521" lon="4.79887">
        <ele>221</ele>
        <time>2018-01-12T10:05:31Z</time>
      </trkpt>
      <trkpt lat="45.97524" lon="4.79887">
        <ele>221</ele>
        <time>2018-01-12T10:05:32Z</time>
      </trkpt>
      <trkpt lat="45.97532" lon="4.79885">
        <ele>221</ele>
        <time>2018-01-12T10:05:35Z</time>
      </trkpt>
      <trkpt lat="45.97535" lon="4.79884">
        <ele>221</ele>
        <time>2018-01-12T10:05:36Z</time>
      </trkpt>
      <trkpt lat="45.97541" lon="4.79883">
        <ele>222</ele>
        <time>2018-01-12T10:05:38Z</time>
      </trkpt>
      <trkpt lat="45.97543" lon="4.79882">
        <ele>222</ele>
        <time>2018-01-12T10:05:39Z</time>
      </trkpt>
      <trkpt lat="45.97549" lon="4.7988">
        <ele>222</ele>
        <time>2018-01-12T10:05:41Z</time>
      </trkpt>
      <trkpt lat="45.97552" lon="4.7988">
        <ele>222</ele>
        <time>2018-01-12T10:05:42Z</time>
      </trkpt>
      <trkpt lat="45.97558" lon="4.79878">
        <ele>221</ele>
        <time>2018-01-12T10:05:44Z</time>
      </trkpt>
      <trkpt lat="45.97562" lon="4.79878">
        <ele>221</ele>
        <time>2018-01-12T10:05:45Z</time>
      </trkpt>
      <trkpt lat="45.97568" lon="4.79876">
        <ele>222</ele>
        <time>2018-01-12T10:05:47Z</time>
      </trkpt>
      <trkpt lat="45.97571" lon="4.79874">
        <ele>222</ele>
        <time>2018-01-12T10:05:48Z</time>
      </trkpt>
      <trkpt lat="45.97577" lon="4.79872">
        <ele>222</ele>
        <time>2018-01-12T10:05:50Z</time>
      </trkpt>
      <trkpt lat="45.97581" lon="4.79871">
        <ele>222</ele>
        <time>2018-01-12T10:05:51Z</time>
      </trkpt>
      <trkpt lat="45.97587" lon="4.7987">
        <ele>221</ele>
        <time>2018-01-12T10:05:53Z</time>
      </trkpt>
      <trkpt lat="45.9759" lon="4.79869">
        <ele>221</ele>
        <time>2018-01-12T10:05:54Z</time>
      </trkpt>
      <trkpt lat="45.97598" lon="4.79867">
        <ele>221</ele>
        <time>2018-01-12T10:05:57Z</time>
      </trkpt>
      <trkpt lat="45.97601" lon="4.79866">
        <ele>221</ele>
        <time>2018-01-12T10:05:58Z</time>
      </trkpt>
      <trkpt lat="45.97609" lon="4.79864">
        <ele>221</ele>
        <time>2018-01-12T10:06:01Z</time>
      </trkpt>
      <trkpt lat="45.97612" lon="4.79862">
        <ele>221</ele>
        <time>2018-01-12T10:06:02Z</time>
      </trkpt>
      <trkpt lat="45.97618" lon="4.7986">
        <ele>221</ele>
        <time>2018-01-12T10:06:04Z</time>
      </trkpt>
      <trkpt lat="45.9762" lon="4.79859">
        <ele>221</ele>
        <time>2018-01-12T10:06:05Z</time>
      </trkpt>
      <trkpt lat="45.97627" lon="4.79857">
        <ele>221</ele>
        <time>2018-01-12T10:06:07Z</time>
      </trkpt>
      <trkpt lat="45.97629" lon="4.79855">
        <ele>221</ele>
        <time>2018-01-12T10:06:08Z</time>
      </trkpt>
      <trkpt lat="45.97636" lon="4.79853">
        <ele>221</ele>
        <time>2018-01-12T10:06:10Z</time>
      </trkpt>
      <trkpt lat="45.97639" lon="4.79852">
        <ele>221</ele>
        <time>2018-01-12T10:06:11Z</time>
      </trkpt>
      <trkpt lat="45.97645" lon="4.7985">
        <ele>221</ele>
        <time>2018-01-12T10:06:13Z</time>
      </trkpt>
      <trkpt lat="45.97648" lon="4.79849">
        <ele>221</ele>
        <time>2018-01-12T10:06:14Z</time>
      </trkpt>
      <trkpt lat="45.97654" lon="4.79847">
        <ele>221</ele>
        <time>2018-01-12T10:06:16Z</time>
      </trkpt>
      <trkpt lat="45.97657" lon="4.79846">
        <ele>221</ele>
        <time>2018-01-12T10:06:17Z</time>
      </trkpt>
      <trkpt lat="45.97664" lon="4.79844">
        <ele>221</ele>
        <time>2018-01-12T10:06:19Z</time>
      </trkpt>
      <trkpt lat="45.97667" lon="4.79843">
        <ele>221</ele>
        <time>2018-01-12T10:06:20Z</time>
      </trkpt>
      <trkpt lat="45.97674" lon="4.79841">
        <ele>221</ele>
        <time>2018-01-12T10:06:22Z</time>
      </trkpt>
      <trkpt lat="45.97678" lon="4.7984">
        <ele>221</ele>
        <time>2018-01-12T10:06:23Z</time>
      </trkpt>
      <trkpt lat="45.97685" lon="4.79838">
        <ele>221</ele>
        <time>2018-01-12T10:06:25Z</time>
      </trkpt>
      <trkpt lat="45.97688" lon="4.79838">
        <ele>221</ele>
        <time>2018-01-12T10:06:26Z</time>
      </trkpt>
      <trkpt lat="45.97695" lon="4.79836">
        <ele>220</ele>
        <time>2018-01-12T10:06:28Z</time>
      </trkpt>
      <trkpt lat="45.97698" lon="4.79836">
        <ele>220</ele>
        <time>2018-01-12T10:06:29Z</time>
      </trkpt>
      <trkpt lat="45.97706" lon="4.79834">
        <ele>220</ele>
        <time>2018-01-12T10:06:31Z</time>
      </trkpt>
      <trkpt lat="45.9771" lon="4.79833">
        <ele>220</ele>
        <time>2018-01-12T10:06:32Z</time>
      </trkpt>
      <trkpt lat="45.97718" lon="4.79833">
        <ele>223</ele>
        <time>2018-01-12T10:06:34Z</time>
      </trkpt>
      <trkpt lat="45.97722" lon="4.79832">
        <ele>223</ele>
        <time>2018-01-12T10:06:35Z</time>
      </trkpt>
      <trkpt lat="45.97726" lon="4.79831">
        <ele>223</ele>
        <time>2018-01-12T10:06:36Z</time>
      </trkpt>
      <trkpt lat="45.97732" lon="4.79829">
        <ele>223</ele>
        <time>2018-01-12T10:06:37Z</time>
      </trkpt>
      <trkpt lat="45.9774" lon="4.79829">
        <ele>222</ele>
        <time>2018-01-12T10:06:39Z</time>
      </trkpt>
      <trkpt lat="45.97743" lon="4.79828">
        <ele>222</ele>
        <time>2018-01-12T10:06:40Z</time>
      </trkpt>
      <trkpt lat="45.97751" lon="4.79828">
        <ele>222</ele>
        <time>2018-01-12T10:06:42Z</time>
      </trkpt>
      <trkpt lat="45.97754" lon="4.79827">
        <ele>222</ele>
        <time>2018-01-12T10:06:43Z</time>
      </trkpt>
      <trkpt lat="45.97761" lon="4.79825">
        <ele>223</ele>
        <time>2018-01-12T10:06:45Z</time>
      </trkpt>
      <trkpt lat="45.97765" lon="4.79824">
        <ele>223</ele>
        <time>2018-01-12T10:06:46Z</time>
      </trkpt>
      <trkpt lat="45.97773" lon="4.79822">
        <ele>223</ele>
        <time>2018-01-12T10:06:48Z</time>
      </trkpt>
      <trkpt lat="45.97777" lon="4.79822">
        <ele>223</ele>
        <time>2018-01-12T10:06:49Z</time>
      </trkpt>
      <trkpt lat="45.97782" lon="4.79822">
        <ele>223</ele>
        <time>2018-01-12T10:06:50Z</time>
      </trkpt>
      <trkpt lat="45.97787" lon="4.79821">
        <ele>223</ele>
        <time>2018-01-12T10:06:51Z</time>
      </trkpt>
      <trkpt lat="45.97791" lon="4.7982">
        <ele>223</ele>
        <time>2018-01-12T10:06:52Z</time>
      </trkpt>
      <trkpt lat="45.97796" lon="4.79819">
        <ele>223</ele>
        <time>2018-01-12T10:06:53Z</time>
      </trkpt>
      <trkpt lat="45.97801" lon="4.79818">
        <ele>223</ele>
        <time>2018-01-12T10:06:54Z</time>
      </trkpt>
      <trkpt lat="45.97805" lon="4.79818">
        <ele>223</ele>
        <time>2018-01-12T10:06:55Z</time>
      </trkpt>
      <trkpt lat="45.97813" lon="4.79816">
        <ele>223</ele>
        <time>2018-01-12T10:06:57Z</time>
      </trkpt>
      <trkpt lat="45.97817" lon="4.79817">
        <ele>223</ele>
        <time>2018-01-12T10:06:58Z</time>
      </trkpt>
      <trkpt lat="45.97824" lon="4.79816">
        <ele>223</ele>
        <time>2018-01-12T10:07:00Z</time>
      </trkpt>
      <trkpt lat="45.97828" lon="4.79815">
        <ele>223</ele>
        <time>2018-01-12T10:07:01Z</time>
      </trkpt>
      <trkpt lat="45.97836" lon="4.79814">
        <ele>224</ele>
        <time>2018-01-12T10:07:03Z</time>
      </trkpt>
      <trkpt lat="45.97841" lon="4.79814">
        <ele>224</ele>
        <time>2018-01-12T10:07:04Z</time>
      </trkpt>
      <trkpt lat="45.97848" lon="4.79813">
        <ele>224</ele>
        <time>2018-01-12T10:07:06Z</time>
      </trkpt>
      <trkpt lat="45.97852" lon="4.79812">
        <ele>224</ele>
        <time>2018-01-12T10:07:07Z</time>
      </trkpt>
      <trkpt lat="45.97858" lon="4.79811">
        <ele>224</ele>
        <time>2018-01-12T10:07:09Z</time>
      </trkpt>
      <trkpt lat="45.97862" lon="4.7981">
        <ele>224</ele>
        <time>2018-01-12T10:07:10Z</time>
      </trkpt>
      <trkpt lat="45.97869" lon="4.79808">
        <ele>224</ele>
        <time>2018-01-12T10:07:12Z</time>
      </trkpt>
      <trkpt lat="45.97872" lon="4.79807">
        <ele>224</ele>
        <time>2018-01-12T10:07:13Z</time>
      </trkpt>
      <trkpt lat="45.97881" lon="4.79804">
        <ele>224</ele>
        <time>2018-01-12T10:07:15Z</time>
      </trkpt>
      <trkpt lat="45.97885" lon="4.79803">
        <ele>224</ele>
        <time>2018-01-12T10:07:16Z</time>
      </trkpt>
      <trkpt lat="45.9789" lon="4.79802">
        <ele>224</ele>
        <time>2018-01-12T10:07:17Z</time>
      </trkpt>
      <trkpt lat="45.97895" lon="4.79802">
        <ele>224</ele>
        <time>2018-01-12T10:07:18Z</time>
      </trkpt>
      <trkpt lat="45.97903" lon="4.79799">
        <ele>224</ele>
        <time>2018-01-12T10:07:20Z</time>
      </trkpt>
      <trkpt lat="45.97908" lon="4.79798">
        <ele>224</ele>
        <time>2018-01-12T10:07:21Z</time>
      </trkpt>
      <trkpt lat="45.97915" lon="4.79797">
        <ele>224</ele>
        <time>2018-01-12T10:07:23Z</time>
      </trkpt>
      <trkpt lat="45.97919" lon="4.79796">
        <ele>224</ele>
        <time>2018-01-12T10:07:24Z</time>
      </trkpt>
      <trkpt lat="45.97927" lon="4.79796">
        <ele>224</ele>
        <time>2018-01-12T10:07:26Z</time>
      </trkpt>
      <trkpt lat="45.97932" lon="4.79796">
        <ele>224</ele>
        <time>2018-01-12T10:07:27Z</time>
      </trkpt>
      <trkpt lat="45.97937" lon="4.79796">
        <ele>224</ele>
        <time>2018-01-12T10:07:28Z</time>
      </trkpt>
      <trkpt lat="45.97941" lon="4.79795">
        <ele>224</ele>
        <time>2018-01-12T10:07:29Z</time>
      </trkpt>
      <trkpt lat="45.97949" lon="4.79793">
        <ele>224</ele>
        <time>2018-01-12T10:07:31Z</time>
      </trkpt>
      <trkpt lat="45.97954" lon="4.79793">
        <ele>224</ele>
        <time>2018-01-12T10:07:32Z</time>
      </trkpt>
      <trkpt lat="45.97963" lon="4.79792">
        <ele>224</ele>
        <time>2018-01-12T10:07:34Z</time>
      </trkpt>
      <trkpt lat="45.97967" lon="4.7979">
        <ele>224</ele>
        <time>2018-01-12T10:07:35Z</time>
      </trkpt>
      <trkpt lat="45.97971" lon="4.79789">
        <ele>224</ele>
        <time>2018-01-12T10:07:36Z</time>
      </trkpt>
      <trkpt lat="45.97976" lon="4.79788">
        <ele>224</ele>
        <time>2018-01-12T10:07:37Z</time>
      </trkpt>
      <trkpt lat="45.9798" lon="4.79787">
        <ele>224</ele>
        <time>2018-01-12T10:07:38Z</time>
      </trkpt>
      <trkpt lat="45.97985" lon="4.79785">
        <ele>224</ele>
        <time>2018-01-12T10:07:39Z</time>
      </trkpt>
      <trkpt lat="45.97992" lon="4.79781">
        <ele>224</ele>
        <time>2018-01-12T10:07:41Z</time>
      </trkpt>
      <trkpt lat="45.97997" lon="4.79782">
        <ele>224</ele>
        <time>2018-01-12T10:07:42Z</time>
      </trkpt>
      <trkpt lat="45.98002" lon="4.79781">
        <ele>223</ele>
        <time>2018-01-12T10:07:43Z</time>
      </trkpt>
      <trkpt lat="45.98007" lon="4.7978">
        <ele>223</ele>
        <time>2018-01-12T10:07:44Z</time>
      </trkpt>
      <trkpt lat="45.98014" lon="4.79781">
        <ele>223</ele>
        <time>2018-01-12T10:07:45Z</time>
      </trkpt>
      <trkpt lat="45.98018" lon="4.7978">
        <ele>223</ele>
        <time>2018-01-12T10:07:46Z</time>
      </trkpt>
      <trkpt lat="45.98023" lon="4.7978">
        <ele>223</ele>
        <time>2018-01-12T10:07:47Z</time>
      </trkpt>
      <trkpt lat="45.98028" lon="4.7978">
        <ele>223</ele>
        <time>2018-01-12T10:07:48Z</time>
      </trkpt>
      <trkpt lat="45.98034" lon="4.79779">
        <ele>223</ele>
        <time>2018-01-12T10:07:50Z</time>
      </trkpt>
      <trkpt lat="45.98038" lon="4.79779">
        <ele>223</ele>
        <time>2018-01-12T10:07:51Z</time>
      </trkpt>
      <trkpt lat="45.98046" lon="4.79779">
        <ele>223</ele>
        <time>2018-01-12T10:07:53Z</time>
      </trkpt>
      <trkpt lat="45.9805" lon="4.79778">
        <ele>223</ele>
        <time>2018-01-12T10:07:54Z</time>
      </trkpt>
      <trkpt lat="45.98059" lon="4.79775">
        <ele>223</ele>
        <time>2018-01-12T10:07:56Z</time>
      </trkpt>
      <trkpt lat="45.98063" lon="4.79775">
        <ele>223</ele>
        <time>2018-01-12T10:07:57Z</time>
      </trkpt>
      <trkpt lat="45.98068" lon="4.79775">
        <ele>223</ele>
        <time>2018-01-12T10:07:58Z</time>
      </trkpt>
      <trkpt lat="45.98072" lon="4.79774">
        <ele>223</ele>
        <time>2018-01-12T10:07:59Z</time>
      </trkpt>
      <trkpt lat="45.98081" lon="4.79773">
        <ele>223</ele>
        <time>2018-01-12T10:08:01Z</time>
      </trkpt>
      <trkpt lat="45.98085" lon="4.79771">
        <ele>223</ele>
        <time>2018-01-12T10:08:02Z</time>
      </trkpt>
      <trkpt lat="45.98093" lon="4.79769">
        <ele>223</ele>
        <time>2018-01-12T10:08:04Z</time>
      </trkpt>
      <trkpt lat="45.98097" lon="4.79769">
        <ele>223</ele>
        <time>2018-01-12T10:08:05Z</time>
      </trkpt>
      <trkpt lat="45.98105" lon="4.79767">
        <ele>224</ele>
        <time>2018-01-12T10:08:07Z</time>
      </trkpt>
      <trkpt lat="45.98109" lon="4.79767">
        <ele>224</ele>
        <time>2018-01-12T10:08:08Z</time>
      </trkpt>
      <trkpt lat="45.98118" lon="4.79767">
        <ele>224</ele>
        <time>2018-01-12T10:08:10Z</time>
      </trkpt>
      <trkpt lat="45.98122" lon="4.79768">
        <ele>224</ele>
        <time>2018-01-12T10:08:11Z</time>
      </trkpt>
      <trkpt lat="45.98129" lon="4.79768">
        <ele>224</ele>
        <time>2018-01-12T10:08:13Z</time>
      </trkpt>
      <trkpt lat="45.98133" lon="4.79767">
        <ele>224</ele>
        <time>2018-01-12T10:08:14Z</time>
      </trkpt>
      <trkpt lat="45.98142" lon="4.79766">
        <ele>224</ele>
        <time>2018-01-12T10:08:17Z</time>
      </trkpt>
      <trkpt lat="45.98145" lon="4.79766">
        <ele>224</ele>
        <time>2018-01-12T10:08:18Z</time>
      </trkpt>
      <trkpt lat="45.98151" lon="4.79766">
        <ele>225</ele>
        <time>2018-01-12T10:08:20Z</time>
      </trkpt>
      <trkpt lat="45.98154" lon="4.79767">
        <ele>225</ele>
        <time>2018-01-12T10:08:21Z</time>
      </trkpt>
      <trkpt lat="45.98161" lon="4.79771">
        <ele>225</ele>
        <time>2018-01-12T10:08:23Z</time>
      </trkpt>
      <trkpt lat="45.98163" lon="4.79773">
        <ele>225</ele>
        <time>2018-01-12T10:08:24Z</time>
      </trkpt>
      <trkpt lat="45.98168" lon="4.7978">
        <ele>226</ele>
        <time>2018-01-12T10:08:26Z</time>
      </trkpt>
      <trkpt lat="45.98171" lon="4.79783">
        <ele>226</ele>
        <time>2018-01-12T10:08:27Z</time>
      </trkpt>
      <trkpt lat="45.98176" lon="4.7979">
        <ele>226</ele>
        <time>2018-01-12T10:08:29Z</time>
      </trkpt>
      <trkpt lat="45.98177" lon="4.79794">
        <ele>226</ele>
        <time>2018-01-12T10:08:30Z</time>
      </trkpt>
      <trkpt lat="45.9818" lon="4.79804">
        <ele>225</ele>
        <time>2018-01-12T10:08:32Z</time>
      </trkpt>
      <trkpt lat="45.98182" lon="4.79809">
        <ele>225</ele>
        <time>2018-01-12T10:08:33Z</time>
      </trkpt>
      <trkpt lat="45.98185" lon="4.79819">
        <ele>225</ele>
        <time>2018-01-12T10:08:35Z</time>
      </trkpt>
      <trkpt lat="45.98185" lon="4.79827">
        <ele>225</ele>
        <time>2018-01-12T10:08:36Z</time>
      </trkpt>
      <trkpt lat="45.98187" lon="4.79832">
        <ele>225</ele>
        <time>2018-01-12T10:08:37Z</time>
      </trkpt>
      <trkpt lat="45.98189" lon="4.79839">
        <ele>224</ele>
        <time>2018-01-12T10:08:38Z</time>
      </trkpt>
      <trkpt lat="45.98192" lon="4.79845">
        <ele>225</ele>
        <time>2018-01-12T10:08:39Z</time>
      </trkpt>
      <trkpt lat="45.98195" lon="4.79851">
        <ele>225</ele>
        <time>2018-01-12T10:08:40Z</time>
      </trkpt>
      <trkpt lat="45.98197" lon="4.79858">
        <ele>225</ele>
        <time>2018-01-12T10:08:41Z</time>
      </trkpt>
      <trkpt lat="45.982" lon="4.79864">
        <ele>225</ele>
        <time>2018-01-12T10:08:42Z</time>
      </trkpt>
      <trkpt lat="45.98202" lon="4.7987">
        <ele>225</ele>
        <time>2018-01-12T10:08:43Z</time>
      </trkpt>
      <trkpt lat="45.98204" lon="4.79876">
        <ele>225</ele>
        <time>2018-01-12T10:08:44Z</time>
      </trkpt>
      <trkpt lat="45.98206" lon="4.79882">
        <ele>225</ele>
        <time>2018-01-12T10:08:45Z</time>
      </trkpt>
      <trkpt lat="45.98208" lon="4.79889">
        <ele>225</ele>
        <time>2018-01-12T10:08:46Z</time>
      </trkpt>
      <trkpt lat="45.9821" lon="4.79895">
        <ele>225</ele>
        <time>2018-01-12T10:08:47Z</time>
      </trkpt>
      <trkpt lat="45.98213" lon="4.799">
        <ele>225</ele>
        <time>2018-01-12T10:08:48Z</time>
      </trkpt>
      <trkpt lat="45.98215" lon="4.79906">
        <ele>225</ele>
        <time>2018-01-12T10:08:49Z</time>
      </trkpt>
      <trkpt lat="45.98218" lon="4.79913">
        <ele>225</ele>
        <time>2018-01-12T10:08:50Z</time>
      </trkpt>
      <trkpt lat="45.9822" lon="4.79919">
        <ele>225</ele>
        <time>2018-01-12T10:08:51Z</time>
      </trkpt>
      <trkpt lat="45.98222" lon="4.79925">
        <ele>225</ele>
        <time>2018-01-12T10:08:52Z</time>
      </trkpt>
      <trkpt lat="45.98226" lon="4.79936">
        <ele>225</ele>
        <time>2018-01-12T10:08:54Z</time>
      </trkpt>
      <trkpt lat="45.98229" lon="4.79941">
        <ele>225</ele>
        <time>2018-01-12T10:08:55Z</time>
      </trkpt>
      <trkpt lat="45.98231" lon="4.79947">
        <ele>225</ele>
        <time>2018-01-12T10:08:56Z</time>
      </trkpt>
      <trkpt lat="45.98234" lon="4.79956">
        <ele>225</ele>
        <time>2018-01-12T10:08:57Z</time>
      </trkpt>
      <trkpt lat="45.98237" lon="4.79961">
        <ele>225</ele>
        <time>2018-01-12T10:08:58Z</time>
      </trkpt>
      <trkpt lat="45.9824" lon="4.79968">
        <ele>225</ele>
        <time>2018-01-12T10:08:59Z</time>
      </trkpt>
      <trkpt lat="45.98243" lon="4.79975">
        <ele>225</ele>
        <time>2018-01-12T10:09:00Z</time>
      </trkpt>
      <trkpt lat="45.98245" lon="4.7998">
        <ele>225</ele>
        <time>2018-01-12T10:09:01Z</time>
      </trkpt>
      <trkpt lat="45.98246" lon="4.79987">
        <ele>226</ele>
        <time>2018-01-12T10:09:02Z</time>
      </trkpt>
      <trkpt lat="45.98247" lon="4.79994">
        <ele>226</ele>
        <time>2018-01-12T10:09:03Z</time>
      </trkpt>
      <trkpt lat="45.98251" lon="4.80005">
        <ele>227</ele>
        <time>2018-01-12T10:09:05Z</time>
      </trkpt>
      <trkpt lat="45.98253" lon="4.80009">
        <ele>227</ele>
        <time>2018-01-12T10:09:06Z</time>
      </trkpt>
      <trkpt lat="45.98257" lon="4.80019">
        <ele>228</ele>
        <time>2018-01-12T10:09:08Z</time>
      </trkpt>
      <trkpt lat="45.98259" lon="4.80024">
        <ele>228</ele>
        <time>2018-01-12T10:09:09Z</time>
      </trkpt>
      <trkpt lat="45.9826" lon="4.80031">
        <ele>228</ele>
        <time>2018-01-12T10:09:10Z</time>
      </trkpt>
      <trkpt lat="45.98262" lon="4.80037">
        <ele>228</ele>
        <time>2018-01-12T10:09:11Z</time>
      </trkpt>
      <trkpt lat="45.98266" lon="4.80047">
        <ele>228</ele>
        <time>2018-01-12T10:09:13Z</time>
      </trkpt>
      <trkpt lat="45.98268" lon="4.80052">
        <ele>228</ele>
        <time>2018-01-12T10:09:14Z</time>
      </trkpt>
      <trkpt lat="45.98273" lon="4.80063">
        <ele>228</ele>
        <time>2018-01-12T10:09:16Z</time>
      </trkpt>
      <trkpt lat="45.98275" lon="4.80068">
        <ele>228</ele>
        <time>2018-01-12T10:09:17Z</time>
      </trkpt>
      <trkpt lat="45.98279" lon="4.80079">
        <ele>229</ele>
        <time>2018-01-12T10:09:19Z</time>
      </trkpt>
      <trkpt lat="45.98281" lon="4.80084">
        <ele>228</ele>
        <time>2018-01-12T10:09:20Z</time>
      </trkpt>
      <trkpt lat="45.98283" lon="4.8009">
        <ele>228</ele>
        <time>2018-01-12T10:09:21Z</time>
      </trkpt>
      <trkpt lat="45.98285" lon="4.80096">
        <ele>228</ele>
        <time>2018-01-12T10:09:22Z</time>
      </trkpt>
      <trkpt lat="45.98289" lon="4.80107">
        <ele>228</ele>
        <time>2018-01-12T10:09:24Z</time>
      </trkpt>
      <trkpt lat="45.98291" lon="4.80113">
        <ele>228</ele>
        <time>2018-01-12T10:09:25Z</time>
      </trkpt>
      <trkpt lat="45.98294" lon="4.80123">
        <ele>228</ele>
        <time>2018-01-12T10:09:27Z</time>
      </trkpt>
      <trkpt lat="45.98296" lon="4.80129">
        <ele>228</ele>
        <time>2018-01-12T10:09:28Z</time>
      </trkpt>
      <trkpt lat="45.983" lon="4.80138">
        <ele>228</ele>
        <time>2018-01-12T10:09:30Z</time>
      </trkpt>
      <trkpt lat="45.98302" lon="4.80143">
        <ele>228</ele>
        <time>2018-01-12T10:09:31Z</time>
      </trkpt>
      <trkpt lat="45.98305" lon="4.80154">
        <ele>228</ele>
        <time>2018-01-12T10:09:33Z</time>
      </trkpt>
      <trkpt lat="45.98308" lon="4.8016">
        <ele>228</ele>
        <time>2018-01-12T10:09:34Z</time>
      </trkpt>
      <trkpt lat="45.98312" lon="4.80171">
        <ele>227</ele>
        <time>2018-01-12T10:09:36Z</time>
      </trkpt>
      <trkpt lat="45.98314" lon="4.80176">
        <ele>227</ele>
        <time>2018-01-12T10:09:37Z</time>
      </trkpt>
      <trkpt lat="45.98319" lon="4.80187">
        <ele>227</ele>
        <time>2018-01-12T10:09:39Z</time>
      </trkpt>
      <trkpt lat="45.9832" lon="4.80192">
        <ele>227</ele>
        <time>2018-01-12T10:09:40Z</time>
      </trkpt>
      <trkpt lat="45.98324" lon="4.80202">
        <ele>227</ele>
        <time>2018-01-12T10:09:42Z</time>
      </trkpt>
      <trkpt lat="45.98326" lon="4.80208">
        <ele>227</ele>
        <time>2018-01-12T10:09:43Z</time>
      </trkpt>
      <trkpt lat="45.98329" lon="4.80218">
        <ele>227</ele>
        <time>2018-01-12T10:09:45Z</time>
      </trkpt>
      <trkpt lat="45.9833" lon="4.80222">
        <ele>227</ele>
        <time>2018-01-12T10:09:46Z</time>
      </trkpt>
      <trkpt lat="45.98331" lon="4.80232">
        <ele>228</ele>
        <time>2018-01-12T10:09:48Z</time>
      </trkpt>
      <trkpt lat="45.9833" lon="4.80237">
        <ele>228</ele>
        <time>2018-01-12T10:09:49Z</time>
      </trkpt>
      <trkpt lat="45.98327" lon="4.80248">
        <ele>229</ele>
        <time>2018-01-12T10:09:51Z</time>
      </trkpt>
      <trkpt lat="45.98327" lon="4.80253">
        <ele>229</ele>
        <time>2018-01-12T10:09:52Z</time>
      </trkpt>
      <trkpt lat="45.98325" lon="4.80264">
        <ele>228</ele>
        <time>2018-01-12T10:09:54Z</time>
      </trkpt>
      <trkpt lat="45.98324" lon="4.80269">
        <ele>227</ele>
        <time>2018-01-12T10:09:55Z</time>
      </trkpt>
      <trkpt lat="45.98322" lon="4.80281">
        <ele>227</ele>
        <time>2018-01-12T10:09:57Z</time>
      </trkpt>
      <trkpt lat="45.98319" lon="4.8029">
        <ele>226</ele>
        <time>2018-01-12T10:09:58Z</time>
      </trkpt>
      <trkpt lat="45.98317" lon="4.80298">
        <ele>226</ele>
        <time>2018-01-12T10:09:59Z</time>
      </trkpt>
      <trkpt lat="45.98315" lon="4.80305">
        <ele>226</ele>
        <time>2018-01-12T10:10:00Z</time>
      </trkpt>
      <trkpt lat="45.98314" lon="4.80312">
        <ele>227</ele>
        <time>2018-01-12T10:10:01Z</time>
      </trkpt>
      <trkpt lat="45.98311" lon="4.80319">
        <ele>227</ele>
        <time>2018-01-12T10:10:02Z</time>
      </trkpt>
      <trkpt lat="45.98309" lon="4.80325">
        <ele>227</ele>
        <time>2018-01-12T10:10:03Z</time>
      </trkpt>
      <trkpt lat="45.98308" lon="4.80332">
        <ele>226</ele>
        <time>2018-01-12T10:10:04Z</time>
      </trkpt>
      <trkpt lat="45.98307" lon="4.8034">
        <ele>226</ele>
        <time>2018-01-12T10:10:05Z</time>
      </trkpt>
      <trkpt lat="45.98305" lon="4.80348">
        <ele>226</ele>
        <time>2018-01-12T10:10:06Z</time>
      </trkpt>
      <trkpt lat="45.98304" lon="4.80355">
        <ele>225</ele>
        <time>2018-01-12T10:10:07Z</time>
      </trkpt>
      <trkpt lat="45.98302" lon="4.80362">
        <ele>225</ele>
        <time>2018-01-12T10:10:08Z</time>
      </trkpt>
      <trkpt lat="45.983" lon="4.80374">
        <ele>225</ele>
        <time>2018-01-12T10:10:09Z</time>
      </trkpt>
      <trkpt lat="45.98299" lon="4.80382">
        <ele>225</ele>
        <time>2018-01-12T10:10:10Z</time>
      </trkpt>
      <trkpt lat="45.983" lon="4.80392">
        <ele>225</ele>
        <time>2018-01-12T10:10:11Z</time>
      </trkpt>
      <trkpt lat="45.98298" lon="4.80398">
        <ele>225</ele>
        <time>2018-01-12T10:10:12Z</time>
      </trkpt>
      <trkpt lat="45.98297" lon="4.80406">
        <ele>225</ele>
        <time>2018-01-12T10:10:13Z</time>
      </trkpt>
      <trkpt lat="45.98296" lon="4.80415">
        <ele>224</ele>
        <time>2018-01-12T10:10:14Z</time>
      </trkpt>
      <trkpt lat="45.98294" lon="4.80422">
        <ele>224</ele>
        <time>2018-01-12T10:10:15Z</time>
      </trkpt>
      <trkpt lat="45.98292" lon="4.8043">
        <ele>224</ele>
        <time>2018-01-12T10:10:16Z</time>
      </trkpt>
      <trkpt lat="45.9829" lon="4.80438">
        <ele>224</ele>
        <time>2018-01-12T10:10:17Z</time>
      </trkpt>
      <trkpt lat="45.98289" lon="4.80447">
        <ele>224</ele>
        <time>2018-01-12T10:10:18Z</time>
      </trkpt>
      <trkpt lat="45.98286" lon="4.80455">
        <ele>224</ele>
        <time>2018-01-12T10:10:19Z</time>
      </trkpt>
      <trkpt lat="45.98283" lon="4.80459">
        <ele>223</ele>
        <time>2018-01-12T10:10:20Z</time>
      </trkpt>
      <trkpt lat="45.9828" lon="4.80467">
        <ele>223</ele>
        <time>2018-01-12T10:10:21Z</time>
      </trkpt>
      <trkpt lat="45.98278" lon="4.80476">
        <ele>223</ele>
        <time>2018-01-12T10:10:22Z</time>
      </trkpt>
      <trkpt lat="45.98277" lon="4.80483">
        <ele>223</ele>
        <time>2018-01-12T10:10:23Z</time>
      </trkpt>
      <trkpt lat="45.98274" lon="4.80488">
        <ele>223</ele>
        <time>2018-01-12T10:10:24Z</time>
      </trkpt>
      <trkpt lat="45.98271" lon="4.80494">
        <ele>223</ele>
        <time>2018-01-12T10:10:25Z</time>
      </trkpt>
      <trkpt lat="45.9827" lon="4.80501">
        <ele>223</ele>
        <time>2018-01-12T10:10:26Z</time>
      </trkpt>
      <trkpt lat="45.98266" lon="4.80512">
        <ele>223</ele>
        <time>2018-01-12T10:10:28Z</time>
      </trkpt>
      <trkpt lat="45.98265" lon="4.80518">
        <ele>223</ele>
        <time>2018-01-12T10:10:29Z</time>
      </trkpt>
      <trkpt lat="45.98263" lon="4.80528">
        <ele>224</ele>
        <time>2018-01-12T10:10:31Z</time>
      </trkpt>
      <trkpt lat="45.98262" lon="4.80534">
        <ele>224</ele>
        <time>2018-01-12T10:10:32Z</time>
      </trkpt>
      <trkpt lat="45.98258" lon="4.80544">
        <ele>224</ele>
        <time>2018-01-12T10:10:34Z</time>
      </trkpt>
      <trkpt lat="45.98257" lon="4.80552">
        <ele>224</ele>
        <time>2018-01-12T10:10:35Z</time>
      </trkpt>
      <trkpt lat="45.98256" lon="4.80558">
        <ele>224</ele>
        <time>2018-01-12T10:10:36Z</time>
      </trkpt>
      <trkpt lat="45.98253" lon="4.80564">
        <ele>224</ele>
        <time>2018-01-12T10:10:37Z</time>
      </trkpt>
      <trkpt lat="45.98252" lon="4.80571">
        <ele>224</ele>
        <time>2018-01-12T10:10:38Z</time>
      </trkpt>
      <trkpt lat="45.98249" lon="4.80577">
        <ele>224</ele>
        <time>2018-01-12T10:10:39Z</time>
      </trkpt>
      <trkpt lat="45.98247" lon="4.80584">
        <ele>224</ele>
        <time>2018-01-12T10:10:40Z</time>
      </trkpt>
      <trkpt lat="45.98244" lon="4.80589">
        <ele>224</ele>
        <time>2018-01-12T10:10:41Z</time>
      </trkpt>
      <trkpt lat="45.98242" lon="4.80597">
        <ele>224</ele>
        <time>2018-01-12T10:10:42Z</time>
      </trkpt>
      <trkpt lat="45.9824" lon="4.80605">
        <ele>224</ele>
        <time>2018-01-12T10:10:43Z</time>
      </trkpt>
      <trkpt lat="45.98238" lon="4.80614">
        <ele>224</ele>
        <time>2018-01-12T10:10:44Z</time>
      </trkpt>
      <trkpt lat="45.98235" lon="4.8062">
        <ele>224</ele>
        <time>2018-01-12T10:10:45Z</time>
      </trkpt>
      <trkpt lat="45.98233" lon="4.80627">
        <ele>224</ele>
        <time>2018-01-12T10:10:46Z</time>
      </trkpt>
      <trkpt lat="45.98231" lon="4.80633">
        <ele>224</ele>
        <time>2018-01-12T10:10:47Z</time>
      </trkpt>
      <trkpt lat="45.98228" lon="4.8064">
        <ele>224</ele>
        <time>2018-01-12T10:10:48Z</time>
      </trkpt>
      <trkpt lat="45.98226" lon="4.80646">
        <ele>224</ele>
        <time>2018-01-12T10:10:49Z</time>
      </trkpt>
      <trkpt lat="45.98223" lon="4.80657">
        <ele>224</ele>
        <time>2018-01-12T10:10:51Z</time>
      </trkpt>
      <trkpt lat="45.98221" lon="4.80661">
        <ele>224</ele>
        <time>2018-01-12T10:10:52Z</time>
      </trkpt>
      <trkpt lat="45.98215" lon="4.80669">
        <ele>224</ele>
        <time>2018-01-12T10:10:54Z</time>
      </trkpt>
      <trkpt lat="45.98212" lon="4.8067">
        <ele>224</ele>
        <time>2018-01-12T10:10:55Z</time>
      </trkpt>
      <trkpt lat="45.98205" lon="4.80673">
        <ele>224</ele>
        <time>2018-01-12T10:10:57Z</time>
      </trkpt>
      <trkpt lat="45.98202" lon="4.80675">
        <ele>225</ele>
        <time>2018-01-12T10:10:58Z</time>
      </trkpt>
      <trkpt lat="45.98194" lon="4.80677">
        <ele>225</ele>
        <time>2018-01-12T10:11:00Z</time>
      </trkpt>
      <trkpt lat="45.98191" lon="4.80679">
        <ele>225</ele>
        <time>2018-01-12T10:11:01Z</time>
      </trkpt>
      <trkpt lat="45.98183" lon="4.80682">
        <ele>225</ele>
        <time>2018-01-12T10:11:03Z</time>
      </trkpt>
      <trkpt lat="45.98179" lon="4.80683">
        <ele>225</ele>
        <time>2018-01-12T10:11:04Z</time>
      </trkpt>
      <trkpt lat="45.9817" lon="4.80684">
        <ele>225</ele>
        <time>2018-01-12T10:11:06Z</time>
      </trkpt>
      <trkpt lat="45.98166" lon="4.80684">
        <ele>227</ele>
        <time>2018-01-12T10:11:07Z</time>
      </trkpt>
      <trkpt lat="45.98157" lon="4.80684">
        <ele>227</ele>
        <time>2018-01-12T10:11:09Z</time>
      </trkpt>
      <trkpt lat="45.98153" lon="4.80684">
        <ele>227</ele>
        <time>2018-01-12T10:11:10Z</time>
      </trkpt>
      <trkpt lat="45.98144" lon="4.80685">
        <ele>228</ele>
        <time>2018-01-12T10:11:12Z</time>
      </trkpt>
      <trkpt lat="45.9814" lon="4.80685">
        <ele>228</ele>
        <time>2018-01-12T10:11:13Z</time>
      </trkpt>
      <trkpt lat="45.98132" lon="4.80685">
        <ele>228</ele>
        <time>2018-01-12T10:11:15Z</time>
      </trkpt>
      <trkpt lat="45.98129" lon="4.80684">
        <ele>228</ele>
        <time>2018-01-12T10:11:16Z</time>
      </trkpt>
      <trkpt lat="45.98121" lon="4.80684">
        <ele>228</ele>
        <time>2018-01-12T10:11:18Z</time>
      </trkpt>
      <trkpt lat="45.98117" lon="4.80684">
        <ele>228</ele>
        <time>2018-01-12T10:11:19Z</time>
      </trkpt>
      <trkpt lat="45.98109" lon="4.80684">
        <ele>228</ele>
        <time>2018-01-12T10:11:21Z</time>
      </trkpt>
      <trkpt lat="45.98104" lon="4.80683">
        <ele>228</ele>
        <time>2018-01-12T10:11:22Z</time>
      </trkpt>
      <trkpt lat="45.98095" lon="4.80684">
        <ele>228</ele>
        <time>2018-01-12T10:11:24Z</time>
      </trkpt>
      <trkpt lat="45.98091" lon="4.80685">
        <ele>228</ele>
        <time>2018-01-12T10:11:25Z</time>
      </trkpt>
      <trkpt lat="45.98086" lon="4.80686">
        <ele>228</ele>
        <time>2018-01-12T10:11:26Z</time>
      </trkpt>
      <trkpt lat="45.98081" lon="4.80686">
        <ele>229</ele>
        <time>2018-01-12T10:11:27Z</time>
      </trkpt>
      <trkpt lat="45.98073" lon="4.80686">
        <ele>229</ele>
        <time>2018-01-12T10:11:29Z</time>
      </trkpt>
      <trkpt lat="45.98069" lon="4.80686">
        <ele>230</ele>
        <time>2018-01-12T10:11:30Z</time>
      </trkpt>
      <trkpt lat="45.98061" lon="4.80687">
        <ele>230</ele>
        <time>2018-01-12T10:11:32Z</time>
      </trkpt>
      <trkpt lat="45.98057" lon="4.80688">
        <ele>230</ele>
        <time>2018-01-12T10:11:33Z</time>
      </trkpt>
      <trkpt lat="45.9805" lon="4.8069">
        <ele>230</ele>
        <time>2018-01-12T10:11:35Z</time>
      </trkpt>
      <trkpt lat="45.98047" lon="4.80691">
        <ele>230</ele>
        <time>2018-01-12T10:11:36Z</time>
      </trkpt>
      <trkpt lat="45.98041" lon="4.80694">
        <ele>230</ele>
        <time>2018-01-12T10:11:38Z</time>
      </trkpt>
      <trkpt lat="45.98038" lon="4.80695">
        <ele>230</ele>
        <time>2018-01-12T10:11:39Z</time>
      </trkpt>
      <trkpt lat="45.98032" lon="4.80699">
        <ele>230</ele>
        <time>2018-01-12T10:11:41Z</time>
      </trkpt>
      <trkpt lat="45.98029" lon="4.80701">
        <ele>231</ele>
        <time>2018-01-12T10:11:42Z</time>
      </trkpt>
      <trkpt lat="45.98027" lon="4.80711">
        <ele>231</ele>
        <time>2018-01-12T10:11:45Z</time>
      </trkpt>
      <trkpt lat="45.98029" lon="4.80714">
        <ele>231</ele>
        <time>2018-01-12T10:11:46Z</time>
      </trkpt>
      <trkpt lat="45.98033" lon="4.80723">
        <ele>231</ele>
        <time>2018-01-12T10:11:49Z</time>
      </trkpt>
      <trkpt lat="45.98034" lon="4.80727">
        <ele>231</ele>
        <time>2018-01-12T10:11:50Z</time>
      </trkpt>
      <trkpt lat="45.98036" lon="4.80737">
        <ele>231</ele>
        <time>2018-01-12T10:11:53Z</time>
      </trkpt>
      <trkpt lat="45.98037" lon="4.8074">
        <ele>231</ele>
        <time>2018-01-12T10:11:54Z</time>
      </trkpt>
      <trkpt lat="45.98038" lon="4.80751">
        <ele>233</ele>
        <time>2018-01-12T10:11:57Z</time>
      </trkpt>
      <trkpt lat="45.98039" lon="4.80755">
        <ele>233</ele>
        <time>2018-01-12T10:11:58Z</time>
      </trkpt>
      <trkpt lat="45.9804" lon="4.80766">
        <ele>233</ele>
        <time>2018-01-12T10:12:01Z</time>
      </trkpt>
      <trkpt lat="45.98041" lon="4.80769">
        <ele>233</ele>
        <time>2018-01-12T10:12:02Z</time>
      </trkpt>
      <trkpt lat="45.98044" lon="4.80779">
        <ele>233</ele>
        <time>2018-01-12T10:12:05Z</time>
      </trkpt>
      <trkpt lat="45.98045" lon="4.80783">
        <ele>233</ele>
        <time>2018-01-12T10:12:06Z</time>
      </trkpt>
      <trkpt lat="45.98048" lon="4.80793">
        <ele>233</ele>
        <time>2018-01-12T10:12:09Z</time>
      </trkpt>
      <trkpt lat="45.98049" lon="4.80797">
        <ele>234</ele>
        <time>2018-01-12T10:12:10Z</time>
      </trkpt>
      <trkpt lat="45.98052" lon="4.80807">
        <ele>234</ele>
        <time>2018-01-12T10:12:13Z</time>
      </trkpt>
      <trkpt lat="45.98052" lon="4.80811">
        <ele>234</ele>
        <time>2018-01-12T10:12:14Z</time>
      </trkpt>
      <trkpt lat="45.98055" lon="4.80822">
        <ele>234</ele>
        <time>2018-01-12T10:12:17Z</time>
      </trkpt>
      <trkpt lat="45.98056" lon="4.80825">
        <ele>234</ele>
        <time>2018-01-12T10:12:18Z</time>
      </trkpt>
      <trkpt lat="45.98059" lon="4.80835">
        <ele>236</ele>
        <time>2018-01-12T10:12:21Z</time>
      </trkpt>
      <trkpt lat="45.9806" lon="4.80839">
        <ele>236</ele>
        <time>2018-01-12T10:12:22Z</time>
      </trkpt>
      <trkpt lat="45.98063" lon="4.8085">
        <ele>236</ele>
        <time>2018-01-12T10:12:25Z</time>
      </trkpt>
      <trkpt lat="45.98064" lon="4.80853">
        <ele>236</ele>
        <time>2018-01-12T10:12:26Z</time>
      </trkpt>
      <trkpt lat="45.98066" lon="4.80864">
        <ele>237</ele>
        <time>2018-01-12T10:12:29Z</time>
      </trkpt>
      <trkpt lat="45.98067" lon="4.80868">
        <ele>237</ele>
        <time>2018-01-12T10:12:30Z</time>
      </trkpt>
      <trkpt lat="45.98068" lon="4.80878">
        <ele>237</ele>
        <time>2018-01-12T10:12:33Z</time>
      </trkpt>
      <trkpt lat="45.98069" lon="4.80881">
        <ele>237</ele>
        <time>2018-01-12T10:12:34Z</time>
      </trkpt>
      <trkpt lat="45.98073" lon="4.80892">
        <ele>238</ele>
        <time>2018-01-12T10:12:38Z</time>
      </trkpt>
      <trkpt lat="45.98075" lon="4.80895">
        <ele>238</ele>
        <time>2018-01-12T10:12:39Z</time>
      </trkpt>
      <trkpt lat="45.98078" lon="4.80904">
        <ele>238</ele>
        <time>2018-01-12T10:12:42Z</time>
      </trkpt>
      <trkpt lat="45.98079" lon="4.80907">
        <ele>238</ele>
        <time>2018-01-12T10:12:43Z</time>
      </trkpt>
      <trkpt lat="45.9808" lon="4.80916">
        <ele>239</ele>
        <time>2018-01-12T10:12:46Z</time>
      </trkpt>
      <trkpt lat="45.98081" lon="4.8092">
        <ele>239</ele>
        <time>2018-01-12T10:12:47Z</time>
      </trkpt>
      <trkpt lat="45.98084" lon="4.80929">
        <ele>238</ele>
        <time>2018-01-12T10:12:50Z</time>
      </trkpt>
      <trkpt lat="45.98086" lon="4.80933">
        <ele>238</ele>
        <time>2018-01-12T10:12:51Z</time>
      </trkpt>
      <trkpt lat="45.98089" lon="4.80945">
        <ele>238</ele>
        <time>2018-01-12T10:12:54Z</time>
      </trkpt>
      <trkpt lat="45.9809" lon="4.80948">
        <ele>238</ele>
        <time>2018-01-12T10:12:55Z</time>
      </trkpt>
      <trkpt lat="45.98093" lon="4.8096">
        <ele>239</ele>
        <time>2018-01-12T10:12:59Z</time>
      </trkpt>
      <trkpt lat="45.98094" lon="4.80963">
        <ele>239</ele>
        <time>2018-01-12T10:13:00Z</time>
      </trkpt>
      <trkpt lat="45.98096" lon="4.80972">
        <ele>239</ele>
        <time>2018-01-12T10:13:03Z</time>
      </trkpt>
      <trkpt lat="45.98097" lon="4.80976">
        <ele>239</ele>
        <time>2018-01-12T10:13:04Z</time>
      </trkpt>
      <trkpt lat="45.98101" lon="4.80986">
        <ele>239</ele>
        <time>2018-01-12T10:13:07Z</time>
      </trkpt>
      <trkpt lat="45.98102" lon="4.80989">
        <ele>239</ele>
        <time>2018-01-12T10:13:08Z</time>
      </trkpt>
      <trkpt lat="45.98104" lon="4.80997">
        <ele>240</ele>
        <time>2018-01-12T10:13:10Z</time>
      </trkpt>
      <trkpt lat="45.98106" lon="4.81002">
        <ele>242</ele>
        <time>2018-01-12T10:13:11Z</time>
      </trkpt>
      <trkpt lat="45.98108" lon="4.81012">
        <ele>242</ele>
        <time>2018-01-12T10:13:13Z</time>
      </trkpt>
      <trkpt lat="45.98109" lon="4.81017">
        <ele>242</ele>
        <time>2018-01-12T10:13:14Z</time>
      </trkpt>
      <trkpt lat="45.98112" lon="4.81026">
        <ele>242</ele>
        <time>2018-01-12T10:13:16Z</time>
      </trkpt>
      <trkpt lat="45.98113" lon="4.81031">
        <ele>242</ele>
        <time>2018-01-12T10:13:17Z</time>
      </trkpt>
      <trkpt lat="45.98117" lon="4.81039">
        <ele>242</ele>
        <time>2018-01-12T10:13:19Z</time>
      </trkpt>
      <trkpt lat="45.98118" lon="4.81043">
        <ele>242</ele>
        <time>2018-01-12T10:13:20Z</time>
      </trkpt>
      <trkpt lat="45.98121" lon="4.81052">
        <ele>243</ele>
        <time>2018-01-12T10:13:22Z</time>
      </trkpt>
      <trkpt lat="45.98122" lon="4.81057">
        <ele>243</ele>
        <time>2018-01-12T10:13:23Z</time>
      </trkpt>
      <trkpt lat="45.98126" lon="4.81068">
        <ele>243</ele>
        <time>2018-01-12T10:13:25Z</time>
      </trkpt>
      <trkpt lat="45.98128" lon="4.81074">
        <ele>243</ele>
        <time>2018-01-12T10:13:26Z</time>
      </trkpt>
      <trkpt lat="45.98131" lon="4.81083">
        <ele>243</ele>
        <time>2018-01-12T10:13:28Z</time>
      </trkpt>
      <trkpt lat="45.98133" lon="4.81087">
        <ele>245</ele>
        <time>2018-01-12T10:13:29Z</time>
      </trkpt>
      <trkpt lat="45.98136" lon="4.81096">
        <ele>245</ele>
        <time>2018-01-12T10:13:31Z</time>
      </trkpt>
      <trkpt lat="45.98138" lon="4.811">
        <ele>245</ele>
        <time>2018-01-12T10:13:32Z</time>
      </trkpt>
      <trkpt lat="45.98143" lon="4.81108">
        <ele>245</ele>
        <time>2018-01-12T10:13:34Z</time>
      </trkpt>
      <trkpt lat="45.98145" lon="4.81112">
        <ele>245</ele>
        <time>2018-01-12T10:13:35Z</time>
      </trkpt>
      <trkpt lat="45.98149" lon="4.81121">
        <ele>245</ele>
        <time>2018-01-12T10:13:37Z</time>
      </trkpt>
      <trkpt lat="45.98151" lon="4.81126">
        <ele>245</ele>
        <time>2018-01-12T10:13:38Z</time>
      </trkpt>
      <trkpt lat="45.98155" lon="4.81135">
        <ele>245</ele>
        <time>2018-01-12T10:13:40Z</time>
      </trkpt>
      <trkpt lat="45.98156" lon="4.8114">
        <ele>245</ele>
        <time>2018-01-12T10:13:41Z</time>
      </trkpt>
      <trkpt lat="45.9816" lon="4.81149">
        <ele>245</ele>
        <time>2018-01-12T10:13:43Z</time>
      </trkpt>
      <trkpt lat="45.98161" lon="4.81153">
        <ele>245</ele>
        <time>2018-01-12T10:13:44Z</time>
      </trkpt>
      <trkpt lat="45.98164" lon="4.81163">
        <ele>245</ele>
        <time>2018-01-12T10:13:46Z</time>
      </trkpt>
      <trkpt lat="45.98165" lon="4.81167">
        <ele>245</ele>
        <time>2018-01-12T10:13:47Z</time>
      </trkpt>
      <trkpt lat="45.98168" lon="4.81176">
        <ele>245</ele>
        <time>2018-01-12T10:13:49Z</time>
      </trkpt>
      <trkpt lat="45.98169" lon="4.81181">
        <ele>245</ele>
        <time>2018-01-12T10:13:50Z</time>
      </trkpt>
      <trkpt lat="45.98171" lon="4.8119">
        <ele>245</ele>
        <time>2018-01-12T10:13:52Z</time>
      </trkpt>
      <trkpt lat="45.98171" lon="4.81195">
        <ele>245</ele>
        <time>2018-01-12T10:13:53Z</time>
      </trkpt>
      <trkpt lat="45.98172" lon="4.81203">
        <ele>245</ele>
        <time>2018-01-12T10:13:55Z</time>
      </trkpt>
      <trkpt lat="45.98173" lon="4.81208">
        <ele>246</ele>
        <time>2018-01-12T10:13:56Z</time>
      </trkpt>
      <trkpt lat="45.98174" lon="4.81217">
        <ele>246</ele>
        <time>2018-01-12T10:13:58Z</time>
      </trkpt>
      <trkpt lat="45.98174" lon="4.81221">
        <ele>246</ele>
        <time>2018-01-12T10:13:59Z</time>
      </trkpt>
      <trkpt lat="45.98175" lon="4.81234">
        <ele>246</ele>
        <time>2018-01-12T10:14:02Z</time>
      </trkpt>
      <trkpt lat="45.98175" lon="4.81238">
        <ele>247</ele>
        <time>2018-01-12T10:14:03Z</time>
      </trkpt>
      <trkpt lat="45.98177" lon="4.81249">
        <ele>247</ele>
        <time>2018-01-12T10:14:06Z</time>
      </trkpt>
      <trkpt lat="45.98177" lon="4.81253">
        <ele>247</ele>
        <time>2018-01-12T10:14:07Z</time>
      </trkpt>
      <trkpt lat="45.98178" lon="4.81262">
        <ele>247</ele>
        <time>2018-01-12T10:14:09Z</time>
      </trkpt>
      <trkpt lat="45.98178" lon="4.81267">
        <ele>247</ele>
        <time>2018-01-12T10:14:10Z</time>
      </trkpt>
      <trkpt lat="45.9818" lon="4.81278">
        <ele>247</ele>
        <time>2018-01-12T10:14:13Z</time>
      </trkpt>
      <trkpt lat="45.98181" lon="4.81282">
        <ele>247</ele>
        <time>2018-01-12T10:14:14Z</time>
      </trkpt>
      <trkpt lat="45.98184" lon="4.81294">
        <ele>247</ele>
        <time>2018-01-12T10:14:17Z</time>
      </trkpt>
      <trkpt lat="45.98185" lon="4.81298">
        <ele>247</ele>
        <time>2018-01-12T10:14:18Z</time>
      </trkpt>
      <trkpt lat="45.98188" lon="4.81307">
        <ele>247</ele>
        <time>2018-01-12T10:14:20Z</time>
      </trkpt>
      <trkpt lat="45.98189" lon="4.81312">
        <ele>247</ele>
        <time>2018-01-12T10:14:21Z</time>
      </trkpt>
      <trkpt lat="45.98191" lon="4.81322">
        <ele>247</ele>
        <time>2018-01-12T10:14:23Z</time>
      </trkpt>
      <trkpt lat="45.98193" lon="4.81326">
        <ele>247</ele>
        <time>2018-01-12T10:14:24Z</time>
      </trkpt>
      <trkpt lat="45.98194" lon="4.81336">
        <ele>248</ele>
        <time>2018-01-12T10:14:26Z</time>
      </trkpt>
      <trkpt lat="45.98195" lon="4.81342">
        <ele>248</ele>
        <time>2018-01-12T10:14:27Z</time>
      </trkpt>
      <trkpt lat="45.98197" lon="4.81352">
        <ele>248</ele>
        <time>2018-01-12T10:14:29Z</time>
      </trkpt>
      <trkpt lat="45.98198" lon="4.81357">
        <ele>248</ele>
        <time>2018-01-12T10:14:30Z</time>
      </trkpt>
      <trkpt lat="45.982" lon="4.81368">
        <ele>248</ele>
        <time>2018-01-12T10:14:32Z</time>
      </trkpt>
      <trkpt lat="45.98201" lon="4.81373">
        <ele>248</ele>
        <time>2018-01-12T10:14:33Z</time>
      </trkpt>
      <trkpt lat="45.98203" lon="4.81384">
        <ele>248</ele>
        <time>2018-01-12T10:14:35Z</time>
      </trkpt>
      <trkpt lat="45.98204" lon="4.81389">
        <ele>248</ele>
        <time>2018-01-12T10:14:36Z</time>
      </trkpt>
      <trkpt lat="45.98207" lon="4.814">
        <ele>248</ele>
        <time>2018-01-12T10:14:38Z</time>
      </trkpt>
      <trkpt lat="45.98209" lon="4.81406">
        <ele>248</ele>
        <time>2018-01-12T10:14:39Z</time>
      </trkpt>
      <trkpt lat="45.98211" lon="4.81416">
        <ele>248</ele>
        <time>2018-01-12T10:14:41Z</time>
      </trkpt>
      <trkpt lat="45.98213" lon="4.8142">
        <ele>249</ele>
        <time>2018-01-12T10:14:42Z</time>
      </trkpt>
      <trkpt lat="45.98216" lon="4.81429">
        <ele>249</ele>
        <time>2018-01-12T10:14:44Z</time>
      </trkpt>
      <trkpt lat="45.98218" lon="4.81434">
        <ele>249</ele>
        <time>2018-01-12T10:14:45Z</time>
      </trkpt>
      <trkpt lat="45.98221" lon="4.81443">
        <ele>249</ele>
        <time>2018-01-12T10:14:47Z</time>
      </trkpt>
      <trkpt lat="45.98223" lon="4.8145">
        <ele>249</ele>
        <time>2018-01-12T10:14:48Z</time>
      </trkpt>
      <trkpt lat="45.98227" lon="4.81461">
        <ele>249</ele>
        <time>2018-01-12T10:14:50Z</time>
      </trkpt>
      <trkpt lat="45.98229" lon="4.81466">
        <ele>249</ele>
        <time>2018-01-12T10:14:51Z</time>
      </trkpt>
      <trkpt lat="45.98233" lon="4.81477">
        <ele>249</ele>
        <time>2018-01-12T10:14:53Z</time>
      </trkpt>
      <trkpt lat="45.98234" lon="4.81485">
        <ele>249</ele>
        <time>2018-01-12T10:14:54Z</time>
      </trkpt>
      <trkpt lat="45.98237" lon="4.81495">
        <ele>249</ele>
        <time>2018-01-12T10:14:56Z</time>
      </trkpt>
      <trkpt lat="45.9824" lon="4.81501">
        <ele>249</ele>
        <time>2018-01-12T10:14:57Z</time>
      </trkpt>
      <trkpt lat="45.98243" lon="4.81511">
        <ele>249</ele>
        <time>2018-01-12T10:14:59Z</time>
      </trkpt>
      <trkpt lat="45.98245" lon="4.81517">
        <ele>249</ele>
        <time>2018-01-12T10:15:00Z</time>
      </trkpt>
      <trkpt lat="45.9825" lon="4.81527">
        <ele>249</ele>
        <time>2018-01-12T10:15:02Z</time>
      </trkpt>
      <trkpt lat="45.98252" lon="4.81532">
        <ele>247</ele>
        <time>2018-01-12T10:15:03Z</time>
      </trkpt>
      <trkpt lat="45.98255" lon="4.81543">
        <ele>247</ele>
        <time>2018-01-12T10:15:05Z</time>
      </trkpt>
      <trkpt lat="45.98257" lon="4.81548">
        <ele>247</ele>
        <time>2018-01-12T10:15:06Z</time>
      </trkpt>
      <trkpt lat="45.9826" lon="4.81558">
        <ele>247</ele>
        <time>2018-01-12T10:15:08Z</time>
      </trkpt>
      <trkpt lat="45.98262" lon="4.81563">
        <ele>247</ele>
        <time>2018-01-12T10:15:09Z</time>
      </trkpt>
      <trkpt lat="45.98265" lon="4.81575">
        <ele>247</ele>
        <time>2018-01-12T10:15:11Z</time>
      </trkpt>
      <trkpt lat="45.98267" lon="4.81581">
        <ele>247</ele>
        <time>2018-01-12T10:15:12Z</time>
      </trkpt>
      <trkpt lat="45.98271" lon="4.81593">
        <ele>247</ele>
        <time>2018-01-12T10:15:14Z</time>
      </trkpt>
      <trkpt lat="45.98273" lon="4.81598">
        <ele>247</ele>
        <time>2018-01-12T10:15:15Z</time>
      </trkpt>
      <trkpt lat="45.98277" lon="4.81609">
        <ele>247</ele>
        <time>2018-01-12T10:15:17Z</time>
      </trkpt>
      <trkpt lat="45.9828" lon="4.81615">
        <ele>247</ele>
        <time>2018-01-12T10:15:18Z</time>
      </trkpt>
      <trkpt lat="45.98285" lon="4.81624">
        <ele>247</ele>
        <time>2018-01-12T10:15:20Z</time>
      </trkpt>
      <trkpt lat="45.98287" lon="4.81628">
        <ele>247</ele>
        <time>2018-01-12T10:15:21Z</time>
      </trkpt>
      <trkpt lat="45.98293" lon="4.81635">
        <ele>247</ele>
        <time>2018-01-12T10:15:23Z</time>
      </trkpt>
      <trkpt lat="45.98296" lon="4.81639">
        <ele>247</ele>
        <time>2018-01-12T10:15:24Z</time>
      </trkpt>
      <trkpt lat="45.98303" lon="4.81647">
        <ele>246</ele>
        <time>2018-01-12T10:15:26Z</time>
      </trkpt>
      <trkpt lat="45.98307" lon="4.81649">
        <ele>246</ele>
        <time>2018-01-12T10:15:27Z</time>
      </trkpt>
      <trkpt lat="45.98312" lon="4.81653">
        <ele>246</ele>
        <time>2018-01-12T10:15:28Z</time>
      </trkpt>
      <trkpt lat="45.98315" lon="4.81657">
        <ele>246</ele>
        <time>2018-01-12T10:15:29Z</time>
      </trkpt>
      <trkpt lat="45.98322" lon="4.81663">
        <ele>246</ele>
        <time>2018-01-12T10:15:31Z</time>
      </trkpt>
      <trkpt lat="45.98325" lon="4.81667">
        <ele>246</ele>
        <time>2018-01-12T10:15:32Z</time>
      </trkpt>
      <trkpt lat="45.98332" lon="4.81671">
        <ele>246</ele>
        <time>2018-01-12T10:15:34Z</time>
      </trkpt>
      <trkpt lat="45.98336" lon="4.81673">
        <ele>246</ele>
        <time>2018-01-12T10:15:35Z</time>
      </trkpt>
      <trkpt lat="45.98343" lon="4.81676">
        <ele>245</ele>
        <time>2018-01-12T10:15:37Z</time>
      </trkpt>
      <trkpt lat="45.98346" lon="4.81677">
        <ele>245</ele>
        <time>2018-01-12T10:15:38Z</time>
      </trkpt>
      <trkpt lat="45.98354" lon="4.81678">
        <ele>245</ele>
        <time>2018-01-12T10:15:40Z</time>
      </trkpt>
      <trkpt lat="45.98358" lon="4.81678">
        <ele>245</ele>
        <time>2018-01-12T10:15:41Z</time>
      </trkpt>
      <trkpt lat="45.98366" lon="4.81679">
        <ele>244</ele>
        <time>2018-01-12T10:15:43Z</time>
      </trkpt>
      <trkpt lat="45.9837" lon="4.81678">
        <ele>244</ele>
        <time>2018-01-12T10:15:44Z</time>
      </trkpt>
      <trkpt lat="45.98379" lon="4.81676">
        <ele>244</ele>
        <time>2018-01-12T10:15:46Z</time>
      </trkpt>
      <trkpt lat="45.98383" lon="4.81674">
        <ele>243</ele>
        <time>2018-01-12T10:15:47Z</time>
      </trkpt>
      <trkpt lat="45.98391" lon="4.81671">
        <ele>243</ele>
        <time>2018-01-12T10:15:49Z</time>
      </trkpt>
      <trkpt lat="45.98396" lon="4.8167">
        <ele>243</ele>
        <time>2018-01-12T10:15:50Z</time>
      </trkpt>
      <trkpt lat="45.984" lon="4.8167">
        <ele>243</ele>
        <time>2018-01-12T10:15:51Z</time>
      </trkpt>
      <trkpt lat="45.98405" lon="4.81668">
        <ele>242</ele>
        <time>2018-01-12T10:15:52Z</time>
      </trkpt>
      <trkpt lat="45.9841" lon="4.81667">
        <ele>242</ele>
        <time>2018-01-12T10:15:53Z</time>
      </trkpt>
      <trkpt lat="45.98415" lon="4.81667">
        <ele>241</ele>
        <time>2018-01-12T10:15:54Z</time>
      </trkpt>
      <trkpt lat="45.98423" lon="4.81666">
        <ele>240</ele>
        <time>2018-01-12T10:15:56Z</time>
      </trkpt>
      <trkpt lat="45.98427" lon="4.81669">
        <ele>240</ele>
        <time>2018-01-12T10:15:57Z</time>
      </trkpt>
      <trkpt lat="45.98432" lon="4.81671">
        <ele>240</ele>
        <time>2018-01-12T10:15:58Z</time>
      </trkpt>
      <trkpt lat="45.98437" lon="4.81673">
        <ele>240</ele>
        <time>2018-01-12T10:15:59Z</time>
      </trkpt>
      <trkpt lat="45.9844" lon="4.8168">
        <ele>240</ele>
        <time>2018-01-12T10:16:00Z</time>
      </trkpt>
      <trkpt lat="45.98443" lon="4.81684">
        <ele>239</ele>
        <time>2018-01-12T10:16:01Z</time>
      </trkpt>
      <trkpt lat="45.98449" lon="4.81693">
        <ele>239</ele>
        <time>2018-01-12T10:16:03Z</time>
      </trkpt>
      <trkpt lat="45.98451" lon="4.81699">
        <ele>239</ele>
        <time>2018-01-12T10:16:04Z</time>
      </trkpt>
      <trkpt lat="45.98455" lon="4.81705">
        <ele>239</ele>
        <time>2018-01-12T10:16:05Z</time>
      </trkpt>
      <trkpt lat="45.98458" lon="4.81711">
        <ele>239</ele>
        <time>2018-01-12T10:16:06Z</time>
      </trkpt>
      <trkpt lat="45.98462" lon="4.81716">
        <ele>239</ele>
        <time>2018-01-12T10:16:07Z</time>
      </trkpt>
      <trkpt lat="45.98466" lon="4.81722">
        <ele>239</ele>
        <time>2018-01-12T10:16:08Z</time>
      </trkpt>
      <trkpt lat="45.98471" lon="4.81727">
        <ele>239</ele>
        <time>2018-01-12T10:16:09Z</time>
      </trkpt>
      <trkpt lat="45.98476" lon="4.81732">
        <ele>239</ele>
        <time>2018-01-12T10:16:10Z</time>
      </trkpt>
      <trkpt lat="45.98481" lon="4.81736">
        <ele>238</ele>
        <time>2018-01-12T10:16:11Z</time>
      </trkpt>
      <trkpt lat="45.98486" lon="4.81742">
        <ele>238</ele>
        <time>2018-01-12T10:16:12Z</time>
      </trkpt>
      <trkpt lat="45.98492" lon="4.81746">
        <ele>238</ele>
        <time>2018-01-12T10:16:13Z</time>
      </trkpt>
      <trkpt lat="45.98497" lon="4.81751">
        <ele>237</ele>
        <time>2018-01-12T10:16:14Z</time>
      </trkpt>
      <trkpt lat="45.98502" lon="4.81757">
        <ele>237</ele>
        <time>2018-01-12T10:16:15Z</time>
      </trkpt>
      <trkpt lat="45.98506" lon="4.81764">
        <ele>237</ele>
        <time>2018-01-12T10:16:16Z</time>
      </trkpt>
      <trkpt lat="45.98511" lon="4.81771">
        <ele>238</ele>
        <time>2018-01-12T10:16:17Z</time>
      </trkpt>
      <trkpt lat="45.98517" lon="4.81777">
        <ele>238</ele>
        <time>2018-01-12T10:16:18Z</time>
      </trkpt>
      <trkpt lat="45.98522" lon="4.81783">
        <ele>238</ele>
        <time>2018-01-12T10:16:19Z</time>
      </trkpt>
      <trkpt lat="45.98526" lon="4.81789">
        <ele>238</ele>
        <time>2018-01-12T10:16:20Z</time>
      </trkpt>
      <trkpt lat="45.98531" lon="4.81795">
        <ele>238</ele>
        <time>2018-01-12T10:16:21Z</time>
      </trkpt>
      <trkpt lat="45.98535" lon="4.818">
        <ele>238</ele>
        <time>2018-01-12T10:16:22Z</time>
      </trkpt>
      <trkpt lat="45.9854" lon="4.81805">
        <ele>238</ele>
        <time>2018-01-12T10:16:23Z</time>
      </trkpt>
      <trkpt lat="45.98546" lon="4.81808">
        <ele>238</ele>
        <time>2018-01-12T10:16:24Z</time>
      </trkpt>
      <trkpt lat="45.98551" lon="4.81809">
        <ele>238</ele>
        <time>2018-01-12T10:16:25Z</time>
      </trkpt>
      <trkpt lat="45.98556" lon="4.81808">
        <ele>238</ele>
        <time>2018-01-12T10:16:26Z</time>
      </trkpt>
      <trkpt lat="45.98564" lon="4.81803">
        <ele>238</ele>
        <time>2018-01-12T10:16:28Z</time>
      </trkpt>
      <trkpt lat="45.98567" lon="4.81798">
        <ele>238</ele>
        <time>2018-01-12T10:16:29Z</time>
      </trkpt>
      <trkpt lat="45.9857" lon="4.81793">
        <ele>238</ele>
        <time>2018-01-12T10:16:30Z</time>
      </trkpt>
      <trkpt lat="45.98573" lon="4.81787">
        <ele>238</ele>
        <time>2018-01-12T10:16:31Z</time>
      </trkpt>
      <trkpt lat="45.98579" lon="4.81779">
        <ele>238</ele>
        <time>2018-01-12T10:16:33Z</time>
      </trkpt>
      <trkpt lat="45.98583" lon="4.81776">
        <ele>237</ele>
        <time>2018-01-12T10:16:34Z</time>
      </trkpt>
      <trkpt lat="45.98587" lon="4.81772">
        <ele>238</ele>
        <time>2018-01-12T10:16:35Z</time>
      </trkpt>
      <trkpt lat="45.98591" lon="4.81769">
        <ele>238</ele>
        <time>2018-01-12T10:16:36Z</time>
      </trkpt>
      <trkpt lat="45.98596" lon="4.81767">
        <ele>238</ele>
        <time>2018-01-12T10:16:37Z</time>
      </trkpt>
      <trkpt lat="45.98601" lon="4.81765">
        <ele>238</ele>
        <time>2018-01-12T10:16:38Z</time>
      </trkpt>
      <trkpt lat="45.98606" lon="4.81762">
        <ele>238</ele>
        <time>2018-01-12T10:16:39Z</time>
      </trkpt>
      <trkpt lat="45.9861" lon="4.81761">
        <ele>238</ele>
        <time>2018-01-12T10:16:40Z</time>
      </trkpt>
      <trkpt lat="45.98617" lon="4.81757">
        <ele>238</ele>
        <time>2018-01-12T10:16:42Z</time>
      </trkpt>
      <trkpt lat="45.98621" lon="4.81756">
        <ele>238</ele>
        <time>2018-01-12T10:16:43Z</time>
      </trkpt>
      <trkpt lat="45.98628" lon="4.81754">
        <ele>238</ele>
        <time>2018-01-12T10:16:45Z</time>
      </trkpt>
      <trkpt lat="45.98633" lon="4.81753">
        <ele>238</ele>
        <time>2018-01-12T10:16:46Z</time>
      </trkpt>
      <trkpt lat="45.9864" lon="4.81751">
        <ele>238</ele>
        <time>2018-01-12T10:16:48Z</time>
      </trkpt>
      <trkpt lat="45.98646" lon="4.8175">
        <ele>237</ele>
        <time>2018-01-12T10:16:49Z</time>
      </trkpt>
      <trkpt lat="45.98655" lon="4.81748">
        <ele>237</ele>
        <time>2018-01-12T10:16:51Z</time>
      </trkpt>
      <trkpt lat="45.98658" lon="4.81747">
        <ele>238</ele>
        <time>2018-01-12T10:16:52Z</time>
      </trkpt>
      <trkpt lat="45.98662" lon="4.81747">
        <ele>238</ele>
        <time>2018-01-12T10:16:53Z</time>
      </trkpt>
      <trkpt lat="45.98667" lon="4.81744">
        <ele>238</ele>
        <time>2018-01-12T10:16:54Z</time>
      </trkpt>
      <trkpt lat="45.98676" lon="4.81741">
        <ele>238</ele>
        <time>2018-01-12T10:16:56Z</time>
      </trkpt>
      <trkpt lat="45.98681" lon="4.81741">
        <ele>238</ele>
        <time>2018-01-12T10:16:57Z</time>
      </trkpt>
      <trkpt lat="45.98689" lon="4.81738">
        <ele>238</ele>
        <time>2018-01-12T10:16:59Z</time>
      </trkpt>
      <trkpt lat="45.98693" lon="4.81736">
        <ele>238</ele>
        <time>2018-01-12T10:17:00Z</time>
      </trkpt>
      <trkpt lat="45.98701" lon="4.81733">
        <ele>239</ele>
        <time>2018-01-12T10:17:02Z</time>
      </trkpt>
      <trkpt lat="45.98705" lon="4.81732">
        <ele>239</ele>
        <time>2018-01-12T10:17:03Z</time>
      </trkpt>
      <trkpt lat="45.98713" lon="4.81731">
        <ele>239</ele>
        <time>2018-01-12T10:17:05Z</time>
      </trkpt>
      <trkpt lat="45.98718" lon="4.81733">
        <ele>239</ele>
        <time>2018-01-12T10:17:06Z</time>
      </trkpt>
      <trkpt lat="45.98726" lon="4.81737">
        <ele>239</ele>
        <time>2018-01-12T10:17:08Z</time>
      </trkpt>
      <trkpt lat="45.9873" lon="4.81741">
        <ele>240</ele>
        <time>2018-01-12T10:17:09Z</time>
      </trkpt>
      <trkpt lat="45.98733" lon="4.81746">
        <ele>240</ele>
        <time>2018-01-12T10:17:10Z</time>
      </trkpt>
      <trkpt lat="45.98736" lon="4.81751">
        <ele>240</ele>
        <time>2018-01-12T10:17:11Z</time>
      </trkpt>
      <trkpt lat="45.98739" lon="4.81756">
        <ele>240</ele>
        <time>2018-01-12T10:17:12Z</time>
      </trkpt>
      <trkpt lat="45.98743" lon="4.81761">
        <ele>240</ele>
        <time>2018-01-12T10:17:13Z</time>
      </trkpt>
      <trkpt lat="45.98746" lon="4.81768">
        <ele>240</ele>
        <time>2018-01-12T10:17:15Z</time>
      </trkpt>
      <trkpt lat="45.98749" lon="4.81774">
        <ele>240</ele>
        <time>2018-01-12T10:17:16Z</time>
      </trkpt>
      <trkpt lat="45.98753" lon="4.81784">
        <ele>241</ele>
        <time>2018-01-12T10:17:18Z</time>
      </trkpt>
      <trkpt lat="45.98755" lon="4.81792">
        <ele>240</ele>
        <time>2018-01-12T10:17:19Z</time>
      </trkpt>
      <trkpt lat="45.98758" lon="4.81797">
        <ele>240</ele>
        <time>2018-01-12T10:17:20Z</time>
      </trkpt>
      <trkpt lat="45.98761" lon="4.81803">
        <ele>240</ele>
        <time>2018-01-12T10:17:21Z</time>
      </trkpt>
      <trkpt lat="45.98764" lon="4.81809">
        <ele>240</ele>
        <time>2018-01-12T10:17:22Z</time>
      </trkpt>
      <trkpt lat="45.98767" lon="4.81816">
        <ele>240</ele>
        <time>2018-01-12T10:17:23Z</time>
      </trkpt>
      <trkpt lat="45.9877" lon="4.81822">
        <ele>240</ele>
        <time>2018-01-12T10:17:24Z</time>
      </trkpt>
      <trkpt lat="45.98774" lon="4.81827">
        <ele>240</ele>
        <time>2018-01-12T10:17:25Z</time>
      </trkpt>
      <trkpt lat="45.98777" lon="4.81833">
        <ele>240</ele>
        <time>2018-01-12T10:17:26Z</time>
      </trkpt>
      <trkpt lat="45.9878" lon="4.8184">
        <ele>239</ele>
        <time>2018-01-12T10:17:27Z</time>
      </trkpt>
      <trkpt lat="45.98783" lon="4.81846">
        <ele>239</ele>
        <time>2018-01-12T10:17:28Z</time>
      </trkpt>
      <trkpt lat="45.98786" lon="4.81852">
        <ele>239</ele>
        <time>2018-01-12T10:17:29Z</time>
      </trkpt>
      <trkpt lat="45.98788" lon="4.81859">
        <ele>239</ele>
        <time>2018-01-12T10:17:30Z</time>
      </trkpt>
      <trkpt lat="45.98793" lon="4.81864">
        <ele>239</ele>
        <time>2018-01-12T10:17:31Z</time>
      </trkpt>
      <trkpt lat="45.98796" lon="4.8187">
        <ele>239</ele>
        <time>2018-01-12T10:17:32Z</time>
      </trkpt>
      <trkpt lat="45.98799" lon="4.81876">
        <ele>239</ele>
        <time>2018-01-12T10:17:33Z</time>
      </trkpt>
      <trkpt lat="45.988" lon="4.81883">
        <ele>239</ele>
        <time>2018-01-12T10:17:34Z</time>
      </trkpt>
      <trkpt lat="45.98802" lon="4.81889">
        <ele>239</ele>
        <time>2018-01-12T10:17:35Z</time>
      </trkpt>
      <trkpt lat="45.98804" lon="4.81896">
        <ele>239</ele>
        <time>2018-01-12T10:17:36Z</time>
      </trkpt>
      <trkpt lat="45.98805" lon="4.81903">
        <ele>239</ele>
        <time>2018-01-12T10:17:37Z</time>
      </trkpt>
      <trkpt lat="45.98807" lon="4.81909">
        <ele>239</ele>
        <time>2018-01-12T10:17:38Z</time>
      </trkpt>
      <trkpt lat="45.98809" lon="4.81916">
        <ele>239</ele>
        <time>2018-01-12T10:17:39Z</time>
      </trkpt>
      <trkpt lat="45.98811" lon="4.81923">
        <ele>239</ele>
        <time>2018-01-12T10:17:40Z</time>
      </trkpt>
      <trkpt lat="45.98811" lon="4.81929">
        <ele>239</ele>
        <time>2018-01-12T10:17:41Z</time>
      </trkpt>
      <trkpt lat="45.98812" lon="4.81936">
        <ele>239</ele>
        <time>2018-01-12T10:17:42Z</time>
      </trkpt>
      <trkpt lat="45.98813" lon="4.81944">
        <ele>239</ele>
        <time>2018-01-12T10:17:43Z</time>
      </trkpt>
      <trkpt lat="45.98814" lon="4.81951">
        <ele>239</ele>
        <time>2018-01-12T10:17:44Z</time>
      </trkpt>
      <trkpt lat="45.98814" lon="4.8196">
        <ele>239</ele>
        <time>2018-01-12T10:17:45Z</time>
      </trkpt>
      <trkpt lat="45.98815" lon="4.81967">
        <ele>239</ele>
        <time>2018-01-12T10:17:46Z</time>
      </trkpt>
      <trkpt lat="45.98817" lon="4.81974">
        <ele>239</ele>
        <time>2018-01-12T10:17:47Z</time>
      </trkpt>
      <trkpt lat="45.98818" lon="4.81985">
        <ele>238</ele>
        <time>2018-01-12T10:17:49Z</time>
      </trkpt>
      <trkpt lat="45.98819" lon="4.81991">
        <ele>238</ele>
        <time>2018-01-12T10:17:50Z</time>
      </trkpt>
      <trkpt lat="45.98822" lon="4.82003">
        <ele>238</ele>
        <time>2018-01-12T10:17:52Z</time>
      </trkpt>
      <trkpt lat="45.98823" lon="4.82009">
        <ele>238</ele>
        <time>2018-01-12T10:17:53Z</time>
      </trkpt>
      <trkpt lat="45.98825" lon="4.82019">
        <ele>238</ele>
        <time>2018-01-12T10:17:55Z</time>
      </trkpt>
      <trkpt lat="45.98826" lon="4.82026">
        <ele>238</ele>
        <time>2018-01-12T10:17:56Z</time>
      </trkpt>
      <trkpt lat="45.98826" lon="4.82034">
        <ele>238</ele>
        <time>2018-01-12T10:17:57Z</time>
      </trkpt>
      <trkpt lat="45.98827" lon="4.8204">
        <ele>238</ele>
        <time>2018-01-12T10:17:58Z</time>
      </trkpt>
      <trkpt lat="45.98829" lon="4.82053">
        <ele>237</ele>
        <time>2018-01-12T10:18:00Z</time>
      </trkpt>
      <trkpt lat="45.9883" lon="4.82059">
        <ele>237</ele>
        <time>2018-01-12T10:18:01Z</time>
      </trkpt>
      <trkpt lat="45.98831" lon="4.82066">
        <ele>237</ele>
        <time>2018-01-12T10:18:02Z</time>
      </trkpt>
      <trkpt lat="45.98832" lon="4.82073">
        <ele>237</ele>
        <time>2018-01-12T10:18:03Z</time>
      </trkpt>
      <trkpt lat="45.98832" lon="4.82079">
        <ele>236</ele>
        <time>2018-01-12T10:18:04Z</time>
      </trkpt>
      <trkpt lat="45.98834" lon="4.82086">
        <ele>236</ele>
        <time>2018-01-12T10:18:05Z</time>
      </trkpt>
      <trkpt lat="45.98834" lon="4.82092">
        <ele>236</ele>
        <time>2018-01-12T10:18:06Z</time>
      </trkpt>
      <trkpt lat="45.98835" lon="4.82099">
        <ele>236</ele>
        <time>2018-01-12T10:18:07Z</time>
      </trkpt>
      <trkpt lat="45.98836" lon="4.82106">
        <ele>236</ele>
        <time>2018-01-12T10:18:08Z</time>
      </trkpt>
      <trkpt lat="45.98836" lon="4.82113">
        <ele>235</ele>
        <time>2018-01-12T10:18:09Z</time>
      </trkpt>
      <trkpt lat="45.98837" lon="4.8212">
        <ele>236</ele>
        <time>2018-01-12T10:18:10Z</time>
      </trkpt>
      <trkpt lat="45.98838" lon="4.82127">
        <ele>236</ele>
        <time>2018-01-12T10:18:11Z</time>
      </trkpt>
      <trkpt lat="45.98841" lon="4.82138">
        <ele>236</ele>
        <time>2018-01-12T10:18:13Z</time>
      </trkpt>
      <trkpt lat="45.98843" lon="4.82144">
        <ele>236</ele>
        <time>2018-01-12T10:18:14Z</time>
      </trkpt>
      <trkpt lat="45.98844" lon="4.82155">
        <ele>236</ele>
        <time>2018-01-12T10:18:16Z</time>
      </trkpt>
      <trkpt lat="45.98846" lon="4.82159">
        <ele>236</ele>
        <time>2018-01-12T10:18:17Z</time>
      </trkpt>
      <trkpt lat="45.9885" lon="4.82169">
        <ele>236</ele>
        <time>2018-01-12T10:18:19Z</time>
      </trkpt>
      <trkpt lat="45.98852" lon="4.82174">
        <ele>236</ele>
        <time>2018-01-12T10:18:20Z</time>
      </trkpt>
      <trkpt lat="45.98854" lon="4.8218">
        <ele>236</ele>
        <time>2018-01-12T10:18:21Z</time>
      </trkpt>
      <trkpt lat="45.98856" lon="4.82186">
        <ele>236</ele>
        <time>2018-01-12T10:18:22Z</time>
      </trkpt>
      <trkpt lat="45.98858" lon="4.82191">
        <ele>236</ele>
        <time>2018-01-12T10:18:23Z</time>
      </trkpt>
      <trkpt lat="45.9886" lon="4.82197">
        <ele>236</ele>
        <time>2018-01-12T10:18:24Z</time>
      </trkpt>
      <trkpt lat="45.98863" lon="4.82204">
        <ele>236</ele>
        <time>2018-01-12T10:18:25Z</time>
      </trkpt>
      <trkpt lat="45.98866" lon="4.8221">
        <ele>236</ele>
        <time>2018-01-12T10:18:26Z</time>
      </trkpt>
      <trkpt lat="45.98868" lon="4.82216">
        <ele>236</ele>
        <time>2018-01-12T10:18:27Z</time>
      </trkpt>
      <trkpt lat="45.98872" lon="4.82224">
        <ele>236</ele>
        <time>2018-01-12T10:18:28Z</time>
      </trkpt>
      <trkpt lat="45.98874" lon="4.8223">
        <ele>236</ele>
        <time>2018-01-12T10:18:29Z</time>
      </trkpt>
      <trkpt lat="45.98878" lon="4.82236">
        <ele>236</ele>
        <time>2018-01-12T10:18:30Z</time>
      </trkpt>
      <trkpt lat="45.98881" lon="4.82241">
        <ele>236</ele>
        <time>2018-01-12T10:18:31Z</time>
      </trkpt>
      <trkpt lat="45.98884" lon="4.82247">
        <ele>236</ele>
        <time>2018-01-12T10:18:32Z</time>
      </trkpt>
      <trkpt lat="45.98886" lon="4.82253">
        <ele>236</ele>
        <time>2018-01-12T10:18:33Z</time>
      </trkpt>
      <trkpt lat="45.98889" lon="4.82259">
        <ele>236</ele>
        <time>2018-01-12T10:18:34Z</time>
      </trkpt>
      <trkpt lat="45.98892" lon="4.82265">
        <ele>236</ele>
        <time>2018-01-12T10:18:35Z</time>
      </trkpt>
      <trkpt lat="45.98895" lon="4.82272">
        <ele>236</ele>
        <time>2018-01-12T10:18:36Z</time>
      </trkpt>
      <trkpt lat="45.98898" lon="4.82278">
        <ele>236</ele>
        <time>2018-01-12T10:18:37Z</time>
      </trkpt>
      <trkpt lat="45.98902" lon="4.82283">
        <ele>236</ele>
        <time>2018-01-12T10:18:38Z</time>
      </trkpt>
      <trkpt lat="45.98906" lon="4.82288">
        <ele>236</ele>
        <time>2018-01-12T10:18:39Z</time>
      </trkpt>
      <trkpt lat="45.98911" lon="4.82295">
        <ele>236</ele>
        <time>2018-01-12T10:18:40Z</time>
      </trkpt>
      <trkpt lat="45.98916" lon="4.82299">
        <ele>237</ele>
        <time>2018-01-12T10:18:41Z</time>
      </trkpt>
      <trkpt lat="45.9892" lon="4.82303">
        <ele>234</ele>
        <time>2018-01-12T10:18:42Z</time>
      </trkpt>
      <trkpt lat="45.98924" lon="4.82308">
        <ele>235</ele>
        <time>2018-01-12T10:18:43Z</time>
      </trkpt>
      <trkpt lat="45.98928" lon="4.82311">
        <ele>235</ele>
        <time>2018-01-12T10:18:44Z</time>
      </trkpt>
      <trkpt lat="45.98935" lon="4.82319">
        <ele>235</ele>
        <time>2018-01-12T10:18:46Z</time>
      </trkpt>
      <trkpt lat="45.98938" lon="4.82324">
        <ele>235</ele>
        <time>2018-01-12T10:18:47Z</time>
      </trkpt>
      <trkpt lat="45.98944" lon="4.82333">
        <ele>234</ele>
        <time>2018-01-12T10:18:49Z</time>
      </trkpt>
      <trkpt lat="45.98946" lon="4.82337">
        <ele>235</ele>
        <time>2018-01-12T10:18:50Z</time>
      </trkpt>
      <trkpt lat="45.98953" lon="4.82345">
        <ele>235</ele>
        <time>2018-01-12T10:18:52Z</time>
      </trkpt>
      <trkpt lat="45.98956" lon="4.8235">
        <ele>235</ele>
        <time>2018-01-12T10:18:53Z</time>
      </trkpt>
      <trkpt lat="45.98958" lon="4.82356">
        <ele>235</ele>
        <time>2018-01-12T10:18:54Z</time>
      </trkpt>
      <trkpt lat="45.98961" lon="4.82362">
        <ele>235</ele>
        <time>2018-01-12T10:18:55Z</time>
      </trkpt>
      <trkpt lat="45.98964" lon="4.82369">
        <ele>235</ele>
        <time>2018-01-12T10:18:56Z</time>
      </trkpt>
      <trkpt lat="45.98966" lon="4.82376">
        <ele>235</ele>
        <time>2018-01-12T10:18:57Z</time>
      </trkpt>
      <trkpt lat="45.98966" lon="4.82383">
        <ele>235</ele>
        <time>2018-01-12T10:18:58Z</time>
      </trkpt>
      <trkpt lat="45.98968" lon="4.8239">
        <ele>235</ele>
        <time>2018-01-12T10:18:59Z</time>
      </trkpt>
      <trkpt lat="45.9897" lon="4.82399">
        <ele>235</ele>
        <time>2018-01-12T10:19:00Z</time>
      </trkpt>
      <trkpt lat="45.98972" lon="4.82407">
        <ele>235</ele>
        <time>2018-01-12T10:19:01Z</time>
      </trkpt>
      <trkpt lat="45.98974" lon="4.82413">
        <ele>235</ele>
        <time>2018-01-12T10:19:02Z</time>
      </trkpt>
      <trkpt lat="45.98975" lon="4.82419">
        <ele>236</ele>
        <time>2018-01-12T10:19:03Z</time>
      </trkpt>
      <trkpt lat="45.98978" lon="4.82431">
        <ele>236</ele>
        <time>2018-01-12T10:19:05Z</time>
      </trkpt>
      <trkpt lat="45.98979" lon="4.82437">
        <ele>236</ele>
        <time>2018-01-12T10:19:06Z</time>
      </trkpt>
      <trkpt lat="45.98983" lon="4.82447">
        <ele>236</ele>
        <time>2018-01-12T10:19:08Z</time>
      </trkpt>
      <trkpt lat="45.98985" lon="4.82452">
        <ele>236</ele>
        <time>2018-01-12T10:19:09Z</time>
      </trkpt>
      <trkpt lat="45.98987" lon="4.82462">
        <ele>236</ele>
        <time>2018-01-12T10:19:11Z</time>
      </trkpt>
      <trkpt lat="45.98989" lon="4.82468">
        <ele>236</ele>
        <time>2018-01-12T10:19:12Z</time>
      </trkpt>
      <trkpt lat="45.98992" lon="4.82479">
        <ele>236</ele>
        <time>2018-01-12T10:19:14Z</time>
      </trkpt>
      <trkpt lat="45.98994" lon="4.82485">
        <ele>236</ele>
        <time>2018-01-12T10:19:15Z</time>
      </trkpt>
      <trkpt lat="45.98996" lon="4.82491">
        <ele>236</ele>
        <time>2018-01-12T10:19:16Z</time>
      </trkpt>
      <trkpt lat="45.98998" lon="4.82497">
        <ele>235</ele>
        <time>2018-01-12T10:19:17Z</time>
      </trkpt>
      <trkpt lat="45.99001" lon="4.82508">
        <ele>235</ele>
        <time>2018-01-12T10:19:19Z</time>
      </trkpt>
      <trkpt lat="45.99004" lon="4.82512">
        <ele>235</ele>
        <time>2018-01-12T10:19:20Z</time>
      </trkpt>
      <trkpt lat="45.99009" lon="4.82521">
        <ele>235</ele>
        <time>2018-01-12T10:19:22Z</time>
      </trkpt>
      <trkpt lat="45.99011" lon="4.82527">
        <ele>235</ele>
        <time>2018-01-12T10:19:23Z</time>
      </trkpt>
      <trkpt lat="45.99014" lon="4.82532">
        <ele>235</ele>
        <time>2018-01-12T10:19:24Z</time>
      </trkpt>
      <trkpt lat="45.99019" lon="4.82539">
        <ele>235</ele>
        <time>2018-01-12T10:19:25Z</time>
      </trkpt>
      <trkpt lat="45.99025" lon="4.82548">
        <ele>235</ele>
        <time>2018-01-12T10:19:27Z</time>
      </trkpt>
      <trkpt lat="45.99028" lon="4.82551">
        <ele>235</ele>
        <time>2018-01-12T10:19:28Z</time>
      </trkpt>
      <trkpt lat="45.99035" lon="4.82558">
        <ele>235</ele>
        <time>2018-01-12T10:19:30Z</time>
      </trkpt>
      <trkpt lat="45.99039" lon="4.8256">
        <ele>235</ele>
        <time>2018-01-12T10:19:31Z</time>
      </trkpt>
      <trkpt lat="45.99044" lon="4.82564">
        <ele>235</ele>
        <time>2018-01-12T10:19:33Z</time>
      </trkpt>
      <trkpt lat="45.99048" lon="4.82565">
        <ele>235</ele>
        <time>2018-01-12T10:19:34Z</time>
      </trkpt>
      <trkpt lat="45.99056" lon="4.82568">
        <ele>235</ele>
        <time>2018-01-12T10:19:36Z</time>
      </trkpt>
      <trkpt lat="45.9906" lon="4.82568">
        <ele>235</ele>
        <time>2018-01-12T10:19:37Z</time>
      </trkpt>
      <trkpt lat="45.99067" lon="4.82571">
        <ele>235</ele>
        <time>2018-01-12T10:19:39Z</time>
      </trkpt>
      <trkpt lat="45.99071" lon="4.82572">
        <ele>235</ele>
        <time>2018-01-12T10:19:40Z</time>
      </trkpt>
      <trkpt lat="45.99076" lon="4.82582">
        <ele>235</ele>
        <time>2018-01-12T10:19:43Z</time>
      </trkpt>
      <trkpt lat="45.99075" lon="4.82586">
        <ele>235</ele>
        <time>2018-01-12T10:19:44Z</time>
      </trkpt>
      <trkpt lat="45.99072" lon="4.82594">
        <ele>235</ele>
        <time>2018-01-12T10:19:46Z</time>
      </trkpt>
      <trkpt lat="45.9907" lon="4.82598">
        <ele>235</ele>
        <time>2018-01-12T10:19:47Z</time>
      </trkpt>
      <trkpt lat="45.99066" lon="4.82605">
        <ele>236</ele>
        <time>2018-01-12T10:19:49Z</time>
      </trkpt>
      <trkpt lat="45.99064" lon="4.82609">
        <ele>236</ele>
        <time>2018-01-12T10:19:50Z</time>
      </trkpt>
      <trkpt lat="45.9906" lon="4.82618">
        <ele>236</ele>
        <time>2018-01-12T10:19:52Z</time>
      </trkpt>
      <trkpt lat="45.99058" lon="4.82622">
        <ele>236</ele>
        <time>2018-01-12T10:19:53Z</time>
      </trkpt>
      <trkpt lat="45.99055" lon="4.82631">
        <ele>236</ele>
        <time>2018-01-12T10:19:55Z</time>
      </trkpt>
      <trkpt lat="45.99054" lon="4.82635">
        <ele>236</ele>
        <time>2018-01-12T10:19:56Z</time>
      </trkpt>
      <trkpt lat="45.9905" lon="4.82643">
        <ele>236</ele>
        <time>2018-01-12T10:19:58Z</time>
      </trkpt>
      <trkpt lat="45.99047" lon="4.82647">
        <ele>236</ele>
        <time>2018-01-12T10:19:59Z</time>
      </trkpt>
      <trkpt lat="45.99043" lon="4.82655">
        <ele>236</ele>
        <time>2018-01-12T10:20:01Z</time>
      </trkpt>
      <trkpt lat="45.99041" lon="4.82659">
        <ele>236</ele>
        <time>2018-01-12T10:20:02Z</time>
      </trkpt>
      <trkpt lat="45.99038" lon="4.82668">
        <ele>238</ele>
        <time>2018-01-12T10:20:04Z</time>
      </trkpt>
      <trkpt lat="45.99036" lon="4.82672">
        <ele>238</ele>
        <time>2018-01-12T10:20:05Z</time>
      </trkpt>
      <trkpt lat="45.99033" lon="4.8268">
        <ele>238</ele>
        <time>2018-01-12T10:20:07Z</time>
      </trkpt>
      <trkpt lat="45.99032" lon="4.82684">
        <ele>238</ele>
        <time>2018-01-12T10:20:08Z</time>
      </trkpt>
      <trkpt lat="45.99028" lon="4.82695">
        <ele>238</ele>
        <time>2018-01-12T10:20:11Z</time>
      </trkpt>
      <trkpt lat="45.99027" lon="4.82698">
        <ele>238</ele>
        <time>2018-01-12T10:20:12Z</time>
      </trkpt>
      <trkpt lat="45.99022" lon="4.82707">
        <ele>238</ele>
        <time>2018-01-12T10:20:15Z</time>
      </trkpt>
      <trkpt lat="45.99021" lon="4.8271">
        <ele>238</ele>
        <time>2018-01-12T10:20:16Z</time>
      </trkpt>
      <trkpt lat="45.99017" lon="4.82722">
        <ele>239</ele>
        <time>2018-01-12T10:20:19Z</time>
      </trkpt>
      <trkpt lat="45.99016" lon="4.82726">
        <ele>239</ele>
        <time>2018-01-12T10:20:20Z</time>
      </trkpt>
      <trkpt lat="45.99014" lon="4.82734">
        <ele>239</ele>
        <time>2018-01-12T10:20:22Z</time>
      </trkpt>
      <trkpt lat="45.99013" lon="4.82738">
        <ele>239</ele>
        <time>2018-01-12T10:20:23Z</time>
      </trkpt>
      <trkpt lat="45.99009" lon="4.82749">
        <ele>240</ele>
        <time>2018-01-12T10:20:26Z</time>
      </trkpt>
      <trkpt lat="45.99008" lon="4.82752">
        <ele>241</ele>
        <time>2018-01-12T10:20:27Z</time>
      </trkpt>
      <trkpt lat="45.99004" lon="4.82763">
        <ele>241</ele>
        <time>2018-01-12T10:20:30Z</time>
      </trkpt>
      <trkpt lat="45.99003" lon="4.82767">
        <ele>241</ele>
        <time>2018-01-12T10:20:31Z</time>
      </trkpt>
      <trkpt lat="45.98999" lon="4.82775">
        <ele>246</ele>
        <time>2018-01-12T10:20:34Z</time>
      </trkpt>
      <trkpt lat="45.98997" lon="4.82779">
        <ele>246</ele>
        <time>2018-01-12T10:20:35Z</time>
      </trkpt>
      <trkpt lat="45.98994" lon="4.8279">
        <ele>247</ele>
        <time>2018-01-12T10:20:38Z</time>
      </trkpt>
      <trkpt lat="45.98993" lon="4.82794">
        <ele>247</ele>
        <time>2018-01-12T10:20:39Z</time>
      </trkpt>
      <trkpt lat="45.98989" lon="4.82804">
        <ele>248</ele>
        <time>2018-01-12T10:20:42Z</time>
      </trkpt>
      <trkpt lat="45.98987" lon="4.82807">
        <ele>248</ele>
        <time>2018-01-12T10:20:43Z</time>
      </trkpt>
      <trkpt lat="45.98982" lon="4.82817">
        <ele>248</ele>
        <time>2018-01-12T10:20:46Z</time>
      </trkpt>
      <trkpt lat="45.98981" lon="4.8282">
        <ele>248</ele>
        <time>2018-01-12T10:20:47Z</time>
      </trkpt>
      <trkpt lat="45.98976" lon="4.82828">
        <ele>249</ele>
        <time>2018-01-12T10:20:50Z</time>
      </trkpt>
      <trkpt lat="45.98975" lon="4.82831">
        <ele>249</ele>
        <time>2018-01-12T10:20:51Z</time>
      </trkpt>
      <trkpt lat="45.9897" lon="4.82838">
        <ele>251</ele>
        <time>2018-01-12T10:20:54Z</time>
      </trkpt>
      <trkpt lat="45.98968" lon="4.82841">
        <ele>251</ele>
        <time>2018-01-12T10:20:55Z</time>
      </trkpt>
      <trkpt lat="45.98964" lon="4.82848">
        <ele>252</ele>
        <time>2018-01-12T10:20:58Z</time>
      </trkpt>
      <trkpt lat="45.98962" lon="4.8285">
        <ele>252</ele>
        <time>2018-01-12T10:20:59Z</time>
      </trkpt>
      <trkpt lat="45.98957" lon="4.82859">
        <ele>252</ele>
        <time>2018-01-12T10:21:03Z</time>
      </trkpt>
      <trkpt lat="45.98956" lon="4.82861">
        <ele>252</ele>
        <time>2018-01-12T10:21:04Z</time>
      </trkpt>
      <trkpt lat="45.98951" lon="4.82869">
        <ele>253</ele>
        <time>2018-01-12T10:21:07Z</time>
      </trkpt>
      <trkpt lat="45.9895" lon="4.82872">
        <ele>253</ele>
        <time>2018-01-12T10:21:08Z</time>
      </trkpt>
      <trkpt lat="45.98947" lon="4.8288">
        <ele>253</ele>
        <time>2018-01-12T10:21:11Z</time>
      </trkpt>
      <trkpt lat="45.98945" lon="4.82883">
        <ele>253</ele>
        <time>2018-01-12T10:21:12Z</time>
      </trkpt>
      <trkpt lat="45.98942" lon="4.82893">
        <ele>253</ele>
        <time>2018-01-12T10:21:15Z</time>
      </trkpt>
      <trkpt lat="45.98941" lon="4.82896">
        <ele>253</ele>
        <time>2018-01-12T10:21:16Z</time>
      </trkpt>
      <trkpt lat="45.98937" lon="4.82904">
        <ele>254</ele>
        <time>2018-01-12T10:21:19Z</time>
      </trkpt>
      <trkpt lat="45.98936" lon="4.82907">
        <ele>254</ele>
        <time>2018-01-12T10:21:20Z</time>
      </trkpt>
      <trkpt lat="45.98932" lon="4.82915">
        <ele>254</ele>
        <time>2018-01-12T10:21:23Z</time>
      </trkpt>
      <trkpt lat="45.9893" lon="4.82918">
        <ele>255</ele>
        <time>2018-01-12T10:21:24Z</time>
      </trkpt>
      <trkpt lat="45.98927" lon="4.82928">
        <ele>255</ele>
        <time>2018-01-12T10:21:27Z</time>
      </trkpt>
      <trkpt lat="45.98926" lon="4.82932">
        <ele>255</ele>
        <time>2018-01-12T10:21:28Z</time>
      </trkpt>
      <trkpt lat="45.98922" lon="4.82941">
        <ele>255</ele>
        <time>2018-01-12T10:21:31Z</time>
      </trkpt>
      <trkpt lat="45.98921" lon="4.82943">
        <ele>255</ele>
        <time>2018-01-12T10:21:32Z</time>
      </trkpt>
      <trkpt lat="45.98916" lon="4.82951">
        <ele>258</ele>
        <time>2018-01-12T10:21:35Z</time>
      </trkpt>
      <trkpt lat="45.98915" lon="4.82953">
        <ele>258</ele>
        <time>2018-01-12T10:21:36Z</time>
      </trkpt>
      <trkpt lat="45.9891" lon="4.82961">
        <ele>258</ele>
        <time>2018-01-12T10:21:39Z</time>
      </trkpt>
      <trkpt lat="45.98908" lon="4.82963">
        <ele>259</ele>
        <time>2018-01-12T10:21:40Z</time>
      </trkpt>
      <trkpt lat="45.98902" lon="4.8297">
        <ele>259</ele>
        <time>2018-01-12T10:21:43Z</time>
      </trkpt>
      <trkpt lat="45.989" lon="4.82972">
        <ele>259</ele>
        <time>2018-01-12T10:21:44Z</time>
      </trkpt>
      <trkpt lat="45.98893" lon="4.82978">
        <ele>259</ele>
        <time>2018-01-12T10:21:47Z</time>
      </trkpt>
      <trkpt lat="45.98891" lon="4.8298">
        <ele>259</ele>
        <time>2018-01-12T10:21:48Z</time>
      </trkpt>
      <trkpt lat="45.98885" lon="4.82986">
        <ele>259</ele>
        <time>2018-01-12T10:21:51Z</time>
      </trkpt>
      <trkpt lat="45.98883" lon="4.82988">
        <ele>259</ele>
        <time>2018-01-12T10:21:52Z</time>
      </trkpt>
      <trkpt lat="45.98876" lon="4.82992">
        <ele>260</ele>
        <time>2018-01-12T10:21:55Z</time>
      </trkpt>
      <trkpt lat="45.98874" lon="4.82993">
        <ele>260</ele>
        <time>2018-01-12T10:21:56Z</time>
      </trkpt>
      <trkpt lat="45.98868" lon="4.82998">
        <ele>260</ele>
        <time>2018-01-12T10:21:59Z</time>
      </trkpt>
      <trkpt lat="45.98865" lon="4.82999">
        <ele>260</ele>
        <time>2018-01-12T10:22:00Z</time>
      </trkpt>
      <trkpt lat="45.98858" lon="4.83003">
        <ele>261</ele>
        <time>2018-01-12T10:22:04Z</time>
      </trkpt>
      <trkpt lat="45.98856" lon="4.83005">
        <ele>261</ele>
        <time>2018-01-12T10:22:05Z</time>
      </trkpt>
      <trkpt lat="45.98849" lon="4.83011">
        <ele>261</ele>
        <time>2018-01-12T10:22:08Z</time>
      </trkpt>
      <trkpt lat="45.98846" lon="4.83013">
        <ele>261</ele>
        <time>2018-01-12T10:22:09Z</time>
      </trkpt>
      <trkpt lat="45.98839" lon="4.83018">
        <ele>261</ele>
        <time>2018-01-12T10:22:12Z</time>
      </trkpt>
      <trkpt lat="45.98836" lon="4.83019">
        <ele>261</ele>
        <time>2018-01-12T10:22:13Z</time>
      </trkpt>
      <trkpt lat="45.98829" lon="4.83026">
        <ele>264</ele>
        <time>2018-01-12T10:22:16Z</time>
      </trkpt>
      <trkpt lat="45.98826" lon="4.83028">
        <ele>264</ele>
        <time>2018-01-12T10:22:17Z</time>
      </trkpt>
      <trkpt lat="45.9882" lon="4.83032">
        <ele>264</ele>
        <time>2018-01-12T10:22:19Z</time>
      </trkpt>
      <trkpt lat="45.98817" lon="4.83034">
        <ele>264</ele>
        <time>2018-01-12T10:22:20Z</time>
      </trkpt>
      <trkpt lat="45.9881" lon="4.83038">
        <ele>264</ele>
        <time>2018-01-12T10:22:22Z</time>
      </trkpt>
      <trkpt lat="45.98807" lon="4.8304">
        <ele>264</ele>
        <time>2018-01-12T10:22:23Z</time>
      </trkpt>
      <trkpt lat="45.98799" lon="4.83044">
        <ele>264</ele>
        <time>2018-01-12T10:22:26Z</time>
      </trkpt>
      <trkpt lat="45.98797" lon="4.83046">
        <ele>265</ele>
        <time>2018-01-12T10:22:27Z</time>
      </trkpt>
      <trkpt lat="45.98792" lon="4.83051">
        <ele>265</ele>
        <time>2018-01-12T10:22:29Z</time>
      </trkpt>
      <trkpt lat="45.98789" lon="4.83053">
        <ele>265</ele>
        <time>2018-01-12T10:22:30Z</time>
      </trkpt>
      <trkpt lat="45.98783" lon="4.83058">
        <ele>265</ele>
        <time>2018-01-12T10:22:32Z</time>
      </trkpt>
      <trkpt lat="45.98781" lon="4.8306">
        <ele>265</ele>
        <time>2018-01-12T10:22:33Z</time>
      </trkpt>
      <trkpt lat="45.98775" lon="4.83064">
        <ele>265</ele>
        <time>2018-01-12T10:22:35Z</time>
      </trkpt>
      <trkpt lat="45.98773" lon="4.83066">
        <ele>265</ele>
        <time>2018-01-12T10:22:36Z</time>
      </trkpt>
      <trkpt lat="45.98767" lon="4.83071">
        <ele>266</ele>
        <time>2018-01-12T10:22:38Z</time>
      </trkpt>
      <trkpt lat="45.98765" lon="4.83074">
        <ele>266</ele>
        <time>2018-01-12T10:22:39Z</time>
      </trkpt>
      <trkpt lat="45.9876" lon="4.8308">
        <ele>266</ele>
        <time>2018-01-12T10:22:41Z</time>
      </trkpt>
      <trkpt lat="45.98757" lon="4.83083">
        <ele>266</ele>
        <time>2018-01-12T10:22:42Z</time>
      </trkpt>
      <trkpt lat="45.98752" lon="4.83087">
        <ele>266</ele>
        <time>2018-01-12T10:22:44Z</time>
      </trkpt>
      <trkpt lat="45.98749" lon="4.83089">
        <ele>267</ele>
        <time>2018-01-12T10:22:45Z</time>
      </trkpt>
      <trkpt lat="45.98743" lon="4.83093">
        <ele>267</ele>
        <time>2018-01-12T10:22:47Z</time>
      </trkpt>
      <trkpt lat="45.9874" lon="4.83096">
        <ele>267</ele>
        <time>2018-01-12T10:22:48Z</time>
      </trkpt>
      <trkpt lat="45.98735" lon="4.83101">
        <ele>267</ele>
        <time>2018-01-12T10:22:50Z</time>
      </trkpt>
      <trkpt lat="45.98732" lon="4.83103">
        <ele>267</ele>
        <time>2018-01-12T10:22:51Z</time>
      </trkpt>
      <trkpt lat="45.98726" lon="4.83108">
        <ele>267</ele>
        <time>2018-01-12T10:22:53Z</time>
      </trkpt>
      <trkpt lat="45.98722" lon="4.8311">
        <ele>267</ele>
        <time>2018-01-12T10:22:54Z</time>
      </trkpt>
      <trkpt lat="45.98716" lon="4.83115">
        <ele>267</ele>
        <time>2018-01-12T10:22:56Z</time>
      </trkpt>
      <trkpt lat="45.98713" lon="4.83117">
        <ele>267</ele>
        <time>2018-01-12T10:22:57Z</time>
      </trkpt>
      <trkpt lat="45.98707" lon="4.83123">
        <ele>267</ele>
        <time>2018-01-12T10:22:59Z</time>
      </trkpt>
      <trkpt lat="45.98703" lon="4.83126">
        <ele>267</ele>
        <time>2018-01-12T10:23:00Z</time>
      </trkpt>
      <trkpt lat="45.98697" lon="4.83131">
        <ele>266</ele>
        <time>2018-01-12T10:23:02Z</time>
      </trkpt>
      <trkpt lat="45.98694" lon="4.83134">
        <ele>266</ele>
        <time>2018-01-12T10:23:03Z</time>
      </trkpt>
      <trkpt lat="45.98687" lon="4.83139">
        <ele>266</ele>
        <time>2018-01-12T10:23:05Z</time>
      </trkpt>
      <trkpt lat="45.98684" lon="4.83141">
        <ele>266</ele>
        <time>2018-01-12T10:23:06Z</time>
      </trkpt>
      <trkpt lat="45.98676" lon="4.83145">
        <ele>266</ele>
        <time>2018-01-12T10:23:08Z</time>
      </trkpt>
      <trkpt lat="45.98672" lon="4.83147">
        <ele>266</ele>
        <time>2018-01-12T10:23:09Z</time>
      </trkpt>
      <trkpt lat="45.98668" lon="4.8315">
        <ele>266</ele>
        <time>2018-01-12T10:23:10Z</time>
      </trkpt>
      <trkpt lat="45.98663" lon="4.83155">
        <ele>267</ele>
        <time>2018-01-12T10:23:11Z</time>
      </trkpt>
      <trkpt lat="45.98659" lon="4.83158">
        <ele>267</ele>
        <time>2018-01-12T10:23:12Z</time>
      </trkpt>
      <trkpt lat="45.98655" lon="4.83162">
        <ele>267</ele>
        <time>2018-01-12T10:23:13Z</time>
      </trkpt>
      <trkpt lat="45.98648" lon="4.83168">
        <ele>267</ele>
        <time>2018-01-12T10:23:15Z</time>
      </trkpt>
      <trkpt lat="45.98644" lon="4.83172">
        <ele>267</ele>
        <time>2018-01-12T10:23:16Z</time>
      </trkpt>
      <trkpt lat="45.9864" lon="4.83176">
        <ele>267</ele>
        <time>2018-01-12T10:23:17Z</time>
      </trkpt>
      <trkpt lat="45.98636" lon="4.83181">
        <ele>267</ele>
        <time>2018-01-12T10:23:18Z</time>
      </trkpt>
      <trkpt lat="45.98629" lon="4.83188">
        <ele>267</ele>
        <time>2018-01-12T10:23:20Z</time>
      </trkpt>
      <trkpt lat="45.98625" lon="4.83192">
        <ele>267</ele>
        <time>2018-01-12T10:23:21Z</time>
      </trkpt>
      <trkpt lat="45.98621" lon="4.83196">
        <ele>267</ele>
        <time>2018-01-12T10:23:22Z</time>
      </trkpt>
      <trkpt lat="45.98617" lon="4.83202">
        <ele>267</ele>
        <time>2018-01-12T10:23:23Z</time>
      </trkpt>
      <trkpt lat="45.98614" lon="4.83207">
        <ele>267</ele>
        <time>2018-01-12T10:23:24Z</time>
      </trkpt>
      <trkpt lat="45.9861" lon="4.83213">
        <ele>267</ele>
        <time>2018-01-12T10:23:25Z</time>
      </trkpt>
      <trkpt lat="45.98603" lon="4.83221">
        <ele>267</ele>
        <time>2018-01-12T10:23:27Z</time>
      </trkpt>
      <trkpt lat="45.986" lon="4.83226">
        <ele>268</ele>
        <time>2018-01-12T10:23:28Z</time>
      </trkpt>
      <trkpt lat="45.98594" lon="4.83234">
        <ele>268</ele>
        <time>2018-01-12T10:23:30Z</time>
      </trkpt>
      <trkpt lat="45.9859" lon="4.83239">
        <ele>268</ele>
        <time>2018-01-12T10:23:31Z</time>
      </trkpt>
      <trkpt lat="45.98585" lon="4.83248">
        <ele>268</ele>
        <time>2018-01-12T10:23:33Z</time>
      </trkpt>
      <trkpt lat="45.98581" lon="4.83253">
        <ele>268</ele>
        <time>2018-01-12T10:23:34Z</time>
      </trkpt>
      <trkpt lat="45.98578" lon="4.83257">
        <ele>268</ele>
        <time>2018-01-12T10:23:35Z</time>
      </trkpt>
      <trkpt lat="45.98575" lon="4.83263">
        <ele>269</ele>
        <time>2018-01-12T10:23:36Z</time>
      </trkpt>
      <trkpt lat="45.9857" lon="4.83268">
        <ele>269</ele>
        <time>2018-01-12T10:23:37Z</time>
      </trkpt>
      <trkpt lat="45.98567" lon="4.83273">
        <ele>269</ele>
        <time>2018-01-12T10:23:38Z</time>
      </trkpt>
      <trkpt lat="45.9856" lon="4.83281">
        <ele>269</ele>
        <time>2018-01-12T10:23:40Z</time>
      </trkpt>
      <trkpt lat="45.98556" lon="4.83287">
        <ele>269</ele>
        <time>2018-01-12T10:23:41Z</time>
      </trkpt>
      <trkpt lat="45.9855" lon="4.83295">
        <ele>269</ele>
        <time>2018-01-12T10:23:43Z</time>
      </trkpt>
      <trkpt lat="45.98547" lon="4.83298">
        <ele>269</ele>
        <time>2018-01-12T10:23:44Z</time>
      </trkpt>
      <trkpt lat="45.9854" lon="4.83304">
        <ele>269</ele>
        <time>2018-01-12T10:23:46Z</time>
      </trkpt>
      <trkpt lat="45.98538" lon="4.83308">
        <ele>269</ele>
        <time>2018-01-12T10:23:47Z</time>
      </trkpt>
      <trkpt lat="45.98531" lon="4.83316">
        <ele>269</ele>
        <time>2018-01-12T10:23:49Z</time>
      </trkpt>
      <trkpt lat="45.98528" lon="4.8332">
        <ele>269</ele>
        <time>2018-01-12T10:23:50Z</time>
      </trkpt>
      <trkpt lat="45.98524" lon="4.83324">
        <ele>270</ele>
        <time>2018-01-12T10:23:51Z</time>
      </trkpt>
      <trkpt lat="45.98521" lon="4.83329">
        <ele>270</ele>
        <time>2018-01-12T10:23:52Z</time>
      </trkpt>
      <trkpt lat="45.98518" lon="4.83334">
        <ele>270</ele>
        <time>2018-01-12T10:23:53Z</time>
      </trkpt>
      <trkpt lat="45.98514" lon="4.83339">
        <ele>270</ele>
        <time>2018-01-12T10:23:54Z</time>
      </trkpt>
      <trkpt lat="45.9851" lon="4.83344">
        <ele>270</ele>
        <time>2018-01-12T10:23:55Z</time>
      </trkpt>
      <trkpt lat="45.98507" lon="4.83349">
        <ele>270</ele>
        <time>2018-01-12T10:23:56Z</time>
      </trkpt>
      <trkpt lat="45.98504" lon="4.83354">
        <ele>270</ele>
        <time>2018-01-12T10:23:57Z</time>
      </trkpt>
      <trkpt lat="45.98499" lon="4.8336">
        <ele>270</ele>
        <time>2018-01-12T10:23:58Z</time>
      </trkpt>
      <trkpt lat="45.98495" lon="4.83366">
        <ele>270</ele>
        <time>2018-01-12T10:23:59Z</time>
      </trkpt>
      <trkpt lat="45.98492" lon="4.8337">
        <ele>270</ele>
        <time>2018-01-12T10:24:00Z</time>
      </trkpt>
      <trkpt lat="45.98489" lon="4.83374">
        <ele>270</ele>
        <time>2018-01-12T10:24:01Z</time>
      </trkpt>
      <trkpt lat="45.98485" lon="4.83379">
        <ele>269</ele>
        <time>2018-01-12T10:24:02Z</time>
      </trkpt>
      <trkpt lat="45.98481" lon="4.83383">
        <ele>269</ele>
        <time>2018-01-12T10:24:03Z</time>
      </trkpt>
      <trkpt lat="45.98477" lon="4.83389">
        <ele>269</ele>
        <time>2018-01-12T10:24:04Z</time>
      </trkpt>
      <trkpt lat="45.98473" lon="4.83394">
        <ele>269</ele>
        <time>2018-01-12T10:24:05Z</time>
      </trkpt>
      <trkpt lat="45.98469" lon="4.83399">
        <ele>269</ele>
        <time>2018-01-12T10:24:06Z</time>
      </trkpt>
      <trkpt lat="45.98466" lon="4.83403">
        <ele>269</ele>
        <time>2018-01-12T10:24:07Z</time>
      </trkpt>
      <trkpt lat="45.98462" lon="4.83408">
        <ele>269</ele>
        <time>2018-01-12T10:24:08Z</time>
      </trkpt>
      <trkpt lat="45.98457" lon="4.83416">
        <ele>269</ele>
        <time>2018-01-12T10:24:10Z</time>
      </trkpt>
      <trkpt lat="45.98453" lon="4.83421">
        <ele>269</ele>
        <time>2018-01-12T10:24:11Z</time>
      </trkpt>
      <trkpt lat="45.9845" lon="4.83426">
        <ele>269</ele>
        <time>2018-01-12T10:24:12Z</time>
      </trkpt>
      <trkpt lat="45.98447" lon="4.83431">
        <ele>268</ele>
        <time>2018-01-12T10:24:13Z</time>
      </trkpt>
      <trkpt lat="45.98444" lon="4.83437">
        <ele>268</ele>
        <time>2018-01-12T10:24:14Z</time>
      </trkpt>
      <trkpt lat="45.9844" lon="4.83443">
        <ele>268</ele>
        <time>2018-01-12T10:24:15Z</time>
      </trkpt>
      <trkpt lat="45.98437" lon="4.83448">
        <ele>268</ele>
        <time>2018-01-12T10:24:16Z</time>
      </trkpt>
      <trkpt lat="45.98432" lon="4.83454">
        <ele>268</ele>
        <time>2018-01-12T10:24:17Z</time>
      </trkpt>
      <trkpt lat="45.98426" lon="4.83462">
        <ele>268</ele>
        <time>2018-01-12T10:24:19Z</time>
      </trkpt>
      <trkpt lat="45.98422" lon="4.83466">
        <ele>268</ele>
        <time>2018-01-12T10:24:20Z</time>
      </trkpt>
      <trkpt lat="45.98418" lon="4.83471">
        <ele>268</ele>
        <time>2018-01-12T10:24:21Z</time>
      </trkpt>
      <trkpt lat="45.98414" lon="4.83476">
        <ele>269</ele>
        <time>2018-01-12T10:24:22Z</time>
      </trkpt>
      <trkpt lat="45.9841" lon="4.83481">
        <ele>269</ele>
        <time>2018-01-12T10:24:23Z</time>
      </trkpt>
      <trkpt lat="45.98407" lon="4.83486">
        <ele>269</ele>
        <time>2018-01-12T10:24:24Z</time>
      </trkpt>
      <trkpt lat="45.98403" lon="4.83491">
        <ele>269</ele>
        <time>2018-01-12T10:24:25Z</time>
      </trkpt>
      <trkpt lat="45.984" lon="4.83495">
        <ele>269</ele>
        <time>2018-01-12T10:24:26Z</time>
      </trkpt>
      <trkpt lat="45.98393" lon="4.83504">
        <ele>269</ele>
        <time>2018-01-12T10:24:28Z</time>
      </trkpt>
      <trkpt lat="45.98389" lon="4.83511">
        <ele>269</ele>
        <time>2018-01-12T10:24:29Z</time>
      </trkpt>
      <trkpt lat="45.98386" lon="4.83516">
        <ele>269</ele>
        <time>2018-01-12T10:24:30Z</time>
      </trkpt>
      <trkpt lat="45.98382" lon="4.83521">
        <ele>269</ele>
        <time>2018-01-12T10:24:31Z</time>
      </trkpt>
      <trkpt lat="45.98378" lon="4.83525">
        <ele>269</ele>
        <time>2018-01-12T10:24:32Z</time>
      </trkpt>
      <trkpt lat="45.98374" lon="4.8353">
        <ele>269</ele>
        <time>2018-01-12T10:24:33Z</time>
      </trkpt>
      <trkpt lat="45.98371" lon="4.83534">
        <ele>269</ele>
        <time>2018-01-12T10:24:34Z</time>
      </trkpt>
      <trkpt lat="45.98366" lon="4.83539">
        <ele>269</ele>
        <time>2018-01-12T10:24:35Z</time>
      </trkpt>
      <trkpt lat="45.98362" lon="4.83543">
        <ele>269</ele>
        <time>2018-01-12T10:24:36Z</time>
      </trkpt>
      <trkpt lat="45.98357" lon="4.83549">
        <ele>269</ele>
        <time>2018-01-12T10:24:37Z</time>
      </trkpt>
      <trkpt lat="45.98353" lon="4.83555">
        <ele>269</ele>
        <time>2018-01-12T10:24:38Z</time>
      </trkpt>
      <trkpt lat="45.98349" lon="4.83561">
        <ele>269</ele>
        <time>2018-01-12T10:24:39Z</time>
      </trkpt>
      <trkpt lat="45.98345" lon="4.83566">
        <ele>269</ele>
        <time>2018-01-12T10:24:40Z</time>
      </trkpt>
      <trkpt lat="45.98341" lon="4.83572">
        <ele>270</ele>
        <time>2018-01-12T10:24:41Z</time>
      </trkpt>
      <trkpt lat="45.98338" lon="4.83577">
        <ele>270</ele>
        <time>2018-01-12T10:24:42Z</time>
      </trkpt>
      <trkpt lat="45.98333" lon="4.83582">
        <ele>270</ele>
        <time>2018-01-12T10:24:43Z</time>
      </trkpt>
      <trkpt lat="45.98329" lon="4.83587">
        <ele>270</ele>
        <time>2018-01-12T10:24:44Z</time>
      </trkpt>
      <trkpt lat="45.98326" lon="4.83592">
        <ele>270</ele>
        <time>2018-01-12T10:24:45Z</time>
      </trkpt>
      <trkpt lat="45.98321" lon="4.836">
        <ele>271</ele>
        <time>2018-01-12T10:24:47Z</time>
      </trkpt>
      <trkpt lat="45.98318" lon="4.83605">
        <ele>271</ele>
        <time>2018-01-12T10:24:48Z</time>
      </trkpt>
      <trkpt lat="45.98316" lon="4.83609">
        <ele>271</ele>
        <time>2018-01-12T10:24:49Z</time>
      </trkpt>
      <trkpt lat="45.98311" lon="4.83614">
        <ele>271</ele>
        <time>2018-01-12T10:24:50Z</time>
      </trkpt>
      <trkpt lat="45.98308" lon="4.83618">
        <ele>271</ele>
        <time>2018-01-12T10:24:51Z</time>
      </trkpt>
      <trkpt lat="45.98304" lon="4.83624">
        <ele>271</ele>
        <time>2018-01-12T10:24:52Z</time>
      </trkpt>
      <trkpt lat="45.98301" lon="4.83631">
        <ele>271</ele>
        <time>2018-01-12T10:24:53Z</time>
      </trkpt>
      <trkpt lat="45.98298" lon="4.83637">
        <ele>271</ele>
        <time>2018-01-12T10:24:54Z</time>
      </trkpt>
      <trkpt lat="45.98296" lon="4.83644">
        <ele>271</ele>
        <time>2018-01-12T10:24:55Z</time>
      </trkpt>
      <trkpt lat="45.98293" lon="4.83651">
        <ele>271</ele>
        <time>2018-01-12T10:24:56Z</time>
      </trkpt>
      <trkpt lat="45.98291" lon="4.83658">
        <ele>272</ele>
        <time>2018-01-12T10:24:57Z</time>
      </trkpt>
      <trkpt lat="45.98289" lon="4.83665">
        <ele>272</ele>
        <time>2018-01-12T10:24:58Z</time>
      </trkpt>
      <trkpt lat="45.98286" lon="4.83672">
        <ele>272</ele>
        <time>2018-01-12T10:24:59Z</time>
      </trkpt>
      <trkpt lat="45.98284" lon="4.83678">
        <ele>272</ele>
        <time>2018-01-12T10:25:00Z</time>
      </trkpt>
      <trkpt lat="45.98281" lon="4.83685">
        <ele>272</ele>
        <time>2018-01-12T10:25:01Z</time>
      </trkpt>
      <trkpt lat="45.98278" lon="4.83692">
        <ele>272</ele>
        <time>2018-01-12T10:25:02Z</time>
      </trkpt>
      <trkpt lat="45.98275" lon="4.83699">
        <ele>272</ele>
        <time>2018-01-12T10:25:03Z</time>
      </trkpt>
      <trkpt lat="45.98273" lon="4.83707">
        <ele>272</ele>
        <time>2018-01-12T10:25:04Z</time>
      </trkpt>
      <trkpt lat="45.9827" lon="4.83716">
        <ele>272</ele>
        <time>2018-01-12T10:25:05Z</time>
      </trkpt>
      <trkpt lat="45.98267" lon="4.83724">
        <ele>272</ele>
        <time>2018-01-12T10:25:06Z</time>
      </trkpt>
      <trkpt lat="45.98266" lon="4.8373">
        <ele>272</ele>
        <time>2018-01-12T10:25:07Z</time>
      </trkpt>
      <trkpt lat="45.98263" lon="4.83736">
        <ele>272</ele>
        <time>2018-01-12T10:25:08Z</time>
      </trkpt>
      <trkpt lat="45.98262" lon="4.83742">
        <ele>272</ele>
        <time>2018-01-12T10:25:09Z</time>
      </trkpt>
      <trkpt lat="45.9826" lon="4.83748">
        <ele>272</ele>
        <time>2018-01-12T10:25:10Z</time>
      </trkpt>
      <trkpt lat="45.98258" lon="4.83759">
        <ele>272</ele>
        <time>2018-01-12T10:25:12Z</time>
      </trkpt>
      <trkpt lat="45.98256" lon="4.83765">
        <ele>272</ele>
        <time>2018-01-12T10:25:13Z</time>
      </trkpt>
      <trkpt lat="45.98253" lon="4.83771">
        <ele>272</ele>
        <time>2018-01-12T10:25:14Z</time>
      </trkpt>
      <trkpt lat="45.98251" lon="4.83776">
        <ele>272</ele>
        <time>2018-01-12T10:25:15Z</time>
      </trkpt>
      <trkpt lat="45.98247" lon="4.83787">
        <ele>272</ele>
        <time>2018-01-12T10:25:17Z</time>
      </trkpt>
      <trkpt lat="45.98246" lon="4.83793">
        <ele>272</ele>
        <time>2018-01-12T10:25:18Z</time>
      </trkpt>
      <trkpt lat="45.98241" lon="4.83804">
        <ele>272</ele>
        <time>2018-01-12T10:25:20Z</time>
      </trkpt>
      <trkpt lat="45.98239" lon="4.8381">
        <ele>272</ele>
        <time>2018-01-12T10:25:21Z</time>
      </trkpt>
      <trkpt lat="45.98237" lon="4.83822">
        <ele>272</ele>
        <time>2018-01-12T10:25:23Z</time>
      </trkpt>
      <trkpt lat="45.98235" lon="4.83827">
        <ele>272</ele>
        <time>2018-01-12T10:25:24Z</time>
      </trkpt>
      <trkpt lat="45.98233" lon="4.83833">
        <ele>272</ele>
        <time>2018-01-12T10:25:25Z</time>
      </trkpt>
      <trkpt lat="45.98232" lon="4.8384">
        <ele>272</ele>
        <time>2018-01-12T10:25:26Z</time>
      </trkpt>
      <trkpt lat="45.9823" lon="4.83846">
        <ele>272</ele>
        <time>2018-01-12T10:25:27Z</time>
      </trkpt>
      <trkpt lat="45.98228" lon="4.83852">
        <ele>272</ele>
        <time>2018-01-12T10:25:28Z</time>
      </trkpt>
      <trkpt lat="45.98226" lon="4.83859">
        <ele>272</ele>
        <time>2018-01-12T10:25:29Z</time>
      </trkpt>
      <trkpt lat="45.98223" lon="4.83864">
        <ele>272</ele>
        <time>2018-01-12T10:25:30Z</time>
      </trkpt>
      <trkpt lat="45.98219" lon="4.83875">
        <ele>272</ele>
        <time>2018-01-12T10:25:32Z</time>
      </trkpt>
      <trkpt lat="45.98218" lon="4.8388">
        <ele>272</ele>
        <time>2018-01-12T10:25:33Z</time>
      </trkpt>
      <trkpt lat="45.98215" lon="4.83889">
        <ele>273</ele>
        <time>2018-01-12T10:25:35Z</time>
      </trkpt>
      <trkpt lat="45.98213" lon="4.83894">
        <ele>273</ele>
        <time>2018-01-12T10:25:36Z</time>
      </trkpt>
      <trkpt lat="45.98211" lon="4.839">
        <ele>273</ele>
        <time>2018-01-12T10:25:37Z</time>
      </trkpt>
      <trkpt lat="45.9821" lon="4.83907">
        <ele>273</ele>
        <time>2018-01-12T10:25:38Z</time>
      </trkpt>
      <trkpt lat="45.98207" lon="4.83912">
        <ele>273</ele>
        <time>2018-01-12T10:25:39Z</time>
      </trkpt>
      <trkpt lat="45.98204" lon="4.83918">
        <ele>273</ele>
        <time>2018-01-12T10:25:40Z</time>
      </trkpt>
      <trkpt lat="45.98202" lon="4.83924">
        <ele>273</ele>
        <time>2018-01-12T10:25:41Z</time>
      </trkpt>
      <trkpt lat="45.982" lon="4.8393">
        <ele>273</ele>
        <time>2018-01-12T10:25:42Z</time>
      </trkpt>
      <trkpt lat="45.98196" lon="4.83941">
        <ele>273</ele>
        <time>2018-01-12T10:25:44Z</time>
      </trkpt>
      <trkpt lat="45.98193" lon="4.83946">
        <ele>273</ele>
        <time>2018-01-12T10:25:45Z</time>
      </trkpt>
      <trkpt lat="45.98189" lon="4.83955">
        <ele>273</ele>
        <time>2018-01-12T10:25:47Z</time>
      </trkpt>
      <trkpt lat="45.98188" lon="4.8396">
        <ele>273</ele>
        <time>2018-01-12T10:25:48Z</time>
      </trkpt>
      <trkpt lat="45.98184" lon="4.83969">
        <ele>273</ele>
        <time>2018-01-12T10:25:50Z</time>
      </trkpt>
      <trkpt lat="45.98182" lon="4.83975">
        <ele>273</ele>
        <time>2018-01-12T10:25:51Z</time>
      </trkpt>
      <trkpt lat="45.98177" lon="4.83985">
        <ele>273</ele>
        <time>2018-01-12T10:25:53Z</time>
      </trkpt>
      <trkpt lat="45.98175" lon="4.8399">
        <ele>273</ele>
        <time>2018-01-12T10:25:54Z</time>
      </trkpt>
      <trkpt lat="45.98171" lon="4.84001">
        <ele>273</ele>
        <time>2018-01-12T10:25:56Z</time>
      </trkpt>
      <trkpt lat="45.98169" lon="4.84005">
        <ele>273</ele>
        <time>2018-01-12T10:25:57Z</time>
      </trkpt>
      <trkpt lat="45.98165" lon="4.84015">
        <ele>273</ele>
        <time>2018-01-12T10:25:59Z</time>
      </trkpt>
      <trkpt lat="45.98162" lon="4.8402">
        <ele>273</ele>
        <time>2018-01-12T10:26:00Z</time>
      </trkpt>
      <trkpt lat="45.98158" lon="4.84025">
        <ele>273</ele>
        <time>2018-01-12T10:26:01Z</time>
      </trkpt>
      <trkpt lat="45.98155" lon="4.8403">
        <ele>273</ele>
        <time>2018-01-12T10:26:02Z</time>
      </trkpt>
      <trkpt lat="45.98152" lon="4.84036">
        <ele>273</ele>
        <time>2018-01-12T10:26:03Z</time>
      </trkpt>
      <trkpt lat="45.98149" lon="4.84041">
        <ele>273</ele>
        <time>2018-01-12T10:26:04Z</time>
      </trkpt>
      <trkpt lat="45.98145" lon="4.84046">
        <ele>273</ele>
        <time>2018-01-12T10:26:05Z</time>
      </trkpt>
      <trkpt lat="45.98143" lon="4.8405">
        <ele>273</ele>
        <time>2018-01-12T10:26:06Z</time>
      </trkpt>
      <trkpt lat="45.98136" lon="4.84058">
        <ele>273</ele>
        <time>2018-01-12T10:26:08Z</time>
      </trkpt>
      <trkpt lat="45.98133" lon="4.84062">
        <ele>273</ele>
        <time>2018-01-12T10:26:09Z</time>
      </trkpt>
      <trkpt lat="45.98127" lon="4.8407">
        <ele>273</ele>
        <time>2018-01-12T10:26:11Z</time>
      </trkpt>
      <trkpt lat="45.98123" lon="4.84074">
        <ele>273</ele>
        <time>2018-01-12T10:26:12Z</time>
      </trkpt>
      <trkpt lat="45.98119" lon="4.84078">
        <ele>273</ele>
        <time>2018-01-12T10:26:13Z</time>
      </trkpt>
      <trkpt lat="45.98114" lon="4.84082">
        <ele>273</ele>
        <time>2018-01-12T10:26:14Z</time>
      </trkpt>
      <trkpt lat="45.98111" lon="4.84086">
        <ele>273</ele>
        <time>2018-01-12T10:26:15Z</time>
      </trkpt>
      <trkpt lat="45.98107" lon="4.8409">
        <ele>273</ele>
        <time>2018-01-12T10:26:16Z</time>
      </trkpt>
      <trkpt lat="45.98103" lon="4.84095">
        <ele>273</ele>
        <time>2018-01-12T10:26:17Z</time>
      </trkpt>
      <trkpt lat="45.98099" lon="4.84099">
        <ele>273</ele>
        <time>2018-01-12T10:26:18Z</time>
      </trkpt>
      <trkpt lat="45.98092" lon="4.84105">
        <ele>273</ele>
        <time>2018-01-12T10:26:20Z</time>
      </trkpt>
      <trkpt lat="45.98088" lon="4.84107">
        <ele>273</ele>
        <time>2018-01-12T10:26:21Z</time>
      </trkpt>
      <trkpt lat="45.98082" lon="4.84113">
        <ele>273</ele>
        <time>2018-01-12T10:26:23Z</time>
      </trkpt>
      <trkpt lat="45.98079" lon="4.84116">
        <ele>273</ele>
        <time>2018-01-12T10:26:24Z</time>
      </trkpt>
      <trkpt lat="45.98074" lon="4.84122">
        <ele>273</ele>
        <time>2018-01-12T10:26:26Z</time>
      </trkpt>
      <trkpt lat="45.98071" lon="4.84126">
        <ele>273</ele>
        <time>2018-01-12T10:26:27Z</time>
      </trkpt>
      <trkpt lat="45.98066" lon="4.84129">
        <ele>273</ele>
        <time>2018-01-12T10:26:28Z</time>
      </trkpt>
      <trkpt lat="45.98062" lon="4.84132">
        <ele>273</ele>
        <time>2018-01-12T10:26:29Z</time>
      </trkpt>
      <trkpt lat="45.98055" lon="4.84139">
        <ele>273</ele>
        <time>2018-01-12T10:26:31Z</time>
      </trkpt>
      <trkpt lat="45.98051" lon="4.84142">
        <ele>273</ele>
        <time>2018-01-12T10:26:32Z</time>
      </trkpt>
      <trkpt lat="45.98044" lon="4.84148">
        <ele>273</ele>
        <time>2018-01-12T10:26:34Z</time>
      </trkpt>
      <trkpt lat="45.98039" lon="4.84152">
        <ele>273</ele>
        <time>2018-01-12T10:26:35Z</time>
      </trkpt>
      <trkpt lat="45.98035" lon="4.84155">
        <ele>273</ele>
        <time>2018-01-12T10:26:36Z</time>
      </trkpt>
      <trkpt lat="45.98032" lon="4.84159">
        <ele>273</ele>
        <time>2018-01-12T10:26:37Z</time>
      </trkpt>
      <trkpt lat="45.98028" lon="4.84162">
        <ele>273</ele>
        <time>2018-01-12T10:26:38Z</time>
      </trkpt>
      <trkpt lat="45.98024" lon="4.84166">
        <ele>273</ele>
        <time>2018-01-12T10:26:39Z</time>
      </trkpt>
      <trkpt lat="45.98019" lon="4.8417">
        <ele>274</ele>
        <time>2018-01-12T10:26:40Z</time>
      </trkpt>
      <trkpt lat="45.98016" lon="4.84172">
        <ele>274</ele>
        <time>2018-01-12T10:26:41Z</time>
      </trkpt>
      <trkpt lat="45.98012" lon="4.84176">
        <ele>274</ele>
        <time>2018-01-12T10:26:42Z</time>
      </trkpt>
      <trkpt lat="45.98008" lon="4.84179">
        <ele>274</ele>
        <time>2018-01-12T10:26:43Z</time>
      </trkpt>
      <trkpt lat="45.98004" lon="4.84183">
        <ele>274</ele>
        <time>2018-01-12T10:26:44Z</time>
      </trkpt>
      <trkpt lat="45.97999" lon="4.84187">
        <ele>274</ele>
        <time>2018-01-12T10:26:45Z</time>
      </trkpt>
      <trkpt lat="45.97992" lon="4.84194">
        <ele>274</ele>
        <time>2018-01-12T10:26:47Z</time>
      </trkpt>
      <trkpt lat="45.97988" lon="4.84196">
        <ele>274</ele>
        <time>2018-01-12T10:26:48Z</time>
      </trkpt>
      <trkpt lat="45.97981" lon="4.84203">
        <ele>274</ele>
        <time>2018-01-12T10:26:50Z</time>
      </trkpt>
      <trkpt lat="45.97977" lon="4.84206">
        <ele>274</ele>
        <time>2018-01-12T10:26:51Z</time>
      </trkpt>
      <trkpt lat="45.97971" lon="4.84213">
        <ele>274</ele>
        <time>2018-01-12T10:26:53Z</time>
      </trkpt>
      <trkpt lat="45.97968" lon="4.84217">
        <ele>274</ele>
        <time>2018-01-12T10:26:54Z</time>
      </trkpt>
      <trkpt lat="45.97961" lon="4.84224">
        <ele>274</ele>
        <time>2018-01-12T10:26:56Z</time>
      </trkpt>
      <trkpt lat="45.97957" lon="4.84227">
        <ele>275</ele>
        <time>2018-01-12T10:26:57Z</time>
      </trkpt>
      <trkpt lat="45.97951" lon="4.84234">
        <ele>275</ele>
        <time>2018-01-12T10:26:59Z</time>
      </trkpt>
      <trkpt lat="45.97947" lon="4.84237">
        <ele>275</ele>
        <time>2018-01-12T10:27:00Z</time>
      </trkpt>
      <trkpt lat="45.9794" lon="4.84243">
        <ele>275</ele>
        <time>2018-01-12T10:27:02Z</time>
      </trkpt>
      <trkpt lat="45.97937" lon="4.84246">
        <ele>275</ele>
        <time>2018-01-12T10:27:03Z</time>
      </trkpt>
      <trkpt lat="45.97933" lon="4.8425">
        <ele>275</ele>
        <time>2018-01-12T10:27:04Z</time>
      </trkpt>
      <trkpt lat="45.97928" lon="4.84253">
        <ele>275</ele>
        <time>2018-01-12T10:27:05Z</time>
      </trkpt>
      <trkpt lat="45.97922" lon="4.84263">
        <ele>275</ele>
        <time>2018-01-12T10:27:07Z</time>
      </trkpt>
      <trkpt lat="45.97919" lon="4.84267">
        <ele>275</ele>
        <time>2018-01-12T10:27:08Z</time>
      </trkpt>
      <trkpt lat="45.97913" lon="4.84273">
        <ele>275</ele>
        <time>2018-01-12T10:27:10Z</time>
      </trkpt>
      <trkpt lat="45.9791" lon="4.84277">
        <ele>275</ele>
        <time>2018-01-12T10:27:11Z</time>
      </trkpt>
      <trkpt lat="45.97904" lon="4.84286">
        <ele>275</ele>
        <time>2018-01-12T10:27:13Z</time>
      </trkpt>
      <trkpt lat="45.97901" lon="4.84291">
        <ele>275</ele>
        <time>2018-01-12T10:27:14Z</time>
      </trkpt>
      <trkpt lat="45.97895" lon="4.843">
        <ele>275</ele>
        <time>2018-01-12T10:27:16Z</time>
      </trkpt>
      <trkpt lat="45.97892" lon="4.84305">
        <ele>275</ele>
        <time>2018-01-12T10:27:17Z</time>
      </trkpt>
      <trkpt lat="45.97888" lon="4.84311">
        <ele>275</ele>
        <time>2018-01-12T10:27:18Z</time>
      </trkpt>
      <trkpt lat="45.97885" lon="4.84316">
        <ele>275</ele>
        <time>2018-01-12T10:27:19Z</time>
      </trkpt>
      <trkpt lat="45.97881" lon="4.84322">
        <ele>275</ele>
        <time>2018-01-12T10:27:20Z</time>
      </trkpt>
      <trkpt lat="45.97877" lon="4.84327">
        <ele>275</ele>
        <time>2018-01-12T10:27:21Z</time>
      </trkpt>
      <trkpt lat="45.97874" lon="4.84333">
        <ele>276</ele>
        <time>2018-01-12T10:27:22Z</time>
      </trkpt>
      <trkpt lat="45.9787" lon="4.84339">
        <ele>276</ele>
        <time>2018-01-12T10:27:23Z</time>
      </trkpt>
      <trkpt lat="45.97867" lon="4.84345">
        <ele>276</ele>
        <time>2018-01-12T10:27:24Z</time>
      </trkpt>
      <trkpt lat="45.97863" lon="4.84351">
        <ele>276</ele>
        <time>2018-01-12T10:27:25Z</time>
      </trkpt>
      <trkpt lat="45.97859" lon="4.84357">
        <ele>276</ele>
        <time>2018-01-12T10:27:26Z</time>
      </trkpt>
      <trkpt lat="45.97857" lon="4.84362">
        <ele>276</ele>
        <time>2018-01-12T10:27:27Z</time>
      </trkpt>
      <trkpt lat="45.97852" lon="4.84366">
        <ele>276</ele>
        <time>2018-01-12T10:27:28Z</time>
      </trkpt>
      <trkpt lat="45.97849" lon="4.84371">
        <ele>276</ele>
        <time>2018-01-12T10:27:29Z</time>
      </trkpt>
      <trkpt lat="45.97845" lon="4.84379">
        <ele>276</ele>
        <time>2018-01-12T10:27:31Z</time>
      </trkpt>
      <trkpt lat="45.97842" lon="4.84383">
        <ele>276</ele>
        <time>2018-01-12T10:27:32Z</time>
      </trkpt>
      <trkpt lat="45.97836" lon="4.84389">
        <ele>276</ele>
        <time>2018-01-12T10:27:34Z</time>
      </trkpt>
      <trkpt lat="45.97831" lon="4.84393">
        <ele>276</ele>
        <time>2018-01-12T10:27:35Z</time>
      </trkpt>
      <trkpt lat="45.97825" lon="4.84399">
        <ele>276</ele>
        <time>2018-01-12T10:27:37Z</time>
      </trkpt>
      <trkpt lat="45.9782" lon="4.84402">
        <ele>276</ele>
        <time>2018-01-12T10:27:38Z</time>
      </trkpt>
      <trkpt lat="45.97812" lon="4.84406">
        <ele>277</ele>
        <time>2018-01-12T10:27:40Z</time>
      </trkpt>
      <trkpt lat="45.97809" lon="4.84407">
        <ele>277</ele>
        <time>2018-01-12T10:27:41Z</time>
      </trkpt>
      <trkpt lat="45.97801" lon="4.84412">
        <ele>277</ele>
        <time>2018-01-12T10:27:43Z</time>
      </trkpt>
      <trkpt lat="45.97798" lon="4.84415">
        <ele>277</ele>
        <time>2018-01-12T10:27:44Z</time>
      </trkpt>
      <trkpt lat="45.97793" lon="4.84417">
        <ele>277</ele>
        <time>2018-01-12T10:27:45Z</time>
      </trkpt>
      <trkpt lat="45.97789" lon="4.84419">
        <ele>277</ele>
        <time>2018-01-12T10:27:46Z</time>
      </trkpt>
      <trkpt lat="45.97785" lon="4.84421">
        <ele>277</ele>
        <time>2018-01-12T10:27:47Z</time>
      </trkpt>
      <trkpt lat="45.9778" lon="4.84423">
        <ele>277</ele>
        <time>2018-01-12T10:27:48Z</time>
      </trkpt>
      <trkpt lat="45.97775" lon="4.84425">
        <ele>277</ele>
        <time>2018-01-12T10:27:49Z</time>
      </trkpt>
      <trkpt lat="45.97769" lon="4.84428">
        <ele>277</ele>
        <time>2018-01-12T10:27:50Z</time>
      </trkpt>
      <trkpt lat="45.97765" lon="4.8443">
        <ele>277</ele>
        <time>2018-01-12T10:27:51Z</time>
      </trkpt>
      <trkpt lat="45.9776" lon="4.84431">
        <ele>277</ele>
        <time>2018-01-12T10:27:52Z</time>
      </trkpt>
      <trkpt lat="45.97755" lon="4.84433">
        <ele>277</ele>
        <time>2018-01-12T10:27:53Z</time>
      </trkpt>
      <trkpt lat="45.9775" lon="4.84435">
        <ele>278</ele>
        <time>2018-01-12T10:27:54Z</time>
      </trkpt>
      <trkpt lat="45.97745" lon="4.84436">
        <ele>277</ele>
        <time>2018-01-12T10:27:55Z</time>
      </trkpt>
      <trkpt lat="45.97741" lon="4.84438">
        <ele>277</ele>
        <time>2018-01-12T10:27:56Z</time>
      </trkpt>
      <trkpt lat="45.97736" lon="4.8444">
        <ele>277</ele>
        <time>2018-01-12T10:27:57Z</time>
      </trkpt>
      <trkpt lat="45.97731" lon="4.84442">
        <ele>277</ele>
        <time>2018-01-12T10:27:58Z</time>
      </trkpt>
      <trkpt lat="45.97727" lon="4.84442">
        <ele>277</ele>
        <time>2018-01-12T10:27:59Z</time>
      </trkpt>
      <trkpt lat="45.97722" lon="4.84444">
        <ele>277</ele>
        <time>2018-01-12T10:28:00Z</time>
      </trkpt>
      <trkpt lat="45.97717" lon="4.84445">
        <ele>277</ele>
        <time>2018-01-12T10:28:01Z</time>
      </trkpt>
      <trkpt lat="45.9771" lon="4.84448">
        <ele>277</ele>
        <time>2018-01-12T10:28:02Z</time>
      </trkpt>
      <trkpt lat="45.97704" lon="4.84451">
        <ele>277</ele>
        <time>2018-01-12T10:28:03Z</time>
      </trkpt>
      <trkpt lat="45.97699" lon="4.84453">
        <ele>277</ele>
        <time>2018-01-12T10:28:04Z</time>
      </trkpt>
      <trkpt lat="45.97692" lon="4.84455">
        <ele>277</ele>
        <time>2018-01-12T10:28:05Z</time>
      </trkpt>
      <trkpt lat="45.97686" lon="4.8446">
        <ele>277</ele>
        <time>2018-01-12T10:28:06Z</time>
      </trkpt>
      <trkpt lat="45.97681" lon="4.84463">
        <ele>277</ele>
        <time>2018-01-12T10:28:07Z</time>
      </trkpt>
      <trkpt lat="45.97676" lon="4.84466">
        <ele>277</ele>
        <time>2018-01-12T10:28:08Z</time>
      </trkpt>
      <trkpt lat="45.97671" lon="4.84469">
        <ele>277</ele>
        <time>2018-01-12T10:28:09Z</time>
      </trkpt>
      <trkpt lat="45.97666" lon="4.84473">
        <ele>276</ele>
        <time>2018-01-12T10:28:10Z</time>
      </trkpt>
      <trkpt lat="45.97661" lon="4.84476">
        <ele>276</ele>
        <time>2018-01-12T10:28:11Z</time>
      </trkpt>
      <trkpt lat="45.97657" lon="4.84481">
        <ele>276</ele>
        <time>2018-01-12T10:28:12Z</time>
      </trkpt>
      <trkpt lat="45.97653" lon="4.84485">
        <ele>275</ele>
        <time>2018-01-12T10:28:13Z</time>
      </trkpt>
      <trkpt lat="45.97649" lon="4.84489">
        <ele>275</ele>
        <time>2018-01-12T10:28:14Z</time>
      </trkpt>
      <trkpt lat="45.97644" lon="4.84492">
        <ele>275</ele>
        <time>2018-01-12T10:28:15Z</time>
      </trkpt>
      <trkpt lat="45.97641" lon="4.84496">
        <ele>275</ele>
        <time>2018-01-12T10:28:16Z</time>
      </trkpt>
      <trkpt lat="45.97635" lon="4.84504">
        <ele>275</ele>
        <time>2018-01-12T10:28:18Z</time>
      </trkpt>
      <trkpt lat="45.97632" lon="4.84508">
        <ele>275</ele>
        <time>2018-01-12T10:28:19Z</time>
      </trkpt>
      <trkpt lat="45.97626" lon="4.84516">
        <ele>275</ele>
        <time>2018-01-12T10:28:21Z</time>
      </trkpt>
      <trkpt lat="45.97623" lon="4.84521">
        <ele>275</ele>
        <time>2018-01-12T10:28:22Z</time>
      </trkpt>
      <trkpt lat="45.9762" lon="4.84525">
        <ele>275</ele>
        <time>2018-01-12T10:28:23Z</time>
      </trkpt>
      <trkpt lat="45.97615" lon="4.84529">
        <ele>275</ele>
        <time>2018-01-12T10:28:24Z</time>
      </trkpt>
      <trkpt lat="45.97611" lon="4.84533">
        <ele>275</ele>
        <time>2018-01-12T10:28:25Z</time>
      </trkpt>
      <trkpt lat="45.97607" lon="4.84538">
        <ele>275</ele>
        <time>2018-01-12T10:28:26Z</time>
      </trkpt>
      <trkpt lat="45.97604" lon="4.84542">
        <ele>275</ele>
        <time>2018-01-12T10:28:27Z</time>
      </trkpt>
      <trkpt lat="45.97599" lon="4.84546">
        <ele>275</ele>
        <time>2018-01-12T10:28:28Z</time>
      </trkpt>
      <trkpt lat="45.97593" lon="4.84554">
        <ele>275</ele>
        <time>2018-01-12T10:28:30Z</time>
      </trkpt>
      <trkpt lat="45.9759" lon="4.84558">
        <ele>275</ele>
        <time>2018-01-12T10:28:31Z</time>
      </trkpt>
      <trkpt lat="45.97584" lon="4.84566">
        <ele>274</ele>
        <time>2018-01-12T10:28:33Z</time>
      </trkpt>
      <trkpt lat="45.97581" lon="4.84571">
        <ele>274</ele>
        <time>2018-01-12T10:28:34Z</time>
      </trkpt>
      <trkpt lat="45.97577" lon="4.84576">
        <ele>274</ele>
        <time>2018-01-12T10:28:35Z</time>
      </trkpt>
      <trkpt lat="45.97573" lon="4.84581">
        <ele>274</ele>
        <time>2018-01-12T10:28:36Z</time>
      </trkpt>
      <trkpt lat="45.97566" lon="4.8459">
        <ele>274</ele>
        <time>2018-01-12T10:28:38Z</time>
      </trkpt>
      <trkpt lat="45.97563" lon="4.84594">
        <ele>274</ele>
        <time>2018-01-12T10:28:39Z</time>
      </trkpt>
      <trkpt lat="45.97556" lon="4.84601">
        <ele>274</ele>
        <time>2018-01-12T10:28:41Z</time>
      </trkpt>
      <trkpt lat="45.97553" lon="4.84605">
        <ele>274</ele>
        <time>2018-01-12T10:28:42Z</time>
      </trkpt>
      <trkpt lat="45.97546" lon="4.84612">
        <ele>274</ele>
        <time>2018-01-12T10:28:44Z</time>
      </trkpt>
      <trkpt lat="45.97542" lon="4.84615">
        <ele>275</ele>
        <time>2018-01-12T10:28:45Z</time>
      </trkpt>
      <trkpt lat="45.97534" lon="4.84622">
        <ele>275</ele>
        <time>2018-01-12T10:28:47Z</time>
      </trkpt>
      <trkpt lat="45.9753" lon="4.84624">
        <ele>275</ele>
        <time>2018-01-12T10:28:48Z</time>
      </trkpt>
      <trkpt lat="45.97522" lon="4.84631">
        <ele>275</ele>
        <time>2018-01-12T10:28:50Z</time>
      </trkpt>
      <trkpt lat="45.97519" lon="4.84634">
        <ele>275</ele>
        <time>2018-01-12T10:28:51Z</time>
      </trkpt>
      <trkpt lat="45.97512" lon="4.84641">
        <ele>275</ele>
        <time>2018-01-12T10:28:53Z</time>
      </trkpt>
      <trkpt lat="45.97508" lon="4.84644">
        <ele>275</ele>
        <time>2018-01-12T10:28:54Z</time>
      </trkpt>
      <trkpt lat="45.97503" lon="4.84648">
        <ele>275</ele>
        <time>2018-01-12T10:28:55Z</time>
      </trkpt>
      <trkpt lat="45.97498" lon="4.84651">
        <ele>275</ele>
        <time>2018-01-12T10:28:56Z</time>
      </trkpt>
      <trkpt lat="45.97493" lon="4.84655">
        <ele>275</ele>
        <time>2018-01-12T10:28:57Z</time>
      </trkpt>
      <trkpt lat="45.97488" lon="4.84657">
        <ele>275</ele>
        <time>2018-01-12T10:28:58Z</time>
      </trkpt>
      <trkpt lat="45.97484" lon="4.8466">
        <ele>276</ele>
        <time>2018-01-12T10:28:59Z</time>
      </trkpt>
      <trkpt lat="45.97479" lon="4.84662">
        <ele>276</ele>
        <time>2018-01-12T10:29:00Z</time>
      </trkpt>
      <trkpt lat="45.97475" lon="4.84664">
        <ele>276</ele>
        <time>2018-01-12T10:29:01Z</time>
      </trkpt>
      <trkpt lat="45.9747" lon="4.84666">
        <ele>276</ele>
        <time>2018-01-12T10:29:02Z</time>
      </trkpt>
      <trkpt lat="45.97463" lon="4.84672">
        <ele>276</ele>
        <time>2018-01-12T10:29:04Z</time>
      </trkpt>
      <trkpt lat="45.97459" lon="4.84677">
        <ele>276</ele>
        <time>2018-01-12T10:29:05Z</time>
      </trkpt>
      <trkpt lat="45.97454" lon="4.84679">
        <ele>276</ele>
        <time>2018-01-12T10:29:06Z</time>
      </trkpt>
      <trkpt lat="45.9745" lon="4.84683">
        <ele>276</ele>
        <time>2018-01-12T10:29:07Z</time>
      </trkpt>
      <trkpt lat="45.97443" lon="4.84688">
        <ele>276</ele>
        <time>2018-01-12T10:29:09Z</time>
      </trkpt>
      <trkpt lat="45.97438" lon="4.84692">
        <ele>276</ele>
        <time>2018-01-12T10:29:10Z</time>
      </trkpt>
      <trkpt lat="45.97433" lon="4.84694">
        <ele>276</ele>
        <time>2018-01-12T10:29:11Z</time>
      </trkpt>
      <trkpt lat="45.9743" lon="4.84696">
        <ele>276</ele>
        <time>2018-01-12T10:29:12Z</time>
      </trkpt>
      <trkpt lat="45.97423" lon="4.84701">
        <ele>276</ele>
        <time>2018-01-12T10:29:14Z</time>
      </trkpt>
      <trkpt lat="45.97419" lon="4.84703">
        <ele>276</ele>
        <time>2018-01-12T10:29:15Z</time>
      </trkpt>
      <trkpt lat="45.97412" lon="4.84709">
        <ele>278</ele>
        <time>2018-01-12T10:29:17Z</time>
      </trkpt>
      <trkpt lat="45.97407" lon="4.84712">
        <ele>278</ele>
        <time>2018-01-12T10:29:18Z</time>
      </trkpt>
      <trkpt lat="45.97401" lon="4.84719">
        <ele>278</ele>
        <time>2018-01-12T10:29:20Z</time>
      </trkpt>
      <trkpt lat="45.97397" lon="4.84722">
        <ele>278</ele>
        <time>2018-01-12T10:29:21Z</time>
      </trkpt>
      <trkpt lat="45.9739" lon="4.84728">
        <ele>278</ele>
        <time>2018-01-12T10:29:23Z</time>
      </trkpt>
      <trkpt lat="45.97386" lon="4.84732">
        <ele>278</ele>
        <time>2018-01-12T10:29:24Z</time>
      </trkpt>
      <trkpt lat="45.97384" lon="4.84737">
        <ele>278</ele>
        <time>2018-01-12T10:29:25Z</time>
      </trkpt>
      <trkpt lat="45.9738" lon="4.84743">
        <ele>278</ele>
        <time>2018-01-12T10:29:26Z</time>
      </trkpt>
      <trkpt lat="45.97376" lon="4.84754">
        <ele>278</ele>
        <time>2018-01-12T10:29:28Z</time>
      </trkpt>
      <trkpt lat="45.97373" lon="4.84758">
        <ele>278</ele>
        <time>2018-01-12T10:29:29Z</time>
      </trkpt>
      <trkpt lat="45.9737" lon="4.84768">
        <ele>278</ele>
        <time>2018-01-12T10:29:31Z</time>
      </trkpt>
      <trkpt lat="45.97368" lon="4.84773">
        <ele>278</ele>
        <time>2018-01-12T10:29:32Z</time>
      </trkpt>
      <trkpt lat="45.97364" lon="4.84782">
        <ele>278</ele>
        <time>2018-01-12T10:29:34Z</time>
      </trkpt>
      <trkpt lat="45.97361" lon="4.84788">
        <ele>278</ele>
        <time>2018-01-12T10:29:35Z</time>
      </trkpt>
      <trkpt lat="45.97358" lon="4.84794">
        <ele>278</ele>
        <time>2018-01-12T10:29:36Z</time>
      </trkpt>
      <trkpt lat="45.97357" lon="4.848">
        <ele>278</ele>
        <time>2018-01-12T10:29:37Z</time>
      </trkpt>
      <trkpt lat="45.97354" lon="4.84806">
        <ele>278</ele>
        <time>2018-01-12T10:29:38Z</time>
      </trkpt>
      <trkpt lat="45.97352" lon="4.84813">
        <ele>278</ele>
        <time>2018-01-12T10:29:39Z</time>
      </trkpt>
      <trkpt lat="45.97349" lon="4.84818">
        <ele>278</ele>
        <time>2018-01-12T10:29:40Z</time>
      </trkpt>
      <trkpt lat="45.97347" lon="4.84827">
        <ele>278</ele>
        <time>2018-01-12T10:29:41Z</time>
      </trkpt>
      <trkpt lat="45.97345" lon="4.84834">
        <ele>277</ele>
        <time>2018-01-12T10:29:42Z</time>
      </trkpt>
      <trkpt lat="45.97341" lon="4.8484">
        <ele>278</ele>
        <time>2018-01-12T10:29:43Z</time>
      </trkpt>
      <trkpt lat="45.97338" lon="4.84846">
        <ele>277</ele>
        <time>2018-01-12T10:29:44Z</time>
      </trkpt>
      <trkpt lat="45.97335" lon="4.84854">
        <ele>277</ele>
        <time>2018-01-12T10:29:45Z</time>
      </trkpt>
      <trkpt lat="45.97331" lon="4.84861">
        <ele>278</ele>
        <time>2018-01-12T10:29:46Z</time>
      </trkpt>
      <trkpt lat="45.97327" lon="4.84866">
        <ele>278</ele>
        <time>2018-01-12T10:29:47Z</time>
      </trkpt>
      <trkpt lat="45.97325" lon="4.84872">
        <ele>278</ele>
        <time>2018-01-12T10:29:48Z</time>
      </trkpt>
      <trkpt lat="45.97322" lon="4.84878">
        <ele>278</ele>
        <time>2018-01-12T10:29:49Z</time>
      </trkpt>
      <trkpt lat="45.97318" lon="4.84883">
        <ele>278</ele>
        <time>2018-01-12T10:29:50Z</time>
      </trkpt>
      <trkpt lat="45.97315" lon="4.84887">
        <ele>278</ele>
        <time>2018-01-12T10:29:51Z</time>
      </trkpt>
      <trkpt lat="45.97312" lon="4.84891">
        <ele>278</ele>
        <time>2018-01-12T10:29:52Z</time>
      </trkpt>
      <trkpt lat="45.97308" lon="4.84895">
        <ele>278</ele>
        <time>2018-01-12T10:29:53Z</time>
      </trkpt>
      <trkpt lat="45.97305" lon="4.84901">
        <ele>278</ele>
        <time>2018-01-12T10:29:54Z</time>
      </trkpt>
      <trkpt lat="45.97301" lon="4.84906">
        <ele>278</ele>
        <time>2018-01-12T10:29:55Z</time>
      </trkpt>
      <trkpt lat="45.97298" lon="4.84911">
        <ele>278</ele>
        <time>2018-01-12T10:29:56Z</time>
      </trkpt>
      <trkpt lat="45.97295" lon="4.84917">
        <ele>278</ele>
        <time>2018-01-12T10:29:57Z</time>
      </trkpt>
      <trkpt lat="45.97292" lon="4.84922">
        <ele>278</ele>
        <time>2018-01-12T10:29:58Z</time>
      </trkpt>
      <trkpt lat="45.97289" lon="4.84929">
        <ele>278</ele>
        <time>2018-01-12T10:29:59Z</time>
      </trkpt>
      <trkpt lat="45.97286" lon="4.84936">
        <ele>278</ele>
        <time>2018-01-12T10:30:00Z</time>
      </trkpt>
      <trkpt lat="45.97281" lon="4.84938">
        <ele>279</ele>
        <time>2018-01-12T10:30:01Z</time>
      </trkpt>
      <trkpt lat="45.97278" lon="4.84945">
        <ele>279</ele>
        <time>2018-01-12T10:30:02Z</time>
      </trkpt>
      <trkpt lat="45.97276" lon="4.84951">
        <ele>279</ele>
        <time>2018-01-12T10:30:03Z</time>
      </trkpt>
      <trkpt lat="45.97272" lon="4.8496">
        <ele>279</ele>
        <time>2018-01-12T10:30:05Z</time>
      </trkpt>
      <trkpt lat="45.97269" lon="4.84965">
        <ele>279</ele>
        <time>2018-01-12T10:30:06Z</time>
      </trkpt>
      <trkpt lat="45.97264" lon="4.84973">
        <ele>279</ele>
        <time>2018-01-12T10:30:08Z</time>
      </trkpt>
      <trkpt lat="45.97262" lon="4.84978">
        <ele>279</ele>
        <time>2018-01-12T10:30:09Z</time>
      </trkpt>
      <trkpt lat="45.97258" lon="4.84988">
        <ele>279</ele>
        <time>2018-01-12T10:30:11Z</time>
      </trkpt>
      <trkpt lat="45.97255" lon="4.84993">
        <ele>279</ele>
        <time>2018-01-12T10:30:12Z</time>
      </trkpt>
      <trkpt lat="45.97251" lon="4.85">
        <ele>279</ele>
        <time>2018-01-12T10:30:13Z</time>
      </trkpt>
      <trkpt lat="45.9725" lon="4.85009">
        <ele>279</ele>
        <time>2018-01-12T10:30:14Z</time>
      </trkpt>
      <trkpt lat="45.97247" lon="4.85017">
        <ele>279</ele>
        <time>2018-01-12T10:30:15Z</time>
      </trkpt>
      <trkpt lat="45.97245" lon="4.85023">
        <ele>279</ele>
        <time>2018-01-12T10:30:16Z</time>
      </trkpt>
      <trkpt lat="45.97242" lon="4.8503">
        <ele>279</ele>
        <time>2018-01-12T10:30:17Z</time>
      </trkpt>
      <trkpt lat="45.9724" lon="4.85035">
        <ele>279</ele>
        <time>2018-01-12T10:30:18Z</time>
      </trkpt>
      <trkpt lat="45.97237" lon="4.85042">
        <ele>279</ele>
        <time>2018-01-12T10:30:19Z</time>
      </trkpt>
      <trkpt lat="45.97234" lon="4.85047">
        <ele>279</ele>
        <time>2018-01-12T10:30:20Z</time>
      </trkpt>
      <trkpt lat="45.9723" lon="4.85058">
        <ele>279</ele>
        <time>2018-01-12T10:30:22Z</time>
      </trkpt>
      <trkpt lat="45.97228" lon="4.85063">
        <ele>279</ele>
        <time>2018-01-12T10:30:23Z</time>
      </trkpt>
      <trkpt lat="45.97226" lon="4.85068">
        <ele>278</ele>
        <time>2018-01-12T10:30:24Z</time>
      </trkpt>
      <trkpt lat="45.97224" lon="4.85075">
        <ele>278</ele>
        <time>2018-01-12T10:30:25Z</time>
      </trkpt>
      <trkpt lat="45.9722" lon="4.85079">
        <ele>278</ele>
        <time>2018-01-12T10:30:26Z</time>
      </trkpt>
      <trkpt lat="45.97217" lon="4.85086">
        <ele>278</ele>
        <time>2018-01-12T10:30:27Z</time>
      </trkpt>
      <trkpt lat="45.97215" lon="4.85092">
        <ele>278</ele>
        <time>2018-01-12T10:30:28Z</time>
      </trkpt>
      <trkpt lat="45.97212" lon="4.85096">
        <ele>278</ele>
        <time>2018-01-12T10:30:29Z</time>
      </trkpt>
      <trkpt lat="45.97207" lon="4.85107">
        <ele>278</ele>
        <time>2018-01-12T10:30:31Z</time>
      </trkpt>
      <trkpt lat="45.97205" lon="4.85112">
        <ele>278</ele>
        <time>2018-01-12T10:30:32Z</time>
      </trkpt>
      <trkpt lat="45.972" lon="4.85121">
        <ele>278</ele>
        <time>2018-01-12T10:30:34Z</time>
      </trkpt>
      <trkpt lat="45.97198" lon="4.85127">
        <ele>278</ele>
        <time>2018-01-12T10:30:35Z</time>
      </trkpt>
      <trkpt lat="45.97193" lon="4.85137">
        <ele>278</ele>
        <time>2018-01-12T10:30:37Z</time>
      </trkpt>
      <trkpt lat="45.9719" lon="4.85143">
        <ele>278</ele>
        <time>2018-01-12T10:30:38Z</time>
      </trkpt>
      <trkpt lat="45.97185" lon="4.85152">
        <ele>278</ele>
        <time>2018-01-12T10:30:40Z</time>
      </trkpt>
      <trkpt lat="45.97183" lon="4.85158">
        <ele>278</ele>
        <time>2018-01-12T10:30:41Z</time>
      </trkpt>
      <trkpt lat="45.97178" lon="4.85167">
        <ele>278</ele>
        <time>2018-01-12T10:30:43Z</time>
      </trkpt>
      <trkpt lat="45.97175" lon="4.85172">
        <ele>278</ele>
        <time>2018-01-12T10:30:44Z</time>
      </trkpt>
      <trkpt lat="45.9717" lon="4.85182">
        <ele>278</ele>
        <time>2018-01-12T10:30:46Z</time>
      </trkpt>
      <trkpt lat="45.97167" lon="4.85188">
        <ele>278</ele>
        <time>2018-01-12T10:30:47Z</time>
      </trkpt>
      <trkpt lat="45.97164" lon="4.85193">
        <ele>279</ele>
        <time>2018-01-12T10:30:48Z</time>
      </trkpt>
      <trkpt lat="45.97161" lon="4.85198">
        <ele>279</ele>
        <time>2018-01-12T10:30:49Z</time>
      </trkpt>
      <trkpt lat="45.97158" lon="4.85204">
        <ele>279</ele>
        <time>2018-01-12T10:30:50Z</time>
      </trkpt>
      <trkpt lat="45.97156" lon="4.8521">
        <ele>279</ele>
        <time>2018-01-12T10:30:51Z</time>
      </trkpt>
      <trkpt lat="45.97152" lon="4.85216">
        <ele>279</ele>
        <time>2018-01-12T10:30:52Z</time>
      </trkpt>
      <trkpt lat="45.97149" lon="4.85223">
        <ele>279</ele>
        <time>2018-01-12T10:30:53Z</time>
      </trkpt>
      <trkpt lat="45.97147" lon="4.85228">
        <ele>279</ele>
        <time>2018-01-12T10:30:54Z</time>
      </trkpt>
      <trkpt lat="45.97144" lon="4.85234">
        <ele>279</ele>
        <time>2018-01-12T10:30:55Z</time>
      </trkpt>
      <trkpt lat="45.97138" lon="4.85244">
        <ele>279</ele>
        <time>2018-01-12T10:30:57Z</time>
      </trkpt>
      <trkpt lat="45.97136" lon="4.8525">
        <ele>279</ele>
        <time>2018-01-12T10:30:58Z</time>
      </trkpt>
      <trkpt lat="45.97133" lon="4.85256">
        <ele>279</ele>
        <time>2018-01-12T10:30:59Z</time>
      </trkpt>
      <trkpt lat="45.9713" lon="4.85261">
        <ele>279</ele>
        <time>2018-01-12T10:31:00Z</time>
      </trkpt>
      <trkpt lat="45.97128" lon="4.85266">
        <ele>279</ele>
        <time>2018-01-12T10:31:01Z</time>
      </trkpt>
      <trkpt lat="45.97125" lon="4.85272">
        <ele>279</ele>
        <time>2018-01-12T10:31:02Z</time>
      </trkpt>
      <trkpt lat="45.97123" lon="4.85279">
        <ele>280</ele>
        <time>2018-01-12T10:31:03Z</time>
      </trkpt>
      <trkpt lat="45.9712" lon="4.85283">
        <ele>280</ele>
        <time>2018-01-12T10:31:04Z</time>
      </trkpt>
      <trkpt lat="45.97117" lon="4.8529">
        <ele>280</ele>
        <time>2018-01-12T10:31:05Z</time>
      </trkpt>
      <trkpt lat="45.97114" lon="4.85295">
        <ele>280</ele>
        <time>2018-01-12T10:31:06Z</time>
      </trkpt>
      <trkpt lat="45.97109" lon="4.85305">
        <ele>280</ele>
        <time>2018-01-12T10:31:08Z</time>
      </trkpt>
      <trkpt lat="45.97107" lon="4.85311">
        <ele>280</ele>
        <time>2018-01-12T10:31:09Z</time>
      </trkpt>
      <trkpt lat="45.97103" lon="4.85321">
        <ele>280</ele>
        <time>2018-01-12T10:31:11Z</time>
      </trkpt>
      <trkpt lat="45.97101" lon="4.85327">
        <ele>280</ele>
        <time>2018-01-12T10:31:12Z</time>
      </trkpt>
      <trkpt lat="45.97095" lon="4.85337">
        <ele>280</ele>
        <time>2018-01-12T10:31:14Z</time>
      </trkpt>
      <trkpt lat="45.97094" lon="4.85342">
        <ele>280</ele>
        <time>2018-01-12T10:31:15Z</time>
      </trkpt>
      <trkpt lat="45.97092" lon="4.85348">
        <ele>280</ele>
        <time>2018-01-12T10:31:16Z</time>
      </trkpt>
      <trkpt lat="45.9709" lon="4.85354">
        <ele>280</ele>
        <time>2018-01-12T10:31:17Z</time>
      </trkpt>
      <trkpt lat="45.97088" lon="4.85362">
        <ele>280</ele>
        <time>2018-01-12T10:31:18Z</time>
      </trkpt>
      <trkpt lat="45.97085" lon="4.8537">
        <ele>280</ele>
        <time>2018-01-12T10:31:19Z</time>
      </trkpt>
      <trkpt lat="45.97083" lon="4.85376">
        <ele>281</ele>
        <time>2018-01-12T10:31:20Z</time>
      </trkpt>
      <trkpt lat="45.97081" lon="4.85382">
        <ele>281</ele>
        <time>2018-01-12T10:31:21Z</time>
      </trkpt>
      <trkpt lat="45.97078" lon="4.85393">
        <ele>281</ele>
        <time>2018-01-12T10:31:23Z</time>
      </trkpt>
      <trkpt lat="45.97076" lon="4.85399">
        <ele>281</ele>
        <time>2018-01-12T10:31:24Z</time>
      </trkpt>
      <trkpt lat="45.97073" lon="4.85409">
        <ele>281</ele>
        <time>2018-01-12T10:31:26Z</time>
      </trkpt>
      <trkpt lat="45.97072" lon="4.85415">
        <ele>281</ele>
        <time>2018-01-12T10:31:27Z</time>
      </trkpt>
      <trkpt lat="45.9707" lon="4.85421">
        <ele>281</ele>
        <time>2018-01-12T10:31:28Z</time>
      </trkpt>
      <trkpt lat="45.97068" lon="4.85428">
        <ele>281</ele>
        <time>2018-01-12T10:31:29Z</time>
      </trkpt>
      <trkpt lat="45.97066" lon="4.85434">
        <ele>281</ele>
        <time>2018-01-12T10:31:30Z</time>
      </trkpt>
      <trkpt lat="45.97064" lon="4.8544">
        <ele>281</ele>
        <time>2018-01-12T10:31:31Z</time>
      </trkpt>
      <trkpt lat="45.9706" lon="4.8545">
        <ele>281</ele>
        <time>2018-01-12T10:31:33Z</time>
      </trkpt>
      <trkpt lat="45.97058" lon="4.85454">
        <ele>281</ele>
        <time>2018-01-12T10:31:34Z</time>
      </trkpt>
      <trkpt lat="45.97055" lon="4.85465">
        <ele>281</ele>
        <time>2018-01-12T10:31:36Z</time>
      </trkpt>
      <trkpt lat="45.97054" lon="4.8547">
        <ele>281</ele>
        <time>2018-01-12T10:31:37Z</time>
      </trkpt>
      <trkpt lat="45.97051" lon="4.85476">
        <ele>281</ele>
        <time>2018-01-12T10:31:38Z</time>
      </trkpt>
      <trkpt lat="45.9705" lon="4.85482">
        <ele>281</ele>
        <time>2018-01-12T10:31:39Z</time>
      </trkpt>
      <trkpt lat="45.97048" lon="4.85488">
        <ele>281</ele>
        <time>2018-01-12T10:31:40Z</time>
      </trkpt>
      <trkpt lat="45.97045" lon="4.85493">
        <ele>281</ele>
        <time>2018-01-12T10:31:41Z</time>
      </trkpt>
      <trkpt lat="45.97043" lon="4.85504">
        <ele>282</ele>
        <time>2018-01-12T10:31:43Z</time>
      </trkpt>
      <trkpt lat="45.97041" lon="4.85509">
        <ele>282</ele>
        <time>2018-01-12T10:31:44Z</time>
      </trkpt>
      <trkpt lat="45.97039" lon="4.85518">
        <ele>282</ele>
        <time>2018-01-12T10:31:46Z</time>
      </trkpt>
      <trkpt lat="45.97037" lon="4.85523">
        <ele>282</ele>
        <time>2018-01-12T10:31:47Z</time>
      </trkpt>
      <trkpt lat="45.97034" lon="4.85534">
        <ele>282</ele>
        <time>2018-01-12T10:31:49Z</time>
      </trkpt>
      <trkpt lat="45.97033" lon="4.8554">
        <ele>282</ele>
        <time>2018-01-12T10:31:50Z</time>
      </trkpt>
      <trkpt lat="45.97029" lon="4.85552">
        <ele>283</ele>
        <time>2018-01-12T10:31:52Z</time>
      </trkpt>
      <trkpt lat="45.97028" lon="4.85557">
        <ele>283</ele>
        <time>2018-01-12T10:31:53Z</time>
      </trkpt>
      <trkpt lat="45.97024" lon="4.85569">
        <ele>283</ele>
        <time>2018-01-12T10:31:55Z</time>
      </trkpt>
      <trkpt lat="45.97023" lon="4.85575">
        <ele>283</ele>
        <time>2018-01-12T10:31:56Z</time>
      </trkpt>
      <trkpt lat="45.97021" lon="4.85581">
        <ele>283</ele>
        <time>2018-01-12T10:31:57Z</time>
      </trkpt>
      <trkpt lat="45.97019" lon="4.85587">
        <ele>284</ele>
        <time>2018-01-12T10:31:58Z</time>
      </trkpt>
      <trkpt lat="45.97015" lon="4.85598">
        <ele>284</ele>
        <time>2018-01-12T10:32:00Z</time>
      </trkpt>
      <trkpt lat="45.97014" lon="4.85603">
        <ele>284</ele>
        <time>2018-01-12T10:32:01Z</time>
      </trkpt>
      <trkpt lat="45.97011" lon="4.85614">
        <ele>284</ele>
        <time>2018-01-12T10:32:03Z</time>
      </trkpt>
      <trkpt lat="45.97009" lon="4.85619">
        <ele>284</ele>
        <time>2018-01-12T10:32:04Z</time>
      </trkpt>
      <trkpt lat="45.97006" lon="4.85629">
        <ele>284</ele>
        <time>2018-01-12T10:32:06Z</time>
      </trkpt>
      <trkpt lat="45.97005" lon="4.85634">
        <ele>284</ele>
        <time>2018-01-12T10:32:07Z</time>
      </trkpt>
      <trkpt lat="45.97002" lon="4.85644">
        <ele>284</ele>
        <time>2018-01-12T10:32:09Z</time>
      </trkpt>
      <trkpt lat="45.97001" lon="4.85649">
        <ele>285</ele>
        <time>2018-01-12T10:32:10Z</time>
      </trkpt>
      <trkpt lat="45.96998" lon="4.85658">
        <ele>286</ele>
        <time>2018-01-12T10:32:12Z</time>
      </trkpt>
      <trkpt lat="45.96997" lon="4.85663">
        <ele>286</ele>
        <time>2018-01-12T10:32:13Z</time>
      </trkpt>
      <trkpt lat="45.96995" lon="4.85672">
        <ele>286</ele>
        <time>2018-01-12T10:32:15Z</time>
      </trkpt>
      <trkpt lat="45.96994" lon="4.85677">
        <ele>286</ele>
        <time>2018-01-12T10:32:16Z</time>
      </trkpt>
      <trkpt lat="45.9699" lon="4.85687">
        <ele>285</ele>
        <time>2018-01-12T10:32:18Z</time>
      </trkpt>
      <trkpt lat="45.96989" lon="4.85692">
        <ele>285</ele>
        <time>2018-01-12T10:32:19Z</time>
      </trkpt>
      <trkpt lat="45.96986" lon="4.85704">
        <ele>285</ele>
        <time>2018-01-12T10:32:21Z</time>
      </trkpt>
      <trkpt lat="45.96984" lon="4.8571">
        <ele>285</ele>
        <time>2018-01-12T10:32:22Z</time>
      </trkpt>
      <trkpt lat="45.96982" lon="4.85721">
        <ele>285</ele>
        <time>2018-01-12T10:32:24Z</time>
      </trkpt>
      <trkpt lat="45.96981" lon="4.85727">
        <ele>285</ele>
        <time>2018-01-12T10:32:25Z</time>
      </trkpt>
      <trkpt lat="45.96979" lon="4.85738">
        <ele>285</ele>
        <time>2018-01-12T10:32:27Z</time>
      </trkpt>
      <trkpt lat="45.96977" lon="4.85743">
        <ele>285</ele>
        <time>2018-01-12T10:32:28Z</time>
      </trkpt>
      <trkpt lat="45.96975" lon="4.85754">
        <ele>285</ele>
        <time>2018-01-12T10:32:30Z</time>
      </trkpt>
      <trkpt lat="45.96974" lon="4.85759">
        <ele>285</ele>
        <time>2018-01-12T10:32:31Z</time>
      </trkpt>
      <trkpt lat="45.96973" lon="4.8577">
        <ele>285</ele>
        <time>2018-01-12T10:32:33Z</time>
      </trkpt>
      <trkpt lat="45.96972" lon="4.85775">
        <ele>285</ele>
        <time>2018-01-12T10:32:34Z</time>
      </trkpt>
      <trkpt lat="45.96967" lon="4.85786">
        <ele>285</ele>
        <time>2018-01-12T10:32:36Z</time>
      </trkpt>
      <trkpt lat="45.96965" lon="4.85792">
        <ele>285</ele>
        <time>2018-01-12T10:32:37Z</time>
      </trkpt>
      <trkpt lat="45.96962" lon="4.85803">
        <ele>285</ele>
        <time>2018-01-12T10:32:39Z</time>
      </trkpt>
      <trkpt lat="45.9696" lon="4.85808">
        <ele>285</ele>
        <time>2018-01-12T10:32:40Z</time>
      </trkpt>
      <trkpt lat="45.96959" lon="4.85814">
        <ele>285</ele>
        <time>2018-01-12T10:32:41Z</time>
      </trkpt>
      <trkpt lat="45.96956" lon="4.85821">
        <ele>285</ele>
        <time>2018-01-12T10:32:42Z</time>
      </trkpt>
      <trkpt lat="45.96954" lon="4.85827">
        <ele>285</ele>
        <time>2018-01-12T10:32:43Z</time>
      </trkpt>
      <trkpt lat="45.96953" lon="4.85835">
        <ele>285</ele>
        <time>2018-01-12T10:32:44Z</time>
      </trkpt>
      <trkpt lat="45.9695" lon="4.85842">
        <ele>285</ele>
        <time>2018-01-12T10:32:45Z</time>
      </trkpt>
      <trkpt lat="45.96948" lon="4.85848">
        <ele>285</ele>
        <time>2018-01-12T10:32:46Z</time>
      </trkpt>
      <trkpt lat="45.96947" lon="4.8586">
        <ele>285</ele>
        <time>2018-01-12T10:32:48Z</time>
      </trkpt>
      <trkpt lat="45.96945" lon="4.85866">
        <ele>285</ele>
        <time>2018-01-12T10:32:49Z</time>
      </trkpt>
      <trkpt lat="45.96943" lon="4.85876">
        <ele>285</ele>
        <time>2018-01-12T10:32:51Z</time>
      </trkpt>
      <trkpt lat="45.96942" lon="4.85883">
        <ele>285</ele>
        <time>2018-01-12T10:32:52Z</time>
      </trkpt>
      <trkpt lat="45.96939" lon="4.85895">
        <ele>285</ele>
        <time>2018-01-12T10:32:54Z</time>
      </trkpt>
      <trkpt lat="45.96937" lon="4.85901">
        <ele>285</ele>
        <time>2018-01-12T10:32:55Z</time>
      </trkpt>
      <trkpt lat="45.96934" lon="4.85914">
        <ele>286</ele>
        <time>2018-01-12T10:32:57Z</time>
      </trkpt>
      <trkpt lat="45.96933" lon="4.8592">
        <ele>286</ele>
        <time>2018-01-12T10:32:58Z</time>
      </trkpt>
      <trkpt lat="45.96929" lon="4.85927">
        <ele>286</ele>
        <time>2018-01-12T10:32:59Z</time>
      </trkpt>
      <trkpt lat="45.96926" lon="4.85935">
        <ele>286</ele>
        <time>2018-01-12T10:33:00Z</time>
      </trkpt>
      <trkpt lat="45.96924" lon="4.85941">
        <ele>286</ele>
        <time>2018-01-12T10:33:01Z</time>
      </trkpt>
      <trkpt lat="45.96923" lon="4.85947">
        <ele>286</ele>
        <time>2018-01-12T10:33:02Z</time>
      </trkpt>
      <trkpt lat="45.96921" lon="4.85954">
        <ele>287</ele>
        <time>2018-01-12T10:33:03Z</time>
      </trkpt>
      <trkpt lat="45.9692" lon="4.8596">
        <ele>287</ele>
        <time>2018-01-12T10:33:04Z</time>
      </trkpt>
      <trkpt lat="45.96916" lon="4.85971">
        <ele>288</ele>
        <time>2018-01-12T10:33:06Z</time>
      </trkpt>
      <trkpt lat="45.96915" lon="4.85977">
        <ele>288</ele>
        <time>2018-01-12T10:33:07Z</time>
      </trkpt>
      <trkpt lat="45.96912" lon="4.85989">
        <ele>288</ele>
        <time>2018-01-12T10:33:09Z</time>
      </trkpt>
      <trkpt lat="45.96911" lon="4.85995">
        <ele>288</ele>
        <time>2018-01-12T10:33:10Z</time>
      </trkpt>
      <trkpt lat="45.96909" lon="4.86007">
        <ele>288</ele>
        <time>2018-01-12T10:33:12Z</time>
      </trkpt>
      <trkpt lat="45.96908" lon="4.86012">
        <ele>289</ele>
        <time>2018-01-12T10:33:13Z</time>
      </trkpt>
      <trkpt lat="45.96907" lon="4.86023">
        <ele>289</ele>
        <time>2018-01-12T10:33:15Z</time>
      </trkpt>
      <trkpt lat="45.96905" lon="4.86031">
        <ele>289</ele>
        <time>2018-01-12T10:33:16Z</time>
      </trkpt>
      <trkpt lat="45.96903" lon="4.86043">
        <ele>289</ele>
        <time>2018-01-12T10:33:18Z</time>
      </trkpt>
      <trkpt lat="45.96902" lon="4.8605">
        <ele>289</ele>
        <time>2018-01-12T10:33:19Z</time>
      </trkpt>
      <trkpt lat="45.96902" lon="4.86061">
        <ele>288</ele>
        <time>2018-01-12T10:33:21Z</time>
      </trkpt>
      <trkpt lat="45.96902" lon="4.86067">
        <ele>288</ele>
        <time>2018-01-12T10:33:22Z</time>
      </trkpt>
      <trkpt lat="45.96901" lon="4.86079">
        <ele>288</ele>
        <time>2018-01-12T10:33:24Z</time>
      </trkpt>
      <trkpt lat="45.969" lon="4.86084">
        <ele>288</ele>
        <time>2018-01-12T10:33:25Z</time>
      </trkpt>
      <trkpt lat="45.96898" lon="4.86095">
        <ele>288</ele>
        <time>2018-01-12T10:33:27Z</time>
      </trkpt>
      <trkpt lat="45.96898" lon="4.861">
        <ele>289</ele>
        <time>2018-01-12T10:33:28Z</time>
      </trkpt>
      <trkpt lat="45.96897" lon="4.86111">
        <ele>289</ele>
        <time>2018-01-12T10:33:30Z</time>
      </trkpt>
      <trkpt lat="45.96896" lon="4.86117">
        <ele>289</ele>
        <time>2018-01-12T10:33:31Z</time>
      </trkpt>
      <trkpt lat="45.96895" lon="4.86129">
        <ele>289</ele>
        <time>2018-01-12T10:33:33Z</time>
      </trkpt>
      <trkpt lat="45.96894" lon="4.86135">
        <ele>289</ele>
        <time>2018-01-12T10:33:34Z</time>
      </trkpt>
      <trkpt lat="45.96892" lon="4.86147">
        <ele>289</ele>
        <time>2018-01-12T10:33:36Z</time>
      </trkpt>
      <trkpt lat="45.96892" lon="4.86153">
        <ele>289</ele>
        <time>2018-01-12T10:33:37Z</time>
      </trkpt>
      <trkpt lat="45.9689" lon="4.86163">
        <ele>289</ele>
        <time>2018-01-12T10:33:39Z</time>
      </trkpt>
      <trkpt lat="45.96888" lon="4.86168">
        <ele>289</ele>
        <time>2018-01-12T10:33:40Z</time>
      </trkpt>
      <trkpt lat="45.96887" lon="4.8618">
        <ele>289</ele>
        <time>2018-01-12T10:33:43Z</time>
      </trkpt>
      <trkpt lat="45.96886" lon="4.86183">
        <ele>289</ele>
        <time>2018-01-12T10:33:44Z</time>
      </trkpt>
      <trkpt lat="45.96886" lon="4.86192">
        <ele>289</ele>
        <time>2018-01-12T10:33:47Z</time>
      </trkpt>
      <trkpt lat="45.96886" lon="4.86196">
        <ele>289</ele>
        <time>2018-01-12T10:33:48Z</time>
      </trkpt>
      <trkpt lat="45.96885" lon="4.86204">
        <ele>289</ele>
        <time>2018-01-12T10:33:50Z</time>
      </trkpt>
      <trkpt lat="45.96884" lon="4.86209">
        <ele>289</ele>
        <time>2018-01-12T10:33:51Z</time>
      </trkpt>
      <trkpt lat="45.96882" lon="4.86218">
        <ele>289</ele>
        <time>2018-01-12T10:33:53Z</time>
      </trkpt>
      <trkpt lat="45.96881" lon="4.86223">
        <ele>289</ele>
        <time>2018-01-12T10:33:54Z</time>
      </trkpt>
      <trkpt lat="45.9688" lon="4.86233">
        <ele>289</ele>
        <time>2018-01-12T10:33:56Z</time>
      </trkpt>
      <trkpt lat="45.96879" lon="4.86238">
        <ele>289</ele>
        <time>2018-01-12T10:33:57Z</time>
      </trkpt>
      <trkpt lat="45.96878" lon="4.86249">
        <ele>289</ele>
        <time>2018-01-12T10:33:59Z</time>
      </trkpt>
      <trkpt lat="45.96877" lon="4.86254">
        <ele>288</ele>
        <time>2018-01-12T10:34:00Z</time>
      </trkpt>
      <trkpt lat="45.96876" lon="4.86265">
        <ele>289</ele>
        <time>2018-01-12T10:34:02Z</time>
      </trkpt>
      <trkpt lat="45.96875" lon="4.8627">
        <ele>289</ele>
        <time>2018-01-12T10:34:03Z</time>
      </trkpt>
      <trkpt lat="45.96874" lon="4.86281">
        <ele>289</ele>
        <time>2018-01-12T10:34:05Z</time>
      </trkpt>
      <trkpt lat="45.96874" lon="4.86287">
        <ele>289</ele>
        <time>2018-01-12T10:34:06Z</time>
      </trkpt>
      <trkpt lat="45.96874" lon="4.86298">
        <ele>289</ele>
        <time>2018-01-12T10:34:08Z</time>
      </trkpt>
      <trkpt lat="45.96873" lon="4.86303">
        <ele>289</ele>
        <time>2018-01-12T10:34:09Z</time>
      </trkpt>
      <trkpt lat="45.96871" lon="4.86313">
        <ele>289</ele>
        <time>2018-01-12T10:34:11Z</time>
      </trkpt>
      <trkpt lat="45.9687" lon="4.86318">
        <ele>289</ele>
        <time>2018-01-12T10:34:12Z</time>
      </trkpt>
      <trkpt lat="45.96868" lon="4.86329">
        <ele>289</ele>
        <time>2018-01-12T10:34:14Z</time>
      </trkpt>
      <trkpt lat="45.96866" lon="4.86335">
        <ele>290</ele>
        <time>2018-01-12T10:34:15Z</time>
      </trkpt>
      <trkpt lat="45.96865" lon="4.86341">
        <ele>290</ele>
        <time>2018-01-12T10:34:16Z</time>
      </trkpt>
      <trkpt lat="45.96865" lon="4.86348">
        <ele>290</ele>
        <time>2018-01-12T10:34:17Z</time>
      </trkpt>
      <trkpt lat="45.96864" lon="4.86355">
        <ele>290</ele>
        <time>2018-01-12T10:34:18Z</time>
      </trkpt>
      <trkpt lat="45.96863" lon="4.86361">
        <ele>290</ele>
        <time>2018-01-12T10:34:19Z</time>
      </trkpt>
      <trkpt lat="45.96862" lon="4.86373">
        <ele>290</ele>
        <time>2018-01-12T10:34:21Z</time>
      </trkpt>
      <trkpt lat="45.96861" lon="4.86379">
        <ele>290</ele>
        <time>2018-01-12T10:34:22Z</time>
      </trkpt>
      <trkpt lat="45.96858" lon="4.86391">
        <ele>290</ele>
        <time>2018-01-12T10:34:24Z</time>
      </trkpt>
      <trkpt lat="45.96857" lon="4.86397">
        <ele>290</ele>
        <time>2018-01-12T10:34:25Z</time>
      </trkpt>
      <trkpt lat="45.96854" lon="4.86407">
        <ele>291</ele>
        <time>2018-01-12T10:34:27Z</time>
      </trkpt>
      <trkpt lat="45.96854" lon="4.86412">
        <ele>291</ele>
        <time>2018-01-12T10:34:28Z</time>
      </trkpt>
      <trkpt lat="45.96852" lon="4.86422">
        <ele>290</ele>
        <time>2018-01-12T10:34:30Z</time>
      </trkpt>
      <trkpt lat="45.96851" lon="4.86429">
        <ele>290</ele>
        <time>2018-01-12T10:34:31Z</time>
      </trkpt>
      <trkpt lat="45.96851" lon="4.86437">
        <ele>290</ele>
        <time>2018-01-12T10:34:32Z</time>
      </trkpt>
      <trkpt lat="45.96849" lon="4.86443">
        <ele>290</ele>
        <time>2018-01-12T10:34:33Z</time>
      </trkpt>
      <trkpt lat="45.96848" lon="4.86451">
        <ele>289</ele>
        <time>2018-01-12T10:34:34Z</time>
      </trkpt>
      <trkpt lat="45.96848" lon="4.86459">
        <ele>289</ele>
        <time>2018-01-12T10:34:35Z</time>
      </trkpt>
      <trkpt lat="45.96846" lon="4.86467">
        <ele>289</ele>
        <time>2018-01-12T10:34:36Z</time>
      </trkpt>
      <trkpt lat="45.96844" lon="4.86472">
        <ele>289</ele>
        <time>2018-01-12T10:34:37Z</time>
      </trkpt>
      <trkpt lat="45.96841" lon="4.86482">
        <ele>289</ele>
        <time>2018-01-12T10:34:39Z</time>
      </trkpt>
      <trkpt lat="45.9684" lon="4.86487">
        <ele>289</ele>
        <time>2018-01-12T10:34:40Z</time>
      </trkpt>
      <trkpt lat="45.96836" lon="4.86496">
        <ele>289</ele>
        <time>2018-01-12T10:34:42Z</time>
      </trkpt>
      <trkpt lat="45.96834" lon="4.86501">
        <ele>289</ele>
        <time>2018-01-12T10:34:43Z</time>
      </trkpt>
      <trkpt lat="45.9683" lon="4.86511">
        <ele>289</ele>
        <time>2018-01-12T10:34:45Z</time>
      </trkpt>
      <trkpt lat="45.96827" lon="4.86516">
        <ele>289</ele>
        <time>2018-01-12T10:34:46Z</time>
      </trkpt>
      <trkpt lat="45.96825" lon="4.86522">
        <ele>289</ele>
        <time>2018-01-12T10:34:47Z</time>
      </trkpt>
      <trkpt lat="45.96821" lon="4.86527">
        <ele>289</ele>
        <time>2018-01-12T10:34:48Z</time>
      </trkpt>
      <trkpt lat="45.96818" lon="4.86532">
        <ele>290</ele>
        <time>2018-01-12T10:34:49Z</time>
      </trkpt>
      <trkpt lat="45.96815" lon="4.86537">
        <ele>290</ele>
        <time>2018-01-12T10:34:50Z</time>
      </trkpt>
      <trkpt lat="45.96809" lon="4.86542">
        <ele>290</ele>
        <time>2018-01-12T10:34:51Z</time>
      </trkpt>
      <trkpt lat="45.96806" lon="4.86546">
        <ele>290</ele>
        <time>2018-01-12T10:34:52Z</time>
      </trkpt>
      <trkpt lat="45.96802" lon="4.8655">
        <ele>290</ele>
        <time>2018-01-12T10:34:53Z</time>
      </trkpt>
      <trkpt lat="45.96799" lon="4.86555">
        <ele>290</ele>
        <time>2018-01-12T10:34:54Z</time>
      </trkpt>
      <trkpt lat="45.96794" lon="4.86563">
        <ele>290</ele>
        <time>2018-01-12T10:34:56Z</time>
      </trkpt>
      <trkpt lat="45.96791" lon="4.86567">
        <ele>290</ele>
        <time>2018-01-12T10:34:57Z</time>
      </trkpt>
      <trkpt lat="45.96789" lon="4.86572">
        <ele>290</ele>
        <time>2018-01-12T10:34:58Z</time>
      </trkpt>
      <trkpt lat="45.96786" lon="4.86577">
        <ele>290</ele>
        <time>2018-01-12T10:34:59Z</time>
      </trkpt>
      <trkpt lat="45.96781" lon="4.86586">
        <ele>289</ele>
        <time>2018-01-12T10:35:01Z</time>
      </trkpt>
      <trkpt lat="45.96778" lon="4.86591">
        <ele>289</ele>
        <time>2018-01-12T10:35:02Z</time>
      </trkpt>
      <trkpt lat="45.96774" lon="4.86596">
        <ele>290</ele>
        <time>2018-01-12T10:35:03Z</time>
      </trkpt>
      <trkpt lat="45.96771" lon="4.86601">
        <ele>290</ele>
        <time>2018-01-12T10:35:04Z</time>
      </trkpt>
      <trkpt lat="45.96768" lon="4.86607">
        <ele>290</ele>
        <time>2018-01-12T10:35:05Z</time>
      </trkpt>
      <trkpt lat="45.96764" lon="4.86613">
        <ele>290</ele>
        <time>2018-01-12T10:35:06Z</time>
      </trkpt>
      <trkpt lat="45.96761" lon="4.86619">
        <ele>290</ele>
        <time>2018-01-12T10:35:07Z</time>
      </trkpt>
      <trkpt lat="45.96758" lon="4.86624">
        <ele>290</ele>
        <time>2018-01-12T10:35:08Z</time>
      </trkpt>
      <trkpt lat="45.96754" lon="4.86629">
        <ele>290</ele>
        <time>2018-01-12T10:35:09Z</time>
      </trkpt>
      <trkpt lat="45.96751" lon="4.86634">
        <ele>290</ele>
        <time>2018-01-12T10:35:10Z</time>
      </trkpt>
      <trkpt lat="45.96748" lon="4.8664">
        <ele>290</ele>
        <time>2018-01-12T10:35:11Z</time>
      </trkpt>
      <trkpt lat="45.96746" lon="4.86645">
        <ele>290</ele>
        <time>2018-01-12T10:35:12Z</time>
      </trkpt>
      <trkpt lat="45.96743" lon="4.8665">
        <ele>290</ele>
        <time>2018-01-12T10:35:13Z</time>
      </trkpt>
      <trkpt lat="45.96739" lon="4.86655">
        <ele>290</ele>
        <time>2018-01-12T10:35:14Z</time>
      </trkpt>
      <trkpt lat="45.96735" lon="4.86659">
        <ele>290</ele>
        <time>2018-01-12T10:35:15Z</time>
      </trkpt>
      <trkpt lat="45.96731" lon="4.86663">
        <ele>290</ele>
        <time>2018-01-12T10:35:16Z</time>
      </trkpt>
      <trkpt lat="45.96728" lon="4.86669">
        <ele>289</ele>
        <time>2018-01-12T10:35:17Z</time>
      </trkpt>
      <trkpt lat="45.96724" lon="4.86675">
        <ele>289</ele>
        <time>2018-01-12T10:35:18Z</time>
      </trkpt>
      <trkpt lat="45.96721" lon="4.8668">
        <ele>289</ele>
        <time>2018-01-12T10:35:19Z</time>
      </trkpt>
      <trkpt lat="45.96717" lon="4.86685">
        <ele>289</ele>
        <time>2018-01-12T10:35:20Z</time>
      </trkpt>
      <trkpt lat="45.96714" lon="4.86691">
        <ele>289</ele>
        <time>2018-01-12T10:35:21Z</time>
      </trkpt>
      <trkpt lat="45.96712" lon="4.86696">
        <ele>289</ele>
        <time>2018-01-12T10:35:22Z</time>
      </trkpt>
      <trkpt lat="45.96708" lon="4.86701">
        <ele>289</ele>
        <time>2018-01-12T10:35:23Z</time>
      </trkpt>
      <trkpt lat="45.96706" lon="4.86707">
        <ele>289</ele>
        <time>2018-01-12T10:35:24Z</time>
      </trkpt>
      <trkpt lat="45.96703" lon="4.86712">
        <ele>289</ele>
        <time>2018-01-12T10:35:25Z</time>
      </trkpt>
      <trkpt lat="45.967" lon="4.86717">
        <ele>289</ele>
        <time>2018-01-12T10:35:26Z</time>
      </trkpt>
      <trkpt lat="45.96696" lon="4.86723">
        <ele>289</ele>
        <time>2018-01-12T10:35:27Z</time>
      </trkpt>
      <trkpt lat="45.96693" lon="4.86729">
        <ele>289</ele>
        <time>2018-01-12T10:35:28Z</time>
      </trkpt>
      <trkpt lat="45.9669" lon="4.86735">
        <ele>289</ele>
        <time>2018-01-12T10:35:29Z</time>
      </trkpt>
      <trkpt lat="45.96687" lon="4.86742">
        <ele>289</ele>
        <time>2018-01-12T10:35:30Z</time>
      </trkpt>
      <trkpt lat="45.96684" lon="4.86748">
        <ele>289</ele>
        <time>2018-01-12T10:35:31Z</time>
      </trkpt>
      <trkpt lat="45.9668" lon="4.86754">
        <ele>289</ele>
        <time>2018-01-12T10:35:32Z</time>
      </trkpt>
      <trkpt lat="45.96677" lon="4.8676">
        <ele>289</ele>
        <time>2018-01-12T10:35:33Z</time>
      </trkpt>
      <trkpt lat="45.96674" lon="4.86766">
        <ele>289</ele>
        <time>2018-01-12T10:35:34Z</time>
      </trkpt>
      <trkpt lat="45.96671" lon="4.86771">
        <ele>289</ele>
        <time>2018-01-12T10:35:35Z</time>
      </trkpt>
      <trkpt lat="45.96667" lon="4.86775">
        <ele>289</ele>
        <time>2018-01-12T10:35:36Z</time>
      </trkpt>
      <trkpt lat="45.96663" lon="4.86783">
        <ele>288</ele>
        <time>2018-01-12T10:35:38Z</time>
      </trkpt>
      <trkpt lat="45.9666" lon="4.86788">
        <ele>288</ele>
        <time>2018-01-12T10:35:39Z</time>
      </trkpt>
      <trkpt lat="45.96656" lon="4.86793">
        <ele>288</ele>
        <time>2018-01-12T10:35:40Z</time>
      </trkpt>
      <trkpt lat="45.96653" lon="4.86798">
        <ele>288</ele>
        <time>2018-01-12T10:35:41Z</time>
      </trkpt>
      <trkpt lat="45.9665" lon="4.86803">
        <ele>288</ele>
        <time>2018-01-12T10:35:42Z</time>
      </trkpt>
      <trkpt lat="45.96646" lon="4.86808">
        <ele>288</ele>
        <time>2018-01-12T10:35:43Z</time>
      </trkpt>
      <trkpt lat="45.96644" lon="4.86814">
        <ele>288</ele>
        <time>2018-01-12T10:35:44Z</time>
      </trkpt>
      <trkpt lat="45.96642" lon="4.86819">
        <ele>288</ele>
        <time>2018-01-12T10:35:45Z</time>
      </trkpt>
      <trkpt lat="45.96636" lon="4.86828">
        <ele>288</ele>
        <time>2018-01-12T10:35:47Z</time>
      </trkpt>
      <trkpt lat="45.96633" lon="4.86835">
        <ele>287</ele>
        <time>2018-01-12T10:35:48Z</time>
      </trkpt>
      <trkpt lat="45.96628" lon="4.86845">
        <ele>287</ele>
        <time>2018-01-12T10:35:50Z</time>
      </trkpt>
      <trkpt lat="45.96626" lon="4.8685">
        <ele>287</ele>
        <time>2018-01-12T10:35:51Z</time>
      </trkpt>
      <trkpt lat="45.96623" lon="4.86856">
        <ele>287</ele>
        <time>2018-01-12T10:35:52Z</time>
      </trkpt>
      <trkpt lat="45.9662" lon="4.86862">
        <ele>287</ele>
        <time>2018-01-12T10:35:53Z</time>
      </trkpt>
      <trkpt lat="45.96616" lon="4.86868">
        <ele>287</ele>
        <time>2018-01-12T10:35:54Z</time>
      </trkpt>
      <trkpt lat="45.96613" lon="4.86873">
        <ele>287</ele>
        <time>2018-01-12T10:35:55Z</time>
      </trkpt>
      <trkpt lat="45.96611" lon="4.86879">
        <ele>287</ele>
        <time>2018-01-12T10:35:56Z</time>
      </trkpt>
      <trkpt lat="45.96606" lon="4.86886">
        <ele>287</ele>
        <time>2018-01-12T10:35:57Z</time>
      </trkpt>
      <trkpt lat="45.96604" lon="4.86892">
        <ele>287</ele>
        <time>2018-01-12T10:35:58Z</time>
      </trkpt>
      <trkpt lat="45.966" lon="4.86898">
        <ele>286</ele>
        <time>2018-01-12T10:35:59Z</time>
      </trkpt>
      <trkpt lat="45.96595" lon="4.86903">
        <ele>286</ele>
        <time>2018-01-12T10:36:00Z</time>
      </trkpt>
      <trkpt lat="45.96593" lon="4.86911">
        <ele>286</ele>
        <time>2018-01-12T10:36:01Z</time>
      </trkpt>
      <trkpt lat="45.96589" lon="4.86917">
        <ele>285</ele>
        <time>2018-01-12T10:36:02Z</time>
      </trkpt>
      <trkpt lat="45.96585" lon="4.86923">
        <ele>285</ele>
        <time>2018-01-12T10:36:03Z</time>
      </trkpt>
      <trkpt lat="45.96581" lon="4.86929">
        <ele>284</ele>
        <time>2018-01-12T10:36:04Z</time>
      </trkpt>
      <trkpt lat="45.96578" lon="4.86935">
        <ele>284</ele>
        <time>2018-01-12T10:36:05Z</time>
      </trkpt>
      <trkpt lat="45.96574" lon="4.86942">
        <ele>284</ele>
        <time>2018-01-12T10:36:06Z</time>
      </trkpt>
      <trkpt lat="45.9657" lon="4.86949">
        <ele>284</ele>
        <time>2018-01-12T10:36:07Z</time>
      </trkpt>
      <trkpt lat="45.96566" lon="4.86955">
        <ele>284</ele>
        <time>2018-01-12T10:36:08Z</time>
      </trkpt>
      <trkpt lat="45.96562" lon="4.86961">
        <ele>283</ele>
        <time>2018-01-12T10:36:09Z</time>
      </trkpt>
      <trkpt lat="45.96557" lon="4.86968">
        <ele>283</ele>
        <time>2018-01-12T10:36:10Z</time>
      </trkpt>
      <trkpt lat="45.96553" lon="4.86974">
        <ele>283</ele>
        <time>2018-01-12T10:36:11Z</time>
      </trkpt>
      <trkpt lat="45.96548" lon="4.86983">
        <ele>283</ele>
        <time>2018-01-12T10:36:13Z</time>
      </trkpt>
      <trkpt lat="45.96545" lon="4.86988">
        <ele>283</ele>
        <time>2018-01-12T10:36:14Z</time>
      </trkpt>
      <trkpt lat="45.96543" lon="4.86994">
        <ele>283</ele>
        <time>2018-01-12T10:36:15Z</time>
      </trkpt>
      <trkpt lat="45.96542" lon="4.87001">
        <ele>283</ele>
        <time>2018-01-12T10:36:16Z</time>
      </trkpt>
      <trkpt lat="45.96542" lon="4.87012">
        <ele>283</ele>
        <time>2018-01-12T10:36:20Z</time>
      </trkpt>
      <trkpt lat="45.96543" lon="4.87015">
        <ele>283</ele>
        <time>2018-01-12T10:36:21Z</time>
      </trkpt>
      <trkpt lat="45.96548" lon="4.87021">
        <ele>283</ele>
        <time>2018-01-12T10:36:24Z</time>
      </trkpt>
      <trkpt lat="45.96549" lon="4.87024">
        <ele>283</ele>
        <time>2018-01-12T10:36:25Z</time>
      </trkpt>
      <trkpt lat="45.96548" lon="4.87029">
        <ele>283</ele>
        <time>2018-01-12T10:45:19Z</time>
      </trkpt>
      <trkpt lat="45.96548" lon="4.87029">
        <ele>283</ele>
        <time>2018-01-12T10:45:20Z</time>
      </trkpt>
      <trkpt lat="45.96549" lon="4.87029">
        <ele>283</ele>
        <time>2018-01-12T10:45:45Z</time>
      </trkpt>
      <trkpt lat="45.96549" lon="4.87028">
        <ele>283</ele>
        <time>2018-01-12T10:45:46Z</time>
      </trkpt>
      <trkpt lat="45.96557" lon="4.87031">
        <ele>283</ele>
        <time>2018-01-12T10:46:06Z</time>
      </trkpt>
      <trkpt lat="45.96557" lon="4.87033">
        <ele>283</ele>
        <time>2018-01-12T10:46:07Z</time>
      </trkpt>
      <trkpt lat="45.96559" lon="4.87043">
        <ele>283</ele>
        <time>2018-01-12T10:46:10Z</time>
      </trkpt>
      <trkpt lat="45.96559" lon="4.87047">
        <ele>283</ele>
        <time>2018-01-12T10:46:11Z</time>
      </trkpt>
      <trkpt lat="45.96561" lon="4.87059">
        <ele>283</ele>
        <time>2018-01-12T10:46:14Z</time>
      </trkpt>
      <trkpt lat="45.96561" lon="4.87063">
        <ele>283</ele>
        <time>2018-01-12T10:46:15Z</time>
      </trkpt>
      <trkpt lat="45.96555" lon="4.87071">
        <ele>283</ele>
        <time>2018-01-12T10:46:19Z</time>
      </trkpt>
      <trkpt lat="45.96552" lon="4.87072">
        <ele>283</ele>
        <time>2018-01-12T10:46:20Z</time>
      </trkpt>
      <trkpt lat="45.96544" lon="4.87075">
        <ele>283</ele>
        <time>2018-01-12T10:46:25Z</time>
      </trkpt>
      <trkpt lat="45.96541" lon="4.87074">
        <ele>283</ele>
        <time>2018-01-12T10:46:26Z</time>
      </trkpt>
      <trkpt lat="45.96534" lon="4.87073">
        <ele>283</ele>
        <time>2018-01-12T10:46:29Z</time>
      </trkpt>
      <trkpt lat="45.96531" lon="4.87071">
        <ele>283</ele>
        <time>2018-01-12T10:46:30Z</time>
      </trkpt>
      <trkpt lat="45.96526" lon="4.87064">
        <ele>283</ele>
        <time>2018-01-12T10:46:32Z</time>
      </trkpt>
      <trkpt lat="45.96524" lon="4.87061">
        <ele>283</ele>
        <time>2018-01-12T10:46:33Z</time>
      </trkpt>
      <trkpt lat="45.96519" lon="4.87051">
        <ele>283</ele>
        <time>2018-01-12T10:46:35Z</time>
      </trkpt>
      <trkpt lat="45.96518" lon="4.87047">
        <ele>283</ele>
        <time>2018-01-12T10:46:36Z</time>
      </trkpt>
      <trkpt lat="45.96514" lon="4.8704">
        <ele>283</ele>
        <time>2018-01-12T10:46:39Z</time>
      </trkpt>
      <trkpt lat="45.9651" lon="4.8704">
        <ele>282</ele>
        <time>2018-01-12T10:46:40Z</time>
      </trkpt>
      <trkpt lat="45.96505" lon="4.87045">
        <ele>282</ele>
        <time>2018-01-12T10:46:42Z</time>
      </trkpt>
      <trkpt lat="45.96502" lon="4.87049">
        <ele>282</ele>
        <time>2018-01-12T10:46:43Z</time>
      </trkpt>
      <trkpt lat="45.96498" lon="4.87054">
        <ele>281</ele>
        <time>2018-01-12T10:46:44Z</time>
      </trkpt>
      <trkpt lat="45.96494" lon="4.87058">
        <ele>281</ele>
        <time>2018-01-12T10:46:45Z</time>
      </trkpt>
      <trkpt lat="45.9649" lon="4.87064">
        <ele>282</ele>
        <time>2018-01-12T10:46:46Z</time>
      </trkpt>
      <trkpt lat="45.96486" lon="4.87068">
        <ele>282</ele>
        <time>2018-01-12T10:46:47Z</time>
      </trkpt>
      <trkpt lat="45.96482" lon="4.87072">
        <ele>282</ele>
        <time>2018-01-12T10:46:48Z</time>
      </trkpt>
      <trkpt lat="45.96478" lon="4.87078">
        <ele>282</ele>
        <time>2018-01-12T10:46:49Z</time>
      </trkpt>
      <trkpt lat="45.96473" lon="4.87083">
        <ele>281</ele>
        <time>2018-01-12T10:46:50Z</time>
      </trkpt>
      <trkpt lat="45.96469" lon="4.87088">
        <ele>282</ele>
        <time>2018-01-12T10:46:51Z</time>
      </trkpt>
      <trkpt lat="45.96464" lon="4.87092">
        <ele>282</ele>
        <time>2018-01-12T10:46:52Z</time>
      </trkpt>
      <trkpt lat="45.9646" lon="4.87097">
        <ele>282</ele>
        <time>2018-01-12T10:46:53Z</time>
      </trkpt>
      <trkpt lat="45.96456" lon="4.87102">
        <ele>281</ele>
        <time>2018-01-12T10:46:54Z</time>
      </trkpt>
      <trkpt lat="45.96452" lon="4.87107">
        <ele>281</ele>
        <time>2018-01-12T10:46:55Z</time>
      </trkpt>
      <trkpt lat="45.96449" lon="4.87112">
        <ele>281</ele>
        <time>2018-01-12T10:46:56Z</time>
      </trkpt>
      <trkpt lat="45.96445" lon="4.87116">
        <ele>281</ele>
        <time>2018-01-12T10:46:57Z</time>
      </trkpt>
      <trkpt lat="45.96442" lon="4.87121">
        <ele>281</ele>
        <time>2018-01-12T10:46:58Z</time>
      </trkpt>
      <trkpt lat="45.96437" lon="4.87125">
        <ele>281</ele>
        <time>2018-01-12T10:46:59Z</time>
      </trkpt>
      <trkpt lat="45.96431" lon="4.87132">
        <ele>281</ele>
        <time>2018-01-12T10:47:01Z</time>
      </trkpt>
      <trkpt lat="45.96427" lon="4.87136">
        <ele>281</ele>
        <time>2018-01-12T10:47:02Z</time>
      </trkpt>
      <trkpt lat="45.96424" lon="4.87141">
        <ele>281</ele>
        <time>2018-01-12T10:47:03Z</time>
      </trkpt>
      <trkpt lat="45.9642" lon="4.87147">
        <ele>281</ele>
        <time>2018-01-12T10:47:04Z</time>
      </trkpt>
      <trkpt lat="45.96416" lon="4.87152">
        <ele>281</ele>
        <time>2018-01-12T10:47:05Z</time>
      </trkpt>
      <trkpt lat="45.96412" lon="4.87158">
        <ele>281</ele>
        <time>2018-01-12T10:47:06Z</time>
      </trkpt>
      <trkpt lat="45.96408" lon="4.87164">
        <ele>281</ele>
        <time>2018-01-12T10:47:07Z</time>
      </trkpt>
      <trkpt lat="45.96404" lon="4.87169">
        <ele>281</ele>
        <time>2018-01-12T10:47:08Z</time>
      </trkpt>
      <trkpt lat="45.964" lon="4.87175">
        <ele>282</ele>
        <time>2018-01-12T10:47:09Z</time>
      </trkpt>
      <trkpt lat="45.96396" lon="4.87179">
        <ele>282</ele>
        <time>2018-01-12T10:47:10Z</time>
      </trkpt>
      <trkpt lat="45.96392" lon="4.87185">
        <ele>282</ele>
        <time>2018-01-12T10:47:11Z</time>
      </trkpt>
      <trkpt lat="45.96389" lon="4.8719">
        <ele>282</ele>
        <time>2018-01-12T10:47:12Z</time>
      </trkpt>
      <trkpt lat="45.96385" lon="4.87194">
        <ele>282</ele>
        <time>2018-01-12T10:47:13Z</time>
      </trkpt>
      <trkpt lat="45.96382" lon="4.87199">
        <ele>282</ele>
        <time>2018-01-12T10:47:14Z</time>
      </trkpt>
      <trkpt lat="45.96378" lon="4.87204">
        <ele>282</ele>
        <time>2018-01-12T10:47:15Z</time>
      </trkpt>
      <trkpt lat="45.96375" lon="4.87209">
        <ele>282</ele>
        <time>2018-01-12T10:47:16Z</time>
      </trkpt>
      <trkpt lat="45.96371" lon="4.87214">
        <ele>282</ele>
        <time>2018-01-12T10:47:17Z</time>
      </trkpt>
      <trkpt lat="45.96367" lon="4.87218">
        <ele>282</ele>
        <time>2018-01-12T10:47:18Z</time>
      </trkpt>
      <trkpt lat="45.96363" lon="4.87223">
        <ele>282</ele>
        <time>2018-01-12T10:47:19Z</time>
      </trkpt>
      <trkpt lat="45.9636" lon="4.87229">
        <ele>282</ele>
        <time>2018-01-12T10:47:20Z</time>
      </trkpt>
      <trkpt lat="45.96356" lon="4.87233">
        <ele>282</ele>
        <time>2018-01-12T10:47:21Z</time>
      </trkpt>
      <trkpt lat="45.96352" lon="4.87238">
        <ele>282</ele>
        <time>2018-01-12T10:47:22Z</time>
      </trkpt>
      <trkpt lat="45.96349" lon="4.87242">
        <ele>283</ele>
        <time>2018-01-12T10:47:23Z</time>
      </trkpt>
      <trkpt lat="45.96345" lon="4.87246">
        <ele>283</ele>
        <time>2018-01-12T10:47:24Z</time>
      </trkpt>
      <trkpt lat="45.96338" lon="4.87254">
        <ele>283</ele>
        <time>2018-01-12T10:47:26Z</time>
      </trkpt>
      <trkpt lat="45.96335" lon="4.87259">
        <ele>283</ele>
        <time>2018-01-12T10:47:27Z</time>
      </trkpt>
      <trkpt lat="45.96331" lon="4.87263">
        <ele>283</ele>
        <time>2018-01-12T10:47:28Z</time>
      </trkpt>
      <trkpt lat="45.96328" lon="4.87269">
        <ele>283</ele>
        <time>2018-01-12T10:47:29Z</time>
      </trkpt>
      <trkpt lat="45.96325" lon="4.87273">
        <ele>283</ele>
        <time>2018-01-12T10:47:30Z</time>
      </trkpt>
      <trkpt lat="45.96321" lon="4.87278">
        <ele>283</ele>
        <time>2018-01-12T10:47:31Z</time>
      </trkpt>
      <trkpt lat="45.96318" lon="4.87283">
        <ele>283</ele>
        <time>2018-01-12T10:47:32Z</time>
      </trkpt>
      <trkpt lat="45.96314" lon="4.87288">
        <ele>283</ele>
        <time>2018-01-12T10:47:33Z</time>
      </trkpt>
      <trkpt lat="45.9631" lon="4.87294">
        <ele>283</ele>
        <time>2018-01-12T10:47:34Z</time>
      </trkpt>
      <trkpt lat="45.96306" lon="4.87298">
        <ele>283</ele>
        <time>2018-01-12T10:47:35Z</time>
      </trkpt>
      <trkpt lat="45.96302" lon="4.87303">
        <ele>283</ele>
        <time>2018-01-12T10:47:36Z</time>
      </trkpt>
      <trkpt lat="45.96298" lon="4.87308">
        <ele>283</ele>
        <time>2018-01-12T10:47:37Z</time>
      </trkpt>
      <trkpt lat="45.96294" lon="4.87313">
        <ele>283</ele>
        <time>2018-01-12T10:47:38Z</time>
      </trkpt>
      <trkpt lat="45.96291" lon="4.87319">
        <ele>283</ele>
        <time>2018-01-12T10:47:39Z</time>
      </trkpt>
      <trkpt lat="45.96287" lon="4.87324">
        <ele>283</ele>
        <time>2018-01-12T10:47:40Z</time>
      </trkpt>
      <trkpt lat="45.96283" lon="4.87329">
        <ele>283</ele>
        <time>2018-01-12T10:47:41Z</time>
      </trkpt>
      <trkpt lat="45.96279" lon="4.87333">
        <ele>283</ele>
        <time>2018-01-12T10:47:42Z</time>
      </trkpt>
      <trkpt lat="45.96276" lon="4.87338">
        <ele>283</ele>
        <time>2018-01-12T10:47:43Z</time>
      </trkpt>
      <trkpt lat="45.96272" lon="4.87342">
        <ele>283</ele>
        <time>2018-01-12T10:47:44Z</time>
      </trkpt>
      <trkpt lat="45.96269" lon="4.87347">
        <ele>283</ele>
        <time>2018-01-12T10:47:45Z</time>
      </trkpt>
      <trkpt lat="45.96265" lon="4.87351">
        <ele>283</ele>
        <time>2018-01-12T10:47:46Z</time>
      </trkpt>
      <trkpt lat="45.96261" lon="4.87357">
        <ele>283</ele>
        <time>2018-01-12T10:47:47Z</time>
      </trkpt>
      <trkpt lat="45.96257" lon="4.87362">
        <ele>283</ele>
        <time>2018-01-12T10:47:48Z</time>
      </trkpt>
      <trkpt lat="45.96253" lon="4.87367">
        <ele>283</ele>
        <time>2018-01-12T10:47:49Z</time>
      </trkpt>
      <trkpt lat="45.96249" lon="4.87372">
        <ele>283</ele>
        <time>2018-01-12T10:47:50Z</time>
      </trkpt>
      <trkpt lat="45.96244" lon="4.87377">
        <ele>283</ele>
        <time>2018-01-12T10:47:51Z</time>
      </trkpt>
      <trkpt lat="45.96241" lon="4.87383">
        <ele>283</ele>
        <time>2018-01-12T10:47:52Z</time>
      </trkpt>
      <trkpt lat="45.96236" lon="4.87388">
        <ele>283</ele>
        <time>2018-01-12T10:47:53Z</time>
      </trkpt>
      <trkpt lat="45.96232" lon="4.87392">
        <ele>283</ele>
        <time>2018-01-12T10:47:54Z</time>
      </trkpt>
      <trkpt lat="45.96229" lon="4.87396">
        <ele>283</ele>
        <time>2018-01-12T10:47:55Z</time>
      </trkpt>
      <trkpt lat="45.96225" lon="4.87401">
        <ele>283</ele>
        <time>2018-01-12T10:47:56Z</time>
      </trkpt>
      <trkpt lat="45.96223" lon="4.87406">
        <ele>283</ele>
        <time>2018-01-12T10:47:57Z</time>
      </trkpt>
      <trkpt lat="45.96219" lon="4.87411">
        <ele>283</ele>
        <time>2018-01-12T10:47:58Z</time>
      </trkpt>
      <trkpt lat="45.96215" lon="4.87415">
        <ele>283</ele>
        <time>2018-01-12T10:47:59Z</time>
      </trkpt>
      <trkpt lat="45.96211" lon="4.87418">
        <ele>284</ele>
        <time>2018-01-12T10:48:00Z</time>
      </trkpt>
      <trkpt lat="45.96207" lon="4.87423">
        <ele>284</ele>
        <time>2018-01-12T10:48:01Z</time>
      </trkpt>
      <trkpt lat="45.96203" lon="4.87428">
        <ele>284</ele>
        <time>2018-01-12T10:48:02Z</time>
      </trkpt>
      <trkpt lat="45.96199" lon="4.87433">
        <ele>284</ele>
        <time>2018-01-12T10:48:03Z</time>
      </trkpt>
      <trkpt lat="45.96194" lon="4.87438">
        <ele>284</ele>
        <time>2018-01-12T10:48:04Z</time>
      </trkpt>
      <trkpt lat="45.9619" lon="4.87441">
        <ele>284</ele>
        <time>2018-01-12T10:48:05Z</time>
      </trkpt>
      <trkpt lat="45.96186" lon="4.87445">
        <ele>284</ele>
        <time>2018-01-12T10:48:06Z</time>
      </trkpt>
      <trkpt lat="45.96183" lon="4.8745">
        <ele>284</ele>
        <time>2018-01-12T10:48:07Z</time>
      </trkpt>
      <trkpt lat="45.96179" lon="4.87454">
        <ele>284</ele>
        <time>2018-01-12T10:48:08Z</time>
      </trkpt>
      <trkpt lat="45.96176" lon="4.87458">
        <ele>284</ele>
        <time>2018-01-12T10:48:09Z</time>
      </trkpt>
      <trkpt lat="45.96172" lon="4.87462">
        <ele>284</ele>
        <time>2018-01-12T10:48:10Z</time>
      </trkpt>
      <trkpt lat="45.96168" lon="4.87466">
        <ele>284</ele>
        <time>2018-01-12T10:48:11Z</time>
      </trkpt>
      <trkpt lat="45.96164" lon="4.8747">
        <ele>285</ele>
        <time>2018-01-12T10:48:12Z</time>
      </trkpt>
      <trkpt lat="45.96159" lon="4.87474">
        <ele>285</ele>
        <time>2018-01-12T10:48:13Z</time>
      </trkpt>
      <trkpt lat="45.96155" lon="4.87478">
        <ele>285</ele>
        <time>2018-01-12T10:48:14Z</time>
      </trkpt>
      <trkpt lat="45.96152" lon="4.87482">
        <ele>285</ele>
        <time>2018-01-12T10:48:15Z</time>
      </trkpt>
      <trkpt lat="45.96145" lon="4.8749">
        <ele>285</ele>
        <time>2018-01-12T10:48:17Z</time>
      </trkpt>
      <trkpt lat="45.96141" lon="4.87493">
        <ele>285</ele>
        <time>2018-01-12T10:48:18Z</time>
      </trkpt>
      <trkpt lat="45.96137" lon="4.87497">
        <ele>285</ele>
        <time>2018-01-12T10:48:19Z</time>
      </trkpt>
      <trkpt lat="45.96133" lon="4.87501">
        <ele>286</ele>
        <time>2018-01-12T10:48:20Z</time>
      </trkpt>
      <trkpt lat="45.96129" lon="4.87506">
        <ele>286</ele>
        <time>2018-01-12T10:48:21Z</time>
      </trkpt>
      <trkpt lat="45.96126" lon="4.8751">
        <ele>286</ele>
        <time>2018-01-12T10:48:22Z</time>
      </trkpt>
      <trkpt lat="45.96122" lon="4.87515">
        <ele>286</ele>
        <time>2018-01-12T10:48:23Z</time>
      </trkpt>
      <trkpt lat="45.96118" lon="4.87519">
        <ele>286</ele>
        <time>2018-01-12T10:48:24Z</time>
      </trkpt>
      <trkpt lat="45.96114" lon="4.87523">
        <ele>287</ele>
        <time>2018-01-12T10:48:25Z</time>
      </trkpt>
      <trkpt lat="45.96111" lon="4.87528">
        <ele>287</ele>
        <time>2018-01-12T10:48:26Z</time>
      </trkpt>
      <trkpt lat="45.96106" lon="4.87534">
        <ele>287</ele>
        <time>2018-01-12T10:48:27Z</time>
      </trkpt>
      <trkpt lat="45.96102" lon="4.87538">
        <ele>287</ele>
        <time>2018-01-12T10:48:28Z</time>
      </trkpt>
      <trkpt lat="45.96098" lon="4.87541">
        <ele>287</ele>
        <time>2018-01-12T10:48:29Z</time>
      </trkpt>
      <trkpt lat="45.96094" lon="4.87542">
        <ele>287</ele>
        <time>2018-01-12T10:48:30Z</time>
      </trkpt>
      <trkpt lat="45.96085" lon="4.87545">
        <ele>287</ele>
        <time>2018-01-12T10:48:32Z</time>
      </trkpt>
      <trkpt lat="45.96081" lon="4.8755">
        <ele>288</ele>
        <time>2018-01-12T10:48:33Z</time>
      </trkpt>
      <trkpt lat="45.96078" lon="4.87556">
        <ele>288</ele>
        <time>2018-01-12T10:48:34Z</time>
      </trkpt>
      <trkpt lat="45.96073" lon="4.8756">
        <ele>288</ele>
        <time>2018-01-12T10:48:35Z</time>
      </trkpt>
      <trkpt lat="45.9607" lon="4.87565">
        <ele>288</ele>
        <time>2018-01-12T10:48:36Z</time>
      </trkpt>
      <trkpt lat="45.96066" lon="4.8757">
        <ele>288</ele>
        <time>2018-01-12T10:48:37Z</time>
      </trkpt>
      <trkpt lat="45.9606" lon="4.87579">
        <ele>288</ele>
        <time>2018-01-12T10:48:39Z</time>
      </trkpt>
      <trkpt lat="45.96057" lon="4.87584">
        <ele>288</ele>
        <time>2018-01-12T10:48:40Z</time>
      </trkpt>
      <trkpt lat="45.96054" lon="4.8759">
        <ele>288</ele>
        <time>2018-01-12T10:48:41Z</time>
      </trkpt>
      <trkpt lat="45.9605" lon="4.87594">
        <ele>288</ele>
        <time>2018-01-12T10:48:42Z</time>
      </trkpt>
      <trkpt lat="45.96047" lon="4.87598">
        <ele>289</ele>
        <time>2018-01-12T10:48:43Z</time>
      </trkpt>
      <trkpt lat="45.96042" lon="4.87603">
        <ele>289</ele>
        <time>2018-01-12T10:48:44Z</time>
      </trkpt>
      <trkpt lat="45.96039" lon="4.87608">
        <ele>289</ele>
        <time>2018-01-12T10:48:45Z</time>
      </trkpt>
      <trkpt lat="45.96035" lon="4.87612">
        <ele>289</ele>
        <time>2018-01-12T10:48:46Z</time>
      </trkpt>
      <trkpt lat="45.96031" lon="4.87617">
        <ele>289</ele>
        <time>2018-01-12T10:48:47Z</time>
      </trkpt>
      <trkpt lat="45.96028" lon="4.87622">
        <ele>289</ele>
        <time>2018-01-12T10:48:48Z</time>
      </trkpt>
      <trkpt lat="45.96022" lon="4.87629">
        <ele>289</ele>
        <time>2018-01-12T10:48:50Z</time>
      </trkpt>
      <trkpt lat="45.96019" lon="4.87633">
        <ele>289</ele>
        <time>2018-01-12T10:48:51Z</time>
      </trkpt>
      <trkpt lat="45.96012" lon="4.8764">
        <ele>289</ele>
        <time>2018-01-12T10:48:53Z</time>
      </trkpt>
      <trkpt lat="45.96008" lon="4.87644">
        <ele>289</ele>
        <time>2018-01-12T10:48:54Z</time>
      </trkpt>
      <trkpt lat="45.96005" lon="4.87648">
        <ele>289</ele>
        <time>2018-01-12T10:48:55Z</time>
      </trkpt>
      <trkpt lat="45.96001" lon="4.87653">
        <ele>289</ele>
        <time>2018-01-12T10:48:56Z</time>
      </trkpt>
      <trkpt lat="45.95998" lon="4.87658">
        <ele>289</ele>
        <time>2018-01-12T10:48:57Z</time>
      </trkpt>
      <trkpt lat="45.95995" lon="4.87663">
        <ele>290</ele>
        <time>2018-01-12T10:48:58Z</time>
      </trkpt>
      <trkpt lat="45.95987" lon="4.87671">
        <ele>289</ele>
        <time>2018-01-12T10:49:00Z</time>
      </trkpt>
      <trkpt lat="45.95984" lon="4.87675">
        <ele>289</ele>
        <time>2018-01-12T10:49:01Z</time>
      </trkpt>
      <trkpt lat="45.95978" lon="4.87683">
        <ele>289</ele>
        <time>2018-01-12T10:49:03Z</time>
      </trkpt>
      <trkpt lat="45.95975" lon="4.87687">
        <ele>289</ele>
        <time>2018-01-12T10:49:04Z</time>
      </trkpt>
      <trkpt lat="45.9597" lon="4.87691">
        <ele>289</ele>
        <time>2018-01-12T10:49:05Z</time>
      </trkpt>
      <trkpt lat="45.95967" lon="4.87696">
        <ele>289</ele>
        <time>2018-01-12T10:49:06Z</time>
      </trkpt>
      <trkpt lat="45.9596" lon="4.87704">
        <ele>289</ele>
        <time>2018-01-12T10:49:08Z</time>
      </trkpt>
      <trkpt lat="45.95957" lon="4.87709">
        <ele>289</ele>
        <time>2018-01-12T10:49:09Z</time>
      </trkpt>
      <trkpt lat="45.95954" lon="4.87713">
        <ele>289</ele>
        <time>2018-01-12T10:49:10Z</time>
      </trkpt>
      <trkpt lat="45.9595" lon="4.87717">
        <ele>289</ele>
        <time>2018-01-12T10:49:11Z</time>
      </trkpt>
      <trkpt lat="45.95947" lon="4.87723">
        <ele>289</ele>
        <time>2018-01-12T10:49:12Z</time>
      </trkpt>
      <trkpt lat="45.95944" lon="4.87728">
        <ele>289</ele>
        <time>2018-01-12T10:49:13Z</time>
      </trkpt>
      <trkpt lat="45.95938" lon="4.87737">
        <ele>288</ele>
        <time>2018-01-12T10:49:15Z</time>
      </trkpt>
      <trkpt lat="45.95935" lon="4.87744">
        <ele>288</ele>
        <time>2018-01-12T10:49:16Z</time>
      </trkpt>
      <trkpt lat="45.95931" lon="4.8775">
        <ele>288</ele>
        <time>2018-01-12T10:49:17Z</time>
      </trkpt>
      <trkpt lat="45.95927" lon="4.87754">
        <ele>288</ele>
        <time>2018-01-12T10:49:18Z</time>
      </trkpt>
      <trkpt lat="45.95924" lon="4.8776">
        <ele>288</ele>
        <time>2018-01-12T10:49:19Z</time>
      </trkpt>
      <trkpt lat="45.95921" lon="4.87766">
        <ele>288</ele>
        <time>2018-01-12T10:49:20Z</time>
      </trkpt>
      <trkpt lat="45.95915" lon="4.87775">
        <ele>288</ele>
        <time>2018-01-12T10:49:22Z</time>
      </trkpt>
      <trkpt lat="45.95912" lon="4.8778">
        <ele>288</ele>
        <time>2018-01-12T10:49:23Z</time>
      </trkpt>
      <trkpt lat="45.95909" lon="4.87785">
        <ele>288</ele>
        <time>2018-01-12T10:49:24Z</time>
      </trkpt>
      <trkpt lat="45.95905" lon="4.8779">
        <ele>288</ele>
        <time>2018-01-12T10:49:25Z</time>
      </trkpt>
      <trkpt lat="45.95901" lon="4.87795">
        <ele>288</ele>
        <time>2018-01-12T10:49:26Z</time>
      </trkpt>
      <trkpt lat="45.95897" lon="4.878">
        <ele>288</ele>
        <time>2018-01-12T10:49:27Z</time>
      </trkpt>
      <trkpt lat="45.95894" lon="4.87806">
        <ele>288</ele>
        <time>2018-01-12T10:49:28Z</time>
      </trkpt>
      <trkpt lat="45.9589" lon="4.87811">
        <ele>288</ele>
        <time>2018-01-12T10:49:29Z</time>
      </trkpt>
      <trkpt lat="45.95887" lon="4.87815">
        <ele>288</ele>
        <time>2018-01-12T10:49:30Z</time>
      </trkpt>
      <trkpt lat="45.95883" lon="4.87819">
        <ele>288</ele>
        <time>2018-01-12T10:49:31Z</time>
      </trkpt>
      <trkpt lat="45.95879" lon="4.87823">
        <ele>288</ele>
        <time>2018-01-12T10:49:32Z</time>
      </trkpt>
      <trkpt lat="45.95875" lon="4.87827">
        <ele>288</ele>
        <time>2018-01-12T10:49:33Z</time>
      </trkpt>
      <trkpt lat="45.95868" lon="4.87833">
        <ele>288</ele>
        <time>2018-01-12T10:49:35Z</time>
      </trkpt>
      <trkpt lat="45.95864" lon="4.87834">
        <ele>289</ele>
        <time>2018-01-12T10:49:36Z</time>
      </trkpt>
      <trkpt lat="45.95856" lon="4.87836">
        <ele>289</ele>
        <time>2018-01-12T10:49:38Z</time>
      </trkpt>
      <trkpt lat="45.95853" lon="4.87838">
        <ele>289</ele>
        <time>2018-01-12T10:49:39Z</time>
      </trkpt>
      <trkpt lat="45.95845" lon="4.87838">
        <ele>288</ele>
        <time>2018-01-12T10:49:41Z</time>
      </trkpt>
      <trkpt lat="45.95841" lon="4.87839">
        <ele>288</ele>
        <time>2018-01-12T10:49:42Z</time>
      </trkpt>
      <trkpt lat="45.95834" lon="4.87843">
        <ele>288</ele>
        <time>2018-01-12T10:49:44Z</time>
      </trkpt>
      <trkpt lat="45.9583" lon="4.87846">
        <ele>287</ele>
        <time>2018-01-12T10:49:45Z</time>
      </trkpt>
      <trkpt lat="45.95826" lon="4.8785">
        <ele>287</ele>
        <time>2018-01-12T10:49:46Z</time>
      </trkpt>
      <trkpt lat="45.95822" lon="4.87854">
        <ele>287</ele>
        <time>2018-01-12T10:49:47Z</time>
      </trkpt>
      <trkpt lat="45.95818" lon="4.87859">
        <ele>287</ele>
        <time>2018-01-12T10:49:48Z</time>
      </trkpt>
      <trkpt lat="45.95814" lon="4.87862">
        <ele>287</ele>
        <time>2018-01-12T10:49:49Z</time>
      </trkpt>
      <trkpt lat="45.9581" lon="4.87866">
        <ele>287</ele>
        <time>2018-01-12T10:49:50Z</time>
      </trkpt>
      <trkpt lat="45.95806" lon="4.8787">
        <ele>287</ele>
        <time>2018-01-12T10:49:51Z</time>
      </trkpt>
      <trkpt lat="45.95803" lon="4.87874">
        <ele>287</ele>
        <time>2018-01-12T10:49:52Z</time>
      </trkpt>
      <trkpt lat="45.95798" lon="4.87879">
        <ele>286</ele>
        <time>2018-01-12T10:49:53Z</time>
      </trkpt>
      <trkpt lat="45.95795" lon="4.87884">
        <ele>286</ele>
        <time>2018-01-12T10:49:54Z</time>
      </trkpt>
      <trkpt lat="45.95791" lon="4.87889">
        <ele>286</ele>
        <time>2018-01-12T10:49:55Z</time>
      </trkpt>
      <trkpt lat="45.95785" lon="4.87891">
        <ele>286</ele>
        <time>2018-01-12T10:49:56Z</time>
      </trkpt>
      <trkpt lat="45.9578" lon="4.87893">
        <ele>286</ele>
        <time>2018-01-12T10:49:57Z</time>
      </trkpt>
      <trkpt lat="45.95776" lon="4.87897">
        <ele>286</ele>
        <time>2018-01-12T10:49:58Z</time>
      </trkpt>
      <trkpt lat="45.9577" lon="4.87901">
        <ele>286</ele>
        <time>2018-01-12T10:49:59Z</time>
      </trkpt>
      <trkpt lat="45.95765" lon="4.87904">
        <ele>286</ele>
        <time>2018-01-12T10:50:00Z</time>
      </trkpt>
      <trkpt lat="45.9576" lon="4.87908">
        <ele>285</ele>
        <time>2018-01-12T10:50:01Z</time>
      </trkpt>
      <trkpt lat="45.95753" lon="4.87914">
        <ele>285</ele>
        <time>2018-01-12T10:50:02Z</time>
      </trkpt>
      <trkpt lat="45.95748" lon="4.87919">
        <ele>285</ele>
        <time>2018-01-12T10:50:03Z</time>
      </trkpt>
      <trkpt lat="45.95742" lon="4.87923">
        <ele>284</ele>
        <time>2018-01-12T10:50:04Z</time>
      </trkpt>
      <trkpt lat="45.95736" lon="4.87926">
        <ele>284</ele>
        <time>2018-01-12T10:50:05Z</time>
      </trkpt>
      <trkpt lat="45.9573" lon="4.87931">
        <ele>284</ele>
        <time>2018-01-12T10:50:06Z</time>
      </trkpt>
      <trkpt lat="45.95725" lon="4.87937">
        <ele>283</ele>
        <time>2018-01-12T10:50:07Z</time>
      </trkpt>
      <trkpt lat="45.95719" lon="4.87942">
        <ele>283</ele>
        <time>2018-01-12T10:50:08Z</time>
      </trkpt>
      <trkpt lat="45.95713" lon="4.87946">
        <ele>283</ele>
        <time>2018-01-12T10:50:09Z</time>
      </trkpt>
      <trkpt lat="45.95707" lon="4.87952">
        <ele>283</ele>
        <time>2018-01-12T10:50:10Z</time>
      </trkpt>
      <trkpt lat="45.95701" lon="4.87958">
        <ele>283</ele>
        <time>2018-01-12T10:50:11Z</time>
      </trkpt>
      <trkpt lat="45.95695" lon="4.87963">
        <ele>282</ele>
        <time>2018-01-12T10:50:12Z</time>
      </trkpt>
      <trkpt lat="45.95689" lon="4.87968">
        <ele>282</ele>
        <time>2018-01-12T10:50:13Z</time>
      </trkpt>
      <trkpt lat="45.95683" lon="4.87974">
        <ele>282</ele>
        <time>2018-01-12T10:50:14Z</time>
      </trkpt>
      <trkpt lat="45.95676" lon="4.8798">
        <ele>282</ele>
        <time>2018-01-12T10:50:15Z</time>
      </trkpt>
      <trkpt lat="45.95669" lon="4.87986">
        <ele>282</ele>
        <time>2018-01-12T10:50:16Z</time>
      </trkpt>
      <trkpt lat="45.95661" lon="4.87993">
        <ele>280</ele>
        <time>2018-01-12T10:50:17Z</time>
      </trkpt>
      <trkpt lat="45.95655" lon="4.87999">
        <ele>280</ele>
        <time>2018-01-12T10:50:18Z</time>
      </trkpt>
      <trkpt lat="45.95647" lon="4.88005">
        <ele>280</ele>
        <time>2018-01-12T10:50:19Z</time>
      </trkpt>
      <trkpt lat="45.95641" lon="4.88011">
        <ele>279</ele>
        <time>2018-01-12T10:50:20Z</time>
      </trkpt>
      <trkpt lat="45.95634" lon="4.88018">
        <ele>279</ele>
        <time>2018-01-12T10:50:21Z</time>
      </trkpt>
      <trkpt lat="45.95628" lon="4.88025">
        <ele>279</ele>
        <time>2018-01-12T10:50:22Z</time>
      </trkpt>
      <trkpt lat="45.95622" lon="4.8803">
        <ele>278</ele>
        <time>2018-01-12T10:50:23Z</time>
      </trkpt>
      <trkpt lat="45.95615" lon="4.88036">
        <ele>278</ele>
        <time>2018-01-12T10:50:24Z</time>
      </trkpt>
      <trkpt lat="45.95608" lon="4.88042">
        <ele>278</ele>
        <time>2018-01-12T10:50:25Z</time>
      </trkpt>
      <trkpt lat="45.95601" lon="4.88047">
        <ele>278</ele>
        <time>2018-01-12T10:50:26Z</time>
      </trkpt>
      <trkpt lat="45.95595" lon="4.88054">
        <ele>278</ele>
        <time>2018-01-12T10:50:27Z</time>
      </trkpt>
      <trkpt lat="45.95589" lon="4.88058">
        <ele>278</ele>
        <time>2018-01-12T10:50:28Z</time>
      </trkpt>
      <trkpt lat="45.95582" lon="4.88065">
        <ele>276</ele>
        <time>2018-01-12T10:50:29Z</time>
      </trkpt>
      <trkpt lat="45.95576" lon="4.8807">
        <ele>276</ele>
        <time>2018-01-12T10:50:30Z</time>
      </trkpt>
      <trkpt lat="45.9557" lon="4.88075">
        <ele>276</ele>
        <time>2018-01-12T10:50:31Z</time>
      </trkpt>
      <trkpt lat="45.95563" lon="4.88081">
        <ele>276</ele>
        <time>2018-01-12T10:50:32Z</time>
      </trkpt>
      <trkpt lat="45.95557" lon="4.88085">
        <ele>277</ele>
        <time>2018-01-12T10:50:33Z</time>
      </trkpt>
      <trkpt lat="45.9555" lon="4.88087">
        <ele>277</ele>
        <time>2018-01-12T10:50:34Z</time>
      </trkpt>
      <trkpt lat="45.95543" lon="4.88091">
        <ele>277</ele>
        <time>2018-01-12T10:50:35Z</time>
      </trkpt>
      <trkpt lat="45.95536" lon="4.88094">
        <ele>277</ele>
        <time>2018-01-12T10:50:36Z</time>
      </trkpt>
      <trkpt lat="45.95529" lon="4.88097">
        <ele>277</ele>
        <time>2018-01-12T10:50:37Z</time>
      </trkpt>
      <trkpt lat="45.95522" lon="4.88101">
        <ele>276</ele>
        <time>2018-01-12T10:50:38Z</time>
      </trkpt>
      <trkpt lat="45.95516" lon="4.88104">
        <ele>276</ele>
        <time>2018-01-12T10:50:39Z</time>
      </trkpt>
      <trkpt lat="45.95508" lon="4.88107">
        <ele>276</ele>
        <time>2018-01-12T10:50:40Z</time>
      </trkpt>
      <trkpt lat="45.95501" lon="4.8811">
        <ele>276</ele>
        <time>2018-01-12T10:50:41Z</time>
      </trkpt>
      <trkpt lat="45.95494" lon="4.88112">
        <ele>276</ele>
        <time>2018-01-12T10:50:42Z</time>
      </trkpt>
      <trkpt lat="45.95487" lon="4.88115">
        <ele>276</ele>
        <time>2018-01-12T10:50:43Z</time>
      </trkpt>
      <trkpt lat="45.95481" lon="4.88118">
        <ele>276</ele>
        <time>2018-01-12T10:50:44Z</time>
      </trkpt>
      <trkpt lat="45.95474" lon="4.88121">
        <ele>276</ele>
        <time>2018-01-12T10:50:45Z</time>
      </trkpt>
      <trkpt lat="45.95467" lon="4.88123">
        <ele>276</ele>
        <time>2018-01-12T10:50:46Z</time>
      </trkpt>
      <trkpt lat="45.95461" lon="4.88126">
        <ele>276</ele>
        <time>2018-01-12T10:50:47Z</time>
      </trkpt>
      <trkpt lat="45.95455" lon="4.88129">
        <ele>276</ele>
        <time>2018-01-12T10:50:48Z</time>
      </trkpt>
      <trkpt lat="45.95448" lon="4.88132">
        <ele>275</ele>
        <time>2018-01-12T10:50:49Z</time>
      </trkpt>
      <trkpt lat="45.95443" lon="4.88135">
        <ele>276</ele>
        <time>2018-01-12T10:50:50Z</time>
      </trkpt>
      <trkpt lat="45.95437" lon="4.88138">
        <ele>276</ele>
        <time>2018-01-12T10:50:51Z</time>
      </trkpt>
      <trkpt lat="45.95432" lon="4.88141">
        <ele>276</ele>
        <time>2018-01-12T10:50:52Z</time>
      </trkpt>
      <trkpt lat="45.95427" lon="4.88145">
        <ele>276</ele>
        <time>2018-01-12T10:50:53Z</time>
      </trkpt>
      <trkpt lat="45.95422" lon="4.88146">
        <ele>276</ele>
        <time>2018-01-12T10:50:54Z</time>
      </trkpt>
      <trkpt lat="45.95417" lon="4.8815">
        <ele>276</ele>
        <time>2018-01-12T10:50:55Z</time>
      </trkpt>
      <trkpt lat="45.95412" lon="4.88153">
        <ele>276</ele>
        <time>2018-01-12T10:50:56Z</time>
      </trkpt>
      <trkpt lat="45.95408" lon="4.88156">
        <ele>276</ele>
        <time>2018-01-12T10:50:57Z</time>
      </trkpt>
      <trkpt lat="45.95401" lon="4.88157">
        <ele>276</ele>
        <time>2018-01-12T10:50:58Z</time>
      </trkpt>
      <trkpt lat="45.95396" lon="4.88158">
        <ele>276</ele>
        <time>2018-01-12T10:50:59Z</time>
      </trkpt>
      <trkpt lat="45.95389" lon="4.88159">
        <ele>276</ele>
        <time>2018-01-12T10:51:00Z</time>
      </trkpt>
      <trkpt lat="45.95384" lon="4.88161">
        <ele>276</ele>
        <time>2018-01-12T10:51:01Z</time>
      </trkpt>
      <trkpt lat="45.95379" lon="4.88159">
        <ele>276</ele>
        <time>2018-01-12T10:51:02Z</time>
      </trkpt>
      <trkpt lat="45.95374" lon="4.8816">
        <ele>276</ele>
        <time>2018-01-12T10:51:03Z</time>
      </trkpt>
      <trkpt lat="45.95369" lon="4.88161">
        <ele>276</ele>
        <time>2018-01-12T10:51:04Z</time>
      </trkpt>
      <trkpt lat="45.95364" lon="4.88162">
        <ele>276</ele>
        <time>2018-01-12T10:51:05Z</time>
      </trkpt>
      <trkpt lat="45.95359" lon="4.88164">
        <ele>277</ele>
        <time>2018-01-12T10:51:06Z</time>
      </trkpt>
      <trkpt lat="45.95354" lon="4.88166">
        <ele>277</ele>
        <time>2018-01-12T10:51:07Z</time>
      </trkpt>
      <trkpt lat="45.95348" lon="4.88166">
        <ele>277</ele>
        <time>2018-01-12T10:51:08Z</time>
      </trkpt>
      <trkpt lat="45.95342" lon="4.88166">
        <ele>277</ele>
        <time>2018-01-12T10:51:09Z</time>
      </trkpt>
      <trkpt lat="45.95336" lon="4.88167">
        <ele>278</ele>
        <time>2018-01-12T10:51:10Z</time>
      </trkpt>
      <trkpt lat="45.95331" lon="4.88168">
        <ele>278</ele>
        <time>2018-01-12T10:51:11Z</time>
      </trkpt>
      <trkpt lat="45.95326" lon="4.88168">
        <ele>279</ele>
        <time>2018-01-12T10:51:12Z</time>
      </trkpt>
      <trkpt lat="45.95321" lon="4.88167">
        <ele>279</ele>
        <time>2018-01-12T10:51:13Z</time>
      </trkpt>
      <trkpt lat="45.95316" lon="4.88167">
        <ele>280</ele>
        <time>2018-01-12T10:51:14Z</time>
      </trkpt>
      <trkpt lat="45.95311" lon="4.88166">
        <ele>278</ele>
        <time>2018-01-12T10:51:15Z</time>
      </trkpt>
      <trkpt lat="45.95306" lon="4.88165">
        <ele>278</ele>
        <time>2018-01-12T10:51:16Z</time>
      </trkpt>
      <trkpt lat="45.95301" lon="4.88163">
        <ele>278</ele>
        <time>2018-01-12T10:51:17Z</time>
      </trkpt>
      <trkpt lat="45.95297" lon="4.88162">
        <ele>279</ele>
        <time>2018-01-12T10:51:18Z</time>
      </trkpt>
      <trkpt lat="45.95292" lon="4.88163">
        <ele>279</ele>
        <time>2018-01-12T10:51:19Z</time>
      </trkpt>
      <trkpt lat="45.95287" lon="4.88162">
        <ele>279</ele>
        <time>2018-01-12T10:51:20Z</time>
      </trkpt>
      <trkpt lat="45.95281" lon="4.88163">
        <ele>279</ele>
        <time>2018-01-12T10:51:21Z</time>
      </trkpt>
      <trkpt lat="45.95276" lon="4.88163">
        <ele>279</ele>
        <time>2018-01-12T10:51:22Z</time>
      </trkpt>
      <trkpt lat="45.95271" lon="4.88163">
        <ele>279</ele>
        <time>2018-01-12T10:51:23Z</time>
      </trkpt>
      <trkpt lat="45.95266" lon="4.88163">
        <ele>280</ele>
        <time>2018-01-12T10:51:24Z</time>
      </trkpt>
      <trkpt lat="45.95262" lon="4.88162">
        <ele>280</ele>
        <time>2018-01-12T10:51:25Z</time>
      </trkpt>
      <trkpt lat="45.95253" lon="4.8816">
        <ele>280</ele>
        <time>2018-01-12T10:51:27Z</time>
      </trkpt>
      <trkpt lat="45.95248" lon="4.8816">
        <ele>281</ele>
        <time>2018-01-12T10:51:28Z</time>
      </trkpt>
      <trkpt lat="45.95244" lon="4.88161">
        <ele>281</ele>
        <time>2018-01-12T10:51:29Z</time>
      </trkpt>
      <trkpt lat="45.95239" lon="4.88161">
        <ele>281</ele>
        <time>2018-01-12T10:51:30Z</time>
      </trkpt>
      <trkpt lat="45.95234" lon="4.88162">
        <ele>281</ele>
        <time>2018-01-12T10:51:31Z</time>
      </trkpt>
      <trkpt lat="45.95229" lon="4.88162">
        <ele>282</ele>
        <time>2018-01-12T10:51:32Z</time>
      </trkpt>
      <trkpt lat="45.9522" lon="4.88162">
        <ele>282</ele>
        <time>2018-01-12T10:51:34Z</time>
      </trkpt>
      <trkpt lat="45.95216" lon="4.88162">
        <ele>282</ele>
        <time>2018-01-12T10:51:35Z</time>
      </trkpt>
      <trkpt lat="45.95208" lon="4.88164">
        <ele>282</ele>
        <time>2018-01-12T10:51:37Z</time>
      </trkpt>
      <trkpt lat="45.95204" lon="4.88165">
        <ele>282</ele>
        <time>2018-01-12T10:51:38Z</time>
      </trkpt>
      <trkpt lat="45.95196" lon="4.88165">
        <ele>283</ele>
        <time>2018-01-12T10:51:40Z</time>
      </trkpt>
      <trkpt lat="45.95192" lon="4.88165">
        <ele>283</ele>
        <time>2018-01-12T10:51:41Z</time>
      </trkpt>
      <trkpt lat="45.95185" lon="4.88167">
        <ele>285</ele>
        <time>2018-01-12T10:51:43Z</time>
      </trkpt>
      <trkpt lat="45.95181" lon="4.88168">
        <ele>285</ele>
        <time>2018-01-12T10:51:44Z</time>
      </trkpt>
      <trkpt lat="45.95175" lon="4.88168">
        <ele>285</ele>
        <time>2018-01-12T10:51:46Z</time>
      </trkpt>
      <trkpt lat="45.95172" lon="4.88166">
        <ele>284</ele>
        <time>2018-01-12T10:51:47Z</time>
      </trkpt>
      <trkpt lat="45.95168" lon="4.88157">
        <ele>284</ele>
        <time>2018-01-12T10:51:49Z</time>
      </trkpt>
      <trkpt lat="45.95167" lon="4.88151">
        <ele>284</ele>
        <time>2018-01-12T10:51:50Z</time>
      </trkpt>
      <trkpt lat="45.95173" lon="4.88143">
        <ele>283</ele>
        <time>2018-01-12T10:51:51Z</time>
      </trkpt>
      <trkpt lat="45.95173" lon="4.88138">
        <ele>283</ele>
        <time>2018-01-12T10:51:52Z</time>
      </trkpt>
      <trkpt lat="45.95175" lon="4.8813">
        <ele>282</ele>
        <time>2018-01-12T10:51:53Z</time>
      </trkpt>
      <trkpt lat="45.95176" lon="4.88125">
        <ele>282</ele>
        <time>2018-01-12T10:51:54Z</time>
      </trkpt>
      <trkpt lat="45.95178" lon="4.88119">
        <ele>282</ele>
        <time>2018-01-12T10:51:55Z</time>
      </trkpt>
      <trkpt lat="45.95179" lon="4.88112">
        <ele>282</ele>
        <time>2018-01-12T10:51:56Z</time>
      </trkpt>
      <trkpt lat="45.95181" lon="4.88101">
        <ele>282</ele>
        <time>2018-01-12T10:51:58Z</time>
      </trkpt>
      <trkpt lat="45.95182" lon="4.88095">
        <ele>282</ele>
        <time>2018-01-12T10:51:59Z</time>
      </trkpt>
      <trkpt lat="45.95185" lon="4.88083">
        <ele>281</ele>
        <time>2018-01-12T10:52:01Z</time>
      </trkpt>
      <trkpt lat="45.95186" lon="4.88077">
        <ele>281</ele>
        <time>2018-01-12T10:52:02Z</time>
      </trkpt>
      <trkpt lat="45.95188" lon="4.8807">
        <ele>281</ele>
        <time>2018-01-12T10:52:03Z</time>
      </trkpt>
      <trkpt lat="45.95189" lon="4.88061">
        <ele>281</ele>
        <time>2018-01-12T10:52:04Z</time>
      </trkpt>
      <trkpt lat="45.95191" lon="4.88054">
        <ele>281</ele>
        <time>2018-01-12T10:52:05Z</time>
      </trkpt>
      <trkpt lat="45.95194" lon="4.88046">
        <ele>281</ele>
        <time>2018-01-12T10:52:06Z</time>
      </trkpt>
      <trkpt lat="45.95198" lon="4.88041">
        <ele>281</ele>
        <time>2018-01-12T10:52:07Z</time>
      </trkpt>
      <trkpt lat="45.95202" lon="4.88037">
        <ele>281</ele>
        <time>2018-01-12T10:52:08Z</time>
      </trkpt>
      <trkpt lat="45.95204" lon="4.88032">
        <ele>281</ele>
        <time>2018-01-12T10:52:09Z</time>
      </trkpt>
      <trkpt lat="45.95208" lon="4.88027">
        <ele>281</ele>
        <time>2018-01-12T10:52:10Z</time>
      </trkpt>
      <trkpt lat="45.95211" lon="4.88022">
        <ele>281</ele>
        <time>2018-01-12T10:52:11Z</time>
      </trkpt>
      <trkpt lat="45.95215" lon="4.88015">
        <ele>281</ele>
        <time>2018-01-12T10:52:12Z</time>
      </trkpt>
      <trkpt lat="45.95218" lon="4.8801">
        <ele>281</ele>
        <time>2018-01-12T10:52:13Z</time>
      </trkpt>
      <trkpt lat="45.95222" lon="4.88005">
        <ele>281</ele>
        <time>2018-01-12T10:52:14Z</time>
      </trkpt>
      <trkpt lat="45.95225" lon="4.88">
        <ele>281</ele>
        <time>2018-01-12T10:52:15Z</time>
      </trkpt>
      <trkpt lat="45.95229" lon="4.87995">
        <ele>281</ele>
        <time>2018-01-12T10:52:16Z</time>
      </trkpt>
      <trkpt lat="45.95232" lon="4.87989">
        <ele>281</ele>
        <time>2018-01-12T10:52:17Z</time>
      </trkpt>
      <trkpt lat="45.95236" lon="4.87984">
        <ele>281</ele>
        <time>2018-01-12T10:52:18Z</time>
      </trkpt>
      <trkpt lat="45.95239" lon="4.87979">
        <ele>282</ele>
        <time>2018-01-12T10:52:19Z</time>
      </trkpt>
      <trkpt lat="45.95242" lon="4.87974">
        <ele>282</ele>
        <time>2018-01-12T10:52:20Z</time>
      </trkpt>
      <trkpt lat="45.95248" lon="4.87965">
        <ele>282</ele>
        <time>2018-01-12T10:52:22Z</time>
      </trkpt>
      <trkpt lat="45.9525" lon="4.87961">
        <ele>280</ele>
        <time>2018-01-12T10:52:23Z</time>
      </trkpt>
      <trkpt lat="45.95255" lon="4.87955">
        <ele>280</ele>
        <time>2018-01-12T10:52:25Z</time>
      </trkpt>
      <trkpt lat="45.95258" lon="4.87948">
        <ele>280</ele>
        <time>2018-01-12T10:52:26Z</time>
      </trkpt>
      <trkpt lat="45.9526" lon="4.8794">
        <ele>280</ele>
        <time>2018-01-12T10:52:27Z</time>
      </trkpt>
      <trkpt lat="45.95261" lon="4.87934">
        <ele>281</ele>
        <time>2018-01-12T10:52:28Z</time>
      </trkpt>
      <trkpt lat="45.95262" lon="4.87927">
        <ele>281</ele>
        <time>2018-01-12T10:52:29Z</time>
      </trkpt>
      <trkpt lat="45.95263" lon="4.87919">
        <ele>281</ele>
        <time>2018-01-12T10:52:30Z</time>
      </trkpt>
      <trkpt lat="45.95262" lon="4.87912">
        <ele>282</ele>
        <time>2018-01-12T10:52:31Z</time>
      </trkpt>
      <trkpt lat="45.95261" lon="4.87905">
        <ele>281</ele>
        <time>2018-01-12T10:52:32Z</time>
      </trkpt>
      <trkpt lat="45.95259" lon="4.87893">
        <ele>281</ele>
        <time>2018-01-12T10:52:34Z</time>
      </trkpt>
      <trkpt lat="45.95258" lon="4.87886">
        <ele>281</ele>
        <time>2018-01-12T10:52:35Z</time>
      </trkpt>
      <trkpt lat="45.95256" lon="4.87879">
        <ele>281</ele>
        <time>2018-01-12T10:52:36Z</time>
      </trkpt>
      <trkpt lat="45.95255" lon="4.87872">
        <ele>281</ele>
        <time>2018-01-12T10:52:37Z</time>
      </trkpt>
      <trkpt lat="45.95253" lon="4.87865">
        <ele>281</ele>
        <time>2018-01-12T10:52:38Z</time>
      </trkpt>
      <trkpt lat="45.95251" lon="4.87858">
        <ele>281</ele>
        <time>2018-01-12T10:52:39Z</time>
      </trkpt>
      <trkpt lat="45.95249" lon="4.87852">
        <ele>283</ele>
        <time>2018-01-12T10:52:40Z</time>
      </trkpt>
      <trkpt lat="45.95248" lon="4.87845">
        <ele>283</ele>
        <time>2018-01-12T10:52:41Z</time>
      </trkpt>
      <trkpt lat="45.95247" lon="4.87838">
        <ele>282</ele>
        <time>2018-01-12T10:52:42Z</time>
      </trkpt>
      <trkpt lat="45.95246" lon="4.87831">
        <ele>282</ele>
        <time>2018-01-12T10:52:43Z</time>
      </trkpt>
      <trkpt lat="45.95246" lon="4.87824">
        <ele>282</ele>
        <time>2018-01-12T10:52:44Z</time>
      </trkpt>
      <trkpt lat="45.95244" lon="4.87816">
        <ele>282</ele>
        <time>2018-01-12T10:52:45Z</time>
      </trkpt>
      <trkpt lat="45.95243" lon="4.87809">
        <ele>282</ele>
        <time>2018-01-12T10:52:46Z</time>
      </trkpt>
      <trkpt lat="45.95242" lon="4.87801">
        <ele>282</ele>
        <time>2018-01-12T10:52:47Z</time>
      </trkpt>
      <trkpt lat="45.95241" lon="4.87793">
        <ele>282</ele>
        <time>2018-01-12T10:52:48Z</time>
      </trkpt>
      <trkpt lat="45.95239" lon="4.87786">
        <ele>282</ele>
        <time>2018-01-12T10:52:49Z</time>
      </trkpt>
      <trkpt lat="45.95239" lon="4.87779">
        <ele>282</ele>
        <time>2018-01-12T10:52:50Z</time>
      </trkpt>
      <trkpt lat="45.95238" lon="4.87771">
        <ele>282</ele>
        <time>2018-01-12T10:52:51Z</time>
      </trkpt>
      <trkpt lat="45.95237" lon="4.87764">
        <ele>281</ele>
        <time>2018-01-12T10:52:52Z</time>
      </trkpt>
      <trkpt lat="45.95236" lon="4.87756">
        <ele>281</ele>
        <time>2018-01-12T10:52:53Z</time>
      </trkpt>
      <trkpt lat="45.95233" lon="4.87749">
        <ele>280</ele>
        <time>2018-01-12T10:52:54Z</time>
      </trkpt>
      <trkpt lat="45.95232" lon="4.87742">
        <ele>280</ele>
        <time>2018-01-12T10:52:55Z</time>
      </trkpt>
      <trkpt lat="45.95231" lon="4.87735">
        <ele>280</ele>
        <time>2018-01-12T10:52:56Z</time>
      </trkpt>
      <trkpt lat="45.9523" lon="4.87728">
        <ele>280</ele>
        <time>2018-01-12T10:52:57Z</time>
      </trkpt>
      <trkpt lat="45.95228" lon="4.8772">
        <ele>279</ele>
        <time>2018-01-12T10:52:58Z</time>
      </trkpt>
      <trkpt lat="45.95227" lon="4.87713">
        <ele>279</ele>
        <time>2018-01-12T10:52:59Z</time>
      </trkpt>
      <trkpt lat="45.95225" lon="4.87705">
        <ele>279</ele>
        <time>2018-01-12T10:53:00Z</time>
      </trkpt>
      <trkpt lat="45.95225" lon="4.87696">
        <ele>279</ele>
        <time>2018-01-12T10:53:01Z</time>
      </trkpt>
      <trkpt lat="45.95225" lon="4.87687">
        <ele>279</ele>
        <time>2018-01-12T10:53:02Z</time>
      </trkpt>
      <trkpt lat="45.95223" lon="4.87679">
        <ele>278</ele>
        <time>2018-01-12T10:53:03Z</time>
      </trkpt>
      <trkpt lat="45.95219" lon="4.8767">
        <ele>278</ele>
        <time>2018-01-12T10:53:04Z</time>
      </trkpt>
      <trkpt lat="45.95218" lon="4.87662">
        <ele>276</ele>
        <time>2018-01-12T10:53:05Z</time>
      </trkpt>
      <trkpt lat="45.95218" lon="4.87652">
        <ele>276</ele>
        <time>2018-01-12T10:53:06Z</time>
      </trkpt>
      <trkpt lat="45.95215" lon="4.87644">
        <ele>276</ele>
        <time>2018-01-12T10:53:07Z</time>
      </trkpt>
      <trkpt lat="45.95214" lon="4.87632">
        <ele>276</ele>
        <time>2018-01-12T10:53:08Z</time>
      </trkpt>
      <trkpt lat="45.95213" lon="4.87623">
        <ele>276</ele>
        <time>2018-01-12T10:53:09Z</time>
      </trkpt>
      <trkpt lat="45.95212" lon="4.87612">
        <ele>276</ele>
        <time>2018-01-12T10:53:10Z</time>
      </trkpt>
      <trkpt lat="45.95211" lon="4.87601">
        <ele>276</ele>
        <time>2018-01-12T10:53:11Z</time>
      </trkpt>
      <trkpt lat="45.95211" lon="4.8759">
        <ele>276</ele>
        <time>2018-01-12T10:53:12Z</time>
      </trkpt>
      <trkpt lat="45.9521" lon="4.87579">
        <ele>274</ele>
        <time>2018-01-12T10:53:13Z</time>
      </trkpt>
      <trkpt lat="45.9521" lon="4.87566">
        <ele>274</ele>
        <time>2018-01-12T10:53:14Z</time>
      </trkpt>
      <trkpt lat="45.9521" lon="4.87553">
        <ele>274</ele>
        <time>2018-01-12T10:53:15Z</time>
      </trkpt>
      <trkpt lat="45.95208" lon="4.87542">
        <ele>274</ele>
        <time>2018-01-12T10:53:16Z</time>
      </trkpt>
      <trkpt lat="45.95206" lon="4.87531">
        <ele>274</ele>
        <time>2018-01-12T10:53:17Z</time>
      </trkpt>
      <trkpt lat="45.95204" lon="4.8752">
        <ele>273</ele>
        <time>2018-01-12T10:53:18Z</time>
      </trkpt>
      <trkpt lat="45.95201" lon="4.87509">
        <ele>273</ele>
        <time>2018-01-12T10:53:19Z</time>
      </trkpt>
      <trkpt lat="45.95199" lon="4.87499">
        <ele>272</ele>
        <time>2018-01-12T10:53:20Z</time>
      </trkpt>
      <trkpt lat="45.95197" lon="4.87488">
        <ele>272</ele>
        <time>2018-01-12T10:53:21Z</time>
      </trkpt>
      <trkpt lat="45.95194" lon="4.87477">
        <ele>272</ele>
        <time>2018-01-12T10:53:22Z</time>
      </trkpt>
      <trkpt lat="45.95192" lon="4.87467">
        <ele>272</ele>
        <time>2018-01-12T10:53:23Z</time>
      </trkpt>
      <trkpt lat="45.9519" lon="4.87457">
        <ele>272</ele>
        <time>2018-01-12T10:53:24Z</time>
      </trkpt>
      <trkpt lat="45.95187" lon="4.87448">
        <ele>272</ele>
        <time>2018-01-12T10:53:25Z</time>
      </trkpt>
      <trkpt lat="45.95184" lon="4.87438">
        <ele>272</ele>
        <time>2018-01-12T10:53:26Z</time>
      </trkpt>
      <trkpt lat="45.95182" lon="4.87428">
        <ele>271</ele>
        <time>2018-01-12T10:53:27Z</time>
      </trkpt>
      <trkpt lat="45.9518" lon="4.8742">
        <ele>271</ele>
        <time>2018-01-12T10:53:28Z</time>
      </trkpt>
      <trkpt lat="45.95179" lon="4.87412">
        <ele>271</ele>
        <time>2018-01-12T10:53:29Z</time>
      </trkpt>
      <trkpt lat="45.95177" lon="4.87405">
        <ele>271</ele>
        <time>2018-01-12T10:53:30Z</time>
      </trkpt>
      <trkpt lat="45.95174" lon="4.87398">
        <ele>271</ele>
        <time>2018-01-12T10:53:31Z</time>
      </trkpt>
      <trkpt lat="45.95172" lon="4.87392">
        <ele>271</ele>
        <time>2018-01-12T10:53:32Z</time>
      </trkpt>
      <trkpt lat="45.9517" lon="4.87385">
        <ele>271</ele>
        <time>2018-01-12T10:53:33Z</time>
      </trkpt>
      <trkpt lat="45.95169" lon="4.87378">
        <ele>271</ele>
        <time>2018-01-12T10:53:34Z</time>
      </trkpt>
      <trkpt lat="45.95167" lon="4.8737">
        <ele>272</ele>
        <time>2018-01-12T10:53:35Z</time>
      </trkpt>
      <trkpt lat="45.95165" lon="4.87362">
        <ele>272</ele>
        <time>2018-01-12T10:53:36Z</time>
      </trkpt>
      <trkpt lat="45.95163" lon="4.87353">
        <ele>272</ele>
        <time>2018-01-12T10:53:37Z</time>
      </trkpt>
      <trkpt lat="45.95161" lon="4.87344">
        <ele>272</ele>
        <time>2018-01-12T10:53:38Z</time>
      </trkpt>
      <trkpt lat="45.95158" lon="4.87336">
        <ele>272</ele>
        <time>2018-01-12T10:53:39Z</time>
      </trkpt>
      <trkpt lat="45.95156" lon="4.87327">
        <ele>272</ele>
        <time>2018-01-12T10:53:40Z</time>
      </trkpt>
      <trkpt lat="45.95154" lon="4.87318">
        <ele>273</ele>
        <time>2018-01-12T10:53:41Z</time>
      </trkpt>
      <trkpt lat="45.95153" lon="4.8731">
        <ele>273</ele>
        <time>2018-01-12T10:53:42Z</time>
      </trkpt>
      <trkpt lat="45.9515" lon="4.87302">
        <ele>274</ele>
        <time>2018-01-12T10:53:43Z</time>
      </trkpt>
      <trkpt lat="45.95149" lon="4.87294">
        <ele>274</ele>
        <time>2018-01-12T10:53:44Z</time>
      </trkpt>
      <trkpt lat="45.95147" lon="4.87285">
        <ele>274</ele>
        <time>2018-01-12T10:53:45Z</time>
      </trkpt>
      <trkpt lat="45.95145" lon="4.87277">
        <ele>274</ele>
        <time>2018-01-12T10:53:46Z</time>
      </trkpt>
      <trkpt lat="45.95143" lon="4.87269">
        <ele>274</ele>
        <time>2018-01-12T10:53:47Z</time>
      </trkpt>
      <trkpt lat="45.95143" lon="4.8726">
        <ele>274</ele>
        <time>2018-01-12T10:53:48Z</time>
      </trkpt>
      <trkpt lat="45.95139" lon="4.87253">
        <ele>275</ele>
        <time>2018-01-12T10:53:49Z</time>
      </trkpt>
      <trkpt lat="45.95137" lon="4.87244">
        <ele>276</ele>
        <time>2018-01-12T10:53:50Z</time>
      </trkpt>
      <trkpt lat="45.95136" lon="4.87237">
        <ele>276</ele>
        <time>2018-01-12T10:53:51Z</time>
      </trkpt>
      <trkpt lat="45.95134" lon="4.87228">
        <ele>276</ele>
        <time>2018-01-12T10:53:52Z</time>
      </trkpt>
      <trkpt lat="45.95132" lon="4.8722">
        <ele>276</ele>
        <time>2018-01-12T10:53:53Z</time>
      </trkpt>
      <trkpt lat="45.9513" lon="4.87213">
        <ele>276</ele>
        <time>2018-01-12T10:53:54Z</time>
      </trkpt>
      <trkpt lat="45.95128" lon="4.87204">
        <ele>276</ele>
        <time>2018-01-12T10:53:55Z</time>
      </trkpt>
      <trkpt lat="45.95127" lon="4.87196">
        <ele>276</ele>
        <time>2018-01-12T10:53:56Z</time>
      </trkpt>
      <trkpt lat="45.95125" lon="4.87189">
        <ele>276</ele>
        <time>2018-01-12T10:53:57Z</time>
      </trkpt>
      <trkpt lat="45.95123" lon="4.87181">
        <ele>276</ele>
        <time>2018-01-12T10:53:58Z</time>
      </trkpt>
      <trkpt lat="45.95122" lon="4.87174">
        <ele>276</ele>
        <time>2018-01-12T10:53:59Z</time>
      </trkpt>
      <trkpt lat="45.95122" lon="4.87166">
        <ele>276</ele>
        <time>2018-01-12T10:54:00Z</time>
      </trkpt>
      <trkpt lat="45.95121" lon="4.87158">
        <ele>277</ele>
        <time>2018-01-12T10:54:01Z</time>
      </trkpt>
      <trkpt lat="45.9512" lon="4.87151">
        <ele>277</ele>
        <time>2018-01-12T10:54:02Z</time>
      </trkpt>
      <trkpt lat="45.95118" lon="4.87144">
        <ele>277</ele>
        <time>2018-01-12T10:54:03Z</time>
      </trkpt>
      <trkpt lat="45.95117" lon="4.87137">
        <ele>277</ele>
        <time>2018-01-12T10:54:04Z</time>
      </trkpt>
      <trkpt lat="45.95114" lon="4.87129">
        <ele>277</ele>
        <time>2018-01-12T10:54:05Z</time>
      </trkpt>
      <trkpt lat="45.95113" lon="4.87122">
        <ele>277</ele>
        <time>2018-01-12T10:54:06Z</time>
      </trkpt>
      <trkpt lat="45.9511" lon="4.87115">
        <ele>277</ele>
        <time>2018-01-12T10:54:07Z</time>
      </trkpt>
      <trkpt lat="45.95109" lon="4.87108">
        <ele>277</ele>
        <time>2018-01-12T10:54:08Z</time>
      </trkpt>
      <trkpt lat="45.95107" lon="4.87102">
        <ele>277</ele>
        <time>2018-01-12T10:54:09Z</time>
      </trkpt>
      <trkpt lat="45.95105" lon="4.87096">
        <ele>277</ele>
        <time>2018-01-12T10:54:10Z</time>
      </trkpt>
      <trkpt lat="45.95102" lon="4.87085">
        <ele>277</ele>
        <time>2018-01-12T10:54:12Z</time>
      </trkpt>
      <trkpt lat="45.951" lon="4.87079">
        <ele>277</ele>
        <time>2018-01-12T10:54:13Z</time>
      </trkpt>
      <trkpt lat="45.95096" lon="4.87068">
        <ele>277</ele>
        <time>2018-01-12T10:54:15Z</time>
      </trkpt>
      <trkpt lat="45.95095" lon="4.87063">
        <ele>277</ele>
        <time>2018-01-12T10:54:16Z</time>
      </trkpt>
      <trkpt lat="45.95092" lon="4.87057">
        <ele>277</ele>
        <time>2018-01-12T10:54:17Z</time>
      </trkpt>
      <trkpt lat="45.95089" lon="4.87051">
        <ele>277</ele>
        <time>2018-01-12T10:54:18Z</time>
      </trkpt>
      <trkpt lat="45.95086" lon="4.87045">
        <ele>277</ele>
        <time>2018-01-12T10:54:19Z</time>
      </trkpt>
      <trkpt lat="45.95083" lon="4.87039">
        <ele>277</ele>
        <time>2018-01-12T10:54:20Z</time>
      </trkpt>
      <trkpt lat="45.9508" lon="4.87033">
        <ele>277</ele>
        <time>2018-01-12T10:54:21Z</time>
      </trkpt>
      <trkpt lat="45.95077" lon="4.87027">
        <ele>277</ele>
        <time>2018-01-12T10:54:22Z</time>
      </trkpt>
      <trkpt lat="45.95073" lon="4.87021">
        <ele>277</ele>
        <time>2018-01-12T10:54:23Z</time>
      </trkpt>
      <trkpt lat="45.95069" lon="4.87015">
        <ele>277</ele>
        <time>2018-01-12T10:54:24Z</time>
      </trkpt>
      <trkpt lat="45.95064" lon="4.87009">
        <ele>277</ele>
        <time>2018-01-12T10:54:25Z</time>
      </trkpt>
      <trkpt lat="45.95061" lon="4.87002">
        <ele>277</ele>
        <time>2018-01-12T10:54:26Z</time>
      </trkpt>
      <trkpt lat="45.95057" lon="4.86995">
        <ele>276</ele>
        <time>2018-01-12T10:54:27Z</time>
      </trkpt>
      <trkpt lat="45.95054" lon="4.86987">
        <ele>276</ele>
        <time>2018-01-12T10:54:28Z</time>
      </trkpt>
      <trkpt lat="45.95052" lon="4.86979">
        <ele>276</ele>
        <time>2018-01-12T10:54:29Z</time>
      </trkpt>
      <trkpt lat="45.95049" lon="4.86972">
        <ele>276</ele>
        <time>2018-01-12T10:54:30Z</time>
      </trkpt>
      <trkpt lat="45.95046" lon="4.86964">
        <ele>276</ele>
        <time>2018-01-12T10:54:31Z</time>
      </trkpt>
      <trkpt lat="45.95043" lon="4.86957">
        <ele>276</ele>
        <time>2018-01-12T10:54:32Z</time>
      </trkpt>
      <trkpt lat="45.95041" lon="4.86949">
        <ele>276</ele>
        <time>2018-01-12T10:54:33Z</time>
      </trkpt>
      <trkpt lat="45.95039" lon="4.8694">
        <ele>276</ele>
        <time>2018-01-12T10:54:34Z</time>
      </trkpt>
      <trkpt lat="45.95037" lon="4.86933">
        <ele>276</ele>
        <time>2018-01-12T10:54:35Z</time>
      </trkpt>
      <trkpt lat="45.95036" lon="4.86926">
        <ele>276</ele>
        <time>2018-01-12T10:54:36Z</time>
      </trkpt>
      <trkpt lat="45.95034" lon="4.86918">
        <ele>276</ele>
        <time>2018-01-12T10:54:37Z</time>
      </trkpt>
      <trkpt lat="45.95031" lon="4.86911">
        <ele>275</ele>
        <time>2018-01-12T10:54:38Z</time>
      </trkpt>
      <trkpt lat="45.95028" lon="4.86904">
        <ele>275</ele>
        <time>2018-01-12T10:54:39Z</time>
      </trkpt>
      <trkpt lat="45.95026" lon="4.86897">
        <ele>275</ele>
        <time>2018-01-12T10:54:40Z</time>
      </trkpt>
      <trkpt lat="45.95023" lon="4.86889">
        <ele>275</ele>
        <time>2018-01-12T10:54:41Z</time>
      </trkpt>
      <trkpt lat="45.95021" lon="4.86881">
        <ele>275</ele>
        <time>2018-01-12T10:54:42Z</time>
      </trkpt>
      <trkpt lat="45.95018" lon="4.86873">
        <ele>275</ele>
        <time>2018-01-12T10:54:43Z</time>
      </trkpt>
      <trkpt lat="45.95015" lon="4.86865">
        <ele>275</ele>
        <time>2018-01-12T10:54:44Z</time>
      </trkpt>
      <trkpt lat="45.95012" lon="4.86856">
        <ele>275</ele>
        <time>2018-01-12T10:54:45Z</time>
      </trkpt>
      <trkpt lat="45.9501" lon="4.86848">
        <ele>275</ele>
        <time>2018-01-12T10:54:46Z</time>
      </trkpt>
      <trkpt lat="45.95007" lon="4.8684">
        <ele>276</ele>
        <time>2018-01-12T10:54:47Z</time>
      </trkpt>
      <trkpt lat="45.95004" lon="4.86831">
        <ele>276</ele>
        <time>2018-01-12T10:54:48Z</time>
      </trkpt>
      <trkpt lat="45.95001" lon="4.86823">
        <ele>275</ele>
        <time>2018-01-12T10:54:49Z</time>
      </trkpt>
      <trkpt lat="45.94998" lon="4.86816">
        <ele>276</ele>
        <time>2018-01-12T10:54:50Z</time>
      </trkpt>
      <trkpt lat="45.94994" lon="4.86808">
        <ele>276</ele>
        <time>2018-01-12T10:54:51Z</time>
      </trkpt>
      <trkpt lat="45.94991" lon="4.86801">
        <ele>276</ele>
        <time>2018-01-12T10:54:52Z</time>
      </trkpt>
      <trkpt lat="45.94987" lon="4.86793">
        <ele>276</ele>
        <time>2018-01-12T10:54:53Z</time>
      </trkpt>
      <trkpt lat="45.94984" lon="4.86786">
        <ele>275</ele>
        <time>2018-01-12T10:54:54Z</time>
      </trkpt>
      <trkpt lat="45.9498" lon="4.86779">
        <ele>275</ele>
        <time>2018-01-12T10:54:55Z</time>
      </trkpt>
      <trkpt lat="45.94976" lon="4.86773">
        <ele>275</ele>
        <time>2018-01-12T10:54:56Z</time>
      </trkpt>
      <trkpt lat="45.94972" lon="4.86768">
        <ele>275</ele>
        <time>2018-01-12T10:54:57Z</time>
      </trkpt>
      <trkpt lat="45.94968" lon="4.86762">
        <ele>275</ele>
        <time>2018-01-12T10:54:58Z</time>
      </trkpt>
      <trkpt lat="45.94965" lon="4.86756">
        <ele>275</ele>
        <time>2018-01-12T10:54:59Z</time>
      </trkpt>
      <trkpt lat="45.94962" lon="4.8675">
        <ele>275</ele>
        <time>2018-01-12T10:55:00Z</time>
      </trkpt>
      <trkpt lat="45.94958" lon="4.86744">
        <ele>275</ele>
        <time>2018-01-12T10:55:01Z</time>
      </trkpt>
      <trkpt lat="45.94956" lon="4.86737">
        <ele>275</ele>
        <time>2018-01-12T10:55:02Z</time>
      </trkpt>
      <trkpt lat="45.94952" lon="4.86731">
        <ele>275</ele>
        <time>2018-01-12T10:55:03Z</time>
      </trkpt>
      <trkpt lat="45.9495" lon="4.86725">
        <ele>275</ele>
        <time>2018-01-12T10:55:04Z</time>
      </trkpt>
      <trkpt lat="45.94948" lon="4.86718">
        <ele>275</ele>
        <time>2018-01-12T10:55:05Z</time>
      </trkpt>
      <trkpt lat="45.94947" lon="4.86711">
        <ele>275</ele>
        <time>2018-01-12T10:55:06Z</time>
      </trkpt>
      <trkpt lat="45.94945" lon="4.86704">
        <ele>275</ele>
        <time>2018-01-12T10:55:07Z</time>
      </trkpt>
      <trkpt lat="45.94944" lon="4.86698">
        <ele>276</ele>
        <time>2018-01-12T10:55:08Z</time>
      </trkpt>
      <trkpt lat="45.94943" lon="4.86692">
        <ele>276</ele>
        <time>2018-01-12T10:55:09Z</time>
      </trkpt>
      <trkpt lat="45.94943" lon="4.86685">
        <ele>276</ele>
        <time>2018-01-12T10:55:10Z</time>
      </trkpt>
      <trkpt lat="45.94942" lon="4.86678">
        <ele>276</ele>
        <time>2018-01-12T10:55:11Z</time>
      </trkpt>
      <trkpt lat="45.94942" lon="4.86671">
        <ele>276</ele>
        <time>2018-01-12T10:55:12Z</time>
      </trkpt>
      <trkpt lat="45.94943" lon="4.86664">
        <ele>276</ele>
        <time>2018-01-12T10:55:13Z</time>
      </trkpt>
      <trkpt lat="45.94944" lon="4.86656">
        <ele>276</ele>
        <time>2018-01-12T10:55:14Z</time>
      </trkpt>
      <trkpt lat="45.94946" lon="4.8665">
        <ele>276</ele>
        <time>2018-01-12T10:55:15Z</time>
      </trkpt>
      <trkpt lat="45.94948" lon="4.86644">
        <ele>276</ele>
        <time>2018-01-12T10:55:16Z</time>
      </trkpt>
      <trkpt lat="45.94954" lon="4.86636">
        <ele>276</ele>
        <time>2018-01-12T10:55:18Z</time>
      </trkpt>
      <trkpt lat="45.94958" lon="4.86631">
        <ele>276</ele>
        <time>2018-01-12T10:55:19Z</time>
      </trkpt>
      <trkpt lat="45.94965" lon="4.86625">
        <ele>275</ele>
        <time>2018-01-12T10:55:21Z</time>
      </trkpt>
      <trkpt lat="45.94969" lon="4.86622">
        <ele>275</ele>
        <time>2018-01-12T10:55:22Z</time>
      </trkpt>
      <trkpt lat="45.94973" lon="4.8662">
        <ele>275</ele>
        <time>2018-01-12T10:55:23Z</time>
      </trkpt>
      <trkpt lat="45.94979" lon="4.86618">
        <ele>275</ele>
        <time>2018-01-12T10:55:24Z</time>
      </trkpt>
      <trkpt lat="45.94983" lon="4.86617">
        <ele>275</ele>
        <time>2018-01-12T10:55:25Z</time>
      </trkpt>
      <trkpt lat="45.94988" lon="4.86615">
        <ele>275</ele>
        <time>2018-01-12T10:55:26Z</time>
      </trkpt>
      <trkpt lat="45.94993" lon="4.86614">
        <ele>275</ele>
        <time>2018-01-12T10:55:27Z</time>
      </trkpt>
      <trkpt lat="45.94999" lon="4.86613">
        <ele>275</ele>
        <time>2018-01-12T10:55:28Z</time>
      </trkpt>
      <trkpt lat="45.95008" lon="4.86612">
        <ele>273</ele>
        <time>2018-01-12T10:55:30Z</time>
      </trkpt>
      <trkpt lat="45.95013" lon="4.86612">
        <ele>273</ele>
        <time>2018-01-12T10:55:31Z</time>
      </trkpt>
      <trkpt lat="45.95018" lon="4.86611">
        <ele>273</ele>
        <time>2018-01-12T10:55:32Z</time>
      </trkpt>
      <trkpt lat="45.95022" lon="4.86611">
        <ele>273</ele>
        <time>2018-01-12T10:55:33Z</time>
      </trkpt>
      <trkpt lat="45.95028" lon="4.8661">
        <ele>273</ele>
        <time>2018-01-12T10:55:34Z</time>
      </trkpt>
      <trkpt lat="45.95033" lon="4.86609">
        <ele>273</ele>
        <time>2018-01-12T10:55:35Z</time>
      </trkpt>
      <trkpt lat="45.95038" lon="4.86607">
        <ele>273</ele>
        <time>2018-01-12T10:55:36Z</time>
      </trkpt>
      <trkpt lat="45.95043" lon="4.86607">
        <ele>272</ele>
        <time>2018-01-12T10:55:37Z</time>
      </trkpt>
      <trkpt lat="45.95047" lon="4.86606">
        <ele>272</ele>
        <time>2018-01-12T10:55:38Z</time>
      </trkpt>
      <trkpt lat="45.95053" lon="4.86604">
        <ele>272</ele>
        <time>2018-01-12T10:55:39Z</time>
      </trkpt>
      <trkpt lat="45.95058" lon="4.86603">
        <ele>272</ele>
        <time>2018-01-12T10:55:40Z</time>
      </trkpt>
      <trkpt lat="45.95063" lon="4.86601">
        <ele>272</ele>
        <time>2018-01-12T10:55:41Z</time>
      </trkpt>
      <trkpt lat="45.95068" lon="4.86599">
        <ele>272</ele>
        <time>2018-01-12T10:55:42Z</time>
      </trkpt>
      <trkpt lat="45.95073" lon="4.86597">
        <ele>272</ele>
        <time>2018-01-12T10:55:43Z</time>
      </trkpt>
      <trkpt lat="45.95079" lon="4.86595">
        <ele>272</ele>
        <time>2018-01-12T10:55:44Z</time>
      </trkpt>
      <trkpt lat="45.95084" lon="4.86593">
        <ele>271</ele>
        <time>2018-01-12T10:55:45Z</time>
      </trkpt>
      <trkpt lat="45.95089" lon="4.86593">
        <ele>271</ele>
        <time>2018-01-12T10:55:46Z</time>
      </trkpt>
      <trkpt lat="45.95095" lon="4.86592">
        <ele>271</ele>
        <time>2018-01-12T10:55:47Z</time>
      </trkpt>
      <trkpt lat="45.951" lon="4.86591">
        <ele>271</ele>
        <time>2018-01-12T10:55:48Z</time>
      </trkpt>
      <trkpt lat="45.95105" lon="4.8659">
        <ele>271</ele>
        <time>2018-01-12T10:55:49Z</time>
      </trkpt>
      <trkpt lat="45.95111" lon="4.86589">
        <ele>271</ele>
        <time>2018-01-12T10:55:50Z</time>
      </trkpt>
      <trkpt lat="45.95116" lon="4.86588">
        <ele>270</ele>
        <time>2018-01-12T10:55:51Z</time>
      </trkpt>
      <trkpt lat="45.9512" lon="4.86588">
        <ele>270</ele>
        <time>2018-01-12T10:55:52Z</time>
      </trkpt>
      <trkpt lat="45.95125" lon="4.86588">
        <ele>270</ele>
        <time>2018-01-12T10:55:53Z</time>
      </trkpt>
      <trkpt lat="45.95131" lon="4.86588">
        <ele>270</ele>
        <time>2018-01-12T10:55:54Z</time>
      </trkpt>
      <trkpt lat="45.95137" lon="4.86587">
        <ele>270</ele>
        <time>2018-01-12T10:55:55Z</time>
      </trkpt>
      <trkpt lat="45.95142" lon="4.86586">
        <ele>270</ele>
        <time>2018-01-12T10:55:56Z</time>
      </trkpt>
      <trkpt lat="45.95148" lon="4.86584">
        <ele>270</ele>
        <time>2018-01-12T10:55:57Z</time>
      </trkpt>
      <trkpt lat="45.95153" lon="4.86583">
        <ele>269</ele>
        <time>2018-01-12T10:55:58Z</time>
      </trkpt>
      <trkpt lat="45.95157" lon="4.86582">
        <ele>269</ele>
        <time>2018-01-12T10:55:59Z</time>
      </trkpt>
      <trkpt lat="45.95162" lon="4.86582">
        <ele>269</ele>
        <time>2018-01-12T10:56:00Z</time>
      </trkpt>
      <trkpt lat="45.95168" lon="4.86581">
        <ele>269</ele>
        <time>2018-01-12T10:56:01Z</time>
      </trkpt>
      <trkpt lat="45.95174" lon="4.86581">
        <ele>269</ele>
        <time>2018-01-12T10:56:02Z</time>
      </trkpt>
      <trkpt lat="45.95179" lon="4.86581">
        <ele>269</ele>
        <time>2018-01-12T10:56:03Z</time>
      </trkpt>
      <trkpt lat="45.95184" lon="4.86581">
        <ele>269</ele>
        <time>2018-01-12T10:56:04Z</time>
      </trkpt>
      <trkpt lat="45.95189" lon="4.86581">
        <ele>269</ele>
        <time>2018-01-12T10:56:05Z</time>
      </trkpt>
      <trkpt lat="45.95195" lon="4.86581">
        <ele>268</ele>
        <time>2018-01-12T10:56:06Z</time>
      </trkpt>
      <trkpt lat="45.95201" lon="4.86581">
        <ele>268</ele>
        <time>2018-01-12T10:56:07Z</time>
      </trkpt>
      <trkpt lat="45.95207" lon="4.86582">
        <ele>268</ele>
        <time>2018-01-12T10:56:08Z</time>
      </trkpt>
      <trkpt lat="45.95213" lon="4.86582">
        <ele>268</ele>
        <time>2018-01-12T10:56:09Z</time>
      </trkpt>
      <trkpt lat="45.9522" lon="4.86583">
        <ele>268</ele>
        <time>2018-01-12T10:56:10Z</time>
      </trkpt>
      <trkpt lat="45.95226" lon="4.86584">
        <ele>269</ele>
        <time>2018-01-12T10:56:11Z</time>
      </trkpt>
      <trkpt lat="45.95232" lon="4.86585">
        <ele>269</ele>
        <time>2018-01-12T10:56:12Z</time>
      </trkpt>
      <trkpt lat="45.95239" lon="4.86585">
        <ele>268</ele>
        <time>2018-01-12T10:56:13Z</time>
      </trkpt>
      <trkpt lat="45.95244" lon="4.86585">
        <ele>268</ele>
        <time>2018-01-12T10:56:14Z</time>
      </trkpt>
      <trkpt lat="45.95249" lon="4.86585">
        <ele>268</ele>
        <time>2018-01-12T10:56:15Z</time>
      </trkpt>
      <trkpt lat="45.95257" lon="4.86582">
        <ele>268</ele>
        <time>2018-01-12T10:56:17Z</time>
      </trkpt>
      <trkpt lat="45.95259" lon="4.8658">
        <ele>268</ele>
        <time>2018-01-12T10:56:18Z</time>
      </trkpt>
      <trkpt lat="45.95262" lon="4.86573">
        <ele>267</ele>
        <time>2018-01-12T10:56:20Z</time>
      </trkpt>
      <trkpt lat="45.95263" lon="4.86568">
        <ele>267</ele>
        <time>2018-01-12T10:56:21Z</time>
      </trkpt>
      <trkpt lat="45.95258" lon="4.86558">
        <ele>267</ele>
        <time>2018-01-12T10:56:23Z</time>
      </trkpt>
      <trkpt lat="45.95256" lon="4.86554">
        <ele>267</ele>
        <time>2018-01-12T10:56:24Z</time>
      </trkpt>
      <trkpt lat="45.9525" lon="4.86547">
        <ele>267</ele>
        <time>2018-01-12T10:56:26Z</time>
      </trkpt>
      <trkpt lat="45.95247" lon="4.86546">
        <ele>268</ele>
        <time>2018-01-12T10:56:27Z</time>
      </trkpt>
      <trkpt lat="45.9524" lon="4.86542">
        <ele>268</ele>
        <time>2018-01-12T10:56:29Z</time>
      </trkpt>
      <trkpt lat="45.95237" lon="4.86532">
        <ele>268</ele>
        <time>2018-01-12T10:56:30Z</time>
      </trkpt>
      <trkpt lat="45.9523" lon="4.86532">
        <ele>268</ele>
        <time>2018-01-12T10:56:31Z</time>
      </trkpt>
      <trkpt lat="45.95224" lon="4.86529">
        <ele>268</ele>
        <time>2018-01-12T10:56:32Z</time>
      </trkpt>
      <trkpt lat="45.95221" lon="4.86523">
        <ele>268</ele>
        <time>2018-01-12T10:56:33Z</time>
      </trkpt>
      <trkpt lat="45.95215" lon="4.86517">
        <ele>268</ele>
        <time>2018-01-12T10:56:34Z</time>
      </trkpt>
      <trkpt lat="45.95211" lon="4.86511">
        <ele>268</ele>
        <time>2018-01-12T10:56:35Z</time>
      </trkpt>
      <trkpt lat="45.95206" lon="4.86507">
        <ele>268</ele>
        <time>2018-01-12T10:56:36Z</time>
      </trkpt>
      <trkpt lat="45.95202" lon="4.86501">
        <ele>268</ele>
        <time>2018-01-12T10:56:37Z</time>
      </trkpt>
      <trkpt lat="45.95198" lon="4.86496">
        <ele>268</ele>
        <time>2018-01-12T10:56:38Z</time>
      </trkpt>
      <trkpt lat="45.95194" lon="4.86491">
        <ele>268</ele>
        <time>2018-01-12T10:56:39Z</time>
      </trkpt>
      <trkpt lat="45.95191" lon="4.86486">
        <ele>268</ele>
        <time>2018-01-12T10:56:40Z</time>
      </trkpt>
      <trkpt lat="45.95187" lon="4.8648">
        <ele>268</ele>
        <time>2018-01-12T10:56:41Z</time>
      </trkpt>
      <trkpt lat="45.95183" lon="4.86475">
        <ele>268</ele>
        <time>2018-01-12T10:56:42Z</time>
      </trkpt>
      <trkpt lat="45.9518" lon="4.8647">
        <ele>268</ele>
        <time>2018-01-12T10:56:43Z</time>
      </trkpt>
      <trkpt lat="45.95177" lon="4.86464">
        <ele>268</ele>
        <time>2018-01-12T10:56:44Z</time>
      </trkpt>
      <trkpt lat="45.95173" lon="4.86459">
        <ele>268</ele>
        <time>2018-01-12T10:56:45Z</time>
      </trkpt>
      <trkpt lat="45.95169" lon="4.86454">
        <ele>268</ele>
        <time>2018-01-12T10:56:46Z</time>
      </trkpt>
      <trkpt lat="45.95165" lon="4.86449">
        <ele>269</ele>
        <time>2018-01-12T10:56:47Z</time>
      </trkpt>
      <trkpt lat="45.95161" lon="4.86445">
        <ele>269</ele>
        <time>2018-01-12T10:56:48Z</time>
      </trkpt>
      <trkpt lat="45.95158" lon="4.8644">
        <ele>268</ele>
        <time>2018-01-12T10:56:49Z</time>
      </trkpt>
      <trkpt lat="45.95154" lon="4.86436">
        <ele>268</ele>
        <time>2018-01-12T10:56:50Z</time>
      </trkpt>
      <trkpt lat="45.95151" lon="4.86431">
        <ele>268</ele>
        <time>2018-01-12T10:56:51Z</time>
      </trkpt>
      <trkpt lat="45.95146" lon="4.86426">
        <ele>268</ele>
        <time>2018-01-12T10:56:52Z</time>
      </trkpt>
      <trkpt lat="45.95143" lon="4.86421">
        <ele>268</ele>
        <time>2018-01-12T10:56:53Z</time>
      </trkpt>
      <trkpt lat="45.95138" lon="4.86415">
        <ele>268</ele>
        <time>2018-01-12T10:56:54Z</time>
      </trkpt>
      <trkpt lat="45.95134" lon="4.86409">
        <ele>268</ele>
        <time>2018-01-12T10:56:55Z</time>
      </trkpt>
      <trkpt lat="45.9513" lon="4.86404">
        <ele>268</ele>
        <time>2018-01-12T10:56:56Z</time>
      </trkpt>
      <trkpt lat="45.95125" lon="4.864">
        <ele>269</ele>
        <time>2018-01-12T10:56:57Z</time>
      </trkpt>
      <trkpt lat="45.95121" lon="4.86395">
        <ele>269</ele>
        <time>2018-01-12T10:56:58Z</time>
      </trkpt>
      <trkpt lat="45.95117" lon="4.86391">
        <ele>269</ele>
        <time>2018-01-12T10:56:59Z</time>
      </trkpt>
      <trkpt lat="45.95112" lon="4.86386">
        <ele>269</ele>
        <time>2018-01-12T10:57:00Z</time>
      </trkpt>
      <trkpt lat="45.95108" lon="4.86381">
        <ele>269</ele>
        <time>2018-01-12T10:57:01Z</time>
      </trkpt>
      <trkpt lat="45.95105" lon="4.86376">
        <ele>269</ele>
        <time>2018-01-12T10:57:02Z</time>
      </trkpt>
      <trkpt lat="45.951" lon="4.86371">
        <ele>269</ele>
        <time>2018-01-12T10:57:03Z</time>
      </trkpt>
      <trkpt lat="45.95097" lon="4.86365">
        <ele>269</ele>
        <time>2018-01-12T10:57:04Z</time>
      </trkpt>
      <trkpt lat="45.95093" lon="4.86359">
        <ele>269</ele>
        <time>2018-01-12T10:57:05Z</time>
      </trkpt>
      <trkpt lat="45.95088" lon="4.86353">
        <ele>269</ele>
        <time>2018-01-12T10:57:06Z</time>
      </trkpt>
      <trkpt lat="45.95083" lon="4.86348">
        <ele>270</ele>
        <time>2018-01-12T10:57:07Z</time>
      </trkpt>
      <trkpt lat="45.95079" lon="4.86342">
        <ele>270</ele>
        <time>2018-01-12T10:57:08Z</time>
      </trkpt>
      <trkpt lat="45.95074" lon="4.86337">
        <ele>270</ele>
        <time>2018-01-12T10:57:09Z</time>
      </trkpt>
      <trkpt lat="45.9507" lon="4.86332">
        <ele>270</ele>
        <time>2018-01-12T10:57:10Z</time>
      </trkpt>
      <trkpt lat="45.95065" lon="4.86326">
        <ele>270</ele>
        <time>2018-01-12T10:57:11Z</time>
      </trkpt>
      <trkpt lat="45.95061" lon="4.86321">
        <ele>270</ele>
        <time>2018-01-12T10:57:12Z</time>
      </trkpt>
      <trkpt lat="45.95058" lon="4.86317">
        <ele>271</ele>
        <time>2018-01-12T10:57:13Z</time>
      </trkpt>
      <trkpt lat="45.95054" lon="4.86311">
        <ele>271</ele>
        <time>2018-01-12T10:57:14Z</time>
      </trkpt>
      <trkpt lat="45.95051" lon="4.86307">
        <ele>271</ele>
        <time>2018-01-12T10:57:15Z</time>
      </trkpt>
      <trkpt lat="45.95047" lon="4.86302">
        <ele>271</ele>
        <time>2018-01-12T10:57:16Z</time>
      </trkpt>
      <trkpt lat="45.95044" lon="4.86297">
        <ele>271</ele>
        <time>2018-01-12T10:57:17Z</time>
      </trkpt>
      <trkpt lat="45.9504" lon="4.86292">
        <ele>271</ele>
        <time>2018-01-12T10:57:18Z</time>
      </trkpt>
      <trkpt lat="45.95037" lon="4.86287">
        <ele>271</ele>
        <time>2018-01-12T10:57:19Z</time>
      </trkpt>
      <trkpt lat="45.95033" lon="4.86282">
        <ele>271</ele>
        <time>2018-01-12T10:57:20Z</time>
      </trkpt>
      <trkpt lat="45.95029" lon="4.86277">
        <ele>271</ele>
        <time>2018-01-12T10:57:21Z</time>
      </trkpt>
      <trkpt lat="45.95025" lon="4.86272">
        <ele>271</ele>
        <time>2018-01-12T10:57:22Z</time>
      </trkpt>
      <trkpt lat="45.95021" lon="4.86267">
        <ele>271</ele>
        <time>2018-01-12T10:57:23Z</time>
      </trkpt>
      <trkpt lat="45.95017" lon="4.86262">
        <ele>271</ele>
        <time>2018-01-12T10:57:24Z</time>
      </trkpt>
      <trkpt lat="45.95013" lon="4.86257">
        <ele>272</ele>
        <time>2018-01-12T10:57:25Z</time>
      </trkpt>
      <trkpt lat="45.95009" lon="4.86253">
        <ele>272</ele>
        <time>2018-01-12T10:57:26Z</time>
      </trkpt>
      <trkpt lat="45.95006" lon="4.86249">
        <ele>272</ele>
        <time>2018-01-12T10:57:27Z</time>
      </trkpt>
      <trkpt lat="45.95002" lon="4.86243">
        <ele>272</ele>
        <time>2018-01-12T10:57:28Z</time>
      </trkpt>
      <trkpt lat="45.94999" lon="4.86238">
        <ele>272</ele>
        <time>2018-01-12T10:57:29Z</time>
      </trkpt>
      <trkpt lat="45.94994" lon="4.86234">
        <ele>272</ele>
        <time>2018-01-12T10:57:30Z</time>
      </trkpt>
      <trkpt lat="45.9499" lon="4.8623">
        <ele>272</ele>
        <time>2018-01-12T10:57:31Z</time>
      </trkpt>
      <trkpt lat="45.94987" lon="4.86224">
        <ele>272</ele>
        <time>2018-01-12T10:57:32Z</time>
      </trkpt>
      <trkpt lat="45.94983" lon="4.8622">
        <ele>272</ele>
        <time>2018-01-12T10:57:33Z</time>
      </trkpt>
      <trkpt lat="45.94979" lon="4.86215">
        <ele>272</ele>
        <time>2018-01-12T10:57:34Z</time>
      </trkpt>
      <trkpt lat="45.94976" lon="4.8621">
        <ele>272</ele>
        <time>2018-01-12T10:57:35Z</time>
      </trkpt>
      <trkpt lat="45.94972" lon="4.86206">
        <ele>272</ele>
        <time>2018-01-12T10:57:36Z</time>
      </trkpt>
      <trkpt lat="45.94968" lon="4.86202">
        <ele>272</ele>
        <time>2018-01-12T10:57:37Z</time>
      </trkpt>
      <trkpt lat="45.94963" lon="4.86197">
        <ele>272</ele>
        <time>2018-01-12T10:57:38Z</time>
      </trkpt>
      <trkpt lat="45.9496" lon="4.86193">
        <ele>272</ele>
        <time>2018-01-12T10:57:39Z</time>
      </trkpt>
      <trkpt lat="45.94956" lon="4.86188">
        <ele>273</ele>
        <time>2018-01-12T10:57:40Z</time>
      </trkpt>
      <trkpt lat="45.94952" lon="4.86183">
        <ele>273</ele>
        <time>2018-01-12T10:57:41Z</time>
      </trkpt>
      <trkpt lat="45.94948" lon="4.86178">
        <ele>273</ele>
        <time>2018-01-12T10:57:42Z</time>
      </trkpt>
      <trkpt lat="45.94944" lon="4.86172">
        <ele>273</ele>
        <time>2018-01-12T10:57:43Z</time>
      </trkpt>
      <trkpt lat="45.9494" lon="4.86168">
        <ele>273</ele>
        <time>2018-01-12T10:57:44Z</time>
      </trkpt>
      <trkpt lat="45.94937" lon="4.86162">
        <ele>273</ele>
        <time>2018-01-12T10:57:45Z</time>
      </trkpt>
      <trkpt lat="45.94932" lon="4.86157">
        <ele>273</ele>
        <time>2018-01-12T10:57:46Z</time>
      </trkpt>
      <trkpt lat="45.94929" lon="4.86151">
        <ele>273</ele>
        <time>2018-01-12T10:57:47Z</time>
      </trkpt>
      <trkpt lat="45.94925" lon="4.86146">
        <ele>273</ele>
        <time>2018-01-12T10:57:48Z</time>
      </trkpt>
      <trkpt lat="45.94922" lon="4.8614">
        <ele>273</ele>
        <time>2018-01-12T10:57:49Z</time>
      </trkpt>
      <trkpt lat="45.94918" lon="4.86135">
        <ele>273</ele>
        <time>2018-01-12T10:57:50Z</time>
      </trkpt>
      <trkpt lat="45.94914" lon="4.86129">
        <ele>274</ele>
        <time>2018-01-12T10:57:51Z</time>
      </trkpt>
      <trkpt lat="45.94911" lon="4.86123">
        <ele>274</ele>
        <time>2018-01-12T10:57:52Z</time>
      </trkpt>
      <trkpt lat="45.94908" lon="4.86117">
        <ele>274</ele>
        <time>2018-01-12T10:57:53Z</time>
      </trkpt>
      <trkpt lat="45.94903" lon="4.86112">
        <ele>274</ele>
        <time>2018-01-12T10:57:54Z</time>
      </trkpt>
      <trkpt lat="45.949" lon="4.86105">
        <ele>274</ele>
        <time>2018-01-12T10:57:55Z</time>
      </trkpt>
      <trkpt lat="45.94897" lon="4.86099">
        <ele>274</ele>
        <time>2018-01-12T10:57:56Z</time>
      </trkpt>
      <trkpt lat="45.94894" lon="4.86092">
        <ele>274</ele>
        <time>2018-01-12T10:57:57Z</time>
      </trkpt>
      <trkpt lat="45.94891" lon="4.86086">
        <ele>274</ele>
        <time>2018-01-12T10:57:58Z</time>
      </trkpt>
      <trkpt lat="45.94889" lon="4.86079">
        <ele>274</ele>
        <time>2018-01-12T10:57:59Z</time>
      </trkpt>
      <trkpt lat="45.94887" lon="4.86071">
        <ele>274</ele>
        <time>2018-01-12T10:58:00Z</time>
      </trkpt>
      <trkpt lat="45.94886" lon="4.86064">
        <ele>274</ele>
        <time>2018-01-12T10:58:01Z</time>
      </trkpt>
      <trkpt lat="45.94884" lon="4.86056">
        <ele>274</ele>
        <time>2018-01-12T10:58:02Z</time>
      </trkpt>
      <trkpt lat="45.94882" lon="4.86048">
        <ele>274</ele>
        <time>2018-01-12T10:58:03Z</time>
      </trkpt>
      <trkpt lat="45.9488" lon="4.8604">
        <ele>274</ele>
        <time>2018-01-12T10:58:04Z</time>
      </trkpt>
      <trkpt lat="45.94878" lon="4.86032">
        <ele>274</ele>
        <time>2018-01-12T10:58:05Z</time>
      </trkpt>
      <trkpt lat="45.94876" lon="4.86024">
        <ele>274</ele>
        <time>2018-01-12T10:58:06Z</time>
      </trkpt>
      <trkpt lat="45.94875" lon="4.86017">
        <ele>274</ele>
        <time>2018-01-12T10:58:07Z</time>
      </trkpt>
      <trkpt lat="45.94872" lon="4.86008">
        <ele>274</ele>
        <time>2018-01-12T10:58:08Z</time>
      </trkpt>
      <trkpt lat="45.9487" lon="4.86001">
        <ele>274</ele>
        <time>2018-01-12T10:58:09Z</time>
      </trkpt>
      <trkpt lat="45.94867" lon="4.85993">
        <ele>275</ele>
        <time>2018-01-12T10:58:10Z</time>
      </trkpt>
      <trkpt lat="45.94866" lon="4.85985">
        <ele>275</ele>
        <time>2018-01-12T10:58:11Z</time>
      </trkpt>
      <trkpt lat="45.94862" lon="4.85977">
        <ele>275</ele>
        <time>2018-01-12T10:58:12Z</time>
      </trkpt>
      <trkpt lat="45.94861" lon="4.85969">
        <ele>275</ele>
        <time>2018-01-12T10:58:13Z</time>
      </trkpt>
      <trkpt lat="45.94859" lon="4.85962">
        <ele>275</ele>
        <time>2018-01-12T10:58:14Z</time>
      </trkpt>
      <trkpt lat="45.94857" lon="4.85955">
        <ele>275</ele>
        <time>2018-01-12T10:58:15Z</time>
      </trkpt>
      <trkpt lat="45.94855" lon="4.85947">
        <ele>275</ele>
        <time>2018-01-12T10:58:16Z</time>
      </trkpt>
      <trkpt lat="45.94853" lon="4.8594">
        <ele>275</ele>
        <time>2018-01-12T10:58:17Z</time>
      </trkpt>
      <trkpt lat="45.94851" lon="4.85933">
        <ele>275</ele>
        <time>2018-01-12T10:58:18Z</time>
      </trkpt>
      <trkpt lat="45.94849" lon="4.85925">
        <ele>275</ele>
        <time>2018-01-12T10:58:19Z</time>
      </trkpt>
      <trkpt lat="45.94847" lon="4.85918">
        <ele>275</ele>
        <time>2018-01-12T10:58:20Z</time>
      </trkpt>
      <trkpt lat="45.94845" lon="4.8591">
        <ele>275</ele>
        <time>2018-01-12T10:58:21Z</time>
      </trkpt>
      <trkpt lat="45.94843" lon="4.85902">
        <ele>276</ele>
        <time>2018-01-12T10:58:22Z</time>
      </trkpt>
      <trkpt lat="45.94841" lon="4.85894">
        <ele>276</ele>
        <time>2018-01-12T10:58:23Z</time>
      </trkpt>
      <trkpt lat="45.94839" lon="4.85886">
        <ele>276</ele>
        <time>2018-01-12T10:58:24Z</time>
      </trkpt>
      <trkpt lat="45.94838" lon="4.85878">
        <ele>276</ele>
        <time>2018-01-12T10:58:25Z</time>
      </trkpt>
      <trkpt lat="45.94836" lon="4.85871">
        <ele>276</ele>
        <time>2018-01-12T10:58:26Z</time>
      </trkpt>
      <trkpt lat="45.94834" lon="4.85863">
        <ele>276</ele>
        <time>2018-01-12T10:58:27Z</time>
      </trkpt>
      <trkpt lat="45.94832" lon="4.85856">
        <ele>277</ele>
        <time>2018-01-12T10:58:28Z</time>
      </trkpt>
      <trkpt lat="45.9483" lon="4.85848">
        <ele>277</ele>
        <time>2018-01-12T10:58:29Z</time>
      </trkpt>
      <trkpt lat="45.94828" lon="4.8584">
        <ele>277</ele>
        <time>2018-01-12T10:58:30Z</time>
      </trkpt>
      <trkpt lat="45.94826" lon="4.85831">
        <ele>277</ele>
        <time>2018-01-12T10:58:31Z</time>
      </trkpt>
      <trkpt lat="45.94825" lon="4.85823">
        <ele>277</ele>
        <time>2018-01-12T10:58:32Z</time>
      </trkpt>
      <trkpt lat="45.94822" lon="4.85816">
        <ele>278</ele>
        <time>2018-01-12T10:58:33Z</time>
      </trkpt>
      <trkpt lat="45.9482" lon="4.85807">
        <ele>278</ele>
        <time>2018-01-12T10:58:34Z</time>
      </trkpt>
      <trkpt lat="45.94818" lon="4.858">
        <ele>278</ele>
        <time>2018-01-12T10:58:35Z</time>
      </trkpt>
      <trkpt lat="45.94816" lon="4.85792">
        <ele>278</ele>
        <time>2018-01-12T10:58:36Z</time>
      </trkpt>
      <trkpt lat="45.94813" lon="4.85784">
        <ele>278</ele>
        <time>2018-01-12T10:58:37Z</time>
      </trkpt>
      <trkpt lat="45.94811" lon="4.85776">
        <ele>278</ele>
        <time>2018-01-12T10:58:38Z</time>
      </trkpt>
      <trkpt lat="45.9481" lon="4.85769">
        <ele>278</ele>
        <time>2018-01-12T10:58:39Z</time>
      </trkpt>
      <trkpt lat="45.94808" lon="4.85761">
        <ele>278</ele>
        <time>2018-01-12T10:58:40Z</time>
      </trkpt>
      <trkpt lat="45.94806" lon="4.85752">
        <ele>278</ele>
        <time>2018-01-12T10:58:41Z</time>
      </trkpt>
      <trkpt lat="45.94804" lon="4.85745">
        <ele>279</ele>
        <time>2018-01-12T10:58:42Z</time>
      </trkpt>
      <trkpt lat="45.94802" lon="4.85738">
        <ele>280</ele>
        <time>2018-01-12T10:58:43Z</time>
      </trkpt>
      <trkpt lat="45.948" lon="4.85728">
        <ele>280</ele>
        <time>2018-01-12T10:58:44Z</time>
      </trkpt>
      <trkpt lat="45.94798" lon="4.8572">
        <ele>280</ele>
        <time>2018-01-12T10:58:45Z</time>
      </trkpt>
      <trkpt lat="45.94796" lon="4.85713">
        <ele>280</ele>
        <time>2018-01-12T10:58:46Z</time>
      </trkpt>
      <trkpt lat="45.94794" lon="4.85705">
        <ele>280</ele>
        <time>2018-01-12T10:58:47Z</time>
      </trkpt>
      <trkpt lat="45.94793" lon="4.85698">
        <ele>280</ele>
        <time>2018-01-12T10:58:48Z</time>
      </trkpt>
      <trkpt lat="45.94791" lon="4.85691">
        <ele>280</ele>
        <time>2018-01-12T10:58:49Z</time>
      </trkpt>
      <trkpt lat="45.94789" lon="4.85685">
        <ele>280</ele>
        <time>2018-01-12T10:58:50Z</time>
      </trkpt>
      <trkpt lat="45.94786" lon="4.85679">
        <ele>280</ele>
        <time>2018-01-12T10:58:51Z</time>
      </trkpt>
      <trkpt lat="45.94784" lon="4.85673">
        <ele>280</ele>
        <time>2018-01-12T10:58:52Z</time>
      </trkpt>
      <trkpt lat="45.94781" lon="4.85661">
        <ele>281</ele>
        <time>2018-01-12T10:58:54Z</time>
      </trkpt>
      <trkpt lat="45.9478" lon="4.85654">
        <ele>281</ele>
        <time>2018-01-12T10:58:55Z</time>
      </trkpt>
      <trkpt lat="45.94777" lon="4.85648">
        <ele>281</ele>
        <time>2018-01-12T10:58:56Z</time>
      </trkpt>
      <trkpt lat="45.94775" lon="4.85641">
        <ele>281</ele>
        <time>2018-01-12T10:58:57Z</time>
      </trkpt>
      <trkpt lat="45.94774" lon="4.85634">
        <ele>280</ele>
        <time>2018-01-12T10:58:58Z</time>
      </trkpt>
      <trkpt lat="45.94773" lon="4.85626">
        <ele>280</ele>
        <time>2018-01-12T10:58:59Z</time>
      </trkpt>
      <trkpt lat="45.94772" lon="4.85618">
        <ele>280</ele>
        <time>2018-01-12T10:59:00Z</time>
      </trkpt>
      <trkpt lat="45.9477" lon="4.8561">
        <ele>280</ele>
        <time>2018-01-12T10:59:01Z</time>
      </trkpt>
      <trkpt lat="45.94768" lon="4.85602">
        <ele>280</ele>
        <time>2018-01-12T10:59:02Z</time>
      </trkpt>
      <trkpt lat="45.94766" lon="4.85593">
        <ele>280</ele>
        <time>2018-01-12T10:59:03Z</time>
      </trkpt>
      <trkpt lat="45.94764" lon="4.85585">
        <ele>280</ele>
        <time>2018-01-12T10:59:04Z</time>
      </trkpt>
      <trkpt lat="45.94763" lon="4.85576">
        <ele>279</ele>
        <time>2018-01-12T10:59:05Z</time>
      </trkpt>
      <trkpt lat="45.94761" lon="4.85567">
        <ele>279</ele>
        <time>2018-01-12T10:59:06Z</time>
      </trkpt>
      <trkpt lat="45.94759" lon="4.85557">
        <ele>278</ele>
        <time>2018-01-12T10:59:07Z</time>
      </trkpt>
      <trkpt lat="45.94758" lon="4.85548">
        <ele>278</ele>
        <time>2018-01-12T10:59:08Z</time>
      </trkpt>
      <trkpt lat="45.94756" lon="4.85537">
        <ele>278</ele>
        <time>2018-01-12T10:59:09Z</time>
      </trkpt>
      <trkpt lat="45.94755" lon="4.85527">
        <ele>278</ele>
        <time>2018-01-12T10:59:10Z</time>
      </trkpt>
      <trkpt lat="45.94753" lon="4.85515">
        <ele>277</ele>
        <time>2018-01-12T10:59:11Z</time>
      </trkpt>
      <trkpt lat="45.94752" lon="4.85504">
        <ele>276</ele>
        <time>2018-01-12T10:59:12Z</time>
      </trkpt>
      <trkpt lat="45.94751" lon="4.85492">
        <ele>276</ele>
        <time>2018-01-12T10:59:13Z</time>
      </trkpt>
      <trkpt lat="45.94749" lon="4.8548">
        <ele>275</ele>
        <time>2018-01-12T10:59:14Z</time>
      </trkpt>
      <trkpt lat="45.94748" lon="4.85468">
        <ele>274</ele>
        <time>2018-01-12T10:59:15Z</time>
      </trkpt>
      <trkpt lat="45.94746" lon="4.85457">
        <ele>274</ele>
        <time>2018-01-12T10:59:16Z</time>
      </trkpt>
      <trkpt lat="45.94745" lon="4.85444">
        <ele>274</ele>
        <time>2018-01-12T10:59:17Z</time>
      </trkpt>
      <trkpt lat="45.94743" lon="4.85432">
        <ele>273</ele>
        <time>2018-01-12T10:59:18Z</time>
      </trkpt>
      <trkpt lat="45.94742" lon="4.85421">
        <ele>273</ele>
        <time>2018-01-12T10:59:19Z</time>
      </trkpt>
      <trkpt lat="45.94741" lon="4.85409">
        <ele>272</ele>
        <time>2018-01-12T10:59:20Z</time>
      </trkpt>
      <trkpt lat="45.9474" lon="4.85397">
        <ele>272</ele>
        <time>2018-01-12T10:59:21Z</time>
      </trkpt>
      <trkpt lat="45.94738" lon="4.85385">
        <ele>272</ele>
        <time>2018-01-12T10:59:22Z</time>
      </trkpt>
      <trkpt lat="45.94737" lon="4.85373">
        <ele>271</ele>
        <time>2018-01-12T10:59:23Z</time>
      </trkpt>
      <trkpt lat="45.94736" lon="4.85362">
        <ele>271</ele>
        <time>2018-01-12T10:59:24Z</time>
      </trkpt>
      <trkpt lat="45.94735" lon="4.85351">
        <ele>271</ele>
        <time>2018-01-12T10:59:25Z</time>
      </trkpt>
      <trkpt lat="45.94734" lon="4.85341">
        <ele>271</ele>
        <time>2018-01-12T10:59:26Z</time>
      </trkpt>
      <trkpt lat="45.94733" lon="4.85329">
        <ele>270</ele>
        <time>2018-01-12T10:59:27Z</time>
      </trkpt>
      <trkpt lat="45.94732" lon="4.85319">
        <ele>270</ele>
        <time>2018-01-12T10:59:28Z</time>
      </trkpt>
      <trkpt lat="45.94731" lon="4.85309">
        <ele>270</ele>
        <time>2018-01-12T10:59:29Z</time>
      </trkpt>
      <trkpt lat="45.9473" lon="4.85299">
        <ele>270</ele>
        <time>2018-01-12T10:59:30Z</time>
      </trkpt>
      <trkpt lat="45.94729" lon="4.8529">
        <ele>269</ele>
        <time>2018-01-12T10:59:31Z</time>
      </trkpt>
      <trkpt lat="45.94728" lon="4.8528">
        <ele>269</ele>
        <time>2018-01-12T10:59:32Z</time>
      </trkpt>
      <trkpt lat="45.94727" lon="4.8527">
        <ele>269</ele>
        <time>2018-01-12T10:59:33Z</time>
      </trkpt>
      <trkpt lat="45.94726" lon="4.85262">
        <ele>269</ele>
        <time>2018-01-12T10:59:34Z</time>
      </trkpt>
      <trkpt lat="45.94725" lon="4.85253">
        <ele>269</ele>
        <time>2018-01-12T10:59:35Z</time>
      </trkpt>
      <trkpt lat="45.94724" lon="4.85244">
        <ele>269</ele>
        <time>2018-01-12T10:59:36Z</time>
      </trkpt>
      <trkpt lat="45.94723" lon="4.85236">
        <ele>269</ele>
        <time>2018-01-12T10:59:37Z</time>
      </trkpt>
      <trkpt lat="45.94721" lon="4.85227">
        <ele>269</ele>
        <time>2018-01-12T10:59:38Z</time>
      </trkpt>
      <trkpt lat="45.94721" lon="4.85219">
        <ele>269</ele>
        <time>2018-01-12T10:59:39Z</time>
      </trkpt>
      <trkpt lat="45.9472" lon="4.85211">
        <ele>269</ele>
        <time>2018-01-12T10:59:40Z</time>
      </trkpt>
      <trkpt lat="45.94719" lon="4.85203">
        <ele>269</ele>
        <time>2018-01-12T10:59:41Z</time>
      </trkpt>
      <trkpt lat="45.94719" lon="4.85196">
        <ele>269</ele>
        <time>2018-01-12T10:59:42Z</time>
      </trkpt>
      <trkpt lat="45.94718" lon="4.85187">
        <ele>269</ele>
        <time>2018-01-12T10:59:43Z</time>
      </trkpt>
      <trkpt lat="45.94717" lon="4.85179">
        <ele>269</ele>
        <time>2018-01-12T10:59:44Z</time>
      </trkpt>
      <trkpt lat="45.94718" lon="4.85171">
        <ele>269</ele>
        <time>2018-01-12T10:59:45Z</time>
      </trkpt>
      <trkpt lat="45.94717" lon="4.85163">
        <ele>269</ele>
        <time>2018-01-12T10:59:46Z</time>
      </trkpt>
      <trkpt lat="45.94716" lon="4.85154">
        <ele>269</ele>
        <time>2018-01-12T10:59:47Z</time>
      </trkpt>
      <trkpt lat="45.94714" lon="4.85146">
        <ele>269</ele>
        <time>2018-01-12T10:59:48Z</time>
      </trkpt>
      <trkpt lat="45.94712" lon="4.85137">
        <ele>269</ele>
        <time>2018-01-12T10:59:49Z</time>
      </trkpt>
      <trkpt lat="45.94711" lon="4.85129">
        <ele>269</ele>
        <time>2018-01-12T10:59:50Z</time>
      </trkpt>
      <trkpt lat="45.94709" lon="4.8512">
        <ele>269</ele>
        <time>2018-01-12T10:59:51Z</time>
      </trkpt>
      <trkpt lat="45.94709" lon="4.85111">
        <ele>269</ele>
        <time>2018-01-12T10:59:52Z</time>
      </trkpt>
      <trkpt lat="45.94708" lon="4.85101">
        <ele>269</ele>
        <time>2018-01-12T10:59:53Z</time>
      </trkpt>
      <trkpt lat="45.94707" lon="4.85092">
        <ele>269</ele>
        <time>2018-01-12T10:59:54Z</time>
      </trkpt>
      <trkpt lat="45.94705" lon="4.85083">
        <ele>269</ele>
        <time>2018-01-12T10:59:55Z</time>
      </trkpt>
      <trkpt lat="45.94705" lon="4.85074">
        <ele>269</ele>
        <time>2018-01-12T10:59:56Z</time>
      </trkpt>
      <trkpt lat="45.94704" lon="4.85065">
        <ele>269</ele>
        <time>2018-01-12T10:59:57Z</time>
      </trkpt>
      <trkpt lat="45.94702" lon="4.85057">
        <ele>269</ele>
        <time>2018-01-12T10:59:58Z</time>
      </trkpt>
      <trkpt lat="45.94699" lon="4.85032">
        <ele>269</ele>
        <time>2018-01-12T11:00:01Z</time>
      </trkpt>
      <trkpt lat="45.94698" lon="4.85023">
        <ele>269</ele>
        <time>2018-01-12T11:00:02Z</time>
      </trkpt>
      <trkpt lat="45.94697" lon="4.85014">
        <ele>269</ele>
        <time>2018-01-12T11:00:03Z</time>
      </trkpt>
      <trkpt lat="45.94696" lon="4.85005">
        <ele>269</ele>
        <time>2018-01-12T11:00:04Z</time>
      </trkpt>
      <trkpt lat="45.94695" lon="4.84996">
        <ele>269</ele>
        <time>2018-01-12T11:00:05Z</time>
      </trkpt>
      <trkpt lat="45.94694" lon="4.84987">
        <ele>269</ele>
        <time>2018-01-12T11:00:06Z</time>
      </trkpt>
      <trkpt lat="45.94694" lon="4.84979">
        <ele>269</ele>
        <time>2018-01-12T11:00:07Z</time>
      </trkpt>
      <trkpt lat="45.94693" lon="4.8497">
        <ele>269</ele>
        <time>2018-01-12T11:00:08Z</time>
      </trkpt>
      <trkpt lat="45.94692" lon="4.8496">
        <ele>269</ele>
        <time>2018-01-12T11:00:09Z</time>
      </trkpt>
      <trkpt lat="45.94691" lon="4.84953">
        <ele>269</ele>
        <time>2018-01-12T11:00:10Z</time>
      </trkpt>
      <trkpt lat="45.9469" lon="4.84946">
        <ele>269</ele>
        <time>2018-01-12T11:00:11Z</time>
      </trkpt>
      <trkpt lat="45.94689" lon="4.84938">
        <ele>269</ele>
        <time>2018-01-12T11:00:12Z</time>
      </trkpt>
      <trkpt lat="45.94688" lon="4.84929">
        <ele>269</ele>
        <time>2018-01-12T11:00:13Z</time>
      </trkpt>
      <trkpt lat="45.94687" lon="4.84922">
        <ele>269</ele>
        <time>2018-01-12T11:00:14Z</time>
      </trkpt>
      <trkpt lat="45.94686" lon="4.84913">
        <ele>269</ele>
        <time>2018-01-12T11:00:15Z</time>
      </trkpt>
      <trkpt lat="45.94685" lon="4.84905">
        <ele>269</ele>
        <time>2018-01-12T11:00:16Z</time>
      </trkpt>
      <trkpt lat="45.94684" lon="4.84896">
        <ele>268</ele>
        <time>2018-01-12T11:00:17Z</time>
      </trkpt>
      <trkpt lat="45.94684" lon="4.84886">
        <ele>268</ele>
        <time>2018-01-12T11:00:18Z</time>
      </trkpt>
      <trkpt lat="45.94683" lon="4.84877">
        <ele>268</ele>
        <time>2018-01-12T11:00:19Z</time>
      </trkpt>
      <trkpt lat="45.94682" lon="4.84869">
        <ele>268</ele>
        <time>2018-01-12T11:00:20Z</time>
      </trkpt>
      <trkpt lat="45.94681" lon="4.84861">
        <ele>268</ele>
        <time>2018-01-12T11:00:21Z</time>
      </trkpt>
      <trkpt lat="45.9468" lon="4.84852">
        <ele>268</ele>
        <time>2018-01-12T11:00:22Z</time>
      </trkpt>
      <trkpt lat="45.9468" lon="4.84844">
        <ele>268</ele>
        <time>2018-01-12T11:00:23Z</time>
      </trkpt>
      <trkpt lat="45.94679" lon="4.84838">
        <ele>268</ele>
        <time>2018-01-12T11:00:24Z</time>
      </trkpt>
      <trkpt lat="45.94678" lon="4.84831">
        <ele>268</ele>
        <time>2018-01-12T11:00:25Z</time>
      </trkpt>
      <trkpt lat="45.94677" lon="4.84824">
        <ele>268</ele>
        <time>2018-01-12T11:00:26Z</time>
      </trkpt>
      <trkpt lat="45.94677" lon="4.84817">
        <ele>268</ele>
        <time>2018-01-12T11:00:27Z</time>
      </trkpt>
      <trkpt lat="45.94676" lon="4.8481">
        <ele>268</ele>
        <time>2018-01-12T11:00:28Z</time>
      </trkpt>
      <trkpt lat="45.94676" lon="4.84801">
        <ele>268</ele>
        <time>2018-01-12T11:00:29Z</time>
      </trkpt>
      <trkpt lat="45.94675" lon="4.84793">
        <ele>268</ele>
        <time>2018-01-12T11:00:30Z</time>
      </trkpt>
      <trkpt lat="45.94675" lon="4.84784">
        <ele>269</ele>
        <time>2018-01-12T11:00:31Z</time>
      </trkpt>
      <trkpt lat="45.94675" lon="4.84776">
        <ele>269</ele>
        <time>2018-01-12T11:00:32Z</time>
      </trkpt>
      <trkpt lat="45.94675" lon="4.84767">
        <ele>269</ele>
        <time>2018-01-12T11:00:33Z</time>
      </trkpt>
      <trkpt lat="45.94674" lon="4.84759">
        <ele>269</ele>
        <time>2018-01-12T11:00:34Z</time>
      </trkpt>
      <trkpt lat="45.94674" lon="4.8475">
        <ele>269</ele>
        <time>2018-01-12T11:00:35Z</time>
      </trkpt>
      <trkpt lat="45.94674" lon="4.8474">
        <ele>269</ele>
        <time>2018-01-12T11:00:36Z</time>
      </trkpt>
      <trkpt lat="45.94674" lon="4.84728">
        <ele>269</ele>
        <time>2018-01-12T11:00:37Z</time>
      </trkpt>
      <trkpt lat="45.94674" lon="4.84718">
        <ele>269</ele>
        <time>2018-01-12T11:00:38Z</time>
      </trkpt>
      <trkpt lat="45.94674" lon="4.84709">
        <ele>269</ele>
        <time>2018-01-12T11:00:39Z</time>
      </trkpt>
      <trkpt lat="45.94672" lon="4.84699">
        <ele>269</ele>
        <time>2018-01-12T11:00:40Z</time>
      </trkpt>
      <trkpt lat="45.94672" lon="4.8469">
        <ele>269</ele>
        <time>2018-01-12T11:00:41Z</time>
      </trkpt>
      <trkpt lat="45.94672" lon="4.8468">
        <ele>269</ele>
        <time>2018-01-12T11:00:42Z</time>
      </trkpt>
      <trkpt lat="45.94672" lon="4.84672">
        <ele>269</ele>
        <time>2018-01-12T11:00:43Z</time>
      </trkpt>
      <trkpt lat="45.94671" lon="4.84663">
        <ele>269</ele>
        <time>2018-01-12T11:00:44Z</time>
      </trkpt>
      <trkpt lat="45.94671" lon="4.84654">
        <ele>268</ele>
        <time>2018-01-12T11:00:45Z</time>
      </trkpt>
      <trkpt lat="45.94671" lon="4.84645">
        <ele>268</ele>
        <time>2018-01-12T11:00:46Z</time>
      </trkpt>
      <trkpt lat="45.94671" lon="4.84637">
        <ele>268</ele>
        <time>2018-01-12T11:00:47Z</time>
      </trkpt>
      <trkpt lat="45.94671" lon="4.84629">
        <ele>268</ele>
        <time>2018-01-12T11:00:48Z</time>
      </trkpt>
      <trkpt lat="45.9467" lon="4.84621">
        <ele>268</ele>
        <time>2018-01-12T11:00:49Z</time>
      </trkpt>
      <trkpt lat="45.9467" lon="4.84613">
        <ele>268</ele>
        <time>2018-01-12T11:00:50Z</time>
      </trkpt>
      <trkpt lat="45.94669" lon="4.84604">
        <ele>268</ele>
        <time>2018-01-12T11:00:51Z</time>
      </trkpt>
      <trkpt lat="45.94669" lon="4.84596">
        <ele>268</ele>
        <time>2018-01-12T11:00:52Z</time>
      </trkpt>
      <trkpt lat="45.94669" lon="4.84587">
        <ele>268</ele>
        <time>2018-01-12T11:00:53Z</time>
      </trkpt>
      <trkpt lat="45.94668" lon="4.84579">
        <ele>268</ele>
        <time>2018-01-12T11:00:54Z</time>
      </trkpt>
      <trkpt lat="45.94667" lon="4.84571">
        <ele>268</ele>
        <time>2018-01-12T11:00:55Z</time>
      </trkpt>
      <trkpt lat="45.94666" lon="4.84562">
        <ele>268</ele>
        <time>2018-01-12T11:00:56Z</time>
      </trkpt>
      <trkpt lat="45.94666" lon="4.84553">
        <ele>268</ele>
        <time>2018-01-12T11:00:57Z</time>
      </trkpt>
      <trkpt lat="45.94665" lon="4.84545">
        <ele>268</ele>
        <time>2018-01-12T11:00:58Z</time>
      </trkpt>
      <trkpt lat="45.94665" lon="4.84537">
        <ele>268</ele>
        <time>2018-01-12T11:00:59Z</time>
      </trkpt>
      <trkpt lat="45.94664" lon="4.84529">
        <ele>268</ele>
        <time>2018-01-12T11:01:00Z</time>
      </trkpt>
      <trkpt lat="45.94663" lon="4.84521">
        <ele>268</ele>
        <time>2018-01-12T11:01:01Z</time>
      </trkpt>
      <trkpt lat="45.94662" lon="4.84514">
        <ele>268</ele>
        <time>2018-01-12T11:01:02Z</time>
      </trkpt>
      <trkpt lat="45.94661" lon="4.84507">
        <ele>268</ele>
        <time>2018-01-12T11:01:03Z</time>
      </trkpt>
      <trkpt lat="45.9466" lon="4.84499">
        <ele>268</ele>
        <time>2018-01-12T11:01:04Z</time>
      </trkpt>
      <trkpt lat="45.9466" lon="4.84492">
        <ele>268</ele>
        <time>2018-01-12T11:01:05Z</time>
      </trkpt>
      <trkpt lat="45.94659" lon="4.84485">
        <ele>268</ele>
        <time>2018-01-12T11:01:06Z</time>
      </trkpt>
      <trkpt lat="45.94659" lon="4.84478">
        <ele>268</ele>
        <time>2018-01-12T11:01:07Z</time>
      </trkpt>
      <trkpt lat="45.94658" lon="4.8447">
        <ele>268</ele>
        <time>2018-01-12T11:01:08Z</time>
      </trkpt>
      <trkpt lat="45.94657" lon="4.84463">
        <ele>268</ele>
        <time>2018-01-12T11:01:09Z</time>
      </trkpt>
      <trkpt lat="45.94656" lon="4.84458">
        <ele>268</ele>
        <time>2018-01-12T11:01:10Z</time>
      </trkpt>
      <trkpt lat="45.94655" lon="4.84449">
        <ele>268</ele>
        <time>2018-01-12T11:01:11Z</time>
      </trkpt>
      <trkpt lat="45.94653" lon="4.84439">
        <ele>268</ele>
        <time>2018-01-12T11:01:12Z</time>
      </trkpt>
      <trkpt lat="45.94653" lon="4.8443">
        <ele>268</ele>
        <time>2018-01-12T11:01:13Z</time>
      </trkpt>
      <trkpt lat="45.94652" lon="4.84422">
        <ele>268</ele>
        <time>2018-01-12T11:01:14Z</time>
      </trkpt>
      <trkpt lat="45.94652" lon="4.84411">
        <ele>268</ele>
        <time>2018-01-12T11:01:15Z</time>
      </trkpt>
      <trkpt lat="45.94651" lon="4.84402">
        <ele>268</ele>
        <time>2018-01-12T11:01:16Z</time>
      </trkpt>
      <trkpt lat="45.94649" lon="4.84393">
        <ele>268</ele>
        <time>2018-01-12T11:01:17Z</time>
      </trkpt>
      <trkpt lat="45.94646" lon="4.84384">
        <ele>268</ele>
        <time>2018-01-12T11:01:18Z</time>
      </trkpt>
      <trkpt lat="45.94645" lon="4.84375">
        <ele>268</ele>
        <time>2018-01-12T11:01:19Z</time>
      </trkpt>
      <trkpt lat="45.94644" lon="4.84367">
        <ele>268</ele>
        <time>2018-01-12T11:01:20Z</time>
      </trkpt>
      <trkpt lat="45.94643" lon="4.84358">
        <ele>268</ele>
        <time>2018-01-12T11:01:21Z</time>
      </trkpt>
      <trkpt lat="45.94643" lon="4.8435">
        <ele>268</ele>
        <time>2018-01-12T11:01:22Z</time>
      </trkpt>
      <trkpt lat="45.94643" lon="4.84341">
        <ele>268</ele>
        <time>2018-01-12T11:01:23Z</time>
      </trkpt>
      <trkpt lat="45.94642" lon="4.84333">
        <ele>268</ele>
        <time>2018-01-12T11:01:24Z</time>
      </trkpt>
      <trkpt lat="45.94641" lon="4.84325">
        <ele>268</ele>
        <time>2018-01-12T11:01:25Z</time>
      </trkpt>
      <trkpt lat="45.9464" lon="4.84318">
        <ele>269</ele>
        <time>2018-01-12T11:01:26Z</time>
      </trkpt>
      <trkpt lat="45.9464" lon="4.84311">
        <ele>269</ele>
        <time>2018-01-12T11:01:27Z</time>
      </trkpt>
      <trkpt lat="45.94639" lon="4.84303">
        <ele>269</ele>
        <time>2018-01-12T11:01:28Z</time>
      </trkpt>
      <trkpt lat="45.94637" lon="4.84295">
        <ele>269</ele>
        <time>2018-01-12T11:01:29Z</time>
      </trkpt>
      <trkpt lat="45.94637" lon="4.84286">
        <ele>269</ele>
        <time>2018-01-12T11:01:30Z</time>
      </trkpt>
      <trkpt lat="45.94635" lon="4.84277">
        <ele>269</ele>
        <time>2018-01-12T11:01:31Z</time>
      </trkpt>
      <trkpt lat="45.94634" lon="4.84267">
        <ele>269</ele>
        <time>2018-01-12T11:01:32Z</time>
      </trkpt>
      <trkpt lat="45.94633" lon="4.84259">
        <ele>269</ele>
        <time>2018-01-12T11:01:33Z</time>
      </trkpt>
      <trkpt lat="45.94632" lon="4.8425">
        <ele>269</ele>
        <time>2018-01-12T11:01:34Z</time>
      </trkpt>
      <trkpt lat="45.9463" lon="4.8424">
        <ele>269</ele>
        <time>2018-01-12T11:01:35Z</time>
      </trkpt>
      <trkpt lat="45.94629" lon="4.84232">
        <ele>269</ele>
        <time>2018-01-12T11:01:36Z</time>
      </trkpt>
      <trkpt lat="45.94627" lon="4.84222">
        <ele>269</ele>
        <time>2018-01-12T11:01:37Z</time>
      </trkpt>
      <trkpt lat="45.94626" lon="4.84213">
        <ele>269</ele>
        <time>2018-01-12T11:01:38Z</time>
      </trkpt>
      <trkpt lat="45.94625" lon="4.84205">
        <ele>269</ele>
        <time>2018-01-12T11:01:39Z</time>
      </trkpt>
      <trkpt lat="45.94624" lon="4.84197">
        <ele>269</ele>
        <time>2018-01-12T11:01:40Z</time>
      </trkpt>
      <trkpt lat="45.94622" lon="4.8419">
        <ele>269</ele>
        <time>2018-01-12T11:01:41Z</time>
      </trkpt>
      <trkpt lat="45.94621" lon="4.84183">
        <ele>269</ele>
        <time>2018-01-12T11:01:42Z</time>
      </trkpt>
      <trkpt lat="45.94621" lon="4.84174">
        <ele>269</ele>
        <time>2018-01-12T11:01:43Z</time>
      </trkpt>
      <trkpt lat="45.9462" lon="4.84167">
        <ele>269</ele>
        <time>2018-01-12T11:01:44Z</time>
      </trkpt>
      <trkpt lat="45.94619" lon="4.84159">
        <ele>269</ele>
        <time>2018-01-12T11:01:45Z</time>
      </trkpt>
      <trkpt lat="45.94617" lon="4.84152">
        <ele>269</ele>
        <time>2018-01-12T11:01:46Z</time>
      </trkpt>
      <trkpt lat="45.94616" lon="4.84144">
        <ele>269</ele>
        <time>2018-01-12T11:01:47Z</time>
      </trkpt>
      <trkpt lat="45.94614" lon="4.84137">
        <ele>269</ele>
        <time>2018-01-12T11:01:48Z</time>
      </trkpt>
      <trkpt lat="45.94614" lon="4.84128">
        <ele>269</ele>
        <time>2018-01-12T11:01:49Z</time>
      </trkpt>
      <trkpt lat="45.94612" lon="4.8412">
        <ele>269</ele>
        <time>2018-01-12T11:01:50Z</time>
      </trkpt>
      <trkpt lat="45.9461" lon="4.84112">
        <ele>269</ele>
        <time>2018-01-12T11:01:51Z</time>
      </trkpt>
      <trkpt lat="45.94609" lon="4.84102">
        <ele>269</ele>
        <time>2018-01-12T11:01:52Z</time>
      </trkpt>
      <trkpt lat="45.94607" lon="4.84094">
        <ele>269</ele>
        <time>2018-01-12T11:01:53Z</time>
      </trkpt>
      <trkpt lat="45.94605" lon="4.84086">
        <ele>269</ele>
        <time>2018-01-12T11:01:54Z</time>
      </trkpt>
      <trkpt lat="45.94603" lon="4.84079">
        <ele>269</ele>
        <time>2018-01-12T11:01:55Z</time>
      </trkpt>
      <trkpt lat="45.94602" lon="4.84071">
        <ele>269</ele>
        <time>2018-01-12T11:01:56Z</time>
      </trkpt>
      <trkpt lat="45.94601" lon="4.84063">
        <ele>269</ele>
        <time>2018-01-12T11:01:57Z</time>
      </trkpt>
      <trkpt lat="45.94599" lon="4.84056">
        <ele>269</ele>
        <time>2018-01-12T11:01:58Z</time>
      </trkpt>
      <trkpt lat="45.94599" lon="4.84048">
        <ele>269</ele>
        <time>2018-01-12T11:01:59Z</time>
      </trkpt>
      <trkpt lat="45.94598" lon="4.8404">
        <ele>269</ele>
        <time>2018-01-12T11:02:00Z</time>
      </trkpt>
      <trkpt lat="45.94596" lon="4.84033">
        <ele>269</ele>
        <time>2018-01-12T11:02:01Z</time>
      </trkpt>
      <trkpt lat="45.94595" lon="4.84026">
        <ele>269</ele>
        <time>2018-01-12T11:02:02Z</time>
      </trkpt>
      <trkpt lat="45.94595" lon="4.84018">
        <ele>269</ele>
        <time>2018-01-12T11:02:03Z</time>
      </trkpt>
      <trkpt lat="45.94593" lon="4.8401">
        <ele>269</ele>
        <time>2018-01-12T11:02:04Z</time>
      </trkpt>
      <trkpt lat="45.94591" lon="4.84002">
        <ele>269</ele>
        <time>2018-01-12T11:02:05Z</time>
      </trkpt>
      <trkpt lat="45.9459" lon="4.83992">
        <ele>269</ele>
        <time>2018-01-12T11:02:06Z</time>
      </trkpt>
      <trkpt lat="45.9459" lon="4.83984">
        <ele>269</ele>
        <time>2018-01-12T11:02:07Z</time>
      </trkpt>
      <trkpt lat="45.94588" lon="4.83975">
        <ele>268</ele>
        <time>2018-01-12T11:02:08Z</time>
      </trkpt>
      <trkpt lat="45.94587" lon="4.83965">
        <ele>268</ele>
        <time>2018-01-12T11:02:09Z</time>
      </trkpt>
      <trkpt lat="45.94586" lon="4.83955">
        <ele>268</ele>
        <time>2018-01-12T11:02:10Z</time>
      </trkpt>
      <trkpt lat="45.94585" lon="4.83946">
        <ele>268</ele>
        <time>2018-01-12T11:02:11Z</time>
      </trkpt>
      <trkpt lat="45.94583" lon="4.83935">
        <ele>268</ele>
        <time>2018-01-12T11:02:12Z</time>
      </trkpt>
      <trkpt lat="45.94582" lon="4.83925">
        <ele>268</ele>
        <time>2018-01-12T11:02:13Z</time>
      </trkpt>
      <trkpt lat="45.9458" lon="4.83915">
        <ele>268</ele>
        <time>2018-01-12T11:02:14Z</time>
      </trkpt>
      <trkpt lat="45.94579" lon="4.83906">
        <ele>268</ele>
        <time>2018-01-12T11:02:15Z</time>
      </trkpt>
      <trkpt lat="45.94578" lon="4.83896">
        <ele>267</ele>
        <time>2018-01-12T11:02:16Z</time>
      </trkpt>
      <trkpt lat="45.94576" lon="4.83885">
        <ele>267</ele>
        <time>2018-01-12T11:02:17Z</time>
      </trkpt>
      <trkpt lat="45.94574" lon="4.83874">
        <ele>267</ele>
        <time>2018-01-12T11:02:18Z</time>
      </trkpt>
      <trkpt lat="45.94572" lon="4.83863">
        <ele>267</ele>
        <time>2018-01-12T11:02:19Z</time>
      </trkpt>
      <trkpt lat="45.94571" lon="4.83851">
        <ele>266</ele>
        <time>2018-01-12T11:02:20Z</time>
      </trkpt>
      <trkpt lat="45.94568" lon="4.8384">
        <ele>266</ele>
        <time>2018-01-12T11:02:21Z</time>
      </trkpt>
      <trkpt lat="45.94567" lon="4.8383">
        <ele>265</ele>
        <time>2018-01-12T11:02:22Z</time>
      </trkpt>
      <trkpt lat="45.94565" lon="4.83818">
        <ele>264</ele>
        <time>2018-01-12T11:02:23Z</time>
      </trkpt>
      <trkpt lat="45.94563" lon="4.83807">
        <ele>264</ele>
        <time>2018-01-12T11:02:24Z</time>
      </trkpt>
      <trkpt lat="45.94561" lon="4.83795">
        <ele>264</ele>
        <time>2018-01-12T11:02:25Z</time>
      </trkpt>
      <trkpt lat="45.9456" lon="4.83785">
        <ele>264</ele>
        <time>2018-01-12T11:02:26Z</time>
      </trkpt>
      <trkpt lat="45.94559" lon="4.83774">
        <ele>264</ele>
        <time>2018-01-12T11:02:27Z</time>
      </trkpt>
      <trkpt lat="45.94556" lon="4.83762">
        <ele>263</ele>
        <time>2018-01-12T11:02:28Z</time>
      </trkpt>
      <trkpt lat="45.94554" lon="4.8375">
        <ele>262</ele>
        <time>2018-01-12T11:02:29Z</time>
      </trkpt>
      <trkpt lat="45.94553" lon="4.83739">
        <ele>262</ele>
        <time>2018-01-12T11:02:30Z</time>
      </trkpt>
      <trkpt lat="45.9455" lon="4.83729">
        <ele>262</ele>
        <time>2018-01-12T11:02:31Z</time>
      </trkpt>
      <trkpt lat="45.94548" lon="4.83719">
        <ele>262</ele>
        <time>2018-01-12T11:02:32Z</time>
      </trkpt>
      <trkpt lat="45.94546" lon="4.83709">
        <ele>262</ele>
        <time>2018-01-12T11:02:33Z</time>
      </trkpt>
      <trkpt lat="45.94545" lon="4.837">
        <ele>262</ele>
        <time>2018-01-12T11:02:34Z</time>
      </trkpt>
      <trkpt lat="45.94543" lon="4.83691">
        <ele>262</ele>
        <time>2018-01-12T11:02:35Z</time>
      </trkpt>
      <trkpt lat="45.94542" lon="4.83682">
        <ele>262</ele>
        <time>2018-01-12T11:02:36Z</time>
      </trkpt>
      <trkpt lat="45.94541" lon="4.83672">
        <ele>262</ele>
        <time>2018-01-12T11:02:37Z</time>
      </trkpt>
      <trkpt lat="45.94539" lon="4.83662">
        <ele>261</ele>
        <time>2018-01-12T11:02:38Z</time>
      </trkpt>
      <trkpt lat="45.94538" lon="4.83654">
        <ele>261</ele>
        <time>2018-01-12T11:02:39Z</time>
      </trkpt>
      <trkpt lat="45.94536" lon="4.83645">
        <ele>261</ele>
        <time>2018-01-12T11:02:40Z</time>
      </trkpt>
      <trkpt lat="45.94535" lon="4.83637">
        <ele>261</ele>
        <time>2018-01-12T11:02:41Z</time>
      </trkpt>
      <trkpt lat="45.94535" lon="4.83628">
        <ele>261</ele>
        <time>2018-01-12T11:02:42Z</time>
      </trkpt>
      <trkpt lat="45.94533" lon="4.83621">
        <ele>261</ele>
        <time>2018-01-12T11:02:43Z</time>
      </trkpt>
      <trkpt lat="45.94532" lon="4.83614">
        <ele>261</ele>
        <time>2018-01-12T11:02:44Z</time>
      </trkpt>
      <trkpt lat="45.94531" lon="4.83606">
        <ele>261</ele>
        <time>2018-01-12T11:02:45Z</time>
      </trkpt>
      <trkpt lat="45.94529" lon="4.83599">
        <ele>261</ele>
        <time>2018-01-12T11:02:46Z</time>
      </trkpt>
      <trkpt lat="45.94527" lon="4.83592">
        <ele>261</ele>
        <time>2018-01-12T11:02:47Z</time>
      </trkpt>
      <trkpt lat="45.94524" lon="4.83586">
        <ele>261</ele>
        <time>2018-01-12T11:02:48Z</time>
      </trkpt>
      <trkpt lat="45.94522" lon="4.83578">
        <ele>261</ele>
        <time>2018-01-12T11:02:49Z</time>
      </trkpt>
      <trkpt lat="45.9452" lon="4.8357">
        <ele>261</ele>
        <time>2018-01-12T11:02:50Z</time>
      </trkpt>
      <trkpt lat="45.94517" lon="4.83563">
        <ele>261</ele>
        <time>2018-01-12T11:02:51Z</time>
      </trkpt>
      <trkpt lat="45.94513" lon="4.83556">
        <ele>261</ele>
        <time>2018-01-12T11:02:52Z</time>
      </trkpt>
      <trkpt lat="45.94509" lon="4.83549">
        <ele>261</ele>
        <time>2018-01-12T11:02:53Z</time>
      </trkpt>
      <trkpt lat="45.94505" lon="4.83542">
        <ele>262</ele>
        <time>2018-01-12T11:02:54Z</time>
      </trkpt>
      <trkpt lat="45.94501" lon="4.83534">
        <ele>262</ele>
        <time>2018-01-12T11:02:55Z</time>
      </trkpt>
      <trkpt lat="45.94496" lon="4.83526">
        <ele>262</ele>
        <time>2018-01-12T11:02:56Z</time>
      </trkpt>
      <trkpt lat="45.94492" lon="4.83518">
        <ele>262</ele>
        <time>2018-01-12T11:02:57Z</time>
      </trkpt>
      <trkpt lat="45.94488" lon="4.83511">
        <ele>262</ele>
        <time>2018-01-12T11:02:58Z</time>
      </trkpt>
      <trkpt lat="45.94482" lon="4.83505">
        <ele>262</ele>
        <time>2018-01-12T11:02:59Z</time>
      </trkpt>
      <trkpt lat="45.94478" lon="4.83498">
        <ele>263</ele>
        <time>2018-01-12T11:03:00Z</time>
      </trkpt>
      <trkpt lat="45.94474" lon="4.83493">
        <ele>263</ele>
        <time>2018-01-12T11:03:01Z</time>
      </trkpt>
      <trkpt lat="45.9447" lon="4.83486">
        <ele>263</ele>
        <time>2018-01-12T11:03:02Z</time>
      </trkpt>
      <trkpt lat="45.94467" lon="4.8348">
        <ele>263</ele>
        <time>2018-01-12T11:03:03Z</time>
      </trkpt>
      <trkpt lat="45.94463" lon="4.83474">
        <ele>263</ele>
        <time>2018-01-12T11:03:04Z</time>
      </trkpt>
      <trkpt lat="45.9446" lon="4.83468">
        <ele>263</ele>
        <time>2018-01-12T11:03:05Z</time>
      </trkpt>
      <trkpt lat="45.94456" lon="4.83462">
        <ele>263</ele>
        <time>2018-01-12T11:03:06Z</time>
      </trkpt>
      <trkpt lat="45.94454" lon="4.83455">
        <ele>263</ele>
        <time>2018-01-12T11:03:07Z</time>
      </trkpt>
      <trkpt lat="45.9445" lon="4.8345">
        <ele>263</ele>
        <time>2018-01-12T11:03:08Z</time>
      </trkpt>
      <trkpt lat="45.94447" lon="4.83442">
        <ele>263</ele>
        <time>2018-01-12T11:03:09Z</time>
      </trkpt>
      <trkpt lat="45.94444" lon="4.83436">
        <ele>263</ele>
        <time>2018-01-12T11:03:10Z</time>
      </trkpt>
      <trkpt lat="45.9444" lon="4.83431">
        <ele>264</ele>
        <time>2018-01-12T11:03:11Z</time>
      </trkpt>
      <trkpt lat="45.94437" lon="4.83425">
        <ele>264</ele>
        <time>2018-01-12T11:03:12Z</time>
      </trkpt>
      <trkpt lat="45.94434" lon="4.83418">
        <ele>264</ele>
        <time>2018-01-12T11:03:13Z</time>
      </trkpt>
      <trkpt lat="45.94431" lon="4.83412">
        <ele>264</ele>
        <time>2018-01-12T11:03:14Z</time>
      </trkpt>
      <trkpt lat="45.94429" lon="4.83406">
        <ele>264</ele>
        <time>2018-01-12T11:03:15Z</time>
      </trkpt>
      <trkpt lat="45.94426" lon="4.834">
        <ele>264</ele>
        <time>2018-01-12T11:03:16Z</time>
      </trkpt>
      <trkpt lat="45.94422" lon="4.83393">
        <ele>264</ele>
        <time>2018-01-12T11:03:17Z</time>
      </trkpt>
      <trkpt lat="45.94419" lon="4.83386">
        <ele>264</ele>
        <time>2018-01-12T11:03:18Z</time>
      </trkpt>
      <trkpt lat="45.94415" lon="4.8338">
        <ele>264</ele>
        <time>2018-01-12T11:03:19Z</time>
      </trkpt>
      <trkpt lat="45.94412" lon="4.83373">
        <ele>264</ele>
        <time>2018-01-12T11:03:20Z</time>
      </trkpt>
      <trkpt lat="45.94409" lon="4.83366">
        <ele>264</ele>
        <time>2018-01-12T11:03:21Z</time>
      </trkpt>
      <trkpt lat="45.94406" lon="4.83358">
        <ele>264</ele>
        <time>2018-01-12T11:03:22Z</time>
      </trkpt>
      <trkpt lat="45.94403" lon="4.83351">
        <ele>263</ele>
        <time>2018-01-12T11:03:23Z</time>
      </trkpt>
      <trkpt lat="45.94399" lon="4.83344">
        <ele>263</ele>
        <time>2018-01-12T11:03:24Z</time>
      </trkpt>
      <trkpt lat="45.94395" lon="4.83335">
        <ele>263</ele>
        <time>2018-01-12T11:03:25Z</time>
      </trkpt>
      <trkpt lat="45.94393" lon="4.83327">
        <ele>264</ele>
        <time>2018-01-12T11:03:26Z</time>
      </trkpt>
      <trkpt lat="45.9439" lon="4.83319">
        <ele>264</ele>
        <time>2018-01-12T11:03:27Z</time>
      </trkpt>
      <trkpt lat="45.94388" lon="4.83312">
        <ele>264</ele>
        <time>2018-01-12T11:03:28Z</time>
      </trkpt>
      <trkpt lat="45.94385" lon="4.83305">
        <ele>264</ele>
        <time>2018-01-12T11:03:29Z</time>
      </trkpt>
      <trkpt lat="45.94383" lon="4.83297">
        <ele>264</ele>
        <time>2018-01-12T11:03:30Z</time>
      </trkpt>
      <trkpt lat="45.94381" lon="4.8329">
        <ele>264</ele>
        <time>2018-01-12T11:03:31Z</time>
      </trkpt>
      <trkpt lat="45.94379" lon="4.83284">
        <ele>264</ele>
        <time>2018-01-12T11:03:32Z</time>
      </trkpt>
      <trkpt lat="45.94377" lon="4.83278">
        <ele>264</ele>
        <time>2018-01-12T11:03:33Z</time>
      </trkpt>
      <trkpt lat="45.94375" lon="4.83271">
        <ele>264</ele>
        <time>2018-01-12T11:03:34Z</time>
      </trkpt>
      <trkpt lat="45.94373" lon="4.83265">
        <ele>264</ele>
        <time>2018-01-12T11:03:35Z</time>
      </trkpt>
      <trkpt lat="45.9437" lon="4.83258">
        <ele>265</ele>
        <time>2018-01-12T11:03:36Z</time>
      </trkpt>
      <trkpt lat="45.94368" lon="4.83251">
        <ele>265</ele>
        <time>2018-01-12T11:03:37Z</time>
      </trkpt>
      <trkpt lat="45.94366" lon="4.83244">
        <ele>265</ele>
        <time>2018-01-12T11:03:38Z</time>
      </trkpt>
      <trkpt lat="45.94364" lon="4.83237">
        <ele>265</ele>
        <time>2018-01-12T11:03:39Z</time>
      </trkpt>
      <trkpt lat="45.94362" lon="4.83231">
        <ele>266</ele>
        <time>2018-01-12T11:03:40Z</time>
      </trkpt>
      <trkpt lat="45.9436" lon="4.83225">
        <ele>266</ele>
        <time>2018-01-12T11:03:41Z</time>
      </trkpt>
      <trkpt lat="45.94358" lon="4.83219">
        <ele>266</ele>
        <time>2018-01-12T11:03:42Z</time>
      </trkpt>
      <trkpt lat="45.94355" lon="4.83212">
        <ele>266</ele>
        <time>2018-01-12T11:03:43Z</time>
      </trkpt>
      <trkpt lat="45.94353" lon="4.83206">
        <ele>266</ele>
        <time>2018-01-12T11:03:44Z</time>
      </trkpt>
      <trkpt lat="45.94351" lon="4.83199">
        <ele>266</ele>
        <time>2018-01-12T11:03:45Z</time>
      </trkpt>
      <trkpt lat="45.94347" lon="4.83187">
        <ele>266</ele>
        <time>2018-01-12T11:03:47Z</time>
      </trkpt>
      <trkpt lat="45.94343" lon="4.8318">
        <ele>266</ele>
        <time>2018-01-12T11:03:48Z</time>
      </trkpt>
      <trkpt lat="45.94341" lon="4.83173">
        <ele>266</ele>
        <time>2018-01-12T11:03:49Z</time>
      </trkpt>
      <trkpt lat="45.94339" lon="4.83168">
        <ele>266</ele>
        <time>2018-01-12T11:03:50Z</time>
      </trkpt>
      <trkpt lat="45.94334" lon="4.83156">
        <ele>266</ele>
        <time>2018-01-12T11:03:52Z</time>
      </trkpt>
      <trkpt lat="45.94333" lon="4.8315">
        <ele>266</ele>
        <time>2018-01-12T11:03:53Z</time>
      </trkpt>
      <trkpt lat="45.94331" lon="4.83145">
        <ele>266</ele>
        <time>2018-01-12T11:03:54Z</time>
      </trkpt>
      <trkpt lat="45.94328" lon="4.83138">
        <ele>266</ele>
        <time>2018-01-12T11:03:55Z</time>
      </trkpt>
      <trkpt lat="45.94326" lon="4.83131">
        <ele>266</ele>
        <time>2018-01-12T11:03:56Z</time>
      </trkpt>
      <trkpt lat="45.94323" lon="4.83125">
        <ele>266</ele>
        <time>2018-01-12T11:03:57Z</time>
      </trkpt>
      <trkpt lat="45.94321" lon="4.83118">
        <ele>266</ele>
        <time>2018-01-12T11:03:58Z</time>
      </trkpt>
      <trkpt lat="45.94319" lon="4.83112">
        <ele>266</ele>
        <time>2018-01-12T11:03:59Z</time>
      </trkpt>
      <trkpt lat="45.94317" lon="4.83105">
        <ele>266</ele>
        <time>2018-01-12T11:04:00Z</time>
      </trkpt>
      <trkpt lat="45.94315" lon="4.83097">
        <ele>266</ele>
        <time>2018-01-12T11:04:01Z</time>
      </trkpt>
      <trkpt lat="45.94313" lon="4.83089">
        <ele>266</ele>
        <time>2018-01-12T11:04:02Z</time>
      </trkpt>
      <trkpt lat="45.94311" lon="4.83082">
        <ele>266</ele>
        <time>2018-01-12T11:04:03Z</time>
      </trkpt>
      <trkpt lat="45.94309" lon="4.83074">
        <ele>266</ele>
        <time>2018-01-12T11:04:04Z</time>
      </trkpt>
      <trkpt lat="45.94306" lon="4.83068">
        <ele>266</ele>
        <time>2018-01-12T11:04:05Z</time>
      </trkpt>
      <trkpt lat="45.94304" lon="4.8306">
        <ele>266</ele>
        <time>2018-01-12T11:04:06Z</time>
      </trkpt>
      <trkpt lat="45.94303" lon="4.83053">
        <ele>266</ele>
        <time>2018-01-12T11:04:07Z</time>
      </trkpt>
      <trkpt lat="45.94302" lon="4.83047">
        <ele>266</ele>
        <time>2018-01-12T11:04:08Z</time>
      </trkpt>
      <trkpt lat="45.94301" lon="4.8304">
        <ele>266</ele>
        <time>2018-01-12T11:04:09Z</time>
      </trkpt>
      <trkpt lat="45.94301" lon="4.83033">
        <ele>266</ele>
        <time>2018-01-12T11:04:10Z</time>
      </trkpt>
      <trkpt lat="45.943" lon="4.83025">
        <ele>266</ele>
        <time>2018-01-12T11:04:11Z</time>
      </trkpt>
      <trkpt lat="45.94299" lon="4.83018">
        <ele>266</ele>
        <time>2018-01-12T11:04:12Z</time>
      </trkpt>
      <trkpt lat="45.94297" lon="4.83012">
        <ele>266</ele>
        <time>2018-01-12T11:04:13Z</time>
      </trkpt>
      <trkpt lat="45.94295" lon="4.83001">
        <ele>266</ele>
        <time>2018-01-12T11:04:15Z</time>
      </trkpt>
      <trkpt lat="45.94294" lon="4.82995">
        <ele>265</ele>
        <time>2018-01-12T11:04:16Z</time>
      </trkpt>
      <trkpt lat="45.94293" lon="4.82989">
        <ele>265</ele>
        <time>2018-01-12T11:04:17Z</time>
      </trkpt>
      <trkpt lat="45.94291" lon="4.82982">
        <ele>265</ele>
        <time>2018-01-12T11:04:18Z</time>
      </trkpt>
      <trkpt lat="45.94289" lon="4.82976">
        <ele>265</ele>
        <time>2018-01-12T11:04:19Z</time>
      </trkpt>
      <trkpt lat="45.94287" lon="4.82969">
        <ele>265</ele>
        <time>2018-01-12T11:04:20Z</time>
      </trkpt>
      <trkpt lat="45.94285" lon="4.82961">
        <ele>265</ele>
        <time>2018-01-12T11:04:21Z</time>
      </trkpt>
      <trkpt lat="45.94283" lon="4.82955">
        <ele>265</ele>
        <time>2018-01-12T11:04:22Z</time>
      </trkpt>
      <trkpt lat="45.94282" lon="4.82942">
        <ele>265</ele>
        <time>2018-01-12T11:04:24Z</time>
      </trkpt>
      <trkpt lat="45.94283" lon="4.82936">
        <ele>265</ele>
        <time>2018-01-12T11:04:25Z</time>
      </trkpt>
      <trkpt lat="45.94285" lon="4.8293">
        <ele>265</ele>
        <time>2018-01-12T11:04:26Z</time>
      </trkpt>
      <trkpt lat="45.94287" lon="4.82923">
        <ele>265</ele>
        <time>2018-01-12T11:04:27Z</time>
      </trkpt>
      <trkpt lat="45.94288" lon="4.82916">
        <ele>265</ele>
        <time>2018-01-12T11:04:28Z</time>
      </trkpt>
      <trkpt lat="45.94289" lon="4.8291">
        <ele>265</ele>
        <time>2018-01-12T11:04:29Z</time>
      </trkpt>
      <trkpt lat="45.9429" lon="4.82897">
        <ele>265</ele>
        <time>2018-01-12T11:04:31Z</time>
      </trkpt>
      <trkpt lat="45.9429" lon="4.82888">
        <ele>265</ele>
        <time>2018-01-12T11:04:32Z</time>
      </trkpt>
      <trkpt lat="45.9429" lon="4.82882">
        <ele>265</ele>
        <time>2018-01-12T11:04:33Z</time>
      </trkpt>
      <trkpt lat="45.9429" lon="4.82875">
        <ele>265</ele>
        <time>2018-01-12T11:04:34Z</time>
      </trkpt>
      <trkpt lat="45.9429" lon="4.82866">
        <ele>265</ele>
        <time>2018-01-12T11:04:35Z</time>
      </trkpt>
      <trkpt lat="45.94291" lon="4.82858">
        <ele>265</ele>
        <time>2018-01-12T11:04:36Z</time>
      </trkpt>
      <trkpt lat="45.9429" lon="4.8285">
        <ele>265</ele>
        <time>2018-01-12T11:04:37Z</time>
      </trkpt>
      <trkpt lat="45.94291" lon="4.82841">
        <ele>265</ele>
        <time>2018-01-12T11:04:38Z</time>
      </trkpt>
      <trkpt lat="45.94291" lon="4.82832">
        <ele>265</ele>
        <time>2018-01-12T11:04:39Z</time>
      </trkpt>
      <trkpt lat="45.94291" lon="4.82823">
        <ele>265</ele>
        <time>2018-01-12T11:04:40Z</time>
      </trkpt>
      <trkpt lat="45.94292" lon="4.82813">
        <ele>265</ele>
        <time>2018-01-12T11:04:41Z</time>
      </trkpt>
      <trkpt lat="45.94293" lon="4.82805">
        <ele>265</ele>
        <time>2018-01-12T11:04:42Z</time>
      </trkpt>
      <trkpt lat="45.94293" lon="4.82797">
        <ele>265</ele>
        <time>2018-01-12T11:04:43Z</time>
      </trkpt>
      <trkpt lat="45.94293" lon="4.82789">
        <ele>265</ele>
        <time>2018-01-12T11:04:44Z</time>
      </trkpt>
      <trkpt lat="45.94293" lon="4.82781">
        <ele>265</ele>
        <time>2018-01-12T11:04:45Z</time>
      </trkpt>
      <trkpt lat="45.94293" lon="4.82773">
        <ele>265</ele>
        <time>2018-01-12T11:04:46Z</time>
      </trkpt>
      <trkpt lat="45.94292" lon="4.82765">
        <ele>265</ele>
        <time>2018-01-12T11:04:47Z</time>
      </trkpt>
      <trkpt lat="45.94292" lon="4.82757">
        <ele>265</ele>
        <time>2018-01-12T11:04:48Z</time>
      </trkpt>
      <trkpt lat="45.94293" lon="4.8275">
        <ele>265</ele>
        <time>2018-01-12T11:04:49Z</time>
      </trkpt>
      <trkpt lat="45.94293" lon="4.82742">
        <ele>265</ele>
        <time>2018-01-12T11:04:50Z</time>
      </trkpt>
      <trkpt lat="45.94293" lon="4.82735">
        <ele>265</ele>
        <time>2018-01-12T11:04:51Z</time>
      </trkpt>
      <trkpt lat="45.94294" lon="4.82727">
        <ele>265</ele>
        <time>2018-01-12T11:04:52Z</time>
      </trkpt>
      <trkpt lat="45.94294" lon="4.82719">
        <ele>265</ele>
        <time>2018-01-12T11:04:53Z</time>
      </trkpt>
      <trkpt lat="45.94293" lon="4.8271">
        <ele>265</ele>
        <time>2018-01-12T11:04:54Z</time>
      </trkpt>
      <trkpt lat="45.94293" lon="4.82701">
        <ele>265</ele>
        <time>2018-01-12T11:04:55Z</time>
      </trkpt>
      <trkpt lat="45.94294" lon="4.82693">
        <ele>265</ele>
        <time>2018-01-12T11:04:56Z</time>
      </trkpt>
      <trkpt lat="45.94294" lon="4.82684">
        <ele>265</ele>
        <time>2018-01-12T11:04:57Z</time>
      </trkpt>
      <trkpt lat="45.94293" lon="4.82678">
        <ele>265</ele>
        <time>2018-01-12T11:04:58Z</time>
      </trkpt>
      <trkpt lat="45.94293" lon="4.8267">
        <ele>265</ele>
        <time>2018-01-12T11:04:59Z</time>
      </trkpt>
      <trkpt lat="45.94293" lon="4.82662">
        <ele>265</ele>
        <time>2018-01-12T11:05:00Z</time>
      </trkpt>
      <trkpt lat="45.94293" lon="4.82656">
        <ele>265</ele>
        <time>2018-01-12T11:05:01Z</time>
      </trkpt>
      <trkpt lat="45.94292" lon="4.82649">
        <ele>265</ele>
        <time>2018-01-12T11:05:02Z</time>
      </trkpt>
      <trkpt lat="45.94292" lon="4.82642">
        <ele>265</ele>
        <time>2018-01-12T11:05:03Z</time>
      </trkpt>
      <trkpt lat="45.94293" lon="4.82635">
        <ele>265</ele>
        <time>2018-01-12T11:05:04Z</time>
      </trkpt>
      <trkpt lat="45.94293" lon="4.82629">
        <ele>265</ele>
        <time>2018-01-12T11:05:05Z</time>
      </trkpt>
      <trkpt lat="45.94293" lon="4.82622">
        <ele>265</ele>
        <time>2018-01-12T11:05:06Z</time>
      </trkpt>
      <trkpt lat="45.94294" lon="4.82615">
        <ele>265</ele>
        <time>2018-01-12T11:05:07Z</time>
      </trkpt>
      <trkpt lat="45.94294" lon="4.82606">
        <ele>265</ele>
        <time>2018-01-12T11:05:08Z</time>
      </trkpt>
      <trkpt lat="45.94293" lon="4.82598">
        <ele>265</ele>
        <time>2018-01-12T11:05:09Z</time>
      </trkpt>
      <trkpt lat="45.94293" lon="4.82591">
        <ele>265</ele>
        <time>2018-01-12T11:05:10Z</time>
      </trkpt>
      <trkpt lat="45.94293" lon="4.82582">
        <ele>265</ele>
        <time>2018-01-12T11:05:11Z</time>
      </trkpt>
      <trkpt lat="45.94294" lon="4.82574">
        <ele>264</ele>
        <time>2018-01-12T11:05:12Z</time>
      </trkpt>
      <trkpt lat="45.94294" lon="4.82566">
        <ele>264</ele>
        <time>2018-01-12T11:05:13Z</time>
      </trkpt>
      <trkpt lat="45.94294" lon="4.82556">
        <ele>264</ele>
        <time>2018-01-12T11:05:14Z</time>
      </trkpt>
      <trkpt lat="45.94294" lon="4.82547">
        <ele>264</ele>
        <time>2018-01-12T11:05:15Z</time>
      </trkpt>
      <trkpt lat="45.94294" lon="4.82538">
        <ele>264</ele>
        <time>2018-01-12T11:05:16Z</time>
      </trkpt>
      <trkpt lat="45.94294" lon="4.82529">
        <ele>264</ele>
        <time>2018-01-12T11:05:17Z</time>
      </trkpt>
      <trkpt lat="45.94294" lon="4.82518">
        <ele>264</ele>
        <time>2018-01-12T11:05:18Z</time>
      </trkpt>
      <trkpt lat="45.94295" lon="4.82509">
        <ele>264</ele>
        <time>2018-01-12T11:05:19Z</time>
      </trkpt>
      <trkpt lat="45.94294" lon="4.825">
        <ele>264</ele>
        <time>2018-01-12T11:05:20Z</time>
      </trkpt>
      <trkpt lat="45.94294" lon="4.82492">
        <ele>264</ele>
        <time>2018-01-12T11:05:21Z</time>
      </trkpt>
      <trkpt lat="45.94294" lon="4.82483">
        <ele>264</ele>
        <time>2018-01-12T11:05:22Z</time>
      </trkpt>
      <trkpt lat="45.94294" lon="4.82474">
        <ele>264</ele>
        <time>2018-01-12T11:05:23Z</time>
      </trkpt>
      <trkpt lat="45.94294" lon="4.82466">
        <ele>264</ele>
        <time>2018-01-12T11:05:24Z</time>
      </trkpt>
      <trkpt lat="45.94294" lon="4.82457">
        <ele>264</ele>
        <time>2018-01-12T11:05:25Z</time>
      </trkpt>
      <trkpt lat="45.94294" lon="4.82448">
        <ele>264</ele>
        <time>2018-01-12T11:05:26Z</time>
      </trkpt>
      <trkpt lat="45.94294" lon="4.82439">
        <ele>264</ele>
        <time>2018-01-12T11:05:27Z</time>
      </trkpt>
      <trkpt lat="45.94294" lon="4.82429">
        <ele>264</ele>
        <time>2018-01-12T11:05:28Z</time>
      </trkpt>
      <trkpt lat="45.94294" lon="4.82421">
        <ele>264</ele>
        <time>2018-01-12T11:05:29Z</time>
      </trkpt>
      <trkpt lat="45.94294" lon="4.82412">
        <ele>264</ele>
        <time>2018-01-12T11:05:30Z</time>
      </trkpt>
      <trkpt lat="45.94293" lon="4.82404">
        <ele>264</ele>
        <time>2018-01-12T11:05:31Z</time>
      </trkpt>
      <trkpt lat="45.94293" lon="4.82396">
        <ele>264</ele>
        <time>2018-01-12T11:05:32Z</time>
      </trkpt>
      <trkpt lat="45.94293" lon="4.82388">
        <ele>264</ele>
        <time>2018-01-12T11:05:33Z</time>
      </trkpt>
      <trkpt lat="45.94291" lon="4.8238">
        <ele>264</ele>
        <time>2018-01-12T11:05:34Z</time>
      </trkpt>
      <trkpt lat="45.94291" lon="4.82371">
        <ele>264</ele>
        <time>2018-01-12T11:05:35Z</time>
      </trkpt>
      <trkpt lat="45.94291" lon="4.82362">
        <ele>264</ele>
        <time>2018-01-12T11:05:36Z</time>
      </trkpt>
      <trkpt lat="45.9429" lon="4.82351">
        <ele>264</ele>
        <time>2018-01-12T11:05:37Z</time>
      </trkpt>
      <trkpt lat="45.94289" lon="4.82341">
        <ele>264</ele>
        <time>2018-01-12T11:05:38Z</time>
      </trkpt>
      <trkpt lat="45.94289" lon="4.82332">
        <ele>265</ele>
        <time>2018-01-12T11:05:39Z</time>
      </trkpt>
      <trkpt lat="45.94289" lon="4.82322">
        <ele>265</ele>
        <time>2018-01-12T11:05:40Z</time>
      </trkpt>
      <trkpt lat="45.94288" lon="4.82312">
        <ele>265</ele>
        <time>2018-01-12T11:05:41Z</time>
      </trkpt>
      <trkpt lat="45.94288" lon="4.82302">
        <ele>265</ele>
        <time>2018-01-12T11:05:42Z</time>
      </trkpt>
      <trkpt lat="45.94287" lon="4.82292">
        <ele>265</ele>
        <time>2018-01-12T11:05:43Z</time>
      </trkpt>
      <trkpt lat="45.94287" lon="4.82283">
        <ele>265</ele>
        <time>2018-01-12T11:05:44Z</time>
      </trkpt>
      <trkpt lat="45.94286" lon="4.82273">
        <ele>265</ele>
        <time>2018-01-12T11:05:45Z</time>
      </trkpt>
      <trkpt lat="45.94286" lon="4.82263">
        <ele>265</ele>
        <time>2018-01-12T11:05:46Z</time>
      </trkpt>
      <trkpt lat="45.94286" lon="4.82253">
        <ele>265</ele>
        <time>2018-01-12T11:05:47Z</time>
      </trkpt>
      <trkpt lat="45.94286" lon="4.82245">
        <ele>264</ele>
        <time>2018-01-12T11:05:48Z</time>
      </trkpt>
      <trkpt lat="45.94285" lon="4.82236">
        <ele>264</ele>
        <time>2018-01-12T11:05:49Z</time>
      </trkpt>
      <trkpt lat="45.94285" lon="4.82228">
        <ele>264</ele>
        <time>2018-01-12T11:05:50Z</time>
      </trkpt>
      <trkpt lat="45.94284" lon="4.82219">
        <ele>264</ele>
        <time>2018-01-12T11:05:51Z</time>
      </trkpt>
      <trkpt lat="45.94283" lon="4.82211">
        <ele>264</ele>
        <time>2018-01-12T11:05:52Z</time>
      </trkpt>
      <trkpt lat="45.94282" lon="4.82203">
        <ele>264</ele>
        <time>2018-01-12T11:05:53Z</time>
      </trkpt>
      <trkpt lat="45.94281" lon="4.82195">
        <ele>264</ele>
        <time>2018-01-12T11:05:54Z</time>
      </trkpt>
      <trkpt lat="45.9428" lon="4.82187">
        <ele>264</ele>
        <time>2018-01-12T11:05:55Z</time>
      </trkpt>
      <trkpt lat="45.94279" lon="4.8218">
        <ele>264</ele>
        <time>2018-01-12T11:05:56Z</time>
      </trkpt>
      <trkpt lat="45.94278" lon="4.82173">
        <ele>264</ele>
        <time>2018-01-12T11:05:57Z</time>
      </trkpt>
      <trkpt lat="45.94276" lon="4.82165">
        <ele>263</ele>
        <time>2018-01-12T11:05:58Z</time>
      </trkpt>
      <trkpt lat="45.94275" lon="4.82157">
        <ele>263</ele>
        <time>2018-01-12T11:05:59Z</time>
      </trkpt>
      <trkpt lat="45.94274" lon="4.82147">
        <ele>263</ele>
        <time>2018-01-12T11:06:00Z</time>
      </trkpt>
      <trkpt lat="45.94271" lon="4.8214">
        <ele>263</ele>
        <time>2018-01-12T11:06:01Z</time>
      </trkpt>
      <trkpt lat="45.94269" lon="4.82132">
        <ele>263</ele>
        <time>2018-01-12T11:06:02Z</time>
      </trkpt>
      <trkpt lat="45.94267" lon="4.82125">
        <ele>263</ele>
        <time>2018-01-12T11:06:03Z</time>
      </trkpt>
      <trkpt lat="45.94266" lon="4.82117">
        <ele>263</ele>
        <time>2018-01-12T11:06:04Z</time>
      </trkpt>
      <trkpt lat="45.94264" lon="4.8211">
        <ele>263</ele>
        <time>2018-01-12T11:06:05Z</time>
      </trkpt>
      <trkpt lat="45.94263" lon="4.82103">
        <ele>262</ele>
        <time>2018-01-12T11:06:06Z</time>
      </trkpt>
      <trkpt lat="45.94261" lon="4.82095">
        <ele>262</ele>
        <time>2018-01-12T11:06:07Z</time>
      </trkpt>
      <trkpt lat="45.94258" lon="4.82087">
        <ele>262</ele>
        <time>2018-01-12T11:06:08Z</time>
      </trkpt>
      <trkpt lat="45.94256" lon="4.8208">
        <ele>262</ele>
        <time>2018-01-12T11:06:09Z</time>
      </trkpt>
      <trkpt lat="45.94254" lon="4.82072">
        <ele>262</ele>
        <time>2018-01-12T11:06:10Z</time>
      </trkpt>
      <trkpt lat="45.94252" lon="4.82064">
        <ele>262</ele>
        <time>2018-01-12T11:06:11Z</time>
      </trkpt>
      <trkpt lat="45.94251" lon="4.82055">
        <ele>262</ele>
        <time>2018-01-12T11:06:12Z</time>
      </trkpt>
      <trkpt lat="45.94248" lon="4.82047">
        <ele>263</ele>
        <time>2018-01-12T11:06:13Z</time>
      </trkpt>
      <trkpt lat="45.94247" lon="4.82041">
        <ele>263</ele>
        <time>2018-01-12T11:06:14Z</time>
      </trkpt>
      <trkpt lat="45.94246" lon="4.82034">
        <ele>263</ele>
        <time>2018-01-12T11:06:15Z</time>
      </trkpt>
      <trkpt lat="45.94245" lon="4.82026">
        <ele>263</ele>
        <time>2018-01-12T11:06:16Z</time>
      </trkpt>
      <trkpt lat="45.94244" lon="4.8202">
        <ele>263</ele>
        <time>2018-01-12T11:06:17Z</time>
      </trkpt>
      <trkpt lat="45.94243" lon="4.82013">
        <ele>263</ele>
        <time>2018-01-12T11:06:18Z</time>
      </trkpt>
      <trkpt lat="45.94241" lon="4.82006">
        <ele>263</ele>
        <time>2018-01-12T11:06:19Z</time>
      </trkpt>
      <trkpt lat="45.9424" lon="4.81997">
        <ele>263</ele>
        <time>2018-01-12T11:06:20Z</time>
      </trkpt>
      <trkpt lat="45.94239" lon="4.81988">
        <ele>263</ele>
        <time>2018-01-12T11:06:21Z</time>
      </trkpt>
      <trkpt lat="45.94238" lon="4.8198">
        <ele>263</ele>
        <time>2018-01-12T11:06:22Z</time>
      </trkpt>
      <trkpt lat="45.94236" lon="4.81972">
        <ele>263</ele>
        <time>2018-01-12T11:06:23Z</time>
      </trkpt>
      <trkpt lat="45.94234" lon="4.81963">
        <ele>264</ele>
        <time>2018-01-12T11:06:24Z</time>
      </trkpt>
      <trkpt lat="45.94232" lon="4.81954">
        <ele>264</ele>
        <time>2018-01-12T11:06:25Z</time>
      </trkpt>
      <trkpt lat="45.9423" lon="4.81946">
        <ele>264</ele>
        <time>2018-01-12T11:06:26Z</time>
      </trkpt>
      <trkpt lat="45.94228" lon="4.8194">
        <ele>264</ele>
        <time>2018-01-12T11:06:27Z</time>
      </trkpt>
      <trkpt lat="45.94227" lon="4.81929">
        <ele>264</ele>
        <time>2018-01-12T11:06:28Z</time>
      </trkpt>
      <trkpt lat="45.94225" lon="4.8192">
        <ele>264</ele>
        <time>2018-01-12T11:06:29Z</time>
      </trkpt>
      <trkpt lat="45.94223" lon="4.81913">
        <ele>264</ele>
        <time>2018-01-12T11:06:30Z</time>
      </trkpt>
      <trkpt lat="45.94222" lon="4.81904">
        <ele>264</ele>
        <time>2018-01-12T11:06:31Z</time>
      </trkpt>
      <trkpt lat="45.9422" lon="4.81895">
        <ele>265</ele>
        <time>2018-01-12T11:06:32Z</time>
      </trkpt>
      <trkpt lat="45.94218" lon="4.81888">
        <ele>265</ele>
        <time>2018-01-12T11:06:33Z</time>
      </trkpt>
      <trkpt lat="45.94216" lon="4.8188">
        <ele>265</ele>
        <time>2018-01-12T11:06:34Z</time>
      </trkpt>
      <trkpt lat="45.94214" lon="4.81872">
        <ele>265</ele>
        <time>2018-01-12T11:06:35Z</time>
      </trkpt>
      <trkpt lat="45.94212" lon="4.81866">
        <ele>265</ele>
        <time>2018-01-12T11:06:36Z</time>
      </trkpt>
      <trkpt lat="45.94211" lon="4.81858">
        <ele>265</ele>
        <time>2018-01-12T11:06:37Z</time>
      </trkpt>
      <trkpt lat="45.9421" lon="4.81851">
        <ele>265</ele>
        <time>2018-01-12T11:06:38Z</time>
      </trkpt>
      <trkpt lat="45.94208" lon="4.81845">
        <ele>266</ele>
        <time>2018-01-12T11:06:39Z</time>
      </trkpt>
      <trkpt lat="45.94206" lon="4.81838">
        <ele>266</ele>
        <time>2018-01-12T11:06:40Z</time>
      </trkpt>
      <trkpt lat="45.94204" lon="4.81831">
        <ele>266</ele>
        <time>2018-01-12T11:06:41Z</time>
      </trkpt>
      <trkpt lat="45.94203" lon="4.81823">
        <ele>266</ele>
        <time>2018-01-12T11:06:42Z</time>
      </trkpt>
      <trkpt lat="45.94203" lon="4.81814">
        <ele>266</ele>
        <time>2018-01-12T11:06:43Z</time>
      </trkpt>
      <trkpt lat="45.94203" lon="4.81807">
        <ele>266</ele>
        <time>2018-01-12T11:06:44Z</time>
      </trkpt>
      <trkpt lat="45.94202" lon="4.818">
        <ele>266</ele>
        <time>2018-01-12T11:06:45Z</time>
      </trkpt>
      <trkpt lat="45.94203" lon="4.81793">
        <ele>266</ele>
        <time>2018-01-12T11:06:46Z</time>
      </trkpt>
      <trkpt lat="45.94204" lon="4.81786">
        <ele>266</ele>
        <time>2018-01-12T11:06:47Z</time>
      </trkpt>
      <trkpt lat="45.94205" lon="4.81778">
        <ele>266</ele>
        <time>2018-01-12T11:06:48Z</time>
      </trkpt>
      <trkpt lat="45.94208" lon="4.81766">
        <ele>265</ele>
        <time>2018-01-12T11:06:50Z</time>
      </trkpt>
      <trkpt lat="45.94211" lon="4.81761">
        <ele>265</ele>
        <time>2018-01-12T11:06:51Z</time>
      </trkpt>
      <trkpt lat="45.94215" lon="4.81751">
        <ele>265</ele>
        <time>2018-01-12T11:06:53Z</time>
      </trkpt>
      <trkpt lat="45.94218" lon="4.81745">
        <ele>265</ele>
        <time>2018-01-12T11:06:54Z</time>
      </trkpt>
      <trkpt lat="45.94219" lon="4.8174">
        <ele>265</ele>
        <time>2018-01-12T11:06:55Z</time>
      </trkpt>
      <trkpt lat="45.9422" lon="4.81733">
        <ele>265</ele>
        <time>2018-01-12T11:06:56Z</time>
      </trkpt>
      <trkpt lat="45.94219" lon="4.81725">
        <ele>266</ele>
        <time>2018-01-12T11:06:57Z</time>
      </trkpt>
      <trkpt lat="45.94218" lon="4.81719">
        <ele>266</ele>
        <time>2018-01-12T11:06:58Z</time>
      </trkpt>
      <trkpt lat="45.94214" lon="4.81714">
        <ele>266</ele>
        <time>2018-01-12T11:06:59Z</time>
      </trkpt>
      <trkpt lat="45.9421" lon="4.81709">
        <ele>266</ele>
        <time>2018-01-12T11:07:00Z</time>
      </trkpt>
      <trkpt lat="45.94205" lon="4.81707">
        <ele>266</ele>
        <time>2018-01-12T11:07:01Z</time>
      </trkpt>
      <trkpt lat="45.942" lon="4.81704">
        <ele>267</ele>
        <time>2018-01-12T11:07:02Z</time>
      </trkpt>
      <trkpt lat="45.94195" lon="4.81701">
        <ele>267</ele>
        <time>2018-01-12T11:07:03Z</time>
      </trkpt>
      <trkpt lat="45.94191" lon="4.81697">
        <ele>267</ele>
        <time>2018-01-12T11:07:04Z</time>
      </trkpt>
      <trkpt lat="45.94186" lon="4.8169">
        <ele>267</ele>
        <time>2018-01-12T11:07:05Z</time>
      </trkpt>
      <trkpt lat="45.9418" lon="4.81682">
        <ele>268</ele>
        <time>2018-01-12T11:07:06Z</time>
      </trkpt>
      <trkpt lat="45.94177" lon="4.81674">
        <ele>268</ele>
        <time>2018-01-12T11:07:07Z</time>
      </trkpt>
      <trkpt lat="45.94174" lon="4.81664">
        <ele>268</ele>
        <time>2018-01-12T11:07:08Z</time>
      </trkpt>
      <trkpt lat="45.94172" lon="4.81653">
        <ele>268</ele>
        <time>2018-01-12T11:07:09Z</time>
      </trkpt>
      <trkpt lat="45.9417" lon="4.81642">
        <ele>268</ele>
        <time>2018-01-12T11:07:10Z</time>
      </trkpt>
      <trkpt lat="45.94166" lon="4.8163">
        <ele>268</ele>
        <time>2018-01-12T11:07:11Z</time>
      </trkpt>
      <trkpt lat="45.94163" lon="4.81618">
        <ele>268</ele>
        <time>2018-01-12T11:07:12Z</time>
      </trkpt>
      <trkpt lat="45.94161" lon="4.81607">
        <ele>267</ele>
        <time>2018-01-12T11:07:13Z</time>
      </trkpt>
      <trkpt lat="45.94159" lon="4.81595">
        <ele>267</ele>
        <time>2018-01-12T11:07:14Z</time>
      </trkpt>
      <trkpt lat="45.94157" lon="4.81581">
        <ele>266</ele>
        <time>2018-01-12T11:07:15Z</time>
      </trkpt>
      <trkpt lat="45.94155" lon="4.81569">
        <ele>265</ele>
        <time>2018-01-12T11:07:16Z</time>
      </trkpt>
      <trkpt lat="45.94154" lon="4.81555">
        <ele>265</ele>
        <time>2018-01-12T11:07:17Z</time>
      </trkpt>
      <trkpt lat="45.94154" lon="4.81541">
        <ele>264</ele>
        <time>2018-01-12T11:07:18Z</time>
      </trkpt>
      <trkpt lat="45.94155" lon="4.81529">
        <ele>264</ele>
        <time>2018-01-12T11:07:19Z</time>
      </trkpt>
      <trkpt lat="45.94154" lon="4.81513">
        <ele>263</ele>
        <time>2018-01-12T11:07:20Z</time>
      </trkpt>
      <trkpt lat="45.94154" lon="4.81501">
        <ele>263</ele>
        <time>2018-01-12T11:07:21Z</time>
      </trkpt>
      <trkpt lat="45.94155" lon="4.81488">
        <ele>260</ele>
        <time>2018-01-12T11:07:22Z</time>
      </trkpt>
      <trkpt lat="45.94158" lon="4.81469">
        <ele>258</ele>
        <time>2018-01-12T11:07:23Z</time>
      </trkpt>
      <trkpt lat="45.9416" lon="4.81454">
        <ele>257</ele>
        <time>2018-01-12T11:07:24Z</time>
      </trkpt>
      <trkpt lat="45.94163" lon="4.81437">
        <ele>256</ele>
        <time>2018-01-12T11:07:25Z</time>
      </trkpt>
      <trkpt lat="45.94164" lon="4.81423">
        <ele>256</ele>
        <time>2018-01-12T11:07:26Z</time>
      </trkpt>
      <trkpt lat="45.94165" lon="4.81406">
        <ele>254</ele>
        <time>2018-01-12T11:07:27Z</time>
      </trkpt>
      <trkpt lat="45.94169" lon="4.8139">
        <ele>258</ele>
        <time>2018-01-12T11:07:28Z</time>
      </trkpt>
      <trkpt lat="45.94171" lon="4.81373">
        <ele>258</ele>
        <time>2018-01-12T11:07:29Z</time>
      </trkpt>
      <trkpt lat="45.94172" lon="4.81355">
        <ele>256</ele>
        <time>2018-01-12T11:07:30Z</time>
      </trkpt>
      <trkpt lat="45.94173" lon="4.81336">
        <ele>254</ele>
        <time>2018-01-12T11:07:31Z</time>
      </trkpt>
      <trkpt lat="45.94172" lon="4.81318">
        <ele>255</ele>
        <time>2018-01-12T11:07:32Z</time>
      </trkpt>
      <trkpt lat="45.94171" lon="4.81301">
        <ele>255</ele>
        <time>2018-01-12T11:07:33Z</time>
      </trkpt>
      <trkpt lat="45.94169" lon="4.81283">
        <ele>255</ele>
        <time>2018-01-12T11:07:34Z</time>
      </trkpt>
      <trkpt lat="45.94167" lon="4.81265">
        <ele>253</ele>
        <time>2018-01-12T11:07:35Z</time>
      </trkpt>
      <trkpt lat="45.94165" lon="4.81247">
        <ele>249</ele>
        <time>2018-01-12T11:07:36Z</time>
      </trkpt>
      <trkpt lat="45.94163" lon="4.81228">
        <ele>246</ele>
        <time>2018-01-12T11:07:37Z</time>
      </trkpt>
      <trkpt lat="45.94159" lon="4.81211">
        <ele>245</ele>
        <time>2018-01-12T11:07:38Z</time>
      </trkpt>
      <trkpt lat="45.94155" lon="4.81194">
        <ele>245</ele>
        <time>2018-01-12T11:07:39Z</time>
      </trkpt>
      <trkpt lat="45.9415" lon="4.81178">
        <ele>245</ele>
        <time>2018-01-12T11:07:40Z</time>
      </trkpt>
      <trkpt lat="45.94144" lon="4.81163">
        <ele>245</ele>
        <time>2018-01-12T11:07:41Z</time>
      </trkpt>
      <trkpt lat="45.94138" lon="4.81147">
        <ele>244</ele>
        <time>2018-01-12T11:07:42Z</time>
      </trkpt>
      <trkpt lat="45.94132" lon="4.81133">
        <ele>244</ele>
        <time>2018-01-12T11:07:43Z</time>
      </trkpt>
      <trkpt lat="45.94125" lon="4.81119">
        <ele>243</ele>
        <time>2018-01-12T11:07:44Z</time>
      </trkpt>
      <trkpt lat="45.94117" lon="4.81105">
        <ele>243</ele>
        <time>2018-01-12T11:07:45Z</time>
      </trkpt>
      <trkpt lat="45.94108" lon="4.81091">
        <ele>242</ele>
        <time>2018-01-12T11:07:46Z</time>
      </trkpt>
      <trkpt lat="45.94101" lon="4.81077">
        <ele>242</ele>
        <time>2018-01-12T11:07:47Z</time>
      </trkpt>
      <trkpt lat="45.94094" lon="4.81062">
        <ele>243</ele>
        <time>2018-01-12T11:07:48Z</time>
      </trkpt>
      <trkpt lat="45.94088" lon="4.81047">
        <ele>243</ele>
        <time>2018-01-12T11:07:49Z</time>
      </trkpt>
      <trkpt lat="45.94082" lon="4.81032">
        <ele>234</ele>
        <time>2018-01-12T11:07:50Z</time>
      </trkpt>
      <trkpt lat="45.94078" lon="4.81016">
        <ele>236</ele>
        <time>2018-01-12T11:07:51Z</time>
      </trkpt>
      <trkpt lat="45.94075" lon="4.81">
        <ele>237</ele>
        <time>2018-01-12T11:07:52Z</time>
      </trkpt>
      <trkpt lat="45.94073" lon="4.80983">
        <ele>234</ele>
        <time>2018-01-12T11:07:53Z</time>
      </trkpt>
      <trkpt lat="45.94071" lon="4.80966">
        <ele>233</ele>
        <time>2018-01-12T11:07:54Z</time>
      </trkpt>
      <trkpt lat="45.94069" lon="4.8095">
        <ele>232</ele>
        <time>2018-01-12T11:07:55Z</time>
      </trkpt>
      <trkpt lat="45.94067" lon="4.80934">
        <ele>233</ele>
        <time>2018-01-12T11:07:56Z</time>
      </trkpt>
      <trkpt lat="45.94064" lon="4.80917">
        <ele>234</ele>
        <time>2018-01-12T11:07:57Z</time>
      </trkpt>
      <trkpt lat="45.94062" lon="4.80902">
        <ele>232</ele>
        <time>2018-01-12T11:07:58Z</time>
      </trkpt>
      <trkpt lat="45.9406" lon="4.80886">
        <ele>231</ele>
        <time>2018-01-12T11:07:59Z</time>
      </trkpt>
      <trkpt lat="45.94056" lon="4.8087">
        <ele>230</ele>
        <time>2018-01-12T11:08:00Z</time>
      </trkpt>
      <trkpt lat="45.94055" lon="4.80852">
        <ele>231</ele>
        <time>2018-01-12T11:08:01Z</time>
      </trkpt>
      <trkpt lat="45.94053" lon="4.80837">
        <ele>231</ele>
        <time>2018-01-12T11:08:02Z</time>
      </trkpt>
      <trkpt lat="45.94051" lon="4.80819">
        <ele>230</ele>
        <time>2018-01-12T11:08:03Z</time>
      </trkpt>
      <trkpt lat="45.9405" lon="4.80802">
        <ele>229</ele>
        <time>2018-01-12T11:08:04Z</time>
      </trkpt>
      <trkpt lat="45.94048" lon="4.80788">
        <ele>229</ele>
        <time>2018-01-12T11:08:05Z</time>
      </trkpt>
      <trkpt lat="45.94046" lon="4.80772">
        <ele>229</ele>
        <time>2018-01-12T11:08:06Z</time>
      </trkpt>
      <trkpt lat="45.94044" lon="4.80756">
        <ele>228</ele>
        <time>2018-01-12T11:08:07Z</time>
      </trkpt>
      <trkpt lat="45.94042" lon="4.80741">
        <ele>227</ele>
        <time>2018-01-12T11:08:08Z</time>
      </trkpt>
      <trkpt lat="45.9404" lon="4.80724">
        <ele>227</ele>
        <time>2018-01-12T11:08:09Z</time>
      </trkpt>
      <trkpt lat="45.94037" lon="4.80708">
        <ele>226</ele>
        <time>2018-01-12T11:08:10Z</time>
      </trkpt>
      <trkpt lat="45.94036" lon="4.80693">
        <ele>226</ele>
        <time>2018-01-12T11:08:11Z</time>
      </trkpt>
      <trkpt lat="45.94034" lon="4.80676">
        <ele>225</ele>
        <time>2018-01-12T11:08:12Z</time>
      </trkpt>
      <trkpt lat="45.94035" lon="4.80656">
        <ele>225</ele>
        <time>2018-01-12T11:08:13Z</time>
      </trkpt>
      <trkpt lat="45.94033" lon="4.80641">
        <ele>225</ele>
        <time>2018-01-12T11:08:14Z</time>
      </trkpt>
      <trkpt lat="45.9403" lon="4.80626">
        <ele>225</ele>
        <time>2018-01-12T11:08:15Z</time>
      </trkpt>
      <trkpt lat="45.94029" lon="4.8061">
        <ele>225</ele>
        <time>2018-01-12T11:08:16Z</time>
      </trkpt>
      <trkpt lat="45.94027" lon="4.80595">
        <ele>224</ele>
        <time>2018-01-12T11:08:17Z</time>
      </trkpt>
      <trkpt lat="45.94026" lon="4.80579">
        <ele>224</ele>
        <time>2018-01-12T11:08:18Z</time>
      </trkpt>
      <trkpt lat="45.94025" lon="4.80562">
        <ele>225</ele>
        <time>2018-01-12T11:08:19Z</time>
      </trkpt>
      <trkpt lat="45.94024" lon="4.80548">
        <ele>225</ele>
        <time>2018-01-12T11:08:20Z</time>
      </trkpt>
      <trkpt lat="45.94023" lon="4.80532">
        <ele>225</ele>
        <time>2018-01-12T11:08:21Z</time>
      </trkpt>
      <trkpt lat="45.94023" lon="4.80518">
        <ele>224</ele>
        <time>2018-01-12T11:08:22Z</time>
      </trkpt>
      <trkpt lat="45.94023" lon="4.80499">
        <ele>223</ele>
        <time>2018-01-12T11:08:23Z</time>
      </trkpt>
      <trkpt lat="45.94022" lon="4.80489">
        <ele>223</ele>
        <time>2018-01-12T11:08:24Z</time>
      </trkpt>
      <trkpt lat="45.94023" lon="4.80476">
        <ele>223</ele>
        <time>2018-01-12T11:08:25Z</time>
      </trkpt>
      <trkpt lat="45.94028" lon="4.80465">
        <ele>224</ele>
        <time>2018-01-12T11:08:26Z</time>
      </trkpt>
      <trkpt lat="45.94024" lon="4.8045">
        <ele>223</ele>
        <time>2018-01-12T11:08:27Z</time>
      </trkpt>
      <trkpt lat="45.9402" lon="4.80434">
        <ele>222</ele>
        <time>2018-01-12T11:08:28Z</time>
      </trkpt>
      <trkpt lat="45.94017" lon="4.80422">
        <ele>221</ele>
        <time>2018-01-12T11:08:29Z</time>
      </trkpt>
      <trkpt lat="45.94014" lon="4.80405">
        <ele>217</ele>
        <time>2018-01-12T11:08:30Z</time>
      </trkpt>
      <trkpt lat="45.94015" lon="4.80387">
        <ele>217</ele>
        <time>2018-01-12T11:08:31Z</time>
      </trkpt>
      <trkpt lat="45.94012" lon="4.8037">
        <ele>216</ele>
        <time>2018-01-12T11:08:32Z</time>
      </trkpt>
      <trkpt lat="45.94007" lon="4.80357">
        <ele>214</ele>
        <time>2018-01-12T11:08:33Z</time>
      </trkpt>
      <trkpt lat="45.94" lon="4.80342">
        <ele>210</ele>
        <time>2018-01-12T11:08:34Z</time>
      </trkpt>
      <trkpt lat="45.93997" lon="4.80326">
        <ele>205</ele>
        <time>2018-01-12T11:08:35Z</time>
      </trkpt>
      <trkpt lat="45.93992" lon="4.80312">
        <ele>204</ele>
        <time>2018-01-12T11:08:36Z</time>
      </trkpt>
      <trkpt lat="45.93987" lon="4.80296">
        <ele>203</ele>
        <time>2018-01-12T11:08:37Z</time>
      </trkpt>
      <trkpt lat="45.93983" lon="4.80281">
        <ele>203</ele>
        <time>2018-01-12T11:08:38Z</time>
      </trkpt>
      <trkpt lat="45.93978" lon="4.80268">
        <ele>203</ele>
        <time>2018-01-12T11:08:39Z</time>
      </trkpt>
      <trkpt lat="45.93974" lon="4.80254">
        <ele>203</ele>
        <time>2018-01-12T11:08:40Z</time>
      </trkpt>
      <trkpt lat="45.9397" lon="4.80241">
        <ele>205</ele>
        <time>2018-01-12T11:08:41Z</time>
      </trkpt>
      <trkpt lat="45.93967" lon="4.80228">
        <ele>205</ele>
        <time>2018-01-12T11:08:42Z</time>
      </trkpt>
      <trkpt lat="45.93963" lon="4.80216">
        <ele>205</ele>
        <time>2018-01-12T11:08:43Z</time>
      </trkpt>
      <trkpt lat="45.9396" lon="4.80204">
        <ele>205</ele>
        <time>2018-01-12T11:08:44Z</time>
      </trkpt>
      <trkpt lat="45.93958" lon="4.80191">
        <ele>206</ele>
        <time>2018-01-12T11:08:45Z</time>
      </trkpt>
      <trkpt lat="45.93956" lon="4.80179">
        <ele>206</ele>
        <time>2018-01-12T11:08:46Z</time>
      </trkpt>
      <trkpt lat="45.93953" lon="4.80168">
        <ele>206</ele>
        <time>2018-01-12T11:08:47Z</time>
      </trkpt>
      <trkpt lat="45.93951" lon="4.80157">
        <ele>209</ele>
        <time>2018-01-12T11:08:48Z</time>
      </trkpt>
      <trkpt lat="45.9395" lon="4.80147">
        <ele>209</ele>
        <time>2018-01-12T11:08:49Z</time>
      </trkpt>
      <trkpt lat="45.93949" lon="4.80136">
        <ele>209</ele>
        <time>2018-01-12T11:08:50Z</time>
      </trkpt>
      <trkpt lat="45.93948" lon="4.80127">
        <ele>209</ele>
        <time>2018-01-12T11:08:51Z</time>
      </trkpt>
      <trkpt lat="45.93946" lon="4.80118">
        <ele>209</ele>
        <time>2018-01-12T11:08:52Z</time>
      </trkpt>
      <trkpt lat="45.93946" lon="4.80109">
        <ele>209</ele>
        <time>2018-01-12T11:08:53Z</time>
      </trkpt>
      <trkpt lat="45.93945" lon="4.80099">
        <ele>209</ele>
        <time>2018-01-12T11:08:54Z</time>
      </trkpt>
      <trkpt lat="45.93944" lon="4.8009">
        <ele>208</ele>
        <time>2018-01-12T11:08:55Z</time>
      </trkpt>
      <trkpt lat="45.93943" lon="4.8008">
        <ele>208</ele>
        <time>2018-01-12T11:08:56Z</time>
      </trkpt>
      <trkpt lat="45.93943" lon="4.80072">
        <ele>208</ele>
        <time>2018-01-12T11:08:57Z</time>
      </trkpt>
      <trkpt lat="45.93943" lon="4.80063">
        <ele>208</ele>
        <time>2018-01-12T11:08:58Z</time>
      </trkpt>
      <trkpt lat="45.93944" lon="4.80055">
        <ele>208</ele>
        <time>2018-01-12T11:08:59Z</time>
      </trkpt>
      <trkpt lat="45.93945" lon="4.80047">
        <ele>208</ele>
        <time>2018-01-12T11:09:00Z</time>
      </trkpt>
      <trkpt lat="45.93945" lon="4.80038">
        <ele>207</ele>
        <time>2018-01-12T11:09:01Z</time>
      </trkpt>
      <trkpt lat="45.93946" lon="4.80029">
        <ele>207</ele>
        <time>2018-01-12T11:09:02Z</time>
      </trkpt>
      <trkpt lat="45.93948" lon="4.80021">
        <ele>207</ele>
        <time>2018-01-12T11:09:03Z</time>
      </trkpt>
      <trkpt lat="45.93949" lon="4.80012">
        <ele>207</ele>
        <time>2018-01-12T11:09:04Z</time>
      </trkpt>
      <trkpt lat="45.9395" lon="4.80004">
        <ele>207</ele>
        <time>2018-01-12T11:09:05Z</time>
      </trkpt>
      <trkpt lat="45.93951" lon="4.79996">
        <ele>205</ele>
        <time>2018-01-12T11:09:06Z</time>
      </trkpt>
      <trkpt lat="45.93952" lon="4.79988">
        <ele>205</ele>
        <time>2018-01-12T11:09:07Z</time>
      </trkpt>
      <trkpt lat="45.93953" lon="4.7998">
        <ele>205</ele>
        <time>2018-01-12T11:09:08Z</time>
      </trkpt>
      <trkpt lat="45.93953" lon="4.79973">
        <ele>205</ele>
        <time>2018-01-12T11:09:09Z</time>
      </trkpt>
      <trkpt lat="45.93954" lon="4.79966">
        <ele>205</ele>
        <time>2018-01-12T11:09:10Z</time>
      </trkpt>
      <trkpt lat="45.93954" lon="4.79959">
        <ele>205</ele>
        <time>2018-01-12T11:09:11Z</time>
      </trkpt>
      <trkpt lat="45.93954" lon="4.79952">
        <ele>205</ele>
        <time>2018-01-12T11:09:12Z</time>
      </trkpt>
      <trkpt lat="45.93955" lon="4.79944">
        <ele>205</ele>
        <time>2018-01-12T11:09:13Z</time>
      </trkpt>
      <trkpt lat="45.93956" lon="4.79936">
        <ele>205</ele>
        <time>2018-01-12T11:09:14Z</time>
      </trkpt>
      <trkpt lat="45.93957" lon="4.79927">
        <ele>205</ele>
        <time>2018-01-12T11:09:15Z</time>
      </trkpt>
      <trkpt lat="45.93958" lon="4.79919">
        <ele>205</ele>
        <time>2018-01-12T11:09:16Z</time>
      </trkpt>
      <trkpt lat="45.9396" lon="4.79911">
        <ele>206</ele>
        <time>2018-01-12T11:09:17Z</time>
      </trkpt>
      <trkpt lat="45.93961" lon="4.79903">
        <ele>206</ele>
        <time>2018-01-12T11:09:18Z</time>
      </trkpt>
      <trkpt lat="45.93962" lon="4.79894">
        <ele>206</ele>
        <time>2018-01-12T11:09:19Z</time>
      </trkpt>
      <trkpt lat="45.93963" lon="4.79886">
        <ele>206</ele>
        <time>2018-01-12T11:09:20Z</time>
      </trkpt>
      <trkpt lat="45.93964" lon="4.79878">
        <ele>206</ele>
        <time>2018-01-12T11:09:21Z</time>
      </trkpt>
      <trkpt lat="45.93965" lon="4.7987">
        <ele>206</ele>
        <time>2018-01-12T11:09:22Z</time>
      </trkpt>
      <trkpt lat="45.93966" lon="4.79862">
        <ele>206</ele>
        <time>2018-01-12T11:09:23Z</time>
      </trkpt>
      <trkpt lat="45.93969" lon="4.79853">
        <ele>206</ele>
        <time>2018-01-12T11:09:24Z</time>
      </trkpt>
      <trkpt lat="45.9397" lon="4.79845">
        <ele>207</ele>
        <time>2018-01-12T11:09:25Z</time>
      </trkpt>
      <trkpt lat="45.93972" lon="4.79835">
        <ele>207</ele>
        <time>2018-01-12T11:09:26Z</time>
      </trkpt>
      <trkpt lat="45.93974" lon="4.79825">
        <ele>207</ele>
        <time>2018-01-12T11:09:27Z</time>
      </trkpt>
      <trkpt lat="45.93974" lon="4.79816">
        <ele>207</ele>
        <time>2018-01-12T11:09:28Z</time>
      </trkpt>
      <trkpt lat="45.93976" lon="4.79806">
        <ele>207</ele>
        <time>2018-01-12T11:09:29Z</time>
      </trkpt>
      <trkpt lat="45.93977" lon="4.79796">
        <ele>207</ele>
        <time>2018-01-12T11:09:30Z</time>
      </trkpt>
      <trkpt lat="45.93977" lon="4.79787">
        <ele>207</ele>
        <time>2018-01-12T11:09:31Z</time>
      </trkpt>
      <trkpt lat="45.93977" lon="4.79777">
        <ele>207</ele>
        <time>2018-01-12T11:09:32Z</time>
      </trkpt>
      <trkpt lat="45.93977" lon="4.79768">
        <ele>207</ele>
        <time>2018-01-12T11:09:33Z</time>
      </trkpt>
      <trkpt lat="45.93977" lon="4.7976">
        <ele>207</ele>
        <time>2018-01-12T11:09:34Z</time>
      </trkpt>
      <trkpt lat="45.93976" lon="4.79752">
        <ele>207</ele>
        <time>2018-01-12T11:09:35Z</time>
      </trkpt>
      <trkpt lat="45.93976" lon="4.79745">
        <ele>207</ele>
        <time>2018-01-12T11:09:36Z</time>
      </trkpt>
      <trkpt lat="45.93975" lon="4.79736">
        <ele>207</ele>
        <time>2018-01-12T11:09:37Z</time>
      </trkpt>
      <trkpt lat="45.93974" lon="4.79729">
        <ele>207</ele>
        <time>2018-01-12T11:09:38Z</time>
      </trkpt>
      <trkpt lat="45.93973" lon="4.79721">
        <ele>207</ele>
        <time>2018-01-12T11:09:39Z</time>
      </trkpt>
      <trkpt lat="45.93973" lon="4.79714">
        <ele>207</ele>
        <time>2018-01-12T11:09:40Z</time>
      </trkpt>
      <trkpt lat="45.93972" lon="4.79706">
        <ele>207</ele>
        <time>2018-01-12T11:09:41Z</time>
      </trkpt>
      <trkpt lat="45.93971" lon="4.79698">
        <ele>207</ele>
        <time>2018-01-12T11:09:42Z</time>
      </trkpt>
      <trkpt lat="45.9397" lon="4.79691">
        <ele>207</ele>
        <time>2018-01-12T11:09:43Z</time>
      </trkpt>
      <trkpt lat="45.9397" lon="4.7968">
        <ele>207</ele>
        <time>2018-01-12T11:09:44Z</time>
      </trkpt>
      <trkpt lat="45.93969" lon="4.79672">
        <ele>207</ele>
        <time>2018-01-12T11:09:45Z</time>
      </trkpt>
      <trkpt lat="45.93968" lon="4.79663">
        <ele>208</ele>
        <time>2018-01-12T11:09:46Z</time>
      </trkpt>
      <trkpt lat="45.93967" lon="4.79656">
        <ele>208</ele>
        <time>2018-01-12T11:09:47Z</time>
      </trkpt>
      <trkpt lat="45.93966" lon="4.79647">
        <ele>207</ele>
        <time>2018-01-12T11:09:48Z</time>
      </trkpt>
      <trkpt lat="45.93964" lon="4.79638">
        <ele>207</ele>
        <time>2018-01-12T11:09:49Z</time>
      </trkpt>
      <trkpt lat="45.93964" lon="4.7963">
        <ele>207</ele>
        <time>2018-01-12T11:09:50Z</time>
      </trkpt>
      <trkpt lat="45.93963" lon="4.79621">
        <ele>207</ele>
        <time>2018-01-12T11:09:51Z</time>
      </trkpt>
      <trkpt lat="45.93962" lon="4.79613">
        <ele>207</ele>
        <time>2018-01-12T11:09:52Z</time>
      </trkpt>
      <trkpt lat="45.93961" lon="4.79605">
        <ele>207</ele>
        <time>2018-01-12T11:09:53Z</time>
      </trkpt>
      <trkpt lat="45.9396" lon="4.79596">
        <ele>207</ele>
        <time>2018-01-12T11:09:54Z</time>
      </trkpt>
      <trkpt lat="45.93959" lon="4.79589">
        <ele>207</ele>
        <time>2018-01-12T11:09:55Z</time>
      </trkpt>
      <trkpt lat="45.93959" lon="4.79579">
        <ele>206</ele>
        <time>2018-01-12T11:09:56Z</time>
      </trkpt>
      <trkpt lat="45.93958" lon="4.7957">
        <ele>205</ele>
        <time>2018-01-12T11:09:57Z</time>
      </trkpt>
      <trkpt lat="45.93957" lon="4.79561">
        <ele>205</ele>
        <time>2018-01-12T11:09:58Z</time>
      </trkpt>
      <trkpt lat="45.93957" lon="4.79548">
        <ele>205</ele>
        <time>2018-01-12T11:09:59Z</time>
      </trkpt>
      <trkpt lat="45.93956" lon="4.79539">
        <ele>205</ele>
        <time>2018-01-12T11:10:00Z</time>
      </trkpt>
      <trkpt lat="45.93957" lon="4.79528">
        <ele>205</ele>
        <time>2018-01-12T11:10:01Z</time>
      </trkpt>
      <trkpt lat="45.93957" lon="4.7952">
        <ele>205</ele>
        <time>2018-01-12T11:10:02Z</time>
      </trkpt>
      <trkpt lat="45.93958" lon="4.79511">
        <ele>204</ele>
        <time>2018-01-12T11:10:03Z</time>
      </trkpt>
      <trkpt lat="45.93957" lon="4.795">
        <ele>203</ele>
        <time>2018-01-12T11:10:04Z</time>
      </trkpt>
      <trkpt lat="45.93956" lon="4.79489">
        <ele>203</ele>
        <time>2018-01-12T11:10:05Z</time>
      </trkpt>
      <trkpt lat="45.93956" lon="4.79479">
        <ele>203</ele>
        <time>2018-01-12T11:10:06Z</time>
      </trkpt>
      <trkpt lat="45.93956" lon="4.79469">
        <ele>203</ele>
        <time>2018-01-12T11:10:07Z</time>
      </trkpt>
      <trkpt lat="45.93954" lon="4.79462">
        <ele>203</ele>
        <time>2018-01-12T11:10:08Z</time>
      </trkpt>
      <trkpt lat="45.93954" lon="4.79451">
        <ele>203</ele>
        <time>2018-01-12T11:10:09Z</time>
      </trkpt>
      <trkpt lat="45.93953" lon="4.79441">
        <ele>202</ele>
        <time>2018-01-12T11:10:10Z</time>
      </trkpt>
      <trkpt lat="45.93954" lon="4.79433">
        <ele>202</ele>
        <time>2018-01-12T11:10:11Z</time>
      </trkpt>
      <trkpt lat="45.93954" lon="4.79423">
        <ele>202</ele>
        <time>2018-01-12T11:10:12Z</time>
      </trkpt>
      <trkpt lat="45.93954" lon="4.79413">
        <ele>201</ele>
        <time>2018-01-12T11:10:13Z</time>
      </trkpt>
      <trkpt lat="45.93953" lon="4.79406">
        <ele>201</ele>
        <time>2018-01-12T11:10:14Z</time>
      </trkpt>
      <trkpt lat="45.93952" lon="4.79397">
        <ele>201</ele>
        <time>2018-01-12T11:10:15Z</time>
      </trkpt>
      <trkpt lat="45.93952" lon="4.79386">
        <ele>201</ele>
        <time>2018-01-12T11:10:16Z</time>
      </trkpt>
      <trkpt lat="45.93952" lon="4.79376">
        <ele>201</ele>
        <time>2018-01-12T11:10:17Z</time>
      </trkpt>
      <trkpt lat="45.93952" lon="4.79365">
        <ele>201</ele>
        <time>2018-01-12T11:10:18Z</time>
      </trkpt>
      <trkpt lat="45.93952" lon="4.79355">
        <ele>200</ele>
        <time>2018-01-12T11:10:19Z</time>
      </trkpt>
      <trkpt lat="45.93952" lon="4.79345">
        <ele>200</ele>
        <time>2018-01-12T11:10:20Z</time>
      </trkpt>
      <trkpt lat="45.93951" lon="4.79334">
        <ele>200</ele>
        <time>2018-01-12T11:10:21Z</time>
      </trkpt>
      <trkpt lat="45.93954" lon="4.79316">
        <ele>199</ele>
        <time>2018-01-12T11:10:22Z</time>
      </trkpt>
      <trkpt lat="45.93955" lon="4.79301">
        <ele>199</ele>
        <time>2018-01-12T11:10:23Z</time>
      </trkpt>
      <trkpt lat="45.93954" lon="4.79293">
        <ele>198</ele>
        <time>2018-01-12T11:10:24Z</time>
      </trkpt>
      <trkpt lat="45.93954" lon="4.79284">
        <ele>198</ele>
        <time>2018-01-12T11:10:25Z</time>
      </trkpt>
      <trkpt lat="45.93954" lon="4.79273">
        <ele>198</ele>
        <time>2018-01-12T11:10:26Z</time>
      </trkpt>
      <trkpt lat="45.93953" lon="4.79263">
        <ele>198</ele>
        <time>2018-01-12T11:10:27Z</time>
      </trkpt>
      <trkpt lat="45.93952" lon="4.79253">
        <ele>198</ele>
        <time>2018-01-12T11:10:28Z</time>
      </trkpt>
      <trkpt lat="45.93953" lon="4.79243">
        <ele>197</ele>
        <time>2018-01-12T11:10:29Z</time>
      </trkpt>
      <trkpt lat="45.93953" lon="4.79233">
        <ele>197</ele>
        <time>2018-01-12T11:10:30Z</time>
      </trkpt>
      <trkpt lat="45.93953" lon="4.79223">
        <ele>197</ele>
        <time>2018-01-12T11:10:31Z</time>
      </trkpt>
      <trkpt lat="45.93953" lon="4.79213">
        <ele>197</ele>
        <time>2018-01-12T11:10:32Z</time>
      </trkpt>
      <trkpt lat="45.93953" lon="4.79204">
        <ele>197</ele>
        <time>2018-01-12T11:10:33Z</time>
      </trkpt>
      <trkpt lat="45.93952" lon="4.79196">
        <ele>197</ele>
        <time>2018-01-12T11:10:34Z</time>
      </trkpt>
      <trkpt lat="45.93952" lon="4.79187">
        <ele>197</ele>
        <time>2018-01-12T11:10:35Z</time>
      </trkpt>
      <trkpt lat="45.93951" lon="4.79178">
        <ele>197</ele>
        <time>2018-01-12T11:10:36Z</time>
      </trkpt>
      <trkpt lat="45.93952" lon="4.79168">
        <ele>197</ele>
        <time>2018-01-12T11:10:37Z</time>
      </trkpt>
      <trkpt lat="45.93953" lon="4.79155">
        <ele>197</ele>
        <time>2018-01-12T11:10:38Z</time>
      </trkpt>
      <trkpt lat="45.93953" lon="4.79147">
        <ele>197</ele>
        <time>2018-01-12T11:10:39Z</time>
      </trkpt>
      <trkpt lat="45.93952" lon="4.79139">
        <ele>197</ele>
        <time>2018-01-12T11:10:40Z</time>
      </trkpt>
      <trkpt lat="45.93952" lon="4.79131">
        <ele>197</ele>
        <time>2018-01-12T11:10:41Z</time>
      </trkpt>
      <trkpt lat="45.93953" lon="4.79121">
        <ele>197</ele>
        <time>2018-01-12T11:10:42Z</time>
      </trkpt>
      <trkpt lat="45.93952" lon="4.79112">
        <ele>197</ele>
        <time>2018-01-12T11:10:43Z</time>
      </trkpt>
      <trkpt lat="45.93952" lon="4.79103">
        <ele>197</ele>
        <time>2018-01-12T11:10:44Z</time>
      </trkpt>
      <trkpt lat="45.93952" lon="4.79095">
        <ele>197</ele>
        <time>2018-01-12T11:10:45Z</time>
      </trkpt>
      <trkpt lat="45.93951" lon="4.79087">
        <ele>197</ele>
        <time>2018-01-12T11:10:46Z</time>
      </trkpt>
      <trkpt lat="45.93951" lon="4.79079">
        <ele>196</ele>
        <time>2018-01-12T11:10:47Z</time>
      </trkpt>
      <trkpt lat="45.9395" lon="4.79073">
        <ele>196</ele>
        <time>2018-01-12T11:10:48Z</time>
      </trkpt>
      <trkpt lat="45.9395" lon="4.79065">
        <ele>196</ele>
        <time>2018-01-12T11:10:49Z</time>
      </trkpt>
      <trkpt lat="45.93951" lon="4.79053">
        <ele>196</ele>
        <time>2018-01-12T11:10:50Z</time>
      </trkpt>
      <trkpt lat="45.9395" lon="4.79045">
        <ele>196</ele>
        <time>2018-01-12T11:10:51Z</time>
      </trkpt>
      <trkpt lat="45.93949" lon="4.79039">
        <ele>196</ele>
        <time>2018-01-12T11:10:52Z</time>
      </trkpt>
      <trkpt lat="45.93948" lon="4.79031">
        <ele>195</ele>
        <time>2018-01-12T11:10:53Z</time>
      </trkpt>
      <trkpt lat="45.93948" lon="4.79022">
        <ele>195</ele>
        <time>2018-01-12T11:10:54Z</time>
      </trkpt>
      <trkpt lat="45.93948" lon="4.79012">
        <ele>195</ele>
        <time>2018-01-12T11:10:55Z</time>
      </trkpt>
      <trkpt lat="45.93948" lon="4.79004">
        <ele>195</ele>
        <time>2018-01-12T11:10:56Z</time>
      </trkpt>
      <trkpt lat="45.93947" lon="4.78996">
        <ele>194</ele>
        <time>2018-01-12T11:10:57Z</time>
      </trkpt>
      <trkpt lat="45.93946" lon="4.78988">
        <ele>194</ele>
        <time>2018-01-12T11:10:58Z</time>
      </trkpt>
      <trkpt lat="45.93945" lon="4.7898">
        <ele>194</ele>
        <time>2018-01-12T11:10:59Z</time>
      </trkpt>
      <trkpt lat="45.93944" lon="4.78972">
        <ele>194</ele>
        <time>2018-01-12T11:11:00Z</time>
      </trkpt>
      <trkpt lat="45.93944" lon="4.78965">
        <ele>194</ele>
        <time>2018-01-12T11:11:01Z</time>
      </trkpt>
      <trkpt lat="45.93943" lon="4.78958">
        <ele>194</ele>
        <time>2018-01-12T11:11:02Z</time>
      </trkpt>
      <trkpt lat="45.93943" lon="4.7895">
        <ele>194</ele>
        <time>2018-01-12T11:11:03Z</time>
      </trkpt>
      <trkpt lat="45.93943" lon="4.78942">
        <ele>194</ele>
        <time>2018-01-12T11:11:04Z</time>
      </trkpt>
      <trkpt lat="45.93943" lon="4.78933">
        <ele>193</ele>
        <time>2018-01-12T11:11:05Z</time>
      </trkpt>
      <trkpt lat="45.93942" lon="4.78923">
        <ele>193</ele>
        <time>2018-01-12T11:11:06Z</time>
      </trkpt>
      <trkpt lat="45.93943" lon="4.78913">
        <ele>193</ele>
        <time>2018-01-12T11:11:07Z</time>
      </trkpt>
      <trkpt lat="45.93943" lon="4.78903">
        <ele>193</ele>
        <time>2018-01-12T11:11:08Z</time>
      </trkpt>
      <trkpt lat="45.93942" lon="4.78894">
        <ele>193</ele>
        <time>2018-01-12T11:11:09Z</time>
      </trkpt>
      <trkpt lat="45.93942" lon="4.78885">
        <ele>194</ele>
        <time>2018-01-12T11:11:10Z</time>
      </trkpt>
      <trkpt lat="45.93941" lon="4.78875">
        <ele>194</ele>
        <time>2018-01-12T11:11:11Z</time>
      </trkpt>
      <trkpt lat="45.93941" lon="4.78864">
        <ele>194</ele>
        <time>2018-01-12T11:11:12Z</time>
      </trkpt>
      <trkpt lat="45.93941" lon="4.78853">
        <ele>194</ele>
        <time>2018-01-12T11:11:13Z</time>
      </trkpt>
      <trkpt lat="45.93939" lon="4.78842">
        <ele>193</ele>
        <time>2018-01-12T11:11:14Z</time>
      </trkpt>
      <trkpt lat="45.93939" lon="4.78833">
        <ele>194</ele>
        <time>2018-01-12T11:11:15Z</time>
      </trkpt>
      <trkpt lat="45.93939" lon="4.78822">
        <ele>194</ele>
        <time>2018-01-12T11:11:16Z</time>
      </trkpt>
      <trkpt lat="45.9394" lon="4.78811">
        <ele>194</ele>
        <time>2018-01-12T11:11:17Z</time>
      </trkpt>
      <trkpt lat="45.93939" lon="4.788">
        <ele>194</ele>
        <time>2018-01-12T11:11:18Z</time>
      </trkpt>
      <trkpt lat="45.93938" lon="4.7879">
        <ele>194</ele>
        <time>2018-01-12T11:11:19Z</time>
      </trkpt>
      <trkpt lat="45.93939" lon="4.78781">
        <ele>194</ele>
        <time>2018-01-12T11:11:20Z</time>
      </trkpt>
      <trkpt lat="45.93938" lon="4.78772">
        <ele>194</ele>
        <time>2018-01-12T11:11:21Z</time>
      </trkpt>
      <trkpt lat="45.93937" lon="4.78765">
        <ele>193</ele>
        <time>2018-01-12T11:11:22Z</time>
      </trkpt>
      <trkpt lat="45.93938" lon="4.78756">
        <ele>193</ele>
        <time>2018-01-12T11:11:23Z</time>
      </trkpt>
      <trkpt lat="45.93937" lon="4.78748">
        <ele>193</ele>
        <time>2018-01-12T11:11:24Z</time>
      </trkpt>
      <trkpt lat="45.93937" lon="4.78741">
        <ele>193</ele>
        <time>2018-01-12T11:11:25Z</time>
      </trkpt>
      <trkpt lat="45.93938" lon="4.78732">
        <ele>194</ele>
        <time>2018-01-12T11:11:26Z</time>
      </trkpt>
      <trkpt lat="45.93938" lon="4.78725">
        <ele>194</ele>
        <time>2018-01-12T11:11:27Z</time>
      </trkpt>
      <trkpt lat="45.9394" lon="4.78713">
        <ele>194</ele>
        <time>2018-01-12T11:11:28Z</time>
      </trkpt>
      <trkpt lat="45.9394" lon="4.78708">
        <ele>194</ele>
        <time>2018-01-12T11:11:29Z</time>
      </trkpt>
      <trkpt lat="45.93939" lon="4.78697">
        <ele>194</ele>
        <time>2018-01-12T11:11:31Z</time>
      </trkpt>
      <trkpt lat="45.9394" lon="4.78688">
        <ele>194</ele>
        <time>2018-01-12T11:11:32Z</time>
      </trkpt>
      <trkpt lat="45.93939" lon="4.78681">
        <ele>194</ele>
        <time>2018-01-12T11:11:33Z</time>
      </trkpt>
      <trkpt lat="45.93939" lon="4.78674">
        <ele>193</ele>
        <time>2018-01-12T11:11:34Z</time>
      </trkpt>
      <trkpt lat="45.93939" lon="4.78661">
        <ele>194</ele>
        <time>2018-01-12T11:11:36Z</time>
      </trkpt>
      <trkpt lat="45.93938" lon="4.78657">
        <ele>194</ele>
        <time>2018-01-12T11:11:37Z</time>
      </trkpt>
      <trkpt lat="45.93937" lon="4.7865">
        <ele>195</ele>
        <time>2018-01-12T11:11:38Z</time>
      </trkpt>
      <trkpt lat="45.93939" lon="4.78641">
        <ele>195</ele>
        <time>2018-01-12T11:11:39Z</time>
      </trkpt>
      <trkpt lat="45.93938" lon="4.78634">
        <ele>195</ele>
        <time>2018-01-12T11:11:40Z</time>
      </trkpt>
      <trkpt lat="45.93938" lon="4.78627">
        <ele>195</ele>
        <time>2018-01-12T11:11:41Z</time>
      </trkpt>
      <trkpt lat="45.93937" lon="4.78619">
        <ele>196</ele>
        <time>2018-01-12T11:11:42Z</time>
      </trkpt>
      <trkpt lat="45.93937" lon="4.78611">
        <ele>196</ele>
        <time>2018-01-12T11:11:43Z</time>
      </trkpt>
      <trkpt lat="45.93939" lon="4.78599">
        <ele>196</ele>
        <time>2018-01-12T11:11:44Z</time>
      </trkpt>
      <trkpt lat="45.9394" lon="4.78593">
        <ele>196</ele>
        <time>2018-01-12T11:11:45Z</time>
      </trkpt>
      <trkpt lat="45.93939" lon="4.7858">
        <ele>196</ele>
        <time>2018-01-12T11:11:48Z</time>
      </trkpt>
      <trkpt lat="45.9394" lon="4.78575">
        <ele>197</ele>
        <time>2018-01-12T11:11:49Z</time>
      </trkpt>
      <trkpt lat="45.93937" lon="4.78566">
        <ele>197</ele>
        <time>2018-01-12T11:11:51Z</time>
      </trkpt>
      <trkpt lat="45.93937" lon="4.7856">
        <ele>197</ele>
        <time>2018-01-12T11:11:52Z</time>
      </trkpt>
      <trkpt lat="45.93938" lon="4.7855">
        <ele>197</ele>
        <time>2018-01-12T11:11:54Z</time>
      </trkpt>
      <trkpt lat="45.93938" lon="4.78544">
        <ele>197</ele>
        <time>2018-01-12T11:11:55Z</time>
      </trkpt>
      <trkpt lat="45.93939" lon="4.78537">
        <ele>197</ele>
        <time>2018-01-12T11:11:56Z</time>
      </trkpt>
      <trkpt lat="45.9394" lon="4.78531">
        <ele>197</ele>
        <time>2018-01-12T11:11:57Z</time>
      </trkpt>
      <trkpt lat="45.93941" lon="4.78523">
        <ele>197</ele>
        <time>2018-01-12T11:11:58Z</time>
      </trkpt>
      <trkpt lat="45.93942" lon="4.78517">
        <ele>197</ele>
        <time>2018-01-12T11:11:59Z</time>
      </trkpt>
      <trkpt lat="45.93943" lon="4.78504">
        <ele>197</ele>
        <time>2018-01-12T11:12:01Z</time>
      </trkpt>
      <trkpt lat="45.93943" lon="4.78499">
        <ele>197</ele>
        <time>2018-01-12T11:12:02Z</time>
      </trkpt>
      <trkpt lat="45.93944" lon="4.78487">
        <ele>197</ele>
        <time>2018-01-12T11:12:04Z</time>
      </trkpt>
      <trkpt lat="45.93943" lon="4.78484">
        <ele>197</ele>
        <time>2018-01-12T11:12:05Z</time>
      </trkpt>
      <trkpt lat="45.93945" lon="4.78477">
        <ele>197</ele>
        <time>2018-01-12T11:12:06Z</time>
      </trkpt>
      <trkpt lat="45.93945" lon="4.78471">
        <ele>197</ele>
        <time>2018-01-12T11:12:07Z</time>
      </trkpt>
      <trkpt lat="45.93947" lon="4.78459">
        <ele>197</ele>
        <time>2018-01-12T11:12:09Z</time>
      </trkpt>
      <trkpt lat="45.93946" lon="4.78454">
        <ele>197</ele>
        <time>2018-01-12T11:12:10Z</time>
      </trkpt>
      <trkpt lat="45.93948" lon="4.78444">
        <ele>197</ele>
        <time>2018-01-12T11:12:12Z</time>
      </trkpt>
      <trkpt lat="45.93949" lon="4.78438">
        <ele>197</ele>
        <time>2018-01-12T11:12:13Z</time>
      </trkpt>
      <trkpt lat="45.9395" lon="4.78426">
        <ele>197</ele>
        <time>2018-01-12T11:12:15Z</time>
      </trkpt>
      <trkpt lat="45.93951" lon="4.7842">
        <ele>197</ele>
        <time>2018-01-12T11:12:16Z</time>
      </trkpt>
      <trkpt lat="45.93952" lon="4.78412">
        <ele>196</ele>
        <time>2018-01-12T11:12:17Z</time>
      </trkpt>
      <trkpt lat="45.93953" lon="4.78403">
        <ele>196</ele>
        <time>2018-01-12T11:12:18Z</time>
      </trkpt>
      <trkpt lat="45.93954" lon="4.78397">
        <ele>196</ele>
        <time>2018-01-12T11:12:19Z</time>
      </trkpt>
      <trkpt lat="45.93955" lon="4.7839">
        <ele>196</ele>
        <time>2018-01-12T11:12:20Z</time>
      </trkpt>
      <trkpt lat="45.93956" lon="4.78383">
        <ele>196</ele>
        <time>2018-01-12T11:12:21Z</time>
      </trkpt>
      <trkpt lat="45.93957" lon="4.78375">
        <ele>196</ele>
        <time>2018-01-12T11:12:22Z</time>
      </trkpt>
      <trkpt lat="45.93958" lon="4.78369">
        <ele>196</ele>
        <time>2018-01-12T11:12:23Z</time>
      </trkpt>
      <trkpt lat="45.93959" lon="4.78362">
        <ele>196</ele>
        <time>2018-01-12T11:12:24Z</time>
      </trkpt>
      <trkpt lat="45.9396" lon="4.7835">
        <ele>196</ele>
        <time>2018-01-12T11:12:26Z</time>
      </trkpt>
      <trkpt lat="45.9396" lon="4.78345">
        <ele>196</ele>
        <time>2018-01-12T11:12:27Z</time>
      </trkpt>
      <trkpt lat="45.93961" lon="4.78338">
        <ele>196</ele>
        <time>2018-01-12T11:12:29Z</time>
      </trkpt>
      <trkpt lat="45.93962" lon="4.78332">
        <ele>196</ele>
        <time>2018-01-12T11:12:30Z</time>
      </trkpt>
      <trkpt lat="45.93964" lon="4.78322">
        <ele>196</ele>
        <time>2018-01-12T11:12:32Z</time>
      </trkpt>
      <trkpt lat="45.93965" lon="4.78316">
        <ele>196</ele>
        <time>2018-01-12T11:12:33Z</time>
      </trkpt>
      <trkpt lat="45.93967" lon="4.78305">
        <ele>196</ele>
        <time>2018-01-12T11:12:35Z</time>
      </trkpt>
      <trkpt lat="45.93968" lon="4.78299">
        <ele>196</ele>
        <time>2018-01-12T11:12:36Z</time>
      </trkpt>
      <trkpt lat="45.93969" lon="4.78292">
        <ele>196</ele>
        <time>2018-01-12T11:12:37Z</time>
      </trkpt>
      <trkpt lat="45.9397" lon="4.78286">
        <ele>196</ele>
        <time>2018-01-12T11:12:38Z</time>
      </trkpt>
      <trkpt lat="45.9397" lon="4.78277">
        <ele>196</ele>
        <time>2018-01-12T11:12:39Z</time>
      </trkpt>
      <trkpt lat="45.93971" lon="4.7827">
        <ele>196</ele>
        <time>2018-01-12T11:12:40Z</time>
      </trkpt>
      <trkpt lat="45.93972" lon="4.78261">
        <ele>196</ele>
        <time>2018-01-12T11:12:41Z</time>
      </trkpt>
      <trkpt lat="45.93973" lon="4.78254">
        <ele>196</ele>
        <time>2018-01-12T11:12:42Z</time>
      </trkpt>
      <trkpt lat="45.93973" lon="4.78242">
        <ele>196</ele>
        <time>2018-01-12T11:12:44Z</time>
      </trkpt>
      <trkpt lat="45.93974" lon="4.78236">
        <ele>196</ele>
        <time>2018-01-12T11:12:45Z</time>
      </trkpt>
      <trkpt lat="45.93976" lon="4.78227">
        <ele>196</ele>
        <time>2018-01-12T11:12:46Z</time>
      </trkpt>
      <trkpt lat="45.93977" lon="4.78221">
        <ele>197</ele>
        <time>2018-01-12T11:12:47Z</time>
      </trkpt>
      <trkpt lat="45.93978" lon="4.78214">
        <ele>197</ele>
        <time>2018-01-12T11:12:48Z</time>
      </trkpt>
      <trkpt lat="45.93979" lon="4.78208">
        <ele>197</ele>
        <time>2018-01-12T11:12:49Z</time>
      </trkpt>
      <trkpt lat="45.93982" lon="4.78196">
        <ele>197</ele>
        <time>2018-01-12T11:12:51Z</time>
      </trkpt>
      <trkpt lat="45.93984" lon="4.7819">
        <ele>198</ele>
        <time>2018-01-12T11:12:52Z</time>
      </trkpt>
      <trkpt lat="45.93988" lon="4.78179">
        <ele>198</ele>
        <time>2018-01-12T11:12:54Z</time>
      </trkpt>
      <trkpt lat="45.93989" lon="4.78173">
        <ele>199</ele>
        <time>2018-01-12T11:12:55Z</time>
      </trkpt>
      <trkpt lat="45.93993" lon="4.78164">
        <ele>200</ele>
        <time>2018-01-12T11:12:57Z</time>
      </trkpt>
      <trkpt lat="45.93994" lon="4.78159">
        <ele>199</ele>
        <time>2018-01-12T11:12:58Z</time>
      </trkpt>
      <trkpt lat="45.93994" lon="4.78149">
        <ele>198</ele>
        <time>2018-01-12T11:13:00Z</time>
      </trkpt>
      <trkpt lat="45.93993" lon="4.78144">
        <ele>198</ele>
        <time>2018-01-12T11:13:01Z</time>
      </trkpt>
      <trkpt lat="45.93995" lon="4.78133">
        <ele>197</ele>
        <time>2018-01-12T11:13:03Z</time>
      </trkpt>
      <trkpt lat="45.93996" lon="4.78126">
        <ele>197</ele>
        <time>2018-01-12T11:13:04Z</time>
      </trkpt>
      <trkpt lat="45.93998" lon="4.78115">
        <ele>197</ele>
        <time>2018-01-12T11:13:06Z</time>
      </trkpt>
      <trkpt lat="45.93999" lon="4.78109">
        <ele>197</ele>
        <time>2018-01-12T11:13:07Z</time>
      </trkpt>
      <trkpt lat="45.94001" lon="4.781">
        <ele>202</ele>
        <time>2018-01-12T11:13:09Z</time>
      </trkpt>
      <trkpt lat="45.94002" lon="4.78094">
        <ele>201</ele>
        <time>2018-01-12T11:13:10Z</time>
      </trkpt>
      <trkpt lat="45.94004" lon="4.78082">
        <ele>200</ele>
        <time>2018-01-12T11:13:12Z</time>
      </trkpt>
      <trkpt lat="45.94005" lon="4.78077">
        <ele>200</ele>
        <time>2018-01-12T11:13:13Z</time>
      </trkpt>
      <trkpt lat="45.94007" lon="4.78065">
        <ele>201</ele>
        <time>2018-01-12T11:13:15Z</time>
      </trkpt>
      <trkpt lat="45.94008" lon="4.7806">
        <ele>201</ele>
        <time>2018-01-12T11:13:16Z</time>
      </trkpt>
      <trkpt lat="45.94011" lon="4.7805">
        <ele>201</ele>
        <time>2018-01-12T11:13:18Z</time>
      </trkpt>
      <trkpt lat="45.94012" lon="4.78043">
        <ele>201</ele>
        <time>2018-01-12T11:13:19Z</time>
      </trkpt>
      <trkpt lat="45.94014" lon="4.78033">
        <ele>201</ele>
        <time>2018-01-12T11:13:21Z</time>
      </trkpt>
      <trkpt lat="45.94014" lon="4.78027">
        <ele>201</ele>
        <time>2018-01-12T11:13:22Z</time>
      </trkpt>
      <trkpt lat="45.94017" lon="4.78015">
        <ele>200</ele>
        <time>2018-01-12T11:13:24Z</time>
      </trkpt>
      <trkpt lat="45.94018" lon="4.78008">
        <ele>200</ele>
        <time>2018-01-12T11:13:25Z</time>
      </trkpt>
      <trkpt lat="45.94018" lon="4.77996">
        <ele>199</ele>
        <time>2018-01-12T11:13:27Z</time>
      </trkpt>
      <trkpt lat="45.94018" lon="4.7799">
        <ele>199</ele>
        <time>2018-01-12T11:13:28Z</time>
      </trkpt>
      <trkpt lat="45.94019" lon="4.77983">
        <ele>200</ele>
        <time>2018-01-12T11:13:29Z</time>
      </trkpt>
      <trkpt lat="45.94019" lon="4.77977">
        <ele>200</ele>
        <time>2018-01-12T11:13:30Z</time>
      </trkpt>
      <trkpt lat="45.94021" lon="4.77965">
        <ele>200</ele>
        <time>2018-01-12T11:13:34Z</time>
      </trkpt>
      <trkpt lat="45.94021" lon="4.77963">
        <ele>200</ele>
        <time>2018-01-12T11:13:35Z</time>
      </trkpt>
      <trkpt lat="45.94022" lon="4.77952">
        <ele>200</ele>
        <time>2018-01-12T11:13:42Z</time>
      </trkpt>
      <trkpt lat="45.94023" lon="4.77949">
        <ele>200</ele>
        <time>2018-01-12T11:13:43Z</time>
      </trkpt>
      <trkpt lat="45.94023" lon="4.7794">
        <ele>200</ele>
        <time>2018-01-12T11:13:45Z</time>
      </trkpt>
      <trkpt lat="45.94022" lon="4.77934">
        <ele>199</ele>
        <time>2018-01-12T11:13:46Z</time>
      </trkpt>
      <trkpt lat="45.94019" lon="4.77928">
        <ele>199</ele>
        <time>2018-01-12T11:13:47Z</time>
      </trkpt>
      <trkpt lat="45.94014" lon="4.77927">
        <ele>198</ele>
        <time>2018-01-12T11:13:48Z</time>
      </trkpt>
      <trkpt lat="45.94009" lon="4.77926">
        <ele>197</ele>
        <time>2018-01-12T11:13:49Z</time>
      </trkpt>
      <trkpt lat="45.94004" lon="4.77925">
        <ele>196</ele>
        <time>2018-01-12T11:13:50Z</time>
      </trkpt>
      <trkpt lat="45.93997" lon="4.77924">
        <ele>193</ele>
        <time>2018-01-12T11:13:51Z</time>
      </trkpt>
      <trkpt lat="45.93991" lon="4.77928">
        <ele>192</ele>
        <time>2018-01-12T11:13:52Z</time>
      </trkpt>
      <trkpt lat="45.93983" lon="4.77933">
        <ele>192</ele>
        <time>2018-01-12T11:13:53Z</time>
      </trkpt>
      <trkpt lat="45.93976" lon="4.77937">
        <ele>191</ele>
        <time>2018-01-12T11:13:54Z</time>
      </trkpt>
      <trkpt lat="45.9397" lon="4.77941">
        <ele>191</ele>
        <time>2018-01-12T11:13:55Z</time>
      </trkpt>
      <trkpt lat="45.93963" lon="4.77946">
        <ele>190</ele>
        <time>2018-01-12T11:13:56Z</time>
      </trkpt>
      <trkpt lat="45.93954" lon="4.77953">
        <ele>190</ele>
        <time>2018-01-12T11:13:57Z</time>
      </trkpt>
      <trkpt lat="45.93946" lon="4.77957">
        <ele>189</ele>
        <time>2018-01-12T11:13:58Z</time>
      </trkpt>
      <trkpt lat="45.93939" lon="4.77962">
        <ele>189</ele>
        <time>2018-01-12T11:13:59Z</time>
      </trkpt>
      <trkpt lat="45.93931" lon="4.77968">
        <ele>189</ele>
        <time>2018-01-12T11:14:00Z</time>
      </trkpt>
      <trkpt lat="45.93923" lon="4.77973">
        <ele>188</ele>
        <time>2018-01-12T11:14:01Z</time>
      </trkpt>
      <trkpt lat="45.93916" lon="4.77979">
        <ele>182</ele>
        <time>2018-01-12T11:14:02Z</time>
      </trkpt>
      <trkpt lat="45.9391" lon="4.77983">
        <ele>183</ele>
        <time>2018-01-12T11:14:03Z</time>
      </trkpt>
      <trkpt lat="45.93905" lon="4.77989">
        <ele>183</ele>
        <time>2018-01-12T11:14:04Z</time>
      </trkpt>
      <trkpt lat="45.939" lon="4.77993">
        <ele>182</ele>
        <time>2018-01-12T11:14:05Z</time>
      </trkpt>
      <trkpt lat="45.93895" lon="4.78">
        <ele>184</ele>
        <time>2018-01-12T11:14:06Z</time>
      </trkpt>
      <trkpt lat="45.93891" lon="4.78005">
        <ele>184</ele>
        <time>2018-01-12T11:14:07Z</time>
      </trkpt>
      <trkpt lat="45.93884" lon="4.78013">
        <ele>184</ele>
        <time>2018-01-12T11:14:09Z</time>
      </trkpt>
      <trkpt lat="45.93882" lon="4.78014">
        <ele>184</ele>
        <time>2018-01-12T11:14:10Z</time>
      </trkpt>
      <trkpt lat="45.93873" lon="4.78014">
        <ele>183</ele>
        <time>2018-01-12T11:14:13Z</time>
      </trkpt>
      <trkpt lat="45.93871" lon="4.78013">
        <ele>183</ele>
        <time>2018-01-12T11:14:14Z</time>
      </trkpt>
      <trkpt lat="45.93865" lon="4.78006">
        <ele>183</ele>
        <time>2018-01-12T11:14:16Z</time>
      </trkpt>
      <trkpt lat="45.93861" lon="4.78002">
        <ele>182</ele>
        <time>2018-01-12T11:14:17Z</time>
      </trkpt>
      <trkpt lat="45.93855" lon="4.77999">
        <ele>179</ele>
        <time>2018-01-12T11:14:18Z</time>
      </trkpt>
      <trkpt lat="45.93849" lon="4.77998">
        <ele>179</ele>
        <time>2018-01-12T11:14:19Z</time>
      </trkpt>
      <trkpt lat="45.93844" lon="4.77994">
        <ele>179</ele>
        <time>2018-01-12T11:14:20Z</time>
      </trkpt>
      <trkpt lat="45.9384" lon="4.77989">
        <ele>179</ele>
        <time>2018-01-12T11:14:21Z</time>
      </trkpt>
      <trkpt lat="45.93836" lon="4.77984">
        <ele>178</ele>
        <time>2018-01-12T11:14:22Z</time>
      </trkpt>
      <trkpt lat="45.93833" lon="4.77979">
        <ele>173</ele>
        <time>2018-01-12T11:14:23Z</time>
      </trkpt>
      <trkpt lat="45.9383" lon="4.77975">
        <ele>172</ele>
        <time>2018-01-12T11:14:24Z</time>
      </trkpt>
      <trkpt lat="45.93826" lon="4.7797">
        <ele>172</ele>
        <time>2018-01-12T11:14:25Z</time>
      </trkpt>
      <trkpt lat="45.93822" lon="4.77967">
        <ele>171</ele>
        <time>2018-01-12T11:14:26Z</time>
      </trkpt>
      <trkpt lat="45.93818" lon="4.77962">
        <ele>171</ele>
        <time>2018-01-12T11:14:27Z</time>
      </trkpt>
      <trkpt lat="45.93812" lon="4.77955">
        <ele>170</ele>
        <time>2018-01-12T11:14:29Z</time>
      </trkpt>
      <trkpt lat="45.93807" lon="4.7795">
        <ele>169</ele>
        <time>2018-01-12T11:14:30Z</time>
      </trkpt>
      <trkpt lat="45.93805" lon="4.77943">
        <ele>169</ele>
        <time>2018-01-12T11:14:31Z</time>
      </trkpt>
      <trkpt lat="45.93801" lon="4.77939">
        <ele>169</ele>
        <time>2018-01-12T11:14:32Z</time>
      </trkpt>
      <trkpt lat="45.93797" lon="4.77935">
        <ele>168</ele>
        <time>2018-01-12T11:14:33Z</time>
      </trkpt>
      <trkpt lat="45.93794" lon="4.7793">
        <ele>168</ele>
        <time>2018-01-12T11:14:34Z</time>
      </trkpt>
      <trkpt lat="45.93788" lon="4.77921">
        <ele>168</ele>
        <time>2018-01-12T11:14:36Z</time>
      </trkpt>
      <trkpt lat="45.93785" lon="4.77917">
        <ele>168</ele>
        <time>2018-01-12T11:14:37Z</time>
      </trkpt>
      <trkpt lat="45.93781" lon="4.77913">
        <ele>166</ele>
        <time>2018-01-12T11:14:38Z</time>
      </trkpt>
      <trkpt lat="45.93777" lon="4.77908">
        <ele>166</ele>
        <time>2018-01-12T11:14:39Z</time>
      </trkpt>
      <trkpt lat="45.93774" lon="4.77903">
        <ele>166</ele>
        <time>2018-01-12T11:14:40Z</time>
      </trkpt>
      <trkpt lat="45.93771" lon="4.77897">
        <ele>166</ele>
        <time>2018-01-12T11:14:41Z</time>
      </trkpt>
      <trkpt lat="45.93764" lon="4.77889">
        <ele>166</ele>
        <time>2018-01-12T11:14:43Z</time>
      </trkpt>
      <trkpt lat="45.9376" lon="4.77886">
        <ele>166</ele>
        <time>2018-01-12T11:14:44Z</time>
      </trkpt>
      <trkpt lat="45.93756" lon="4.77881">
        <ele>166</ele>
        <time>2018-01-12T11:14:45Z</time>
      </trkpt>
      <trkpt lat="45.93753" lon="4.77877">
        <ele>166</ele>
        <time>2018-01-12T11:14:46Z</time>
      </trkpt>
      <trkpt lat="45.93749" lon="4.77872">
        <ele>167</ele>
        <time>2018-01-12T11:14:47Z</time>
      </trkpt>
      <trkpt lat="45.93746" lon="4.77866">
        <ele>167</ele>
        <time>2018-01-12T11:14:48Z</time>
      </trkpt>
      <trkpt lat="45.93741" lon="4.77861">
        <ele>167</ele>
        <time>2018-01-12T11:14:49Z</time>
      </trkpt>
      <trkpt lat="45.93738" lon="4.77856">
        <ele>167</ele>
        <time>2018-01-12T11:14:50Z</time>
      </trkpt>
      <trkpt lat="45.93734" lon="4.7785">
        <ele>167</ele>
        <time>2018-01-12T11:14:51Z</time>
      </trkpt>
      <trkpt lat="45.9373" lon="4.77845">
        <ele>167</ele>
        <time>2018-01-12T11:14:52Z</time>
      </trkpt>
      <trkpt lat="45.93727" lon="4.7784">
        <ele>167</ele>
        <time>2018-01-12T11:14:53Z</time>
      </trkpt>
      <trkpt lat="45.93723" lon="4.77835">
        <ele>167</ele>
        <time>2018-01-12T11:14:54Z</time>
      </trkpt>
      <trkpt lat="45.93719" lon="4.7783">
        <ele>168</ele>
        <time>2018-01-12T11:14:55Z</time>
      </trkpt>
      <trkpt lat="45.93715" lon="4.77825">
        <ele>169</ele>
        <time>2018-01-12T11:14:56Z</time>
      </trkpt>
      <trkpt lat="45.93711" lon="4.77819">
        <ele>169</ele>
        <time>2018-01-12T11:14:57Z</time>
      </trkpt>
      <trkpt lat="45.93707" lon="4.77814">
        <ele>169</ele>
        <time>2018-01-12T11:14:58Z</time>
      </trkpt>
      <trkpt lat="45.93703" lon="4.77808">
        <ele>169</ele>
        <time>2018-01-12T11:14:59Z</time>
      </trkpt>
      <trkpt lat="45.93698" lon="4.77802">
        <ele>169</ele>
        <time>2018-01-12T11:15:00Z</time>
      </trkpt>
      <trkpt lat="45.93694" lon="4.77794">
        <ele>169</ele>
        <time>2018-01-12T11:15:01Z</time>
      </trkpt>
      <trkpt lat="45.93689" lon="4.77789">
        <ele>170</ele>
        <time>2018-01-12T11:15:02Z</time>
      </trkpt>
      <trkpt lat="45.93685" lon="4.77782">
        <ele>170</ele>
        <time>2018-01-12T11:15:03Z</time>
      </trkpt>
      <trkpt lat="45.9368" lon="4.77777">
        <ele>170</ele>
        <time>2018-01-12T11:15:04Z</time>
      </trkpt>
      <trkpt lat="45.93675" lon="4.7777">
        <ele>170</ele>
        <time>2018-01-12T11:15:05Z</time>
      </trkpt>
      <trkpt lat="45.93671" lon="4.77764">
        <ele>170</ele>
        <time>2018-01-12T11:15:06Z</time>
      </trkpt>
      <trkpt lat="45.93666" lon="4.77757">
        <ele>171</ele>
        <time>2018-01-12T11:15:07Z</time>
      </trkpt>
      <trkpt lat="45.93662" lon="4.77748">
        <ele>171</ele>
        <time>2018-01-12T11:15:08Z</time>
      </trkpt>
      <trkpt lat="45.93656" lon="4.77741">
        <ele>170</ele>
        <time>2018-01-12T11:15:09Z</time>
      </trkpt>
      <trkpt lat="45.93652" lon="4.77733">
        <ele>170</ele>
        <time>2018-01-12T11:15:10Z</time>
      </trkpt>
      <trkpt lat="45.93647" lon="4.77725">
        <ele>170</ele>
        <time>2018-01-12T11:15:11Z</time>
      </trkpt>
      <trkpt lat="45.93643" lon="4.77715">
        <ele>170</ele>
        <time>2018-01-12T11:15:12Z</time>
      </trkpt>
      <trkpt lat="45.93638" lon="4.77707">
        <ele>170</ele>
        <time>2018-01-12T11:15:13Z</time>
      </trkpt>
      <trkpt lat="45.93634" lon="4.77697">
        <ele>169</ele>
        <time>2018-01-12T11:15:14Z</time>
      </trkpt>
      <trkpt lat="45.93629" lon="4.77688">
        <ele>169</ele>
        <time>2018-01-12T11:15:15Z</time>
      </trkpt>
      <trkpt lat="45.93624" lon="4.77679">
        <ele>169</ele>
        <time>2018-01-12T11:15:16Z</time>
      </trkpt>
      <trkpt lat="45.9362" lon="4.77669">
        <ele>169</ele>
        <time>2018-01-12T11:15:17Z</time>
      </trkpt>
      <trkpt lat="45.93616" lon="4.7766">
        <ele>169</ele>
        <time>2018-01-12T11:15:18Z</time>
      </trkpt>
      <trkpt lat="45.93612" lon="4.77651">
        <ele>169</ele>
        <time>2018-01-12T11:15:19Z</time>
      </trkpt>
      <trkpt lat="45.93608" lon="4.7764">
        <ele>169</ele>
        <time>2018-01-12T11:15:20Z</time>
      </trkpt>
      <trkpt lat="45.93606" lon="4.77631">
        <ele>169</ele>
        <time>2018-01-12T11:15:21Z</time>
      </trkpt>
      <trkpt lat="45.93602" lon="4.77622">
        <ele>170</ele>
        <time>2018-01-12T11:15:22Z</time>
      </trkpt>
      <trkpt lat="45.93598" lon="4.77614">
        <ele>170</ele>
        <time>2018-01-12T11:15:23Z</time>
      </trkpt>
      <trkpt lat="45.93595" lon="4.77604">
        <ele>170</ele>
        <time>2018-01-12T11:15:24Z</time>
      </trkpt>
      <trkpt lat="45.93593" lon="4.77596">
        <ele>170</ele>
        <time>2018-01-12T11:15:25Z</time>
      </trkpt>
      <trkpt lat="45.9359" lon="4.77588">
        <ele>170</ele>
        <time>2018-01-12T11:15:26Z</time>
      </trkpt>
      <trkpt lat="45.93587" lon="4.7758">
        <ele>170</ele>
        <time>2018-01-12T11:15:27Z</time>
      </trkpt>
      <trkpt lat="45.93585" lon="4.77573">
        <ele>170</ele>
        <time>2018-01-12T11:15:28Z</time>
      </trkpt>
      <trkpt lat="45.93582" lon="4.77564">
        <ele>169</ele>
        <time>2018-01-12T11:15:29Z</time>
      </trkpt>
      <trkpt lat="45.9358" lon="4.77557">
        <ele>169</ele>
        <time>2018-01-12T11:15:30Z</time>
      </trkpt>
      <trkpt lat="45.93579" lon="4.77549">
        <ele>169</ele>
        <time>2018-01-12T11:15:31Z</time>
      </trkpt>
      <trkpt lat="45.93576" lon="4.77541">
        <ele>169</ele>
        <time>2018-01-12T11:15:32Z</time>
      </trkpt>
      <trkpt lat="45.93574" lon="4.77534">
        <ele>169</ele>
        <time>2018-01-12T11:15:33Z</time>
      </trkpt>
      <trkpt lat="45.93572" lon="4.77526">
        <ele>169</ele>
        <time>2018-01-12T11:15:34Z</time>
      </trkpt>
      <trkpt lat="45.93571" lon="4.77518">
        <ele>169</ele>
        <time>2018-01-12T11:15:35Z</time>
      </trkpt>
      <trkpt lat="45.93568" lon="4.77511">
        <ele>169</ele>
        <time>2018-01-12T11:15:36Z</time>
      </trkpt>
      <trkpt lat="45.93566" lon="4.77503">
        <ele>169</ele>
        <time>2018-01-12T11:15:37Z</time>
      </trkpt>
      <trkpt lat="45.93563" lon="4.77496">
        <ele>169</ele>
        <time>2018-01-12T11:15:38Z</time>
      </trkpt>
      <trkpt lat="45.93561" lon="4.77486">
        <ele>169</ele>
        <time>2018-01-12T11:15:39Z</time>
      </trkpt>
      <trkpt lat="45.93559" lon="4.77478">
        <ele>169</ele>
        <time>2018-01-12T11:15:40Z</time>
      </trkpt>
      <trkpt lat="45.93557" lon="4.7747">
        <ele>169</ele>
        <time>2018-01-12T11:15:41Z</time>
      </trkpt>
      <trkpt lat="45.93556" lon="4.7746">
        <ele>169</ele>
        <time>2018-01-12T11:15:42Z</time>
      </trkpt>
      <trkpt lat="45.93555" lon="4.77452">
        <ele>169</ele>
        <time>2018-01-12T11:15:43Z</time>
      </trkpt>
      <trkpt lat="45.93553" lon="4.77444">
        <ele>169</ele>
        <time>2018-01-12T11:15:44Z</time>
      </trkpt>
      <trkpt lat="45.93551" lon="4.77435">
        <ele>169</ele>
        <time>2018-01-12T11:15:45Z</time>
      </trkpt>
      <trkpt lat="45.9355" lon="4.77429">
        <ele>170</ele>
        <time>2018-01-12T11:15:46Z</time>
      </trkpt>
      <trkpt lat="45.93548" lon="4.77421">
        <ele>170</ele>
        <time>2018-01-12T11:15:47Z</time>
      </trkpt>
      <trkpt lat="45.93547" lon="4.77414">
        <ele>170</ele>
        <time>2018-01-12T11:15:48Z</time>
      </trkpt>
      <trkpt lat="45.93545" lon="4.77407">
        <ele>170</ele>
        <time>2018-01-12T11:15:49Z</time>
      </trkpt>
      <trkpt lat="45.93544" lon="4.77401">
        <ele>170</ele>
        <time>2018-01-12T11:15:50Z</time>
      </trkpt>
      <trkpt lat="45.93542" lon="4.77394">
        <ele>170</ele>
        <time>2018-01-12T11:15:51Z</time>
      </trkpt>
      <trkpt lat="45.93541" lon="4.77386">
        <ele>170</ele>
        <time>2018-01-12T11:15:52Z</time>
      </trkpt>
      <trkpt lat="45.93539" lon="4.77379">
        <ele>170</ele>
        <time>2018-01-12T11:15:53Z</time>
      </trkpt>
      <trkpt lat="45.93538" lon="4.77372">
        <ele>170</ele>
        <time>2018-01-12T11:15:54Z</time>
      </trkpt>
      <trkpt lat="45.93537" lon="4.77366">
        <ele>170</ele>
        <time>2018-01-12T11:15:55Z</time>
      </trkpt>
      <trkpt lat="45.93536" lon="4.77359">
        <ele>170</ele>
        <time>2018-01-12T11:15:56Z</time>
      </trkpt>
      <trkpt lat="45.93534" lon="4.77352">
        <ele>170</ele>
        <time>2018-01-12T11:15:57Z</time>
      </trkpt>
      <trkpt lat="45.93532" lon="4.77345">
        <ele>170</ele>
        <time>2018-01-12T11:15:58Z</time>
      </trkpt>
      <trkpt lat="45.93531" lon="4.77338">
        <ele>170</ele>
        <time>2018-01-12T11:15:59Z</time>
      </trkpt>
      <trkpt lat="45.93528" lon="4.77332">
        <ele>170</ele>
        <time>2018-01-12T11:16:00Z</time>
      </trkpt>
      <trkpt lat="45.93526" lon="4.77325">
        <ele>170</ele>
        <time>2018-01-12T11:16:01Z</time>
      </trkpt>
      <trkpt lat="45.93525" lon="4.77319">
        <ele>170</ele>
        <time>2018-01-12T11:16:02Z</time>
      </trkpt>
      <trkpt lat="45.93523" lon="4.77312">
        <ele>170</ele>
        <time>2018-01-12T11:16:03Z</time>
      </trkpt>
      <trkpt lat="45.93522" lon="4.77304">
        <ele>170</ele>
        <time>2018-01-12T11:16:04Z</time>
      </trkpt>
      <trkpt lat="45.9352" lon="4.77297">
        <ele>170</ele>
        <time>2018-01-12T11:16:05Z</time>
      </trkpt>
      <trkpt lat="45.9352" lon="4.77289">
        <ele>170</ele>
        <time>2018-01-12T11:16:06Z</time>
      </trkpt>
      <trkpt lat="45.93518" lon="4.77281">
        <ele>170</ele>
        <time>2018-01-12T11:16:07Z</time>
      </trkpt>
      <trkpt lat="45.93516" lon="4.77272">
        <ele>170</ele>
        <time>2018-01-12T11:16:08Z</time>
      </trkpt>
      <trkpt lat="45.93514" lon="4.77264">
        <ele>170</ele>
        <time>2018-01-12T11:16:09Z</time>
      </trkpt>
      <trkpt lat="45.93512" lon="4.77257">
        <ele>170</ele>
        <time>2018-01-12T11:16:10Z</time>
      </trkpt>
      <trkpt lat="45.9351" lon="4.77251">
        <ele>170</ele>
        <time>2018-01-12T11:16:11Z</time>
      </trkpt>
      <trkpt lat="45.93509" lon="4.77244">
        <ele>169</ele>
        <time>2018-01-12T11:16:12Z</time>
      </trkpt>
      <trkpt lat="45.93508" lon="4.77236">
        <ele>169</ele>
        <time>2018-01-12T11:16:13Z</time>
      </trkpt>
      <trkpt lat="45.93506" lon="4.77229">
        <ele>169</ele>
        <time>2018-01-12T11:16:14Z</time>
      </trkpt>
      <trkpt lat="45.93504" lon="4.77221">
        <ele>169</ele>
        <time>2018-01-12T11:16:15Z</time>
      </trkpt>
      <trkpt lat="45.93502" lon="4.77214">
        <ele>169</ele>
        <time>2018-01-12T11:16:16Z</time>
      </trkpt>
      <trkpt lat="45.93501" lon="4.77206">
        <ele>169</ele>
        <time>2018-01-12T11:16:17Z</time>
      </trkpt>
      <trkpt lat="45.935" lon="4.77199">
        <ele>169</ele>
        <time>2018-01-12T11:16:18Z</time>
      </trkpt>
      <trkpt lat="45.93499" lon="4.77189">
        <ele>169</ele>
        <time>2018-01-12T11:16:19Z</time>
      </trkpt>
      <trkpt lat="45.93496" lon="4.7718">
        <ele>169</ele>
        <time>2018-01-12T11:16:20Z</time>
      </trkpt>
      <trkpt lat="45.93494" lon="4.77173">
        <ele>169</ele>
        <time>2018-01-12T11:16:21Z</time>
      </trkpt>
      <trkpt lat="45.93491" lon="4.77165">
        <ele>169</ele>
        <time>2018-01-12T11:16:22Z</time>
      </trkpt>
      <trkpt lat="45.9349" lon="4.77157">
        <ele>169</ele>
        <time>2018-01-12T11:16:23Z</time>
      </trkpt>
      <trkpt lat="45.93489" lon="4.77149">
        <ele>169</ele>
        <time>2018-01-12T11:16:24Z</time>
      </trkpt>
      <trkpt lat="45.93487" lon="4.77142">
        <ele>169</ele>
        <time>2018-01-12T11:16:25Z</time>
      </trkpt>
      <trkpt lat="45.93486" lon="4.77135">
        <ele>169</ele>
        <time>2018-01-12T11:16:26Z</time>
      </trkpt>
      <trkpt lat="45.93485" lon="4.77126">
        <ele>169</ele>
        <time>2018-01-12T11:16:27Z</time>
      </trkpt>
      <trkpt lat="45.93484" lon="4.7712">
        <ele>169</ele>
        <time>2018-01-12T11:16:28Z</time>
      </trkpt>
      <trkpt lat="45.93482" lon="4.77113">
        <ele>169</ele>
        <time>2018-01-12T11:16:29Z</time>
      </trkpt>
      <trkpt lat="45.93481" lon="4.77105">
        <ele>169</ele>
        <time>2018-01-12T11:16:30Z</time>
      </trkpt>
      <trkpt lat="45.93479" lon="4.77097">
        <ele>169</ele>
        <time>2018-01-12T11:16:31Z</time>
      </trkpt>
      <trkpt lat="45.93477" lon="4.77091">
        <ele>169</ele>
        <time>2018-01-12T11:16:32Z</time>
      </trkpt>
      <trkpt lat="45.93476" lon="4.77083">
        <ele>170</ele>
        <time>2018-01-12T11:16:33Z</time>
      </trkpt>
      <trkpt lat="45.93475" lon="4.77076">
        <ele>170</ele>
        <time>2018-01-12T11:16:34Z</time>
      </trkpt>
      <trkpt lat="45.93473" lon="4.77063">
        <ele>170</ele>
        <time>2018-01-12T11:16:36Z</time>
      </trkpt>
      <trkpt lat="45.93472" lon="4.77057">
        <ele>170</ele>
        <time>2018-01-12T11:16:37Z</time>
      </trkpt>
      <trkpt lat="45.93471" lon="4.77051">
        <ele>170</ele>
        <time>2018-01-12T11:16:38Z</time>
      </trkpt>
      <trkpt lat="45.9347" lon="4.77042">
        <ele>170</ele>
        <time>2018-01-12T11:16:39Z</time>
      </trkpt>
      <trkpt lat="45.93469" lon="4.77035">
        <ele>170</ele>
        <time>2018-01-12T11:16:40Z</time>
      </trkpt>
      <trkpt lat="45.93468" lon="4.77027">
        <ele>170</ele>
        <time>2018-01-12T11:16:41Z</time>
      </trkpt>
      <trkpt lat="45.93467" lon="4.77021">
        <ele>170</ele>
        <time>2018-01-12T11:16:42Z</time>
      </trkpt>
      <trkpt lat="45.93465" lon="4.77014">
        <ele>170</ele>
        <time>2018-01-12T11:16:43Z</time>
      </trkpt>
      <trkpt lat="45.93464" lon="4.77008">
        <ele>170</ele>
        <time>2018-01-12T11:16:44Z</time>
      </trkpt>
      <trkpt lat="45.93462" lon="4.76999">
        <ele>170</ele>
        <time>2018-01-12T11:16:45Z</time>
      </trkpt>
      <trkpt lat="45.9346" lon="4.76986">
        <ele>170</ele>
        <time>2018-01-12T11:16:47Z</time>
      </trkpt>
      <trkpt lat="45.93458" lon="4.7698">
        <ele>170</ele>
        <time>2018-01-12T11:16:48Z</time>
      </trkpt>
      <trkpt lat="45.93457" lon="4.76973">
        <ele>170</ele>
        <time>2018-01-12T11:16:49Z</time>
      </trkpt>
      <trkpt lat="45.93456" lon="4.76966">
        <ele>170</ele>
        <time>2018-01-12T11:16:50Z</time>
      </trkpt>
      <trkpt lat="45.93455" lon="4.7696">
        <ele>170</ele>
        <time>2018-01-12T11:16:51Z</time>
      </trkpt>
      <trkpt lat="45.93454" lon="4.76952">
        <ele>170</ele>
        <time>2018-01-12T11:16:52Z</time>
      </trkpt>
      <trkpt lat="45.93454" lon="4.76943">
        <ele>170</ele>
        <time>2018-01-12T11:16:53Z</time>
      </trkpt>
      <trkpt lat="45.93452" lon="4.76936">
        <ele>170</ele>
        <time>2018-01-12T11:16:54Z</time>
      </trkpt>
      <trkpt lat="45.93451" lon="4.76928">
        <ele>170</ele>
        <time>2018-01-12T11:16:55Z</time>
      </trkpt>
      <trkpt lat="45.9345" lon="4.76921">
        <ele>170</ele>
        <time>2018-01-12T11:16:56Z</time>
      </trkpt>
      <trkpt lat="45.93448" lon="4.76913">
        <ele>170</ele>
        <time>2018-01-12T11:16:57Z</time>
      </trkpt>
      <trkpt lat="45.93447" lon="4.76906">
        <ele>170</ele>
        <time>2018-01-12T11:16:58Z</time>
      </trkpt>
      <trkpt lat="45.93445" lon="4.76898">
        <ele>170</ele>
        <time>2018-01-12T11:16:59Z</time>
      </trkpt>
      <trkpt lat="45.93443" lon="4.76891">
        <ele>170</ele>
        <time>2018-01-12T11:17:00Z</time>
      </trkpt>
      <trkpt lat="45.93441" lon="4.76883">
        <ele>170</ele>
        <time>2018-01-12T11:17:01Z</time>
      </trkpt>
      <trkpt lat="45.93438" lon="4.76876">
        <ele>171</ele>
        <time>2018-01-12T11:17:02Z</time>
      </trkpt>
      <trkpt lat="45.93435" lon="4.76869">
        <ele>171</ele>
        <time>2018-01-12T11:17:03Z</time>
      </trkpt>
      <trkpt lat="45.93432" lon="4.76863">
        <ele>171</ele>
        <time>2018-01-12T11:17:04Z</time>
      </trkpt>
      <trkpt lat="45.93429" lon="4.76856">
        <ele>171</ele>
        <time>2018-01-12T11:17:05Z</time>
      </trkpt>
      <trkpt lat="45.93425" lon="4.76849">
        <ele>171</ele>
        <time>2018-01-12T11:17:06Z</time>
      </trkpt>
      <trkpt lat="45.93422" lon="4.76842">
        <ele>171</ele>
        <time>2018-01-12T11:17:07Z</time>
      </trkpt>
      <trkpt lat="45.93419" lon="4.76834">
        <ele>172</ele>
        <time>2018-01-12T11:17:08Z</time>
      </trkpt>
      <trkpt lat="45.93415" lon="4.76828">
        <ele>172</ele>
        <time>2018-01-12T11:17:09Z</time>
      </trkpt>
      <trkpt lat="45.93411" lon="4.76822">
        <ele>172</ele>
        <time>2018-01-12T11:17:10Z</time>
      </trkpt>
      <trkpt lat="45.93408" lon="4.76816">
        <ele>172</ele>
        <time>2018-01-12T11:17:11Z</time>
      </trkpt>
      <trkpt lat="45.93404" lon="4.7681">
        <ele>172</ele>
        <time>2018-01-12T11:17:12Z</time>
      </trkpt>
      <trkpt lat="45.934" lon="4.76805">
        <ele>172</ele>
        <time>2018-01-12T11:17:13Z</time>
      </trkpt>
      <trkpt lat="45.93397" lon="4.768">
        <ele>172</ele>
        <time>2018-01-12T11:17:14Z</time>
      </trkpt>
      <trkpt lat="45.93393" lon="4.76795">
        <ele>172</ele>
        <time>2018-01-12T11:17:15Z</time>
      </trkpt>
      <trkpt lat="45.93388" lon="4.76791">
        <ele>172</ele>
        <time>2018-01-12T11:17:16Z</time>
      </trkpt>
      <trkpt lat="45.93384" lon="4.76787">
        <ele>172</ele>
        <time>2018-01-12T11:17:17Z</time>
      </trkpt>
      <trkpt lat="45.93379" lon="4.76783">
        <ele>172</ele>
        <time>2018-01-12T11:17:18Z</time>
      </trkpt>
      <trkpt lat="45.93375" lon="4.76778">
        <ele>172</ele>
        <time>2018-01-12T11:17:19Z</time>
      </trkpt>
      <trkpt lat="45.9337" lon="4.76774">
        <ele>172</ele>
        <time>2018-01-12T11:17:20Z</time>
      </trkpt>
      <trkpt lat="45.93365" lon="4.7677">
        <ele>172</ele>
        <time>2018-01-12T11:17:21Z</time>
      </trkpt>
      <trkpt lat="45.9336" lon="4.76765">
        <ele>172</ele>
        <time>2018-01-12T11:17:22Z</time>
      </trkpt>
      <trkpt lat="45.93355" lon="4.7676">
        <ele>172</ele>
        <time>2018-01-12T11:17:23Z</time>
      </trkpt>
      <trkpt lat="45.9335" lon="4.76755">
        <ele>172</ele>
        <time>2018-01-12T11:17:24Z</time>
      </trkpt>
      <trkpt lat="45.93345" lon="4.7675">
        <ele>172</ele>
        <time>2018-01-12T11:17:25Z</time>
      </trkpt>
      <trkpt lat="45.9334" lon="4.76745">
        <ele>173</ele>
        <time>2018-01-12T11:17:26Z</time>
      </trkpt>
      <trkpt lat="45.93335" lon="4.76738">
        <ele>172</ele>
        <time>2018-01-12T11:17:27Z</time>
      </trkpt>
      <trkpt lat="45.9333" lon="4.76733">
        <ele>172</ele>
        <time>2018-01-12T11:17:28Z</time>
      </trkpt>
      <trkpt lat="45.93324" lon="4.76728">
        <ele>172</ele>
        <time>2018-01-12T11:17:29Z</time>
      </trkpt>
      <trkpt lat="45.9332" lon="4.76722">
        <ele>172</ele>
        <time>2018-01-12T11:17:30Z</time>
      </trkpt>
      <trkpt lat="45.93315" lon="4.76717">
        <ele>172</ele>
        <time>2018-01-12T11:17:31Z</time>
      </trkpt>
      <trkpt lat="45.93309" lon="4.76712">
        <ele>172</ele>
        <time>2018-01-12T11:17:32Z</time>
      </trkpt>
      <trkpt lat="45.93304" lon="4.76707">
        <ele>172</ele>
        <time>2018-01-12T11:17:33Z</time>
      </trkpt>
      <trkpt lat="45.93299" lon="4.76702">
        <ele>172</ele>
        <time>2018-01-12T11:17:34Z</time>
      </trkpt>
      <trkpt lat="45.93295" lon="4.76697">
        <ele>172</ele>
        <time>2018-01-12T11:17:35Z</time>
      </trkpt>
      <trkpt lat="45.9329" lon="4.76692">
        <ele>172</ele>
        <time>2018-01-12T11:17:36Z</time>
      </trkpt>
      <trkpt lat="45.93285" lon="4.76689">
        <ele>172</ele>
        <time>2018-01-12T11:17:37Z</time>
      </trkpt>
      <trkpt lat="45.9328" lon="4.76685">
        <ele>172</ele>
        <time>2018-01-12T11:17:38Z</time>
      </trkpt>
      <trkpt lat="45.93276" lon="4.7668">
        <ele>172</ele>
        <time>2018-01-12T11:17:39Z</time>
      </trkpt>
      <trkpt lat="45.93271" lon="4.76676">
        <ele>172</ele>
        <time>2018-01-12T11:17:40Z</time>
      </trkpt>
      <trkpt lat="45.93267" lon="4.76665">
        <ele>171</ele>
        <time>2018-01-12T11:17:42Z</time>
      </trkpt>
      <trkpt lat="45.93262" lon="4.7666">
        <ele>171</ele>
        <time>2018-01-12T11:17:43Z</time>
      </trkpt>
      <trkpt lat="45.93257" lon="4.76655">
        <ele>171</ele>
        <time>2018-01-12T11:17:44Z</time>
      </trkpt>
      <trkpt lat="45.93253" lon="4.7665">
        <ele>171</ele>
        <time>2018-01-12T11:17:45Z</time>
      </trkpt>
      <trkpt lat="45.93248" lon="4.76646">
        <ele>171</ele>
        <time>2018-01-12T11:17:46Z</time>
      </trkpt>
      <trkpt lat="45.93244" lon="4.76643">
        <ele>171</ele>
        <time>2018-01-12T11:17:47Z</time>
      </trkpt>
      <trkpt lat="45.93238" lon="4.76638">
        <ele>171</ele>
        <time>2018-01-12T11:17:48Z</time>
      </trkpt>
      <trkpt lat="45.93233" lon="4.76635">
        <ele>171</ele>
        <time>2018-01-12T11:17:49Z</time>
      </trkpt>
      <trkpt lat="45.93228" lon="4.7663">
        <ele>170</ele>
        <time>2018-01-12T11:17:50Z</time>
      </trkpt>
      <trkpt lat="45.93223" lon="4.76626">
        <ele>170</ele>
        <time>2018-01-12T11:17:51Z</time>
      </trkpt>
      <trkpt lat="45.93217" lon="4.76622">
        <ele>170</ele>
        <time>2018-01-12T11:17:52Z</time>
      </trkpt>
      <trkpt lat="45.93212" lon="4.76617">
        <ele>170</ele>
        <time>2018-01-12T11:17:53Z</time>
      </trkpt>
      <trkpt lat="45.93207" lon="4.76614">
        <ele>170</ele>
        <time>2018-01-12T11:17:54Z</time>
      </trkpt>
      <trkpt lat="45.93205" lon="4.7661">
        <ele>170</ele>
        <time>2018-01-12T11:17:55Z</time>
      </trkpt>
      <trkpt lat="45.93199" lon="4.76605">
        <ele>170</ele>
        <time>2018-01-12T11:17:56Z</time>
      </trkpt>
      <trkpt lat="45.93195" lon="4.766">
        <ele>170</ele>
        <time>2018-01-12T11:17:57Z</time>
      </trkpt>
      <trkpt lat="45.93191" lon="4.76595">
        <ele>170</ele>
        <time>2018-01-12T11:17:58Z</time>
      </trkpt>
      <trkpt lat="45.93185" lon="4.76591">
        <ele>171</ele>
        <time>2018-01-12T11:17:59Z</time>
      </trkpt>
      <trkpt lat="45.9318" lon="4.76586">
        <ele>171</ele>
        <time>2018-01-12T11:18:00Z</time>
      </trkpt>
      <trkpt lat="45.93175" lon="4.76581">
        <ele>170</ele>
        <time>2018-01-12T11:18:01Z</time>
      </trkpt>
      <trkpt lat="45.93171" lon="4.76577">
        <ele>170</ele>
        <time>2018-01-12T11:18:02Z</time>
      </trkpt>
      <trkpt lat="45.93166" lon="4.76573">
        <ele>171</ele>
        <time>2018-01-12T11:18:03Z</time>
      </trkpt>
      <trkpt lat="45.93161" lon="4.76568">
        <ele>170</ele>
        <time>2018-01-12T11:18:04Z</time>
      </trkpt>
      <trkpt lat="45.93157" lon="4.76564">
        <ele>170</ele>
        <time>2018-01-12T11:18:05Z</time>
      </trkpt>
      <trkpt lat="45.93152" lon="4.76559">
        <ele>170</ele>
        <time>2018-01-12T11:18:06Z</time>
      </trkpt>
      <trkpt lat="45.93147" lon="4.76554">
        <ele>170</ele>
        <time>2018-01-12T11:18:07Z</time>
      </trkpt>
      <trkpt lat="45.93143" lon="4.76549">
        <ele>170</ele>
        <time>2018-01-12T11:18:08Z</time>
      </trkpt>
      <trkpt lat="45.93138" lon="4.76544">
        <ele>170</ele>
        <time>2018-01-12T11:18:09Z</time>
      </trkpt>
      <trkpt lat="45.93133" lon="4.76537">
        <ele>170</ele>
        <time>2018-01-12T11:18:11Z</time>
      </trkpt>
      <trkpt lat="45.93129" lon="4.76532">
        <ele>170</ele>
        <time>2018-01-12T11:18:12Z</time>
      </trkpt>
      <trkpt lat="45.93124" lon="4.76529">
        <ele>170</ele>
        <time>2018-01-12T11:18:13Z</time>
      </trkpt>
      <trkpt lat="45.9312" lon="4.76524">
        <ele>170</ele>
        <time>2018-01-12T11:18:14Z</time>
      </trkpt>
      <trkpt lat="45.93116" lon="4.7652">
        <ele>170</ele>
        <time>2018-01-12T11:18:15Z</time>
      </trkpt>
      <trkpt lat="45.93111" lon="4.76515">
        <ele>170</ele>
        <time>2018-01-12T11:18:16Z</time>
      </trkpt>
      <trkpt lat="45.93106" lon="4.7651">
        <ele>170</ele>
        <time>2018-01-12T11:18:17Z</time>
      </trkpt>
      <trkpt lat="45.93102" lon="4.76504">
        <ele>170</ele>
        <time>2018-01-12T11:18:18Z</time>
      </trkpt>
      <trkpt lat="45.93097" lon="4.76501">
        <ele>170</ele>
        <time>2018-01-12T11:18:19Z</time>
      </trkpt>
      <trkpt lat="45.93093" lon="4.76497">
        <ele>170</ele>
        <time>2018-01-12T11:18:20Z</time>
      </trkpt>
      <trkpt lat="45.93088" lon="4.76492">
        <ele>170</ele>
        <time>2018-01-12T11:18:21Z</time>
      </trkpt>
      <trkpt lat="45.93085" lon="4.76488">
        <ele>170</ele>
        <time>2018-01-12T11:18:22Z</time>
      </trkpt>
      <trkpt lat="45.93082" lon="4.76483">
        <ele>169</ele>
        <time>2018-01-12T11:18:23Z</time>
      </trkpt>
      <trkpt lat="45.93077" lon="4.76478">
        <ele>169</ele>
        <time>2018-01-12T11:18:24Z</time>
      </trkpt>
      <trkpt lat="45.93074" lon="4.76473">
        <ele>169</ele>
        <time>2018-01-12T11:18:25Z</time>
      </trkpt>
      <trkpt lat="45.93069" lon="4.76469">
        <ele>169</ele>
        <time>2018-01-12T11:18:26Z</time>
      </trkpt>
      <trkpt lat="45.93063" lon="4.76466">
        <ele>169</ele>
        <time>2018-01-12T11:18:27Z</time>
      </trkpt>
      <trkpt lat="45.93056" lon="4.76462">
        <ele>169</ele>
        <time>2018-01-12T11:18:28Z</time>
      </trkpt>
      <trkpt lat="45.93052" lon="4.76459">
        <ele>169</ele>
        <time>2018-01-12T11:18:29Z</time>
      </trkpt>
      <trkpt lat="45.93048" lon="4.76456">
        <ele>169</ele>
        <time>2018-01-12T11:18:30Z</time>
      </trkpt>
      <trkpt lat="45.93044" lon="4.76452">
        <ele>169</ele>
        <time>2018-01-12T11:18:31Z</time>
      </trkpt>
      <trkpt lat="45.9304" lon="4.76447">
        <ele>169</ele>
        <time>2018-01-12T11:18:32Z</time>
      </trkpt>
      <trkpt lat="45.93034" lon="4.76443">
        <ele>169</ele>
        <time>2018-01-12T11:18:33Z</time>
      </trkpt>
      <trkpt lat="45.93029" lon="4.76437">
        <ele>169</ele>
        <time>2018-01-12T11:18:34Z</time>
      </trkpt>
      <trkpt lat="45.93025" lon="4.76432">
        <ele>169</ele>
        <time>2018-01-12T11:18:35Z</time>
      </trkpt>
      <trkpt lat="45.9302" lon="4.76427">
        <ele>169</ele>
        <time>2018-01-12T11:18:36Z</time>
      </trkpt>
      <trkpt lat="45.93016" lon="4.76423">
        <ele>169</ele>
        <time>2018-01-12T11:18:37Z</time>
      </trkpt>
      <trkpt lat="45.93012" lon="4.7642">
        <ele>169</ele>
        <time>2018-01-12T11:18:38Z</time>
      </trkpt>
      <trkpt lat="45.93009" lon="4.76415">
        <ele>169</ele>
        <time>2018-01-12T11:18:39Z</time>
      </trkpt>
      <trkpt lat="45.93004" lon="4.76411">
        <ele>169</ele>
        <time>2018-01-12T11:18:40Z</time>
      </trkpt>
      <trkpt lat="45.93" lon="4.76406">
        <ele>169</ele>
        <time>2018-01-12T11:18:41Z</time>
      </trkpt>
      <trkpt lat="45.92996" lon="4.76402">
        <ele>169</ele>
        <time>2018-01-12T11:18:42Z</time>
      </trkpt>
      <trkpt lat="45.92991" lon="4.76399">
        <ele>169</ele>
        <time>2018-01-12T11:18:43Z</time>
      </trkpt>
      <trkpt lat="45.92986" lon="4.76395">
        <ele>169</ele>
        <time>2018-01-12T11:18:44Z</time>
      </trkpt>
      <trkpt lat="45.92982" lon="4.76389">
        <ele>169</ele>
        <time>2018-01-12T11:18:45Z</time>
      </trkpt>
      <trkpt lat="45.92977" lon="4.76384">
        <ele>169</ele>
        <time>2018-01-12T11:18:46Z</time>
      </trkpt>
      <trkpt lat="45.92972" lon="4.7638">
        <ele>169</ele>
        <time>2018-01-12T11:18:47Z</time>
      </trkpt>
      <trkpt lat="45.92968" lon="4.76377">
        <ele>169</ele>
        <time>2018-01-12T11:18:48Z</time>
      </trkpt>
      <trkpt lat="45.92963" lon="4.76373">
        <ele>169</ele>
        <time>2018-01-12T11:18:49Z</time>
      </trkpt>
      <trkpt lat="45.92959" lon="4.76369">
        <ele>169</ele>
        <time>2018-01-12T11:18:50Z</time>
      </trkpt>
      <trkpt lat="45.92953" lon="4.76365">
        <ele>169</ele>
        <time>2018-01-12T11:18:51Z</time>
      </trkpt>
      <trkpt lat="45.92949" lon="4.76361">
        <ele>169</ele>
        <time>2018-01-12T11:18:52Z</time>
      </trkpt>
      <trkpt lat="45.92944" lon="4.76358">
        <ele>169</ele>
        <time>2018-01-12T11:18:53Z</time>
      </trkpt>
      <trkpt lat="45.92939" lon="4.76352">
        <ele>169</ele>
        <time>2018-01-12T11:18:54Z</time>
      </trkpt>
      <trkpt lat="45.92936" lon="4.76348">
        <ele>169</ele>
        <time>2018-01-12T11:18:55Z</time>
      </trkpt>
      <trkpt lat="45.92932" lon="4.76343">
        <ele>169</ele>
        <time>2018-01-12T11:18:56Z</time>
      </trkpt>
      <trkpt lat="45.92927" lon="4.76337">
        <ele>169</ele>
        <time>2018-01-12T11:18:57Z</time>
      </trkpt>
      <trkpt lat="45.92923" lon="4.76333">
        <ele>169</ele>
        <time>2018-01-12T11:18:58Z</time>
      </trkpt>
      <trkpt lat="45.92918" lon="4.76327">
        <ele>169</ele>
        <time>2018-01-12T11:18:59Z</time>
      </trkpt>
      <trkpt lat="45.92914" lon="4.76323">
        <ele>169</ele>
        <time>2018-01-12T11:19:00Z</time>
      </trkpt>
      <trkpt lat="45.92908" lon="4.76319">
        <ele>169</ele>
        <time>2018-01-12T11:19:01Z</time>
      </trkpt>
      <trkpt lat="45.92904" lon="4.76315">
        <ele>169</ele>
        <time>2018-01-12T11:19:02Z</time>
      </trkpt>
      <trkpt lat="45.92899" lon="4.76312">
        <ele>169</ele>
        <time>2018-01-12T11:19:03Z</time>
      </trkpt>
      <trkpt lat="45.92894" lon="4.76309">
        <ele>169</ele>
        <time>2018-01-12T11:19:04Z</time>
      </trkpt>
      <trkpt lat="45.9289" lon="4.76305">
        <ele>169</ele>
        <time>2018-01-12T11:19:05Z</time>
      </trkpt>
      <trkpt lat="45.92886" lon="4.763">
        <ele>169</ele>
        <time>2018-01-12T11:19:06Z</time>
      </trkpt>
      <trkpt lat="45.92882" lon="4.76292">
        <ele>169</ele>
        <time>2018-01-12T11:19:08Z</time>
      </trkpt>
      <trkpt lat="45.92877" lon="4.76289">
        <ele>169</ele>
        <time>2018-01-12T11:19:09Z</time>
      </trkpt>
      <trkpt lat="45.92874" lon="4.76283">
        <ele>169</ele>
        <time>2018-01-12T11:19:10Z</time>
      </trkpt>
      <trkpt lat="45.92871" lon="4.76278">
        <ele>169</ele>
        <time>2018-01-12T11:19:11Z</time>
      </trkpt>
      <trkpt lat="45.92867" lon="4.76274">
        <ele>169</ele>
        <time>2018-01-12T11:19:12Z</time>
      </trkpt>
      <trkpt lat="45.92864" lon="4.76267">
        <ele>169</ele>
        <time>2018-01-12T11:19:13Z</time>
      </trkpt>
      <trkpt lat="45.92859" lon="4.76262">
        <ele>169</ele>
        <time>2018-01-12T11:19:14Z</time>
      </trkpt>
      <trkpt lat="45.92854" lon="4.7626">
        <ele>169</ele>
        <time>2018-01-12T11:19:15Z</time>
      </trkpt>
      <trkpt lat="45.9285" lon="4.76256">
        <ele>169</ele>
        <time>2018-01-12T11:19:16Z</time>
      </trkpt>
      <trkpt lat="45.92847" lon="4.76251">
        <ele>169</ele>
        <time>2018-01-12T11:19:17Z</time>
      </trkpt>
      <trkpt lat="45.92843" lon="4.76247">
        <ele>169</ele>
        <time>2018-01-12T11:19:18Z</time>
      </trkpt>
      <trkpt lat="45.92839" lon="4.76242">
        <ele>169</ele>
        <time>2018-01-12T11:19:19Z</time>
      </trkpt>
      <trkpt lat="45.92835" lon="4.76239">
        <ele>169</ele>
        <time>2018-01-12T11:19:20Z</time>
      </trkpt>
      <trkpt lat="45.92831" lon="4.76233">
        <ele>168</ele>
        <time>2018-01-12T11:19:21Z</time>
      </trkpt>
      <trkpt lat="45.92827" lon="4.7623">
        <ele>168</ele>
        <time>2018-01-12T11:19:22Z</time>
      </trkpt>
      <trkpt lat="45.92823" lon="4.76225">
        <ele>168</ele>
        <time>2018-01-12T11:19:23Z</time>
      </trkpt>
      <trkpt lat="45.92818" lon="4.76222">
        <ele>168</ele>
        <time>2018-01-12T11:19:24Z</time>
      </trkpt>
      <trkpt lat="45.92814" lon="4.76219">
        <ele>168</ele>
        <time>2018-01-12T11:19:25Z</time>
      </trkpt>
      <trkpt lat="45.9281" lon="4.76215">
        <ele>168</ele>
        <time>2018-01-12T11:19:26Z</time>
      </trkpt>
      <trkpt lat="45.92806" lon="4.76211">
        <ele>168</ele>
        <time>2018-01-12T11:19:27Z</time>
      </trkpt>
      <trkpt lat="45.92801" lon="4.76206">
        <ele>168</ele>
        <time>2018-01-12T11:19:28Z</time>
      </trkpt>
      <trkpt lat="45.92797" lon="4.76202">
        <ele>168</ele>
        <time>2018-01-12T11:19:29Z</time>
      </trkpt>
      <trkpt lat="45.92793" lon="4.76197">
        <ele>168</ele>
        <time>2018-01-12T11:19:30Z</time>
      </trkpt>
      <trkpt lat="45.92788" lon="4.76193">
        <ele>168</ele>
        <time>2018-01-12T11:19:31Z</time>
      </trkpt>
      <trkpt lat="45.92783" lon="4.76188">
        <ele>168</ele>
        <time>2018-01-12T11:19:32Z</time>
      </trkpt>
      <trkpt lat="45.92778" lon="4.76184">
        <ele>168</ele>
        <time>2018-01-12T11:19:33Z</time>
      </trkpt>
      <trkpt lat="45.92774" lon="4.76178">
        <ele>167</ele>
        <time>2018-01-12T11:19:34Z</time>
      </trkpt>
      <trkpt lat="45.92769" lon="4.76174">
        <ele>167</ele>
        <time>2018-01-12T11:19:35Z</time>
      </trkpt>
      <trkpt lat="45.92765" lon="4.76169">
        <ele>167</ele>
        <time>2018-01-12T11:19:36Z</time>
      </trkpt>
      <trkpt lat="45.92761" lon="4.76165">
        <ele>167</ele>
        <time>2018-01-12T11:19:37Z</time>
      </trkpt>
      <trkpt lat="45.92755" lon="4.76161">
        <ele>167</ele>
        <time>2018-01-12T11:19:38Z</time>
      </trkpt>
      <trkpt lat="45.9275" lon="4.76159">
        <ele>167</ele>
        <time>2018-01-12T11:19:39Z</time>
      </trkpt>
      <trkpt lat="45.92745" lon="4.76154">
        <ele>168</ele>
        <time>2018-01-12T11:19:40Z</time>
      </trkpt>
      <trkpt lat="45.92741" lon="4.76151">
        <ele>168</ele>
        <time>2018-01-12T11:19:41Z</time>
      </trkpt>
      <trkpt lat="45.92736" lon="4.76148">
        <ele>168</ele>
        <time>2018-01-12T11:19:42Z</time>
      </trkpt>
      <trkpt lat="45.92731" lon="4.76144">
        <ele>168</ele>
        <time>2018-01-12T11:19:43Z</time>
      </trkpt>
      <trkpt lat="45.92727" lon="4.7614">
        <ele>168</ele>
        <time>2018-01-12T11:19:44Z</time>
      </trkpt>
      <trkpt lat="45.92723" lon="4.76137">
        <ele>168</ele>
        <time>2018-01-12T11:19:45Z</time>
      </trkpt>
      <trkpt lat="45.92718" lon="4.76133">
        <ele>168</ele>
        <time>2018-01-12T11:19:46Z</time>
      </trkpt>
      <trkpt lat="45.92713" lon="4.7613">
        <ele>168</ele>
        <time>2018-01-12T11:19:47Z</time>
      </trkpt>
      <trkpt lat="45.92709" lon="4.76127">
        <ele>168</ele>
        <time>2018-01-12T11:19:48Z</time>
      </trkpt>
      <trkpt lat="45.92704" lon="4.76124">
        <ele>169</ele>
        <time>2018-01-12T11:19:49Z</time>
      </trkpt>
      <trkpt lat="45.927" lon="4.7612">
        <ele>169</ele>
        <time>2018-01-12T11:19:50Z</time>
      </trkpt>
      <trkpt lat="45.92696" lon="4.76117">
        <ele>169</ele>
        <time>2018-01-12T11:19:51Z</time>
      </trkpt>
      <trkpt lat="45.92691" lon="4.76114">
        <ele>169</ele>
        <time>2018-01-12T11:19:52Z</time>
      </trkpt>
      <trkpt lat="45.92687" lon="4.7611">
        <ele>169</ele>
        <time>2018-01-12T11:19:53Z</time>
      </trkpt>
      <trkpt lat="45.92683" lon="4.76107">
        <ele>169</ele>
        <time>2018-01-12T11:19:54Z</time>
      </trkpt>
      <trkpt lat="45.92678" lon="4.76104">
        <ele>169</ele>
        <time>2018-01-12T11:19:55Z</time>
      </trkpt>
      <trkpt lat="45.92674" lon="4.76101">
        <ele>169</ele>
        <time>2018-01-12T11:19:56Z</time>
      </trkpt>
      <trkpt lat="45.9267" lon="4.76098">
        <ele>169</ele>
        <time>2018-01-12T11:19:57Z</time>
      </trkpt>
      <trkpt lat="45.92665" lon="4.76095">
        <ele>170</ele>
        <time>2018-01-12T11:19:58Z</time>
      </trkpt>
      <trkpt lat="45.92662" lon="4.76092">
        <ele>170</ele>
        <time>2018-01-12T11:19:59Z</time>
      </trkpt>
      <trkpt lat="45.92654" lon="4.76087">
        <ele>170</ele>
        <time>2018-01-12T11:20:01Z</time>
      </trkpt>
      <trkpt lat="45.92649" lon="4.76084">
        <ele>170</ele>
        <time>2018-01-12T11:20:02Z</time>
      </trkpt>
      <trkpt lat="45.92642" lon="4.76077">
        <ele>170</ele>
        <time>2018-01-12T11:20:04Z</time>
      </trkpt>
      <trkpt lat="45.92638" lon="4.76074">
        <ele>170</ele>
        <time>2018-01-12T11:20:05Z</time>
      </trkpt>
      <trkpt lat="45.92634" lon="4.76072">
        <ele>170</ele>
        <time>2018-01-12T11:20:06Z</time>
      </trkpt>
      <trkpt lat="45.9263" lon="4.76069">
        <ele>170</ele>
        <time>2018-01-12T11:20:07Z</time>
      </trkpt>
      <trkpt lat="45.92622" lon="4.76063">
        <ele>171</ele>
        <time>2018-01-12T11:20:09Z</time>
      </trkpt>
      <trkpt lat="45.92618" lon="4.76061">
        <ele>171</ele>
        <time>2018-01-12T11:20:10Z</time>
      </trkpt>
      <trkpt lat="45.92614" lon="4.76059">
        <ele>171</ele>
        <time>2018-01-12T11:20:11Z</time>
      </trkpt>
      <trkpt lat="45.9261" lon="4.76055">
        <ele>171</ele>
        <time>2018-01-12T11:20:12Z</time>
      </trkpt>
      <trkpt lat="45.92602" lon="4.76049">
        <ele>171</ele>
        <time>2018-01-12T11:20:14Z</time>
      </trkpt>
      <trkpt lat="45.92598" lon="4.76046">
        <ele>171</ele>
        <time>2018-01-12T11:20:15Z</time>
      </trkpt>
      <trkpt lat="45.92591" lon="4.7604">
        <ele>171</ele>
        <time>2018-01-12T11:20:17Z</time>
      </trkpt>
      <trkpt lat="45.92587" lon="4.76038">
        <ele>171</ele>
        <time>2018-01-12T11:20:18Z</time>
      </trkpt>
      <trkpt lat="45.92582" lon="4.76035">
        <ele>172</ele>
        <time>2018-01-12T11:20:19Z</time>
      </trkpt>
      <trkpt lat="45.92578" lon="4.76032">
        <ele>172</ele>
        <time>2018-01-12T11:20:20Z</time>
      </trkpt>
      <trkpt lat="45.92574" lon="4.7603">
        <ele>172</ele>
        <time>2018-01-12T11:20:21Z</time>
      </trkpt>
      <trkpt lat="45.9257" lon="4.76027">
        <ele>172</ele>
        <time>2018-01-12T11:20:22Z</time>
      </trkpt>
      <trkpt lat="45.92566" lon="4.76024">
        <ele>172</ele>
        <time>2018-01-12T11:20:23Z</time>
      </trkpt>
      <trkpt lat="45.92562" lon="4.76021">
        <ele>172</ele>
        <time>2018-01-12T11:20:24Z</time>
      </trkpt>
      <trkpt lat="45.92557" lon="4.76018">
        <ele>172</ele>
        <time>2018-01-12T11:20:25Z</time>
      </trkpt>
      <trkpt lat="45.92553" lon="4.76016">
        <ele>172</ele>
        <time>2018-01-12T11:20:26Z</time>
      </trkpt>
      <trkpt lat="45.92549" lon="4.76013">
        <ele>172</ele>
        <time>2018-01-12T11:20:27Z</time>
      </trkpt>
      <trkpt lat="45.92544" lon="4.7601">
        <ele>172</ele>
        <time>2018-01-12T11:20:28Z</time>
      </trkpt>
      <trkpt lat="45.9254" lon="4.76007">
        <ele>172</ele>
        <time>2018-01-12T11:20:29Z</time>
      </trkpt>
      <trkpt lat="45.92535" lon="4.76004">
        <ele>172</ele>
        <time>2018-01-12T11:20:30Z</time>
      </trkpt>
      <trkpt lat="45.92531" lon="4.76">
        <ele>172</ele>
        <time>2018-01-12T11:20:31Z</time>
      </trkpt>
      <trkpt lat="45.92526" lon="4.75997">
        <ele>172</ele>
        <time>2018-01-12T11:20:32Z</time>
      </trkpt>
      <trkpt lat="45.92521" lon="4.75994">
        <ele>172</ele>
        <time>2018-01-12T11:20:33Z</time>
      </trkpt>
      <trkpt lat="45.92518" lon="4.75991">
        <ele>172</ele>
        <time>2018-01-12T11:20:34Z</time>
      </trkpt>
      <trkpt lat="45.92514" lon="4.75988">
        <ele>172</ele>
        <time>2018-01-12T11:20:35Z</time>
      </trkpt>
      <trkpt lat="45.92509" lon="4.75985">
        <ele>172</ele>
        <time>2018-01-12T11:20:36Z</time>
      </trkpt>
      <trkpt lat="45.92504" lon="4.75982">
        <ele>172</ele>
        <time>2018-01-12T11:20:37Z</time>
      </trkpt>
      <trkpt lat="45.925" lon="4.75978">
        <ele>172</ele>
        <time>2018-01-12T11:20:38Z</time>
      </trkpt>
      <trkpt lat="45.92495" lon="4.75974">
        <ele>172</ele>
        <time>2018-01-12T11:20:39Z</time>
      </trkpt>
      <trkpt lat="45.9249" lon="4.75971">
        <ele>172</ele>
        <time>2018-01-12T11:20:40Z</time>
      </trkpt>
      <trkpt lat="45.92486" lon="4.75968">
        <ele>172</ele>
        <time>2018-01-12T11:20:41Z</time>
      </trkpt>
      <trkpt lat="45.92482" lon="4.75964">
        <ele>172</ele>
        <time>2018-01-12T11:20:42Z</time>
      </trkpt>
      <trkpt lat="45.92477" lon="4.75961">
        <ele>172</ele>
        <time>2018-01-12T11:20:43Z</time>
      </trkpt>
      <trkpt lat="45.92472" lon="4.75958">
        <ele>172</ele>
        <time>2018-01-12T11:20:44Z</time>
      </trkpt>
      <trkpt lat="45.92468" lon="4.75955">
        <ele>172</ele>
        <time>2018-01-12T11:20:45Z</time>
      </trkpt>
      <trkpt lat="45.92464" lon="4.75951">
        <ele>172</ele>
        <time>2018-01-12T11:20:46Z</time>
      </trkpt>
      <trkpt lat="45.92459" lon="4.75948">
        <ele>172</ele>
        <time>2018-01-12T11:20:47Z</time>
      </trkpt>
      <trkpt lat="45.92454" lon="4.75944">
        <ele>172</ele>
        <time>2018-01-12T11:20:48Z</time>
      </trkpt>
      <trkpt lat="45.92448" lon="4.75941">
        <ele>172</ele>
        <time>2018-01-12T11:20:49Z</time>
      </trkpt>
      <trkpt lat="45.92443" lon="4.75936">
        <ele>172</ele>
        <time>2018-01-12T11:20:50Z</time>
      </trkpt>
      <trkpt lat="45.92437" lon="4.75933">
        <ele>172</ele>
        <time>2018-01-12T11:20:51Z</time>
      </trkpt>
      <trkpt lat="45.92431" lon="4.7593">
        <ele>172</ele>
        <time>2018-01-12T11:20:52Z</time>
      </trkpt>
      <trkpt lat="45.92426" lon="4.75926">
        <ele>172</ele>
        <time>2018-01-12T11:20:53Z</time>
      </trkpt>
      <trkpt lat="45.9242" lon="4.75922">
        <ele>172</ele>
        <time>2018-01-12T11:20:54Z</time>
      </trkpt>
      <trkpt lat="45.92415" lon="4.75918">
        <ele>172</ele>
        <time>2018-01-12T11:20:55Z</time>
      </trkpt>
      <trkpt lat="45.92408" lon="4.75913">
        <ele>172</ele>
        <time>2018-01-12T11:20:56Z</time>
      </trkpt>
      <trkpt lat="45.92402" lon="4.7591">
        <ele>172</ele>
        <time>2018-01-12T11:20:57Z</time>
      </trkpt>
      <trkpt lat="45.92396" lon="4.75906">
        <ele>173</ele>
        <time>2018-01-12T11:20:58Z</time>
      </trkpt>
      <trkpt lat="45.92389" lon="4.75902">
        <ele>173</ele>
        <time>2018-01-12T11:20:59Z</time>
      </trkpt>
      <trkpt lat="45.92383" lon="4.75897">
        <ele>173</ele>
        <time>2018-01-12T11:21:00Z</time>
      </trkpt>
      <trkpt lat="45.92378" lon="4.75893">
        <ele>173</ele>
        <time>2018-01-12T11:21:01Z</time>
      </trkpt>
      <trkpt lat="45.92372" lon="4.75889">
        <ele>173</ele>
        <time>2018-01-12T11:21:02Z</time>
      </trkpt>
      <trkpt lat="45.92366" lon="4.75886">
        <ele>173</ele>
        <time>2018-01-12T11:21:03Z</time>
      </trkpt>
      <trkpt lat="45.92361" lon="4.75882">
        <ele>173</ele>
        <time>2018-01-12T11:21:04Z</time>
      </trkpt>
      <trkpt lat="45.92355" lon="4.75877">
        <ele>173</ele>
        <time>2018-01-12T11:21:05Z</time>
      </trkpt>
      <trkpt lat="45.92349" lon="4.75874">
        <ele>173</ele>
        <time>2018-01-12T11:21:06Z</time>
      </trkpt>
      <trkpt lat="45.92344" lon="4.75871">
        <ele>173</ele>
        <time>2018-01-12T11:21:07Z</time>
      </trkpt>
      <trkpt lat="45.9234" lon="4.75868">
        <ele>173</ele>
        <time>2018-01-12T11:21:08Z</time>
      </trkpt>
      <trkpt lat="45.92334" lon="4.75865">
        <ele>173</ele>
        <time>2018-01-12T11:21:09Z</time>
      </trkpt>
      <trkpt lat="45.9233" lon="4.75861">
        <ele>173</ele>
        <time>2018-01-12T11:21:10Z</time>
      </trkpt>
      <trkpt lat="45.92325" lon="4.75858">
        <ele>173</ele>
        <time>2018-01-12T11:21:11Z</time>
      </trkpt>
      <trkpt lat="45.92321" lon="4.75855">
        <ele>173</ele>
        <time>2018-01-12T11:21:12Z</time>
      </trkpt>
      <trkpt lat="45.92316" lon="4.75852">
        <ele>173</ele>
        <time>2018-01-12T11:21:13Z</time>
      </trkpt>
      <trkpt lat="45.92311" lon="4.75849">
        <ele>173</ele>
        <time>2018-01-12T11:21:14Z</time>
      </trkpt>
      <trkpt lat="45.92307" lon="4.75845">
        <ele>173</ele>
        <time>2018-01-12T11:21:15Z</time>
      </trkpt>
      <trkpt lat="45.92302" lon="4.75841">
        <ele>173</ele>
        <time>2018-01-12T11:21:16Z</time>
      </trkpt>
      <trkpt lat="45.92296" lon="4.75838">
        <ele>173</ele>
        <time>2018-01-12T11:21:17Z</time>
      </trkpt>
      <trkpt lat="45.92291" lon="4.75835">
        <ele>173</ele>
        <time>2018-01-12T11:21:18Z</time>
      </trkpt>
      <trkpt lat="45.92286" lon="4.75831">
        <ele>174</ele>
        <time>2018-01-12T11:21:19Z</time>
      </trkpt>
      <trkpt lat="45.92281" lon="4.75827">
        <ele>174</ele>
        <time>2018-01-12T11:21:20Z</time>
      </trkpt>
      <trkpt lat="45.92276" lon="4.75822">
        <ele>174</ele>
        <time>2018-01-12T11:21:21Z</time>
      </trkpt>
      <trkpt lat="45.92272" lon="4.75817">
        <ele>174</ele>
        <time>2018-01-12T11:21:22Z</time>
      </trkpt>
      <trkpt lat="45.92269" lon="4.7581">
        <ele>174</ele>
        <time>2018-01-12T11:21:23Z</time>
      </trkpt>
      <trkpt lat="45.92265" lon="4.75803">
        <ele>174</ele>
        <time>2018-01-12T11:21:24Z</time>
      </trkpt>
      <trkpt lat="45.92262" lon="4.75797">
        <ele>174</ele>
        <time>2018-01-12T11:21:25Z</time>
      </trkpt>
      <trkpt lat="45.9226" lon="4.7579">
        <ele>174</ele>
        <time>2018-01-12T11:21:26Z</time>
      </trkpt>
      <trkpt lat="45.92258" lon="4.75783">
        <ele>174</ele>
        <time>2018-01-12T11:21:27Z</time>
      </trkpt>
      <trkpt lat="45.92257" lon="4.75776">
        <ele>174</ele>
        <time>2018-01-12T11:21:28Z</time>
      </trkpt>
      <trkpt lat="45.92256" lon="4.75767">
        <ele>174</ele>
        <time>2018-01-12T11:21:29Z</time>
      </trkpt>
      <trkpt lat="45.92255" lon="4.75758">
        <ele>174</ele>
        <time>2018-01-12T11:21:30Z</time>
      </trkpt>
      <trkpt lat="45.92253" lon="4.75749">
        <ele>174</ele>
        <time>2018-01-12T11:21:31Z</time>
      </trkpt>
      <trkpt lat="45.92252" lon="4.7574">
        <ele>174</ele>
        <time>2018-01-12T11:21:32Z</time>
      </trkpt>
      <trkpt lat="45.9225" lon="4.75732">
        <ele>174</ele>
        <time>2018-01-12T11:21:33Z</time>
      </trkpt>
      <trkpt lat="45.92247" lon="4.75724">
        <ele>174</ele>
        <time>2018-01-12T11:21:34Z</time>
      </trkpt>
      <trkpt lat="45.92244" lon="4.75715">
        <ele>174</ele>
        <time>2018-01-12T11:21:35Z</time>
      </trkpt>
      <trkpt lat="45.92239" lon="4.75709">
        <ele>174</ele>
        <time>2018-01-12T11:21:36Z</time>
      </trkpt>
      <trkpt lat="45.92236" lon="4.75703">
        <ele>174</ele>
        <time>2018-01-12T11:21:37Z</time>
      </trkpt>
      <trkpt lat="45.92231" lon="4.75697">
        <ele>174</ele>
        <time>2018-01-12T11:21:38Z</time>
      </trkpt>
      <trkpt lat="45.92226" lon="4.75691">
        <ele>174</ele>
        <time>2018-01-12T11:21:39Z</time>
      </trkpt>
      <trkpt lat="45.92222" lon="4.75686">
        <ele>174</ele>
        <time>2018-01-12T11:21:40Z</time>
      </trkpt>
      <trkpt lat="45.92217" lon="4.75681">
        <ele>174</ele>
        <time>2018-01-12T11:21:41Z</time>
      </trkpt>
      <trkpt lat="45.92213" lon="4.75677">
        <ele>174</ele>
        <time>2018-01-12T11:21:42Z</time>
      </trkpt>
      <trkpt lat="45.92208" lon="4.75672">
        <ele>174</ele>
        <time>2018-01-12T11:21:43Z</time>
      </trkpt>
      <trkpt lat="45.92203" lon="4.75668">
        <ele>174</ele>
        <time>2018-01-12T11:21:44Z</time>
      </trkpt>
      <trkpt lat="45.92198" lon="4.75663">
        <ele>174</ele>
        <time>2018-01-12T11:21:45Z</time>
      </trkpt>
      <trkpt lat="45.92194" lon="4.75658">
        <ele>174</ele>
        <time>2018-01-12T11:21:46Z</time>
      </trkpt>
      <trkpt lat="45.92189" lon="4.75654">
        <ele>174</ele>
        <time>2018-01-12T11:21:47Z</time>
      </trkpt>
      <trkpt lat="45.92183" lon="4.75649">
        <ele>174</ele>
        <time>2018-01-12T11:21:48Z</time>
      </trkpt>
      <trkpt lat="45.92177" lon="4.75645">
        <ele>174</ele>
        <time>2018-01-12T11:21:49Z</time>
      </trkpt>
      <trkpt lat="45.92172" lon="4.7564">
        <ele>174</ele>
        <time>2018-01-12T11:21:50Z</time>
      </trkpt>
      <trkpt lat="45.92167" lon="4.75635">
        <ele>174</ele>
        <time>2018-01-12T11:21:51Z</time>
      </trkpt>
      <trkpt lat="45.92162" lon="4.7563">
        <ele>174</ele>
        <time>2018-01-12T11:21:52Z</time>
      </trkpt>
      <trkpt lat="45.92158" lon="4.75626">
        <ele>174</ele>
        <time>2018-01-12T11:21:53Z</time>
      </trkpt>
      <trkpt lat="45.92154" lon="4.75621">
        <ele>174</ele>
        <time>2018-01-12T11:21:54Z</time>
      </trkpt>
      <trkpt lat="45.92149" lon="4.75617">
        <ele>174</ele>
        <time>2018-01-12T11:21:55Z</time>
      </trkpt>
      <trkpt lat="45.92144" lon="4.75612">
        <ele>174</ele>
        <time>2018-01-12T11:21:56Z</time>
      </trkpt>
      <trkpt lat="45.9214" lon="4.75607">
        <ele>174</ele>
        <time>2018-01-12T11:21:57Z</time>
      </trkpt>
      <trkpt lat="45.92135" lon="4.75604">
        <ele>174</ele>
        <time>2018-01-12T11:21:58Z</time>
      </trkpt>
      <trkpt lat="45.92131" lon="4.756">
        <ele>174</ele>
        <time>2018-01-12T11:21:59Z</time>
      </trkpt>
      <trkpt lat="45.92127" lon="4.75597">
        <ele>174</ele>
        <time>2018-01-12T11:22:00Z</time>
      </trkpt>
      <trkpt lat="45.92121" lon="4.75589">
        <ele>174</ele>
        <time>2018-01-12T11:22:02Z</time>
      </trkpt>
      <trkpt lat="45.92118" lon="4.75584">
        <ele>174</ele>
        <time>2018-01-12T11:22:03Z</time>
      </trkpt>
      <trkpt lat="45.92116" lon="4.75572">
        <ele>174</ele>
        <time>2018-01-12T11:22:05Z</time>
      </trkpt>
      <trkpt lat="45.92116" lon="4.75567">
        <ele>174</ele>
        <time>2018-01-12T11:22:06Z</time>
      </trkpt>
      <trkpt lat="45.92119" lon="4.75561">
        <ele>174</ele>
        <time>2018-01-12T11:22:07Z</time>
      </trkpt>
      <trkpt lat="45.92121" lon="4.75555">
        <ele>174</ele>
        <time>2018-01-12T11:22:08Z</time>
      </trkpt>
      <trkpt lat="45.92124" lon="4.75549">
        <ele>174</ele>
        <time>2018-01-12T11:22:09Z</time>
      </trkpt>
      <trkpt lat="45.92127" lon="4.75543">
        <ele>174</ele>
        <time>2018-01-12T11:22:10Z</time>
      </trkpt>
      <trkpt lat="45.92132" lon="4.75533">
        <ele>174</ele>
        <time>2018-01-12T11:22:12Z</time>
      </trkpt>
      <trkpt lat="45.92135" lon="4.75528">
        <ele>174</ele>
        <time>2018-01-12T11:22:13Z</time>
      </trkpt>
      <trkpt lat="45.92138" lon="4.75519">
        <ele>174</ele>
        <time>2018-01-12T11:22:14Z</time>
      </trkpt>
      <trkpt lat="45.92141" lon="4.75512">
        <ele>174</ele>
        <time>2018-01-12T11:22:15Z</time>
      </trkpt>
      <trkpt lat="45.92144" lon="4.75506">
        <ele>175</ele>
        <time>2018-01-12T11:22:16Z</time>
      </trkpt>
      <trkpt lat="45.92147" lon="4.75498">
        <ele>175</ele>
        <time>2018-01-12T11:22:17Z</time>
      </trkpt>
      <trkpt lat="45.92151" lon="4.75491">
        <ele>175</ele>
        <time>2018-01-12T11:22:18Z</time>
      </trkpt>
      <trkpt lat="45.92153" lon="4.75485">
        <ele>176</ele>
        <time>2018-01-12T11:22:19Z</time>
      </trkpt>
      <trkpt lat="45.92156" lon="4.75478">
        <ele>176</ele>
        <time>2018-01-12T11:22:20Z</time>
      </trkpt>
      <trkpt lat="45.92159" lon="4.75471">
        <ele>176</ele>
        <time>2018-01-12T11:22:21Z</time>
      </trkpt>
      <trkpt lat="45.92162" lon="4.75463">
        <ele>176</ele>
        <time>2018-01-12T11:22:22Z</time>
      </trkpt>
      <trkpt lat="45.92165" lon="4.75457">
        <ele>176</ele>
        <time>2018-01-12T11:22:23Z</time>
      </trkpt>
      <trkpt lat="45.92168" lon="4.7545">
        <ele>176</ele>
        <time>2018-01-12T11:22:24Z</time>
      </trkpt>
      <trkpt lat="45.9217" lon="4.75443">
        <ele>176</ele>
        <time>2018-01-12T11:22:25Z</time>
      </trkpt>
      <trkpt lat="45.92172" lon="4.75436">
        <ele>177</ele>
        <time>2018-01-12T11:22:26Z</time>
      </trkpt>
      <trkpt lat="45.92174" lon="4.75429">
        <ele>177</ele>
        <time>2018-01-12T11:22:27Z</time>
      </trkpt>
      <trkpt lat="45.92177" lon="4.75422">
        <ele>177</ele>
        <time>2018-01-12T11:22:28Z</time>
      </trkpt>
      <trkpt lat="45.92181" lon="4.75415">
        <ele>177</ele>
        <time>2018-01-12T11:22:29Z</time>
      </trkpt>
      <trkpt lat="45.92186" lon="4.75403">
        <ele>177</ele>
        <time>2018-01-12T11:22:30Z</time>
      </trkpt>
      <trkpt lat="45.92189" lon="4.75395">
        <ele>177</ele>
        <time>2018-01-12T11:22:31Z</time>
      </trkpt>
      <trkpt lat="45.92191" lon="4.7539">
        <ele>177</ele>
        <time>2018-01-12T11:22:32Z</time>
      </trkpt>
      <trkpt lat="45.92194" lon="4.75382">
        <ele>177</ele>
        <time>2018-01-12T11:22:33Z</time>
      </trkpt>
      <trkpt lat="45.92196" lon="4.75376">
        <ele>177</ele>
        <time>2018-01-12T11:22:34Z</time>
      </trkpt>
      <trkpt lat="45.92199" lon="4.75368">
        <ele>177</ele>
        <time>2018-01-12T11:22:35Z</time>
      </trkpt>
      <trkpt lat="45.92202" lon="4.75361">
        <ele>177</ele>
        <time>2018-01-12T11:22:36Z</time>
      </trkpt>
      <trkpt lat="45.92205" lon="4.75352">
        <ele>177</ele>
        <time>2018-01-12T11:22:37Z</time>
      </trkpt>
      <trkpt lat="45.92206" lon="4.75346">
        <ele>177</ele>
        <time>2018-01-12T11:22:38Z</time>
      </trkpt>
      <trkpt lat="45.92209" lon="4.75336">
        <ele>177</ele>
        <time>2018-01-12T11:22:39Z</time>
      </trkpt>
      <trkpt lat="45.92211" lon="4.75327">
        <ele>176</ele>
        <time>2018-01-12T11:22:40Z</time>
      </trkpt>
      <trkpt lat="45.92212" lon="4.75316">
        <ele>176</ele>
        <time>2018-01-12T11:22:41Z</time>
      </trkpt>
      <trkpt lat="45.92213" lon="4.75307">
        <ele>176</ele>
        <time>2018-01-12T11:22:42Z</time>
      </trkpt>
      <trkpt lat="45.92213" lon="4.75297">
        <ele>176</ele>
        <time>2018-01-12T11:22:43Z</time>
      </trkpt>
      <trkpt lat="45.92214" lon="4.75286">
        <ele>176</ele>
        <time>2018-01-12T11:22:44Z</time>
      </trkpt>
      <trkpt lat="45.92213" lon="4.75276">
        <ele>176</ele>
        <time>2018-01-12T11:22:45Z</time>
      </trkpt>
      <trkpt lat="45.92214" lon="4.75266">
        <ele>176</ele>
        <time>2018-01-12T11:22:46Z</time>
      </trkpt>
      <trkpt lat="45.92215" lon="4.75256">
        <ele>175</ele>
        <time>2018-01-12T11:22:47Z</time>
      </trkpt>
      <trkpt lat="45.92215" lon="4.75247">
        <ele>175</ele>
        <time>2018-01-12T11:22:48Z</time>
      </trkpt>
      <trkpt lat="45.92216" lon="4.75237">
        <ele>175</ele>
        <time>2018-01-12T11:22:49Z</time>
      </trkpt>
      <trkpt lat="45.92217" lon="4.75228">
        <ele>175</ele>
        <time>2018-01-12T11:22:50Z</time>
      </trkpt>
      <trkpt lat="45.92217" lon="4.75218">
        <ele>175</ele>
        <time>2018-01-12T11:22:51Z</time>
      </trkpt>
      <trkpt lat="45.92219" lon="4.75207">
        <ele>175</ele>
        <time>2018-01-12T11:22:52Z</time>
      </trkpt>
      <trkpt lat="45.92221" lon="4.75198">
        <ele>175</ele>
        <time>2018-01-12T11:22:53Z</time>
      </trkpt>
      <trkpt lat="45.92223" lon="4.75187">
        <ele>175</ele>
        <time>2018-01-12T11:22:54Z</time>
      </trkpt>
      <trkpt lat="45.92226" lon="4.75177">
        <ele>175</ele>
        <time>2018-01-12T11:22:55Z</time>
      </trkpt>
      <trkpt lat="45.92231" lon="4.75168">
        <ele>175</ele>
        <time>2018-01-12T11:22:56Z</time>
      </trkpt>
      <trkpt lat="45.92234" lon="4.7516">
        <ele>174</ele>
        <time>2018-01-12T11:22:57Z</time>
      </trkpt>
      <trkpt lat="45.92238" lon="4.75152">
        <ele>174</ele>
        <time>2018-01-12T11:22:58Z</time>
      </trkpt>
      <trkpt lat="45.92242" lon="4.75144">
        <ele>174</ele>
        <time>2018-01-12T11:22:59Z</time>
      </trkpt>
      <trkpt lat="45.92247" lon="4.75138">
        <ele>174</ele>
        <time>2018-01-12T11:23:00Z</time>
      </trkpt>
      <trkpt lat="45.92251" lon="4.75131">
        <ele>174</ele>
        <time>2018-01-12T11:23:01Z</time>
      </trkpt>
      <trkpt lat="45.92255" lon="4.75126">
        <ele>174</ele>
        <time>2018-01-12T11:23:02Z</time>
      </trkpt>
      <trkpt lat="45.92259" lon="4.75119">
        <ele>174</ele>
        <time>2018-01-12T11:23:03Z</time>
      </trkpt>
      <trkpt lat="45.92264" lon="4.75113">
        <ele>174</ele>
        <time>2018-01-12T11:23:04Z</time>
      </trkpt>
      <trkpt lat="45.92268" lon="4.75108">
        <ele>174</ele>
        <time>2018-01-12T11:23:05Z</time>
      </trkpt>
      <trkpt lat="45.92272" lon="4.75104">
        <ele>173</ele>
        <time>2018-01-12T11:23:06Z</time>
      </trkpt>
      <trkpt lat="45.92275" lon="4.75101">
        <ele>173</ele>
        <time>2018-01-12T11:23:07Z</time>
      </trkpt>
      <trkpt lat="45.92279" lon="4.75096">
        <ele>173</ele>
        <time>2018-01-12T11:23:08Z</time>
      </trkpt>
      <trkpt lat="45.92284" lon="4.75091">
        <ele>173</ele>
        <time>2018-01-12T11:23:09Z</time>
      </trkpt>
      <trkpt lat="45.92289" lon="4.75085">
        <ele>173</ele>
        <time>2018-01-12T11:23:10Z</time>
      </trkpt>
      <trkpt lat="45.92293" lon="4.7508">
        <ele>172</ele>
        <time>2018-01-12T11:23:11Z</time>
      </trkpt>
      <trkpt lat="45.92298" lon="4.75075">
        <ele>172</ele>
        <time>2018-01-12T11:23:12Z</time>
      </trkpt>
      <trkpt lat="45.92302" lon="4.7507">
        <ele>172</ele>
        <time>2018-01-12T11:23:13Z</time>
      </trkpt>
      <trkpt lat="45.92305" lon="4.75065">
        <ele>172</ele>
        <time>2018-01-12T11:23:14Z</time>
      </trkpt>
      <trkpt lat="45.92309" lon="4.75058">
        <ele>172</ele>
        <time>2018-01-12T11:23:15Z</time>
      </trkpt>
      <trkpt lat="45.92313" lon="4.75054">
        <ele>172</ele>
        <time>2018-01-12T11:23:16Z</time>
      </trkpt>
      <trkpt lat="45.92317" lon="4.75048">
        <ele>172</ele>
        <time>2018-01-12T11:23:17Z</time>
      </trkpt>
      <trkpt lat="45.92321" lon="4.75042">
        <ele>172</ele>
        <time>2018-01-12T11:23:18Z</time>
      </trkpt>
      <trkpt lat="45.92324" lon="4.75037">
        <ele>171</ele>
        <time>2018-01-12T11:23:19Z</time>
      </trkpt>
      <trkpt lat="45.92327" lon="4.7503">
        <ele>171</ele>
        <time>2018-01-12T11:23:20Z</time>
      </trkpt>
      <trkpt lat="45.9233" lon="4.75025">
        <ele>171</ele>
        <time>2018-01-12T11:23:21Z</time>
      </trkpt>
      <trkpt lat="45.92334" lon="4.75018">
        <ele>170</ele>
        <time>2018-01-12T11:23:22Z</time>
      </trkpt>
      <trkpt lat="45.92337" lon="4.75011">
        <ele>170</ele>
        <time>2018-01-12T11:23:23Z</time>
      </trkpt>
      <trkpt lat="45.9234" lon="4.75005">
        <ele>170</ele>
        <time>2018-01-12T11:23:24Z</time>
      </trkpt>
      <trkpt lat="45.92343" lon="4.74998">
        <ele>170</ele>
        <time>2018-01-12T11:23:25Z</time>
      </trkpt>
      <trkpt lat="45.92346" lon="4.74991">
        <ele>170</ele>
        <time>2018-01-12T11:23:26Z</time>
      </trkpt>
      <trkpt lat="45.92349" lon="4.74982">
        <ele>170</ele>
        <time>2018-01-12T11:23:28Z</time>
      </trkpt>
      <trkpt lat="45.92351" lon="4.74976">
        <ele>170</ele>
        <time>2018-01-12T11:23:29Z</time>
      </trkpt>
      <trkpt lat="45.92354" lon="4.74969">
        <ele>170</ele>
        <time>2018-01-12T11:23:30Z</time>
      </trkpt>
      <trkpt lat="45.92355" lon="4.74963">
        <ele>170</ele>
        <time>2018-01-12T11:23:31Z</time>
      </trkpt>
      <trkpt lat="45.92359" lon="4.74952">
        <ele>170</ele>
        <time>2018-01-12T11:23:32Z</time>
      </trkpt>
      <trkpt lat="45.92362" lon="4.74946">
        <ele>170</ele>
        <time>2018-01-12T11:23:33Z</time>
      </trkpt>
      <trkpt lat="45.92365" lon="4.74939">
        <ele>170</ele>
        <time>2018-01-12T11:23:34Z</time>
      </trkpt>
      <trkpt lat="45.92367" lon="4.74933">
        <ele>170</ele>
        <time>2018-01-12T11:23:35Z</time>
      </trkpt>
      <trkpt lat="45.92369" lon="4.74927">
        <ele>170</ele>
        <time>2018-01-12T11:23:36Z</time>
      </trkpt>
      <trkpt lat="45.92373" lon="4.74918">
        <ele>170</ele>
        <time>2018-01-12T11:23:37Z</time>
      </trkpt>
      <trkpt lat="45.92377" lon="4.74909">
        <ele>171</ele>
        <time>2018-01-12T11:23:38Z</time>
      </trkpt>
      <trkpt lat="45.92379" lon="4.74903">
        <ele>171</ele>
        <time>2018-01-12T11:23:39Z</time>
      </trkpt>
      <trkpt lat="45.92384" lon="4.74894">
        <ele>171</ele>
        <time>2018-01-12T11:23:40Z</time>
      </trkpt>
      <trkpt lat="45.92388" lon="4.74884">
        <ele>171</ele>
        <time>2018-01-12T11:23:41Z</time>
      </trkpt>
      <trkpt lat="45.9239" lon="4.74877">
        <ele>171</ele>
        <time>2018-01-12T11:23:42Z</time>
      </trkpt>
      <trkpt lat="45.92392" lon="4.7487">
        <ele>171</ele>
        <time>2018-01-12T11:23:43Z</time>
      </trkpt>
      <trkpt lat="45.92395" lon="4.74862">
        <ele>171</ele>
        <time>2018-01-12T11:23:44Z</time>
      </trkpt>
      <trkpt lat="45.92398" lon="4.74854">
        <ele>171</ele>
        <time>2018-01-12T11:23:45Z</time>
      </trkpt>
      <trkpt lat="45.924" lon="4.74846">
        <ele>171</ele>
        <time>2018-01-12T11:23:46Z</time>
      </trkpt>
      <trkpt lat="45.92403" lon="4.74836">
        <ele>171</ele>
        <time>2018-01-12T11:23:47Z</time>
      </trkpt>
      <trkpt lat="45.92406" lon="4.74825">
        <ele>171</ele>
        <time>2018-01-12T11:23:48Z</time>
      </trkpt>
      <trkpt lat="45.92407" lon="4.74817">
        <ele>171</ele>
        <time>2018-01-12T11:23:49Z</time>
      </trkpt>
      <trkpt lat="45.92409" lon="4.74808">
        <ele>171</ele>
        <time>2018-01-12T11:23:50Z</time>
      </trkpt>
      <trkpt lat="45.92411" lon="4.748">
        <ele>171</ele>
        <time>2018-01-12T11:23:51Z</time>
      </trkpt>
      <trkpt lat="45.92414" lon="4.7479">
        <ele>171</ele>
        <time>2018-01-12T11:23:52Z</time>
      </trkpt>
      <trkpt lat="45.92416" lon="4.74781">
        <ele>171</ele>
        <time>2018-01-12T11:23:53Z</time>
      </trkpt>
      <trkpt lat="45.92418" lon="4.74774">
        <ele>171</ele>
        <time>2018-01-12T11:23:54Z</time>
      </trkpt>
      <trkpt lat="45.9242" lon="4.74767">
        <ele>171</ele>
        <time>2018-01-12T11:23:55Z</time>
      </trkpt>
      <trkpt lat="45.92422" lon="4.74759">
        <ele>171</ele>
        <time>2018-01-12T11:23:56Z</time>
      </trkpt>
      <trkpt lat="45.92424" lon="4.74752">
        <ele>172</ele>
        <time>2018-01-12T11:23:57Z</time>
      </trkpt>
      <trkpt lat="45.92426" lon="4.74745">
        <ele>172</ele>
        <time>2018-01-12T11:23:58Z</time>
      </trkpt>
      <trkpt lat="45.92427" lon="4.74738">
        <ele>171</ele>
        <time>2018-01-12T11:23:59Z</time>
      </trkpt>
      <trkpt lat="45.9243" lon="4.74731">
        <ele>171</ele>
        <time>2018-01-12T11:24:00Z</time>
      </trkpt>
      <trkpt lat="45.92433" lon="4.74724">
        <ele>171</ele>
        <time>2018-01-12T11:24:01Z</time>
      </trkpt>
      <trkpt lat="45.92437" lon="4.74712">
        <ele>171</ele>
        <time>2018-01-12T11:24:03Z</time>
      </trkpt>
      <trkpt lat="45.92439" lon="4.74705">
        <ele>171</ele>
        <time>2018-01-12T11:24:04Z</time>
      </trkpt>
      <trkpt lat="45.92442" lon="4.74698">
        <ele>171</ele>
        <time>2018-01-12T11:24:05Z</time>
      </trkpt>
      <trkpt lat="45.92445" lon="4.74691">
        <ele>171</ele>
        <time>2018-01-12T11:24:06Z</time>
      </trkpt>
      <trkpt lat="45.92448" lon="4.74685">
        <ele>171</ele>
        <time>2018-01-12T11:24:07Z</time>
      </trkpt>
      <trkpt lat="45.9245" lon="4.7468">
        <ele>171</ele>
        <time>2018-01-12T11:24:08Z</time>
      </trkpt>
      <trkpt lat="45.92453" lon="4.74674">
        <ele>171</ele>
        <time>2018-01-12T11:24:09Z</time>
      </trkpt>
      <trkpt lat="45.92456" lon="4.74668">
        <ele>171</ele>
        <time>2018-01-12T11:24:10Z</time>
      </trkpt>
      <trkpt lat="45.9246" lon="4.74662">
        <ele>171</ele>
        <time>2018-01-12T11:24:12Z</time>
      </trkpt>
      <trkpt lat="45.92466" lon="4.7465">
        <ele>171</ele>
        <time>2018-01-12T11:24:13Z</time>
      </trkpt>
      <trkpt lat="45.92468" lon="4.74646">
        <ele>171</ele>
        <time>2018-01-12T11:24:14Z</time>
      </trkpt>
      <trkpt lat="45.92472" lon="4.74639">
        <ele>171</ele>
        <time>2018-01-12T11:24:15Z</time>
      </trkpt>
      <trkpt lat="45.92478" lon="4.7463">
        <ele>171</ele>
        <time>2018-01-12T11:24:17Z</time>
      </trkpt>
      <trkpt lat="45.92482" lon="4.74623">
        <ele>171</ele>
        <time>2018-01-12T11:24:18Z</time>
      </trkpt>
      <trkpt lat="45.92486" lon="4.74616">
        <ele>171</ele>
        <time>2018-01-12T11:24:19Z</time>
      </trkpt>
      <trkpt lat="45.92491" lon="4.74611">
        <ele>171</ele>
        <time>2018-01-12T11:24:20Z</time>
      </trkpt>
      <trkpt lat="45.92496" lon="4.74606">
        <ele>171</ele>
        <time>2018-01-12T11:24:21Z</time>
      </trkpt>
      <trkpt lat="45.92501" lon="4.746">
        <ele>171</ele>
        <time>2018-01-12T11:24:22Z</time>
      </trkpt>
      <trkpt lat="45.92505" lon="4.74595">
        <ele>171</ele>
        <time>2018-01-12T11:24:23Z</time>
      </trkpt>
      <trkpt lat="45.92509" lon="4.7459">
        <ele>171</ele>
        <time>2018-01-12T11:24:24Z</time>
      </trkpt>
      <trkpt lat="45.92513" lon="4.74585">
        <ele>171</ele>
        <time>2018-01-12T11:24:25Z</time>
      </trkpt>
      <trkpt lat="45.92517" lon="4.7458">
        <ele>171</ele>
        <time>2018-01-12T11:24:26Z</time>
      </trkpt>
      <trkpt lat="45.92521" lon="4.74575">
        <ele>171</ele>
        <time>2018-01-12T11:24:27Z</time>
      </trkpt>
      <trkpt lat="45.92524" lon="4.7457">
        <ele>171</ele>
        <time>2018-01-12T11:24:28Z</time>
      </trkpt>
      <trkpt lat="45.92528" lon="4.74565">
        <ele>171</ele>
        <time>2018-01-12T11:24:29Z</time>
      </trkpt>
      <trkpt lat="45.9253" lon="4.74561">
        <ele>171</ele>
        <time>2018-01-12T11:24:30Z</time>
      </trkpt>
      <trkpt lat="45.92533" lon="4.74555">
        <ele>171</ele>
        <time>2018-01-12T11:24:31Z</time>
      </trkpt>
      <trkpt lat="45.92536" lon="4.74549">
        <ele>171</ele>
        <time>2018-01-12T11:24:32Z</time>
      </trkpt>
      <trkpt lat="45.9254" lon="4.74538">
        <ele>171</ele>
        <time>2018-01-12T11:24:34Z</time>
      </trkpt>
      <trkpt lat="45.92542" lon="4.74536">
        <ele>170</ele>
        <time>2018-01-12T11:24:35Z</time>
      </trkpt>
      <trkpt lat="45.92542" lon="4.74535">
        <ele>171</ele>
        <time>2018-01-12T11:24:36Z</time>
      </trkpt>
      <trkpt lat="45.9255" lon="4.74522">
        <ele>170</ele>
        <time>2018-01-12T11:24:37Z</time>
      </trkpt>
      <trkpt lat="45.92554" lon="4.74512">
        <ele>170</ele>
        <time>2018-01-12T11:24:39Z</time>
      </trkpt>
      <trkpt lat="45.92557" lon="4.74508">
        <ele>170</ele>
        <time>2018-01-12T11:24:40Z</time>
      </trkpt>
      <trkpt lat="45.9256" lon="4.74499">
        <ele>170</ele>
        <time>2018-01-12T11:24:42Z</time>
      </trkpt>
      <trkpt lat="45.92564" lon="4.74491">
        <ele>170</ele>
        <time>2018-01-12T11:24:43Z</time>
      </trkpt>
      <trkpt lat="45.92568" lon="4.74483">
        <ele>170</ele>
        <time>2018-01-12T11:24:45Z</time>
      </trkpt>
      <trkpt lat="45.92571" lon="4.74476">
        <ele>170</ele>
        <time>2018-01-12T11:24:46Z</time>
      </trkpt>
      <trkpt lat="45.92574" lon="4.74468">
        <ele>170</ele>
        <time>2018-01-12T11:24:48Z</time>
      </trkpt>
      <trkpt lat="45.92579" lon="4.7446">
        <ele>170</ele>
        <time>2018-01-12T11:24:49Z</time>
      </trkpt>
      <trkpt lat="45.92582" lon="4.74453">
        <ele>170</ele>
        <time>2018-01-12T11:24:51Z</time>
      </trkpt>
      <trkpt lat="45.92586" lon="4.74447">
        <ele>170</ele>
        <time>2018-01-12T11:24:52Z</time>
      </trkpt>
      <trkpt lat="45.9259" lon="4.74436">
        <ele>170</ele>
        <time>2018-01-12T11:24:54Z</time>
      </trkpt>
      <trkpt lat="45.92595" lon="4.74429">
        <ele>170</ele>
        <time>2018-01-12T11:24:55Z</time>
      </trkpt>
      <trkpt lat="45.92598" lon="4.74425">
        <ele>170</ele>
        <time>2018-01-12T11:24:56Z</time>
      </trkpt>
      <trkpt lat="45.92602" lon="4.74419">
        <ele>170</ele>
        <time>2018-01-12T11:24:57Z</time>
      </trkpt>
      <trkpt lat="45.92605" lon="4.74414">
        <ele>170</ele>
        <time>2018-01-12T11:24:58Z</time>
      </trkpt>
      <trkpt lat="45.92609" lon="4.74409">
        <ele>170</ele>
        <time>2018-01-12T11:24:59Z</time>
      </trkpt>
      <trkpt lat="45.92615" lon="4.74401">
        <ele>170</ele>
        <time>2018-01-12T11:25:00Z</time>
      </trkpt>
      <trkpt lat="45.92618" lon="4.74397">
        <ele>170</ele>
        <time>2018-01-12T11:25:01Z</time>
      </trkpt>
      <trkpt lat="45.92622" lon="4.74393">
        <ele>170</ele>
        <time>2018-01-12T11:25:02Z</time>
      </trkpt>
      <trkpt lat="45.92624" lon="4.74389">
        <ele>170</ele>
        <time>2018-01-12T11:25:03Z</time>
      </trkpt>
      <trkpt lat="45.92626" lon="4.74384">
        <ele>170</ele>
        <time>2018-01-12T11:25:04Z</time>
      </trkpt>
      <trkpt lat="45.92631" lon="4.74377">
        <ele>170</ele>
        <time>2018-01-12T11:25:05Z</time>
      </trkpt>
      <trkpt lat="45.92633" lon="4.74371">
        <ele>171</ele>
        <time>2018-01-12T11:25:06Z</time>
      </trkpt>
      <trkpt lat="45.92638" lon="4.74364">
        <ele>171</ele>
        <time>2018-01-12T11:25:07Z</time>
      </trkpt>
      <trkpt lat="45.92642" lon="4.74359">
        <ele>171</ele>
        <time>2018-01-12T11:25:08Z</time>
      </trkpt>
      <trkpt lat="45.92645" lon="4.74355">
        <ele>171</ele>
        <time>2018-01-12T11:25:09Z</time>
      </trkpt>
      <trkpt lat="45.92648" lon="4.7435">
        <ele>171</ele>
        <time>2018-01-12T11:25:10Z</time>
      </trkpt>
      <trkpt lat="45.92652" lon="4.74343">
        <ele>171</ele>
        <time>2018-01-12T11:25:11Z</time>
      </trkpt>
      <trkpt lat="45.92655" lon="4.74337">
        <ele>171</ele>
        <time>2018-01-12T11:25:12Z</time>
      </trkpt>
      <trkpt lat="45.92659" lon="4.74331">
        <ele>171</ele>
        <time>2018-01-12T11:25:13Z</time>
      </trkpt>
      <trkpt lat="45.92662" lon="4.74325">
        <ele>171</ele>
        <time>2018-01-12T11:25:14Z</time>
      </trkpt>
      <trkpt lat="45.92667" lon="4.74318">
        <ele>171</ele>
        <time>2018-01-12T11:25:15Z</time>
      </trkpt>
      <trkpt lat="45.9267" lon="4.74311">
        <ele>171</ele>
        <time>2018-01-12T11:25:16Z</time>
      </trkpt>
      <trkpt lat="45.92674" lon="4.74305">
        <ele>171</ele>
        <time>2018-01-12T11:25:17Z</time>
      </trkpt>
      <trkpt lat="45.9268" lon="4.74296">
        <ele>171</ele>
        <time>2018-01-12T11:25:18Z</time>
      </trkpt>
      <trkpt lat="45.92683" lon="4.7429">
        <ele>171</ele>
        <time>2018-01-12T11:25:19Z</time>
      </trkpt>
      <trkpt lat="45.92687" lon="4.74284">
        <ele>171</ele>
        <time>2018-01-12T11:25:20Z</time>
      </trkpt>
      <trkpt lat="45.9269" lon="4.74277">
        <ele>171</ele>
        <time>2018-01-12T11:25:21Z</time>
      </trkpt>
      <trkpt lat="45.92694" lon="4.74271">
        <ele>171</ele>
        <time>2018-01-12T11:25:22Z</time>
      </trkpt>
      <trkpt lat="45.92697" lon="4.74266">
        <ele>171</ele>
        <time>2018-01-12T11:25:23Z</time>
      </trkpt>
      <trkpt lat="45.92701" lon="4.74261">
        <ele>171</ele>
        <time>2018-01-12T11:25:24Z</time>
      </trkpt>
      <trkpt lat="45.92704" lon="4.74256">
        <ele>171</ele>
        <time>2018-01-12T11:25:25Z</time>
      </trkpt>
      <trkpt lat="45.92708" lon="4.7425">
        <ele>171</ele>
        <time>2018-01-12T11:25:26Z</time>
      </trkpt>
      <trkpt lat="45.9271" lon="4.74244">
        <ele>171</ele>
        <time>2018-01-12T11:25:27Z</time>
      </trkpt>
      <trkpt lat="45.92714" lon="4.74238">
        <ele>171</ele>
        <time>2018-01-12T11:25:28Z</time>
      </trkpt>
      <trkpt lat="45.92717" lon="4.74233">
        <ele>171</ele>
        <time>2018-01-12T11:25:29Z</time>
      </trkpt>
      <trkpt lat="45.9272" lon="4.74228">
        <ele>171</ele>
        <time>2018-01-12T11:25:30Z</time>
      </trkpt>
      <trkpt lat="45.92724" lon="4.74223">
        <ele>171</ele>
        <time>2018-01-12T11:25:31Z</time>
      </trkpt>
      <trkpt lat="45.9273" lon="4.74216">
        <ele>171</ele>
        <time>2018-01-12T11:25:32Z</time>
      </trkpt>
      <trkpt lat="45.92734" lon="4.74211">
        <ele>171</ele>
        <time>2018-01-12T11:25:33Z</time>
      </trkpt>
      <trkpt lat="45.9274" lon="4.74203">
        <ele>171</ele>
        <time>2018-01-12T11:25:34Z</time>
      </trkpt>
      <trkpt lat="45.92743" lon="4.74199">
        <ele>171</ele>
        <time>2018-01-12T11:25:35Z</time>
      </trkpt>
      <trkpt lat="45.92747" lon="4.74194">
        <ele>171</ele>
        <time>2018-01-12T11:25:36Z</time>
      </trkpt>
      <trkpt lat="45.92752" lon="4.74186">
        <ele>172</ele>
        <time>2018-01-12T11:25:37Z</time>
      </trkpt>
      <trkpt lat="45.92756" lon="4.74181">
        <ele>172</ele>
        <time>2018-01-12T11:25:38Z</time>
      </trkpt>
      <trkpt lat="45.9276" lon="4.74177">
        <ele>172</ele>
        <time>2018-01-12T11:25:39Z</time>
      </trkpt>
      <trkpt lat="45.92764" lon="4.74172">
        <ele>172</ele>
        <time>2018-01-12T11:25:40Z</time>
      </trkpt>
      <trkpt lat="45.92768" lon="4.74168">
        <ele>172</ele>
        <time>2018-01-12T11:25:41Z</time>
      </trkpt>
      <trkpt lat="45.92772" lon="4.74164">
        <ele>172</ele>
        <time>2018-01-12T11:25:42Z</time>
      </trkpt>
      <trkpt lat="45.92775" lon="4.7416">
        <ele>172</ele>
        <time>2018-01-12T11:25:43Z</time>
      </trkpt>
      <trkpt lat="45.9278" lon="4.74155">
        <ele>172</ele>
        <time>2018-01-12T11:25:44Z</time>
      </trkpt>
      <trkpt lat="45.92784" lon="4.7415">
        <ele>172</ele>
        <time>2018-01-12T11:25:45Z</time>
      </trkpt>
      <trkpt lat="45.92788" lon="4.74146">
        <ele>172</ele>
        <time>2018-01-12T11:25:46Z</time>
      </trkpt>
      <trkpt lat="45.92792" lon="4.74142">
        <ele>172</ele>
        <time>2018-01-12T11:25:47Z</time>
      </trkpt>
      <trkpt lat="45.92796" lon="4.74138">
        <ele>172</ele>
        <time>2018-01-12T11:25:48Z</time>
      </trkpt>
      <trkpt lat="45.92801" lon="4.74133">
        <ele>172</ele>
        <time>2018-01-12T11:25:49Z</time>
      </trkpt>
      <trkpt lat="45.92805" lon="4.74128">
        <ele>172</ele>
        <time>2018-01-12T11:25:50Z</time>
      </trkpt>
      <trkpt lat="45.92808" lon="4.74125">
        <ele>172</ele>
        <time>2018-01-12T11:25:51Z</time>
      </trkpt>
      <trkpt lat="45.92815" lon="4.74118">
        <ele>172</ele>
        <time>2018-01-12T11:25:53Z</time>
      </trkpt>
      <trkpt lat="45.92818" lon="4.74113">
        <ele>172</ele>
        <time>2018-01-12T11:25:54Z</time>
      </trkpt>
      <trkpt lat="45.92822" lon="4.74109">
        <ele>171</ele>
        <time>2018-01-12T11:25:55Z</time>
      </trkpt>
      <trkpt lat="45.92827" lon="4.74105">
        <ele>171</ele>
        <time>2018-01-12T11:25:56Z</time>
      </trkpt>
      <trkpt lat="45.92831" lon="4.74102">
        <ele>171</ele>
        <time>2018-01-12T11:25:57Z</time>
      </trkpt>
      <trkpt lat="45.92835" lon="4.74097">
        <ele>171</ele>
        <time>2018-01-12T11:25:58Z</time>
      </trkpt>
      <trkpt lat="45.92839" lon="4.74093">
        <ele>171</ele>
        <time>2018-01-12T11:25:59Z</time>
      </trkpt>
      <trkpt lat="45.92843" lon="4.74089">
        <ele>171</ele>
        <time>2018-01-12T11:26:00Z</time>
      </trkpt>
      <trkpt lat="45.92847" lon="4.74084">
        <ele>171</ele>
        <time>2018-01-12T11:26:01Z</time>
      </trkpt>
      <trkpt lat="45.92851" lon="4.74079">
        <ele>172</ele>
        <time>2018-01-12T11:26:02Z</time>
      </trkpt>
      <trkpt lat="45.92854" lon="4.74075">
        <ele>172</ele>
        <time>2018-01-12T11:26:03Z</time>
      </trkpt>
      <trkpt lat="45.92857" lon="4.74071">
        <ele>172</ele>
        <time>2018-01-12T11:26:04Z</time>
      </trkpt>
      <trkpt lat="45.92861" lon="4.74066">
        <ele>172</ele>
        <time>2018-01-12T11:26:05Z</time>
      </trkpt>
      <trkpt lat="45.92864" lon="4.74062">
        <ele>172</ele>
        <time>2018-01-12T11:26:06Z</time>
      </trkpt>
      <trkpt lat="45.92871" lon="4.74055">
        <ele>172</ele>
        <time>2018-01-12T11:26:08Z</time>
      </trkpt>
      <trkpt lat="45.92875" lon="4.74051">
        <ele>172</ele>
        <time>2018-01-12T11:26:09Z</time>
      </trkpt>
      <trkpt lat="45.92882" lon="4.74045">
        <ele>172</ele>
        <time>2018-01-12T11:26:11Z</time>
      </trkpt>
      <trkpt lat="45.92887" lon="4.74045">
        <ele>172</ele>
        <time>2018-01-12T11:26:12Z</time>
      </trkpt>
      <trkpt lat="45.92895" lon="4.74045">
        <ele>172</ele>
        <time>2018-01-12T11:26:14Z</time>
      </trkpt>
      <trkpt lat="45.929" lon="4.74045">
        <ele>172</ele>
        <time>2018-01-12T11:26:15Z</time>
      </trkpt>
      <trkpt lat="45.92904" lon="4.74043">
        <ele>172</ele>
        <time>2018-01-12T11:26:16Z</time>
      </trkpt>
      <trkpt lat="45.92909" lon="4.74039">
        <ele>172</ele>
        <time>2018-01-12T11:26:17Z</time>
      </trkpt>
      <trkpt lat="45.92915" lon="4.74031">
        <ele>172</ele>
        <time>2018-01-12T11:26:19Z</time>
      </trkpt>
      <trkpt lat="45.92917" lon="4.74024">
        <ele>172</ele>
        <time>2018-01-12T11:26:20Z</time>
      </trkpt>
      <trkpt lat="45.92918" lon="4.74017">
        <ele>172</ele>
        <time>2018-01-12T11:26:21Z</time>
      </trkpt>
      <trkpt lat="45.92919" lon="4.74009">
        <ele>172</ele>
        <time>2018-01-12T11:26:22Z</time>
      </trkpt>
      <trkpt lat="45.92918" lon="4.74001">
        <ele>172</ele>
        <time>2018-01-12T11:26:23Z</time>
      </trkpt>
      <trkpt lat="45.92915" lon="4.73996">
        <ele>172</ele>
        <time>2018-01-12T11:26:24Z</time>
      </trkpt>
      <trkpt lat="45.92912" lon="4.7399">
        <ele>172</ele>
        <time>2018-01-12T11:26:25Z</time>
      </trkpt>
      <trkpt lat="45.92907" lon="4.73986">
        <ele>172</ele>
        <time>2018-01-12T11:26:26Z</time>
      </trkpt>
      <trkpt lat="45.92903" lon="4.73982">
        <ele>172</ele>
        <time>2018-01-12T11:26:27Z</time>
      </trkpt>
      <trkpt lat="45.92898" lon="4.73979">
        <ele>172</ele>
        <time>2018-01-12T11:26:28Z</time>
      </trkpt>
      <trkpt lat="45.92895" lon="4.73975">
        <ele>172</ele>
        <time>2018-01-12T11:26:29Z</time>
      </trkpt>
      <trkpt lat="45.92892" lon="4.73969">
        <ele>172</ele>
        <time>2018-01-12T11:26:30Z</time>
      </trkpt>
      <trkpt lat="45.9289" lon="4.73961">
        <ele>172</ele>
        <time>2018-01-12T11:26:31Z</time>
      </trkpt>
      <trkpt lat="45.92889" lon="4.73953">
        <ele>172</ele>
        <time>2018-01-12T11:26:32Z</time>
      </trkpt>
      <trkpt lat="45.92889" lon="4.73945">
        <ele>172</ele>
        <time>2018-01-12T11:26:33Z</time>
      </trkpt>
      <trkpt lat="45.92889" lon="4.73938">
        <ele>172</ele>
        <time>2018-01-12T11:26:34Z</time>
      </trkpt>
      <trkpt lat="45.92889" lon="4.7393">
        <ele>172</ele>
        <time>2018-01-12T11:26:35Z</time>
      </trkpt>
      <trkpt lat="45.92888" lon="4.73923">
        <ele>172</ele>
        <time>2018-01-12T11:26:36Z</time>
      </trkpt>
      <trkpt lat="45.92887" lon="4.73915">
        <ele>173</ele>
        <time>2018-01-12T11:26:37Z</time>
      </trkpt>
      <trkpt lat="45.92886" lon="4.73907">
        <ele>173</ele>
        <time>2018-01-12T11:26:38Z</time>
      </trkpt>
      <trkpt lat="45.92885" lon="4.739">
        <ele>173</ele>
        <time>2018-01-12T11:26:39Z</time>
      </trkpt>
      <trkpt lat="45.92884" lon="4.73894">
        <ele>173</ele>
        <time>2018-01-12T11:26:40Z</time>
      </trkpt>
      <trkpt lat="45.92883" lon="4.73886">
        <ele>173</ele>
        <time>2018-01-12T11:26:41Z</time>
      </trkpt>
      <trkpt lat="45.92882" lon="4.7388">
        <ele>173</ele>
        <time>2018-01-12T11:26:42Z</time>
      </trkpt>
      <trkpt lat="45.9288" lon="4.73872">
        <ele>173</ele>
        <time>2018-01-12T11:26:43Z</time>
      </trkpt>
      <trkpt lat="45.92877" lon="4.73865">
        <ele>173</ele>
        <time>2018-01-12T11:26:44Z</time>
      </trkpt>
      <trkpt lat="45.92875" lon="4.73858">
        <ele>173</ele>
        <time>2018-01-12T11:26:45Z</time>
      </trkpt>
      <trkpt lat="45.92872" lon="4.73848">
        <ele>173</ele>
        <time>2018-01-12T11:26:46Z</time>
      </trkpt>
      <trkpt lat="45.92871" lon="4.7384">
        <ele>173</ele>
        <time>2018-01-12T11:26:47Z</time>
      </trkpt>
      <trkpt lat="45.92869" lon="4.73833">
        <ele>173</ele>
        <time>2018-01-12T11:26:48Z</time>
      </trkpt>
      <trkpt lat="45.92867" lon="4.73825">
        <ele>173</ele>
        <time>2018-01-12T11:26:49Z</time>
      </trkpt>
      <trkpt lat="45.92864" lon="4.73818">
        <ele>173</ele>
        <time>2018-01-12T11:26:50Z</time>
      </trkpt>
      <trkpt lat="45.92862" lon="4.7381">
        <ele>173</ele>
        <time>2018-01-12T11:26:51Z</time>
      </trkpt>
      <trkpt lat="45.92859" lon="4.73804">
        <ele>173</ele>
        <time>2018-01-12T11:26:52Z</time>
      </trkpt>
      <trkpt lat="45.92856" lon="4.73798">
        <ele>173</ele>
        <time>2018-01-12T11:26:53Z</time>
      </trkpt>
      <trkpt lat="45.92852" lon="4.73795">
        <ele>173</ele>
        <time>2018-01-12T11:26:54Z</time>
      </trkpt>
      <trkpt lat="45.92848" lon="4.73791">
        <ele>173</ele>
        <time>2018-01-12T11:26:55Z</time>
      </trkpt>
      <trkpt lat="45.92843" lon="4.73788">
        <ele>173</ele>
        <time>2018-01-12T11:26:56Z</time>
      </trkpt>
      <trkpt lat="45.92839" lon="4.73784">
        <ele>173</ele>
        <time>2018-01-12T11:26:57Z</time>
      </trkpt>
      <trkpt lat="45.92834" lon="4.73782">
        <ele>173</ele>
        <time>2018-01-12T11:26:58Z</time>
      </trkpt>
      <trkpt lat="45.9283" lon="4.73779">
        <ele>173</ele>
        <time>2018-01-12T11:26:59Z</time>
      </trkpt>
      <trkpt lat="45.92825" lon="4.73777">
        <ele>173</ele>
        <time>2018-01-12T11:27:00Z</time>
      </trkpt>
      <trkpt lat="45.92821" lon="4.73775">
        <ele>173</ele>
        <time>2018-01-12T11:27:01Z</time>
      </trkpt>
      <trkpt lat="45.92816" lon="4.73771">
        <ele>173</ele>
        <time>2018-01-12T11:27:02Z</time>
      </trkpt>
      <trkpt lat="45.92809" lon="4.73767">
        <ele>173</ele>
        <time>2018-01-12T11:27:04Z</time>
      </trkpt>
      <trkpt lat="45.92805" lon="4.73766">
        <ele>173</ele>
        <time>2018-01-12T11:27:05Z</time>
      </trkpt>
      <trkpt lat="45.92798" lon="4.73761">
        <ele>173</ele>
        <time>2018-01-12T11:27:07Z</time>
      </trkpt>
      <trkpt lat="45.92794" lon="4.73758">
        <ele>173</ele>
        <time>2018-01-12T11:27:08Z</time>
      </trkpt>
      <trkpt lat="45.92789" lon="4.73753">
        <ele>173</ele>
        <time>2018-01-12T11:27:10Z</time>
      </trkpt>
      <trkpt lat="45.92786" lon="4.73749">
        <ele>172</ele>
        <time>2018-01-12T11:27:11Z</time>
      </trkpt>
      <trkpt lat="45.92783" lon="4.7374">
        <ele>172</ele>
        <time>2018-01-12T11:27:13Z</time>
      </trkpt>
      <trkpt lat="45.92781" lon="4.73735">
        <ele>172</ele>
        <time>2018-01-12T11:27:14Z</time>
      </trkpt>
      <trkpt lat="45.92772" lon="4.73732">
        <ele>172</ele>
        <time>2018-01-12T11:27:16Z</time>
      </trkpt>
      <trkpt lat="45.92768" lon="4.7373">
        <ele>172</ele>
        <time>2018-01-12T11:27:17Z</time>
      </trkpt>
      <trkpt lat="45.9276" lon="4.73725">
        <ele>172</ele>
        <time>2018-01-12T11:27:19Z</time>
      </trkpt>
      <trkpt lat="45.92756" lon="4.73723">
        <ele>172</ele>
        <time>2018-01-12T11:27:20Z</time>
      </trkpt>
      <trkpt lat="45.92751" lon="4.73723">
        <ele>172</ele>
        <time>2018-01-12T11:27:21Z</time>
      </trkpt>
      <trkpt lat="45.92746" lon="4.73721">
        <ele>173</ele>
        <time>2018-01-12T11:27:22Z</time>
      </trkpt>
      <trkpt lat="45.92741" lon="4.73721">
        <ele>173</ele>
        <time>2018-01-12T11:27:23Z</time>
      </trkpt>
      <trkpt lat="45.92737" lon="4.7372">
        <ele>173</ele>
        <time>2018-01-12T11:27:24Z</time>
      </trkpt>
      <trkpt lat="45.92728" lon="4.73718">
        <ele>173</ele>
        <time>2018-01-12T11:27:26Z</time>
      </trkpt>
      <trkpt lat="45.92725" lon="4.73718">
        <ele>173</ele>
        <time>2018-01-12T11:27:27Z</time>
      </trkpt>
      <trkpt lat="45.9272" lon="4.73716">
        <ele>173</ele>
        <time>2018-01-12T11:27:28Z</time>
      </trkpt>
      <trkpt lat="45.92715" lon="4.73716">
        <ele>173</ele>
        <time>2018-01-12T11:27:29Z</time>
      </trkpt>
      <trkpt lat="45.92707" lon="4.73713">
        <ele>173</ele>
        <time>2018-01-12T11:27:31Z</time>
      </trkpt>
      <trkpt lat="45.92701" lon="4.73712">
        <ele>173</ele>
        <time>2018-01-12T11:27:32Z</time>
      </trkpt>
      <trkpt lat="45.92696" lon="4.73711">
        <ele>173</ele>
        <time>2018-01-12T11:27:33Z</time>
      </trkpt>
      <trkpt lat="45.9269" lon="4.7371">
        <ele>173</ele>
        <time>2018-01-12T11:27:34Z</time>
      </trkpt>
      <trkpt lat="45.92684" lon="4.73709">
        <ele>173</ele>
        <time>2018-01-12T11:27:35Z</time>
      </trkpt>
      <trkpt lat="45.92679" lon="4.73707">
        <ele>173</ele>
        <time>2018-01-12T11:27:36Z</time>
      </trkpt>
      <trkpt lat="45.92675" lon="4.73704">
        <ele>174</ele>
        <time>2018-01-12T11:27:37Z</time>
      </trkpt>
      <trkpt lat="45.9267" lon="4.73702">
        <ele>174</ele>
        <time>2018-01-12T11:27:38Z</time>
      </trkpt>
      <trkpt lat="45.92665" lon="4.73699">
        <ele>173</ele>
        <time>2018-01-12T11:27:39Z</time>
      </trkpt>
      <trkpt lat="45.92661" lon="4.73697">
        <ele>173</ele>
        <time>2018-01-12T11:27:40Z</time>
      </trkpt>
      <trkpt lat="45.92657" lon="4.73693">
        <ele>173</ele>
        <time>2018-01-12T11:27:41Z</time>
      </trkpt>
      <trkpt lat="45.92653" lon="4.7369">
        <ele>173</ele>
        <time>2018-01-12T11:27:42Z</time>
      </trkpt>
      <trkpt lat="45.92649" lon="4.73686">
        <ele>173</ele>
        <time>2018-01-12T11:27:43Z</time>
      </trkpt>
      <trkpt lat="45.92645" lon="4.73682">
        <ele>173</ele>
        <time>2018-01-12T11:27:44Z</time>
      </trkpt>
      <trkpt lat="45.92641" lon="4.73677">
        <ele>173</ele>
        <time>2018-01-12T11:27:45Z</time>
      </trkpt>
      <trkpt lat="45.92638" lon="4.73672">
        <ele>173</ele>
        <time>2018-01-12T11:27:46Z</time>
      </trkpt>
      <trkpt lat="45.92633" lon="4.73661">
        <ele>173</ele>
        <time>2018-01-12T11:27:48Z</time>
      </trkpt>
      <trkpt lat="45.9263" lon="4.73655">
        <ele>173</ele>
        <time>2018-01-12T11:27:49Z</time>
      </trkpt>
      <trkpt lat="45.92627" lon="4.73649">
        <ele>173</ele>
        <time>2018-01-12T11:27:50Z</time>
      </trkpt>
      <trkpt lat="45.92625" lon="4.73643">
        <ele>173</ele>
        <time>2018-01-12T11:27:51Z</time>
      </trkpt>
      <trkpt lat="45.92622" lon="4.73638">
        <ele>173</ele>
        <time>2018-01-12T11:27:52Z</time>
      </trkpt>
      <trkpt lat="45.92618" lon="4.73634">
        <ele>173</ele>
        <time>2018-01-12T11:27:53Z</time>
      </trkpt>
      <trkpt lat="45.92613" lon="4.73631">
        <ele>173</ele>
        <time>2018-01-12T11:27:54Z</time>
      </trkpt>
      <trkpt lat="45.92609" lon="4.73628">
        <ele>173</ele>
        <time>2018-01-12T11:27:55Z</time>
      </trkpt>
      <trkpt lat="45.92603" lon="4.73626">
        <ele>173</ele>
        <time>2018-01-12T11:27:56Z</time>
      </trkpt>
      <trkpt lat="45.92598" lon="4.73625">
        <ele>173</ele>
        <time>2018-01-12T11:27:57Z</time>
      </trkpt>
      <trkpt lat="45.92589" lon="4.73624">
        <ele>173</ele>
        <time>2018-01-12T11:27:59Z</time>
      </trkpt>
      <trkpt lat="45.92584" lon="4.73624">
        <ele>172</ele>
        <time>2018-01-12T11:28:00Z</time>
      </trkpt>
      <trkpt lat="45.92575" lon="4.73627">
        <ele>173</ele>
        <time>2018-01-12T11:28:02Z</time>
      </trkpt>
      <trkpt lat="45.92572" lon="4.73628">
        <ele>173</ele>
        <time>2018-01-12T11:28:03Z</time>
      </trkpt>
      <trkpt lat="45.92567" lon="4.73629">
        <ele>173</ele>
        <time>2018-01-12T11:28:04Z</time>
      </trkpt>
      <trkpt lat="45.92563" lon="4.7363">
        <ele>173</ele>
        <time>2018-01-12T11:28:05Z</time>
      </trkpt>
      <trkpt lat="45.92558" lon="4.73632">
        <ele>173</ele>
        <time>2018-01-12T11:28:06Z</time>
      </trkpt>
      <trkpt lat="45.92554" lon="4.73633">
        <ele>173</ele>
        <time>2018-01-12T11:28:07Z</time>
      </trkpt>
      <trkpt lat="45.92548" lon="4.73632">
        <ele>173</ele>
        <time>2018-01-12T11:28:08Z</time>
      </trkpt>
      <trkpt lat="45.92544" lon="4.73633">
        <ele>173</ele>
        <time>2018-01-12T11:28:09Z</time>
      </trkpt>
      <trkpt lat="45.92535" lon="4.73635">
        <ele>173</ele>
        <time>2018-01-12T11:28:11Z</time>
      </trkpt>
      <trkpt lat="45.92532" lon="4.73636">
        <ele>173</ele>
        <time>2018-01-12T11:28:12Z</time>
      </trkpt>
      <trkpt lat="45.92524" lon="4.73638">
        <ele>173</ele>
        <time>2018-01-12T11:28:14Z</time>
      </trkpt>
      <trkpt lat="45.9252" lon="4.73639">
        <ele>173</ele>
        <time>2018-01-12T11:28:15Z</time>
      </trkpt>
      <trkpt lat="45.92511" lon="4.7364">
        <ele>174</ele>
        <time>2018-01-12T11:28:17Z</time>
      </trkpt>
      <trkpt lat="45.92507" lon="4.7364">
        <ele>174</ele>
        <time>2018-01-12T11:28:18Z</time>
      </trkpt>
      <trkpt lat="45.92499" lon="4.7364">
        <ele>174</ele>
        <time>2018-01-12T11:28:20Z</time>
      </trkpt>
      <trkpt lat="45.92495" lon="4.73639">
        <ele>174</ele>
        <time>2018-01-12T11:28:21Z</time>
      </trkpt>
      <trkpt lat="45.92487" lon="4.73639">
        <ele>174</ele>
        <time>2018-01-12T11:28:23Z</time>
      </trkpt>
      <trkpt lat="45.92483" lon="4.73639">
        <ele>174</ele>
        <time>2018-01-12T11:28:24Z</time>
      </trkpt>
      <trkpt lat="45.92476" lon="4.73643">
        <ele>174</ele>
        <time>2018-01-12T11:28:26Z</time>
      </trkpt>
      <trkpt lat="45.92473" lon="4.73646">
        <ele>174</ele>
        <time>2018-01-12T11:28:27Z</time>
      </trkpt>
      <trkpt lat="45.92469" lon="4.73655">
        <ele>174</ele>
        <time>2018-01-12T11:28:29Z</time>
      </trkpt>
      <trkpt lat="45.92468" lon="4.7366">
        <ele>174</ele>
        <time>2018-01-12T11:28:30Z</time>
      </trkpt>
      <trkpt lat="45.92467" lon="4.73671">
        <ele>174</ele>
        <time>2018-01-12T11:28:32Z</time>
      </trkpt>
      <trkpt lat="45.92467" lon="4.73677">
        <ele>174</ele>
        <time>2018-01-12T11:28:33Z</time>
      </trkpt>
      <trkpt lat="45.92467" lon="4.73687">
        <ele>174</ele>
        <time>2018-01-12T11:28:35Z</time>
      </trkpt>
      <trkpt lat="45.92467" lon="4.73693">
        <ele>174</ele>
        <time>2018-01-12T11:28:36Z</time>
      </trkpt>
      <trkpt lat="45.92466" lon="4.73705">
        <ele>174</ele>
        <time>2018-01-12T11:28:39Z</time>
      </trkpt>
      <trkpt lat="45.92466" lon="4.73706">
        <ele>174</ele>
        <time>2018-01-12T11:28:40Z</time>
      </trkpt>
      <trkpt lat="45.92463" lon="4.73712">
        <ele>174</ele>
        <time>2018-01-12T11:29:32.477Z</time>
      </trkpt>
    </trkseg>
  </trk>
</gpx>